# Wetter Temperatur Luftdruck Luftfeuchtigkeit Sichtweite Windgeschwindigkeit Windrichtung Zeit
1 Rain 24 1016 100 0 2.38 15 10:57 08.04.2020
2 Rain 24 1016 100 0 2.38 15 10:39 08.04.2020
3 Rain 24 1016 100 0 2.38 15 10:20 08.04.2020
4 Rain 24 1016 100 0 2.38 15 09:55 08.04.2020
5 Clouds 24 1014 94 10000 2.1 30 09:37 08.04.2020
6 Clouds 24 1014 94 10000 2.1 30 09:18 08.04.2020
7 Clouds 24 1014 94 10000 2.1 30 08:42 08.04.2020
8 Clouds 24 1014 94 10000 2.1 30 08:23 08.04.2020
9 Rain 24 1017 100 0 2.4 12 07:44 08.04.2020
10 Rain 24 1017 100 0 2.4 12 07:25 08.04.2020
11 Rain 24 1018 100 0 2.4 12 06:56 08.04.2020
12 Rain 24 1016 100 7000 2.1 20 06:19 08.04.2020
13 Rain 24 1018 100 0 2.63 22 04:19 08.04.2020
14 Rain 25 1017 100 0 2.35 57 02:49 08.04.2020
15 Clouds 26 1014 78 10000 3.1 130 02:20 08.04.2020
16 Clouds 27 1014 78 10000 3.1 130 01:45 08.04.2020
17 Clouds 28 1013 74 10000 3.1 150 01:23 08.04.2020
18 Clouds 28 1013 74 10000 3.1 150 00:41 08.04.2020
19 Clouds 28 1013 74 10000 3.1 150 00:21 08.04.2020
20 Clouds 29 1013 66 10000 3.1 170 23:39 07.04.2020
21 Clouds 29 1013 66 10000 3.1 170 23:20 07.04.2020
22 Clouds 30 1014 62 10000 3.1 170 22:57 07.04.2020
23 Clouds 30 1014 62 10000 3.1 170 22:57 07.04.2020
24 Clouds 30 1014 62 10000 3.1 170 22:39 07.04.2020
25 Clouds 30 1014 62 10000 3.1 170 22:19 07.04.2020
26 Clouds 30 1014 58 10000 4.1 190 21:56 07.04.2020
27 Clouds 30 1014 58 10000 4.1 190 21:56 07.04.2020
28 Clouds 31 1016 59 10000 2.12 139 21:38 07.04.2020
29 Clouds 31 1016 59 10000 2.76 85 21:19 07.04.2020
30 Clouds 31 1016 59 10000 2.76 85 20:55 07.04.2020
31 Clouds 31 1016 59 10000 2.76 85 20:37 07.04.2020
32 Clouds 31 1016 59 10000 2.76 85 20:18 07.04.2020
33 Clouds 31 1016 62 10000 4.1 140 19:56 07.04.2020
34 Clouds 31 1016 62 10000 4.1 140 19:36 07.04.2020
35 Clouds 31 1017 66 10000 4.1 170 19:18 07.04.2020
36 Clouds 31 1017 66 10000 4.1 170 19:18 07.04.2020
37 Clouds 31 1017 66 10000 4.1 170 18:41 07.04.2020
38 Clouds 30 1017 70 10000 2.1 90 18:21 07.04.2020
39 Clouds 30 1017 70 10000 2.1 90 17:57 07.04.2020
40 Clouds 30 1017 70 10000 2.1 90 17:38 07.04.2020
41 Clouds 29 1017 70 10000 2.1 90 17:20 07.04.2020
42 Clouds 29 1017 78 10000 2.1 330 16:45 07.04.2020
43 Clouds 28 1016 83 10000 2.1 360 16:26 07.04.2020
44 Clouds 27 1016 83 10000 2.1 360 15:46 07.04.2020
45 Clouds 26 1016 83 10000 2.1 360 15:27 07.04.2020
46 Clouds 26 1016 83 10000 1.65 8 14:57 07.04.2020
47 Clouds 26 1016 83 10000 1.65 8 14:38 07.04.2020
48 Clouds 26 1016 83 10000 2.03 16 14:19 07.04.2020
49 Clouds 25 1015 88 10000 2.03 16 13:43 07.04.2020
50 Clouds 25 1015 88 10000 2.03 16 13:20 07.04.2020
51 Clouds 26 1018 94 0 2.03 16 12:58 07.04.2020
52 Clouds 25 1015 88 10000 2.03 16 12:39 07.04.2020
53 Clouds 25 1015 88 10000 2.51 3 12:21 07.04.2020
54 Clouds 25 1015 88 10000 2.51 3 11:58 07.04.2020
55 Clouds 25 1015 88 10000 2.51 3 11:39 07.04.2020
56 Clouds 25 1015 88 10000 2.51 3 11:19 07.04.2020
57 Clouds 25 1015 82 0 0.89 19 10:39 07.04.2020
58 Clouds 25 1015 81 0 0.89 47 10:20 07.04.2020
59 Clouds 25 1015 81 0 1.34 48 09:56 07.04.2020
60 Clouds 25 1016 88 10000 1.5 40 09:38 07.04.2020
61 Clouds 25 1016 88 10000 1.5 40 09:18 07.04.2020
62 Clouds 25 1016 88 10000 1.5 40 08:40 07.04.2020
63 Clouds 25 1016 88 10000 1.5 40 08:21 07.04.2020
64 Clouds 26 1018 94 0 2.38 7 07:47 07.04.2020
65 Clouds 26 1019 94 0 2.38 7 07:26 07.04.2020
66 Clouds 26 1019 94 0 2.38 7 06:53 07.04.2020
67 Clouds 26 1016 83 10000 2.1 70 06:27 07.04.2020
68 Clouds 26 1016 83 10000 2.1 70 05:59 07.04.2020
69 Clouds 26 1016 83 10000 2.1 70 05:26 07.04.2020
70 Rain 26 1018 94 0 2.67 19 04:22 07.04.2020
71 Clouds 27 1014 83 10000 2.1 120 03:23 07.04.2020
72 Clouds 27 1014 83 10000 2.1 120 02:46 07.04.2020
73 Clouds 27 1014 78 10000 2.1 130 01:40 07.04.2020
74 Clouds 27 1014 78 10000 2.1 130 01:21 07.04.2020
75 Clouds 28 1014 70 10000 4.1 160 00:26 07.04.2020
76 Clouds 29 1013 70 10000 4.1 170 23:43 06.04.2020
77 Clouds 29 1013 70 10000 4.1 170 23:22 06.04.2020
78 Clouds 29 1013 70 10000 4.1 170 23:22 06.04.2020
79 Clouds 29 1013 66 10000 3.6 170 22:55 06.04.2020
80 Clouds 29 1013 66 10000 3.6 170 22:36 06.04.2020
81 Clouds 30 1013 66 10000 3.6 170 22:18 06.04.2020
82 Clouds 30 1014 58 10000 4.1 190 21:43 06.04.2020
83 Clouds 30 1015 59 10000 4.1 180 21:20 06.04.2020
84 Clouds 31 1015 59 10000 4.1 180 20:58 06.04.2020
85 Clouds 31 1015 59 10000 4.1 180 20:58 06.04.2020
86 Clouds 31 1015 59 10000 4.1 180 20:40 06.04.2020
87 Clouds 31 1015 59 10000 4.1 180 20:21 06.04.2020
88 Clouds 30 1015 62 10000 3.1 160 19:58 06.04.2020
89 Clouds 30 1015 62 10000 3.1 160 19:38 06.04.2020
90 Clouds 30 1015 62 10000 3.1 160 19:20 06.04.2020
91 Clouds 30 1016 62 10000 6.2 150 18:43 06.04.2020
92 Clouds 30 1016 62 10000 6.2 150 18:24 06.04.2020
93 Clouds 30 1016 70 10000 4.1 250 17:58 06.04.2020
94 Clouds 30 1016 70 10000 4.1 250 17:39 06.04.2020
95 Clouds 30 1016 70 10000 4.1 250 17:18 06.04.2020
96 Clouds 29 1017 78 10000 2.05 83 16:49 06.04.2020
97 Clouds 28 1017 78 10000 2.05 83 16:30 06.04.2020
98 Clouds 25 1015 88 10000 2.1 24 14:57 06.04.2020
99 Clouds 25 1015 88 10000 2.1 24 14:57 06.04.2020
100 Clouds 25 1015 88 10000 2.1 24 14:56 06.04.2020
101 Clouds 25 1015 88 10000 2.1 24 14:49 06.04.2020
102 Clouds 25 1015 88 10000 2.1 24 14:49 06.04.2020
103 Clouds 24 1015 94 10000 1 0 13:45 06.04.2020
104 Clouds 24 1015 94 10000 1 0 13:45 06.04.2020
105 Clouds 23 1015 94 10000 1 0 13:22 06.04.2020
106 Clouds 25 1017 92 0 2.36 4 12:46 06.04.2020
107 Clouds 23 1014 94 10000 2.1 10 12:19 06.04.2020
108 Clouds 23 1014 94 10000 2.1 10 11:40 06.04.2020
109 Clouds 23 1014 94 10000 2.1 10 11:18 06.04.2020
110 Clouds 24 1014 80 0 1.34 34 10:38 06.04.2020
111 Clouds 24 1014 79 0 1.34 22 10:20 06.04.2020
112 Clouds 24 1014 79 0 1.34 22 10:20 06.04.2020
113 Clouds 24 1014 79 0 1.34 22 10:20 06.04.2020
114 Clouds 24 1014 79 0 1.34 22 10:20 06.04.2020
115 Clouds 24 1014 79 0 1.34 22 10:20 06.04.2020
116 Clouds 25 1014 79 0 1.34 38 09:40 06.04.2020
117 Clouds 25 1014 79 0 1.34 38 09:40 06.04.2020
118 Clouds 24 1015 88 10000 2.1 90 09:19 06.04.2020
119 Clouds 24 1015 88 10000 2.1 90 08:44 06.04.2020
120 Clouds 24 1015 88 10000 2.1 90 08:44 06.04.2020
121 Clouds 24 1015 88 10000 2.1 90 08:44 06.04.2020
122 Clouds 24 1015 88 10000 2.1 90 08:44 06.04.2020
123 Clouds 24 1015 88 10000 2.1 90 08:43 06.04.2020
124 Clouds 24 1015 88 10000 2.1 90 08:23 06.04.2020
125 Clouds 25 1015 78 0 1.34 3 07:23 06.04.2020
126 Clouds 25 1015 78 0 1.34 3 07:23 06.04.2020
127 Clouds 25 1015 78 0 1.34 3 07:23 06.04.2020
128 Clouds 25 1015 78 0 1.34 3 07:23 06.04.2020
129 Clouds 25 1015 78 0 1.34 3 07:23 06.04.2020
130 Clouds 25 1016 83 10000 2.1 50 06:27 06.04.2020
131 Clouds 25 1016 83 10000 2.1 50 05:51 06.04.2020
132 Clouds 26 1018 92 0 3.21 15 03:56 06.04.2020
133 Clouds 27 1014 74 10000 3.1 60 02:51 06.04.2020
134 Clouds 27 1014 69 10000 2.6 60 01:54 06.04.2020
135 Clouds 28 1013 69 10000 4.1 130 00:54 06.04.2020
136 Clouds 28 1013 69 10000 4.1 130 00:28 06.04.2020
137 Clouds 29 1012 62 10000 3.1 140 23:51 05.04.2020
138 Clouds 29 1012 62 10000 3.1 140 23:33 05.04.2020
139 Clouds 29 1012 62 10000 3.1 140 22:57 05.04.2020
140 Clouds 30 1012 55 10000 2.6 160 22:39 05.04.2020
141 Clouds 30 1012 55 10000 2.6 160 22:21 05.04.2020
142 Clouds 30 1012 55 10000 2.6 160 21:59 05.04.2020
143 Clouds 30 1012 52 10000 3.6 170 21:40 05.04.2020
144 Clouds 31 1013 62 10000 2.17 99 21:22 05.04.2020
145 Clouds 31 1013 62 10000 2.83 84 20:22 05.04.2020
146 Clouds 31 1013 62 10000 2.83 84 20:22 05.04.2020
147 Clouds 30 1014 66 10000 4.1 90 19:42 05.04.2020
148 Clouds 30 1014 66 10000 4.1 90 19:22 05.04.2020
149 Clouds 30 1015 70 10000 2.1 330 18:47 05.04.2020
150 Clouds 29 1015 70 10000 4.1 30 17:59 05.04.2020
151 Clouds 29 1015 70 10000 4.1 30 17:59 05.04.2020
152 Clouds 29 1015 70 10000 4.1 30 17:59 05.04.2020
153 Clouds 29 1015 70 10000 4.1 30 17:59 05.04.2020
154 Clouds 29 1015 70 10000 4.1 30 17:40 05.04.2020
155 Clouds 29 1015 70 10000 4.1 30 17:40 05.04.2020
156 Clouds 29 1015 70 10000 4.1 30 17:40 05.04.2020
157 Clouds 29 1015 70 10000 4.1 30 17:40 05.04.2020
158 Clouds 29 1015 70 10000 4.1 30 17:20 05.04.2020
159 Clouds 28 1015 74 10000 5.1 60 16:46 05.04.2020
160 Clouds 28 1015 74 10000 5.1 60 16:46 05.04.2020
161 Clouds 28 1015 74 10000 5.1 60 16:46 05.04.2020
162 Clouds 28 1015 74 10000 5.1 60 16:46 05.04.2020
163 Clouds 28 1015 74 10000 5.1 60 16:46 05.04.2020
164 Clouds 28 1015 74 10000 5.1 60 16:18 05.04.2020
165 Clouds 27 1015 83 10000 4.1 360 15:45 05.04.2020
166 Clouds 26 1015 83 10000 4.1 360 15:25 05.04.2020
167 Clouds 25 1014 100 10000 5.1 330 14:48 05.04.2020
168 Clouds 25 1014 100 10000 5.1 330 14:48 05.04.2020
169 Clouds 24 1013 94 10000 2.1 360 13:47 05.04.2020
170 Clouds 24 1013 94 10000 2.1 360 13:47 05.04.2020
171 Clouds 24 1013 94 10000 2.1 360 13:47 05.04.2020
172 Clouds 24 1013 94 10000 2.1 360 13:47 05.04.2020
173 Clouds 24 1013 94 10000 2.1 360 13:47 05.04.2020
174 Clouds 24 1013 94 10000 2.1 360 12:57 05.04.2020
175 Clouds 24 1013 94 10000 2.1 360 12:57 05.04.2020
176 Clouds 24 1012 94 10000 2.1 20 11:58 05.04.2020
177 Clouds 24 1012 94 10000 2.1 20 11:58 05.04.2020
178 Clouds 24 1012 94 10000 2.1 20 11:58 05.04.2020
179 Clouds 24 1012 94 10000 2.1 20 11:38 05.04.2020
180 Clouds 24 1012 94 10000 2.1 20 11:19 05.04.2020
181 Clouds 25 1012 84 0 1.34 31 10:44 05.04.2020
182 Clouds 25 1012 84 0 1.34 31 10:44 05.04.2020
183 Clouds 25 1012 84 0 1.34 31 10:44 05.04.2020
184 Clouds 25 1012 84 0 1.34 31 10:44 05.04.2020
185 Clouds 25 1012 84 0 0.89 9 10:19 05.04.2020
186 Clouds 25 1012 84 0 1.79 356 09:52 05.04.2020
187 Clouds 25 1012 84 0 1.79 356 09:52 05.04.2020
188 Clouds 25 1012 88 10000 2.1 40 09:25 05.04.2020
189 Clouds 25 1012 88 10000 2.1 40 09:25 05.04.2020
190 Clouds 25 1012 88 10000 2.1 40 09:25 05.04.2020
191 Clouds 25 1012 88 10000 2.1 40 09:25 05.04.2020
192 Clouds 25 1012 88 10000 2.1 40 07:58 05.04.2020
193 Clouds 25 1014 83 10000 2.6 60 04:56 05.04.2020
194 Rain 26 1013 79 0 2.6 360 03:35 05.04.2020
195 Rain 26 1013 79 0 2.6 360 03:35 05.04.2020
196 Rain 26 1013 79 0 2.6 360 03:35 05.04.2020
197 Clouds 26 1012 78 10000 3.36 11 02:53 05.04.2020
198 Clouds 27 1011 78 10000 3.69 26 01:51 05.04.2020
199 Clouds 27 1011 78 10000 3.69 26 01:32 05.04.2020
200 Clouds 27 1011 69 10000 2.1 190 00:47 05.04.2020
201 Clouds 28 1011 69 10000 2.1 190 00:22 05.04.2020
202 Clouds 28 1011 69 10000 2.1 190 00:22 05.04.2020
203 Clouds 28 1010 66 10000 3.1 190 23:57 04.04.2020
204 Clouds 29 1010 66 10000 3.1 190 23:38 04.04.2020
205 Clouds 29 1010 66 10000 3.1 190 23:19 04.04.2020
206 Clouds 29 1010 62 10000 3.1 180 22:55 04.04.2020
207 Clouds 29 1010 62 10000 3.1 180 22:37 04.04.2020
208 Clouds 30 1010 62 10000 3.1 180 22:19 04.04.2020
209 Clouds 30 1010 62 10000 3.1 200 21:54 04.04.2020
210 Clouds 30 1010 62 10000 3.1 200 21:36 04.04.2020
211 Clouds 31 1011 52 10000 4.1 200 21:18 04.04.2020
212 Clouds 31 1011 52 10000 4.1 200 20:42 04.04.2020
213 Clouds 31 1011 52 10000 4.1 200 20:23 04.04.2020
214 Clouds 31 1011 52 10000 4.1 200 19:58 04.04.2020
215 Clouds 31 1012 62 10000 2.55 114 19:37 04.04.2020
216 Clouds 31 1012 62 10000 2.55 114 19:19 04.04.2020
217 Clouds 31 1013 59 10000 3.1 120 18:57 04.04.2020
218 Clouds 31 1013 59 10000 3.1 120 18:57 04.04.2020
219 Clouds 31 1013 59 10000 3.1 120 18:38 04.04.2020
220 Clouds 31 1013 59 10000 3.1 120 18:38 04.04.2020
221 Clouds 31 1013 59 10000 3.1 120 18:19 04.04.2020
222 Clouds 30 1013 62 10000 2.6 60 17:56 04.04.2020
223 Clouds 30 1013 62 10000 2.6 60 17:38 04.04.2020
224 Clouds 30 1013 62 10000 2.6 60 17:38 04.04.2020
225 Clouds 30 1013 62 10000 2.6 60 17:18 04.04.2020
226 Clouds 29 1013 70 10000 2.6 30 16:42 04.04.2020
227 Clouds 28 1013 70 10000 2.6 30 16:22 04.04.2020
228 Clouds 28 1013 70 10000 2.6 30 15:56 04.04.2020
229 Clouds 27 1013 78 10000 2.6 30 15:38 04.04.2020
230 Clouds 27 1013 78 10000 2.6 30 15:18 04.04.2020
231 Clouds 26 1013 88 10000 2.1 20 14:43 04.04.2020
232 Clouds 25 1013 88 10000 2.1 20 14:23 04.04.2020
233 Clouds 24 1012 94 10000 2.1 50 13:56 04.04.2020
234 Clouds 24 1012 94 10000 2.1 50 13:38 04.04.2020
235 Clouds 24 1012 94 10000 2.1 50 13:19 04.04.2020
236 Clouds 24 1012 94 10000 2.1 50 13:19 04.04.2020
237 Clear 26 1014 89 0 2.01 5 12:45 04.04.2020
238 Clear 26 1014 89 0 2.01 5 12:27 04.04.2020
239 Clouds 24 1012 85 0 1.34 15 11:59 04.04.2020
240 Clouds 25 1011 84 0 1.34 6 11:39 04.04.2020
241 Clouds 25 1011 84 0 1.79 3 11:21 04.04.2020
242 Clouds 25 1011 79 0 1.77 346 10:56 04.04.2020
243 Clouds 25 1011 79 0 1.77 346 10:38 04.04.2020
244 Clouds 25 1011 79 0 1.77 346 10:19 04.04.2020
245 Clouds 25 1011 79 0 1.77 346 09:55 04.04.2020
246 Clouds 22 1012 81 0 1.77 346 09:36 04.04.2020
247 Clouds 24 1011 88 10000 2.6 40 09:18 04.04.2020
248 Clouds 24 1011 88 10000 2.6 40 08:41 04.04.2020
249 Clouds 23 1011 88 10000 2.6 40 08:21 04.04.2020
250 Clouds 23 1011 88 10000 2.6 40 08:21 04.04.2020
251 Clouds 23 1013 78 0 1.43 344 07:46 04.04.2020
252 Clouds 27 1012 72 0 0.45 37 07:26 04.04.2020
253 Clouds 27 1015 89 0 1.43 344 06:53 04.04.2020
254 Clouds 26 1013 88 10000 2.1 40 06:20 04.04.2020
255 Clouds 26 1013 88 10000 2.1 40 05:43 04.04.2020
256 Clouds 26 1013 88 10000 2.1 40 05:43 04.04.2020
257 Clouds 26 1013 88 10000 2.1 40 05:24 04.04.2020
258 Clouds 27 1015 89 0 1.98 343 04:31 04.04.2020
259 Clouds 27 1015 89 0 1.98 343 03:51 04.04.2020
260 Clouds 27 1011 78 10000 2.1 170 02:52 04.04.2020
261 Clouds 27 1011 78 10000 2.1 170 02:33 04.04.2020
262 Clouds 27 1011 74 10000 2.1 150 01:55 04.04.2020
263 Clouds 27 1011 74 10000 2.1 150 01:25 04.04.2020
264 Clouds 27 1010 74 10000 4.1 180 00:49 04.04.2020
265 Clouds 28 1010 74 10000 4.1 180 00:30 04.04.2020
266 Clouds 28 1010 74 10000 4.1 220 23:40 03.04.2020
267 Clouds 29 1010 74 10000 4.1 220 23:21 03.04.2020
268 Clouds 29 1010 74 10000 4.1 220 22:58 03.04.2020
269 Clouds 29 1011 70 10000 4.1 220 22:39 03.04.2020
270 Clouds 29 1011 70 10000 4.1 220 22:18 03.04.2020
271 Clouds 29 1011 66 10000 4.1 210 21:44 03.04.2020
272 Clouds 30 1013 62 10000 5.1 180 21:25 03.04.2020
273 Clouds 30 1013 62 10000 5.1 180 20:57 03.04.2020
274 Clouds 30 1013 62 10000 5.1 180 20:38 03.04.2020
275 Clouds 30 1013 62 10000 5.1 180 20:19 03.04.2020
276 Clouds 30 1013 62 10000 6.2 180 19:57 03.04.2020
277 Clouds 30 1013 62 10000 6.2 180 19:39 03.04.2020
278 Clouds 30 1013 62 10000 6.2 180 19:21 03.04.2020
279 Clouds 29 1014 66 10000 5.1 160 18:59 03.04.2020
280 Clouds 29 1014 66 10000 5.1 160 18:59 03.04.2020
281 Clouds 29 1014 66 10000 5.1 160 18:41 03.04.2020
282 Clouds 29 1014 66 10000 5.1 160 18:23 03.04.2020
283 Clouds 29 1015 66 10000 5.1 120 17:55 03.04.2020
284 Clouds 29 1015 66 10000 5.1 120 17:37 03.04.2020
285 Clouds 28 1015 78 10000 3.1 120 17:18 03.04.2020
286 Clouds 28 1015 78 10000 3.1 120 16:44 03.04.2020
287 Clouds 28 1015 78 10000 3.1 120 16:22 03.04.2020
288 Clouds 27 1014 83 10000 2.84 160 15:58 03.04.2020
289 Clouds 27 1014 83 10000 2.84 160 15:39 03.04.2020
290 Clouds 26 1014 83 10000 2.84 160 15:20 03.04.2020
291 Clouds 23 1013 88 10000 0.63 254 14:56 03.04.2020
292 Clear 26 1016 93 0 0.63 254 14:37 03.04.2020
293 Clouds 25 1013 100 10000 2.1 60 14:19 03.04.2020
294 Clouds 24 1013 100 10000 2.1 60 13:43 03.04.2020
295 Clouds 23 1013 100 10000 2.1 60 13:25 03.04.2020
296 Clear 24 1015 100 0 0.47 259 12:55 03.04.2020
297 Clear 25 1015 93 0 0.47 259 12:37 03.04.2020
298 Clouds 20 1011 94 10000 2.1 80 12:18 03.04.2020
299 Clouds 22 1011 94 10000 2.1 80 11:41 03.04.2020
300 Clouds 22 1011 94 10000 2.1 80 11:23 03.04.2020
301 Clouds 22 1011 94 10000 2.1 80 10:59 03.04.2020
302 Clear 24 1012 82 0 1.27 285 10:40 03.04.2020
303 Clear 24 1012 82 0 1.27 285 10:20 03.04.2020
304 Clear 24 1012 81 0 1.27 285 09:59 03.04.2020
305 Clear 26 1012 78 0 1.27 285 09:40 03.04.2020
306 Clouds 24 1012 94 10000 1.27 285 09:22 03.04.2020
307 Clouds 24 1012 94 10000 1.33 247 08:57 03.04.2020
308 Clouds 23 1012 94 10000 1.33 247 08:38 03.04.2020
309 Clouds 24 1012 94 10000 1.33 247 08:20 03.04.2020
310 Clouds 22 1013 77 0 1.33 247 07:46 03.04.2020
311 Clouds 22 1013 77 0 1.33 247 07:28 03.04.2020
312 Clouds 26 1013 79 0 1.34 222 06:41 03.04.2020
313 Clouds 25 1014 88 10000 2.1 160 06:22 03.04.2020
314 Clouds 25 1014 88 10000 2.1 160 05:39 03.04.2020
315 Clouds 26 1015 93 0 1.54 228 03:42 03.04.2020
316 Clouds 26 1012 74 10000 2.1 200 02:56 03.04.2020
317 Clouds 26 1012 74 10000 2.1 200 02:18 03.04.2020
318 Clouds 27 1012 69 10000 2.1 200 01:22 03.04.2020
319 Clouds 27 1011 65 10000 3.6 210 00:34 03.04.2020
320 Clouds 28 1011 62 10000 3.6 210 23:58 02.04.2020
321 Clouds 28 1011 62 10000 3.6 210 23:40 02.04.2020
322 Clouds 28 1011 62 10000 3.6 210 23:21 02.04.2020
323 Clouds 28 1011 62 10000 3.6 210 22:57 02.04.2020
324 Clouds 28 1012 62 10000 3.74 169 22:37 02.04.2020
325 Clouds 28 1012 62 10000 3.74 169 22:18 02.04.2020
326 Clouds 29 1012 58 10000 3.1 180 21:39 02.04.2020
327 Clouds 29 1013 49 10000 5.1 180 21:19 02.04.2020
328 Clouds 30 1013 49 10000 5.1 180 20:57 02.04.2020
329 Clouds 29 1013 49 10000 5.1 180 20:39 02.04.2020
330 Clouds 30 1013 49 10000 5.1 180 20:19 02.04.2020
331 Clouds 29 1014 49 10000 5.1 180 19:43 02.04.2020
332 Clouds 30 1014 49 10000 5.1 180 19:21 02.04.2020
333 Clouds 30 1014 49 10000 5.1 180 19:21 02.04.2020
334 Clouds 29 1014 58 10000 5.1 180 18:58 02.04.2020
335 Clouds 29 1014 58 10000 5.1 180 18:39 02.04.2020
336 Clouds 29 1014 58 10000 5.1 180 18:20 02.04.2020
337 Clouds 29 1015 66 10000 5.1 180 17:55 02.04.2020
338 Clouds 29 1015 66 10000 5.1 180 17:37 02.04.2020
339 Clouds 29 1015 66 10000 5.1 180 17:18 02.04.2020
340 Clouds 28 1015 74 10000 4.1 130 16:55 02.04.2020
341 Clouds 28 1015 74 10000 4.1 130 16:36 02.04.2020
342 Clouds 28 1015 74 10000 4.1 130 16:36 02.04.2020
343 Clouds 28 1015 74 10000 4.1 130 16:18 02.04.2020
344 Clouds 28 1015 74 10000 4.1 130 16:18 02.04.2020
345 Clouds 26 1014 78 10000 3.53 170 15:44 02.04.2020
346 Clouds 26 1014 78 10000 3.53 170 15:44 02.04.2020
347 Clouds 25 1014 78 10000 3.53 170 15:21 02.04.2020
348 Clouds 25 1014 78 10000 0.93 238 14:58 02.04.2020
349 Clouds 23 1014 83 10000 2.1 50 14:39 02.04.2020
350 Clouds 24 1014 83 10000 2.1 50 14:19 02.04.2020
351 Clouds 23 1014 100 10000 2.1 40 13:56 02.04.2020
352 Clouds 23 1014 100 10000 2.1 40 13:38 02.04.2020
353 Clouds 23 1014 100 10000 2.1 40 13:19 02.04.2020
354 Clear 24 1014 82 0 0.45 302 12:47 02.04.2020
355 Clouds 21 1012 94 10000 2.1 80 12:21 02.04.2020
356 Clouds 21 1012 94 10000 2.1 80 11:58 02.04.2020
357 Clouds 22 1012 94 10000 2.1 80 11:40 02.04.2020
358 Clouds 23 1012 94 10000 2.1 80 11:21 02.04.2020
359 Clouds 23 1012 94 10000 2.1 80 10:57 02.04.2020
360 Clear 23 1013 83 0 0.89 308 10:39 02.04.2020
361 Clear 23 1012 83 0 1.23 299 10:21 02.04.2020
362 Clear 23 1012 83 0 1.23 299 09:59 02.04.2020
363 Clear 23 1012 83 0 1.23 299 09:41 02.04.2020
364 Clouds 23 1013 94 10000 2.1 40 09:23 02.04.2020
365 Clouds 23 1013 94 10000 2.1 40 08:57 02.04.2020
366 Clouds 23 1013 94 10000 2.1 40 08:38 02.04.2020
367 Clouds 23 1013 94 10000 2.1 40 08:19 02.04.2020
368 Clear 24 1013 83 0 1.01 279 07:42 02.04.2020
369 Clear 24 1013 82 0 1.01 279 07:19 02.04.2020
370 Clouds 22 1014 88 10000 3.1 140 06:26 02.04.2020
371 Clouds 22 1014 88 10000 3.1 140 05:59 02.04.2020
372 Clouds 22 1014 88 10000 3.1 140 05:41 02.04.2020
373 Clouds 26 1012 83 10000 2.73 179 02:46 02.04.2020
374 Clouds 26 1011 78 10000 2.1 160 01:28 02.04.2020
375 Clouds 27 1011 69 10000 2.1 170 00:42 02.04.2020
376 Clouds 27 1011 69 10000 2.1 170 00:22 02.04.2020
377 Clouds 28 1010 66 10000 3.1 170 23:40 01.04.2020
378 Clouds 28 1010 66 10000 3.1 170 23:20 01.04.2020
379 Clouds 28 1011 62 10000 4.1 190 22:57 01.04.2020
380 Clouds 28 1011 62 10000 4.1 190 22:57 01.04.2020
381 Clouds 28 1011 62 10000 4.1 190 22:38 01.04.2020
382 Clouds 29 1011 62 10000 4.1 190 22:19 01.04.2020
383 Clouds 29 1011 62 10000 4.1 200 21:41 01.04.2020
384 Clouds 29 1012 55 10000 5.1 180 21:19 01.04.2020
385 Clouds 29 1012 55 10000 5.1 180 20:57 01.04.2020
386 Clouds 29 1012 55 10000 5.1 180 20:38 01.04.2020
387 Clouds 29 1012 55 10000 5.1 180 20:20 01.04.2020
388 Clouds 29 1012 55 10000 5.1 180 19:58 01.04.2020
389 Clouds 29 1012 62 10000 4.1 180 19:39 01.04.2020
390 Clouds 29 1012 62 10000 4.1 180 19:19 01.04.2020
391 Clouds 29 1012 62 10000 4.1 180 19:19 01.04.2020
392 Clouds 28 1013 66 10000 5.1 160 18:42 01.04.2020
393 Clouds 28 1013 66 10000 5.1 160 18:24 01.04.2020
394 Clouds 28 1014 66 10000 5.1 210 17:57 01.04.2020
395 Clouds 28 1014 66 10000 5.1 210 17:38 01.04.2020
396 Clouds 28 1014 66 10000 5.1 210 17:19 01.04.2020
397 Clouds 28 1014 66 10000 5.1 210 16:58 01.04.2020
398 Clouds 27 1014 74 10000 3.5 165 16:39 01.04.2020
399 Clouds 27 1014 74 10000 3.5 165 16:21 01.04.2020
400 Clouds 26 1014 78 10000 3.5 165 15:57 01.04.2020
401 Clouds 26 1014 78 10000 3.5 165 15:37 01.04.2020
402 Clouds 24 1014 78 10000 1.11 341 15:18 01.04.2020
403 Clouds 22 1013 93 10000 1.11 341 14:41 01.04.2020
404 Clouds 22 1013 93 10000 1.12 348 14:23 01.04.2020
405 Clouds 22 1012 100 10000 2.1 50 13:59 01.04.2020
406 Clouds 22 1012 100 10000 2.1 50 13:40 01.04.2020
407 Clouds 21 1012 100 10000 2.1 50 13:20 01.04.2020
408 Clouds 21 1012 100 10000 2.1 50 13:20 01.04.2020
409 Clouds 21 1012 100 10000 2.1 50 12:59 01.04.2020
410 Clear 23 1012 80 0 0.89 342 12:41 01.04.2020
411 Clouds 22 1011 94 10000 1.5 0 12:22 01.04.2020
412 Clouds 22 1011 94 10000 1.5 0 11:57 01.04.2020
413 Clouds 22 1011 94 10000 1.5 0 11:38 01.04.2020
414 Clouds 22 1011 94 10000 1.5 0 11:20 01.04.2020
415 Clear 22 1011 79 0 1.34 349 10:40 01.04.2020
416 Clear 23 1011 80 0 1.34 342 10:21 01.04.2020
417 Clear 22 1011 84 0 1.12 305 09:59 01.04.2020
418 Clear 22 1011 84 0 1.12 305 09:40 01.04.2020
419 Clouds 22 1012 94 10000 2.1 70 09:20 01.04.2020
420 Clouds 22 1012 94 10000 2.1 70 08:54 01.04.2020
421 Clouds 22 1012 94 10000 2.1 70 08:36 01.04.2020
422 Clouds 22 1012 94 10000 2.1 70 08:18 01.04.2020
423 Clear 23 1012 81 0 0.45 66 07:40 01.04.2020
424 Clear 21 1013 78 0 1.34 258 07:19 01.04.2020
425 Clear 21 1013 78 0 1.34 258 06:42 01.04.2020
426 Clouds 25 1013 83 10000 2.1 150 06:20 01.04.2020
427 Clouds 25 1013 83 10000 2.1 150 05:28 01.04.2020
428 Clear 22 1013 78 0 0.85 203 03:40 01.04.2020
429 Clouds 27 1012 74 10000 2.1 140 02:59 01.04.2020
430 Clouds 27 1012 74 10000 2.1 140 02:31 01.04.2020
431 Clouds 27 1012 69 10000 2.1 160 01:49 01.04.2020
432 Clouds 27 1012 69 10000 2.1 160 01:25 01.04.2020
433 Clouds 27 1011 69 10000 3.6 150 00:47 01.04.2020
434 Clouds 27 1011 69 10000 3.6 150 00:22 01.04.2020
435 Clouds 28 1012 66 10000 4.6 160 23:55 31.03.2020
436 Clouds 28 1012 66 10000 4.6 160 23:37 31.03.2020
437 Clouds 28 1012 66 10000 4.6 160 23:19 31.03.2020
438 Clouds 28 1012 58 10000 6.2 190 22:40 31.03.2020
439 Clouds 29 1012 58 10000 6.2 190 22:21 31.03.2020
440 Clouds 29 1012 58 10000 2.6 150 21:58 31.03.2020
441 Clouds 29 1012 58 10000 2.6 150 21:58 31.03.2020
442 Clouds 29 1012 58 10000 2.6 150 21:39 31.03.2020
443 Clouds 29 1014 62 10000 5.1 120 21:21 31.03.2020
444 Clouds 29 1014 62 10000 5.1 120 20:57 31.03.2020
445 Clouds 29 1014 62 10000 5.1 120 20:37 31.03.2020
446 Clouds 29 1014 62 10000 5.1 120 20:18 31.03.2020
447 Clouds 29 1015 66 10000 5.1 120 19:55 31.03.2020
448 Clouds 29 1015 66 10000 5.1 120 19:37 31.03.2020
449 Clouds 29 1015 66 10000 5.1 120 19:18 31.03.2020
450 Clouds 28 1016 66 10000 3.1 90 18:41 31.03.2020
451 Clouds 28 1016 66 10000 3.1 90 18:20 31.03.2020
452 Clouds 28 1017 69 10000 3.1 90 17:56 31.03.2020
453 Clouds 28 1017 69 10000 3.1 90 17:56 31.03.2020
454 Clouds 28 1017 69 10000 3.1 90 17:56 31.03.2020
455 Clouds 28 1017 69 10000 3.1 90 17:38 31.03.2020
456 Clouds 28 1017 69 10000 3.1 90 17:20 31.03.2020
457 Clouds 27 1016 74 10000 4.1 90 16:42 31.03.2020
458 Clouds 27 1016 74 10000 4.1 90 16:20 31.03.2020
459 Clouds 27 1016 74 10000 4.1 90 15:59 31.03.2020
460 Clouds 26 1016 78 10000 3.1 30 15:41 31.03.2020
461 Clouds 23 1015 83 10000 2.41 69 15:23 31.03.2020
462 Clouds 24 1015 83 10000 2.36 359 14:59 31.03.2020
463 Clouds 24 1015 83 10000 2.36 359 14:40 31.03.2020
464 Clouds 23 1015 83 10000 2.15 360 14:21 31.03.2020
465 Clouds 23 1015 94 10000 2.1 10 13:54 31.03.2020
466 Clouds 23 1015 94 10000 2.1 10 13:36 31.03.2020
467 Clouds 22 1015 94 10000 2.1 10 13:18 31.03.2020
468 Clouds 23 1014 94 10000 2.1 360 12:42 31.03.2020
469 Clouds 23 1014 94 10000 2.1 360 12:20 31.03.2020
470 Clouds 23 1013 94 10000 2.1 360 11:55 31.03.2020
471 Clouds 23 1013 94 10000 2.1 360 11:36 31.03.2020
472 Clouds 23 1013 94 10000 2.1 360 11:18 31.03.2020
473 Clear 23 1014 82 0 1.34 357 10:54 31.03.2020
474 Clear 23 1014 81 0 1.34 7 10:36 31.03.2020
475 Clear 23 1014 81 0 1.79 9 10:18 31.03.2020
476 Clear 23 1014 81 0 1.34 6 09:42 31.03.2020
477 Clouds 23 1015 94 10000 2.1 20 09:24 31.03.2020
478 Clouds 23 1015 94 10000 2.1 20 08:57 31.03.2020
479 Clouds 23 1015 94 10000 2.1 20 08:39 31.03.2020
480 Clouds 23 1015 94 10000 2.1 20 08:19 31.03.2020
481 Clear 23 1015 82 0 1.79 354 07:56 31.03.2020
482 Clear 23 1015 82 0 2.24 12 07:38 31.03.2020
483 Clear 24 1015 81 0 1.79 359 07:19 31.03.2020
484 Clear 23 1016 83 0 2.57 345 06:47 31.03.2020
485 Clouds 24 1016 83 10000 2.1 50 06:22 31.03.2020
486 Clouds 24 1016 83 10000 2.1 50 05:39 31.03.2020
487 Clouds 25 1015 78 10000 3.1 50 03:34 31.03.2020
488 Clouds 26 1015 74 10000 3.1 50 02:18 31.03.2020
489 Clouds 27 1014 65 10000 3.1 40 01:45 31.03.2020
490 Clouds 28 1014 62 10000 2.1 140 00:49 31.03.2020
491 Clouds 28 1014 62 10000 2.1 140 00:25 31.03.2020
492 Clouds 29 1013 58 10000 3.1 160 23:57 30.03.2020
493 Clouds 28 1013 58 10000 3.1 160 23:37 30.03.2020
494 Clouds 28 1014 58 10000 4.1 200 23:18 30.03.2020
495 Clouds 29 1014 58 10000 4.1 200 22:55 30.03.2020
496 Clouds 29 1014 58 10000 4.1 200 22:36 30.03.2020
497 Clouds 29 1014 58 10000 4.1 180 22:18 30.03.2020
498 Clouds 29 1014 58 10000 4.1 180 21:54 30.03.2020
499 Clouds 29 1014 58 10000 4.1 180 21:36 30.03.2020
500 Clouds 29 1014 58 10000 4.1 180 21:36 30.03.2020
501 Clouds 29 1014 58 10000 4.1 180 21:36 30.03.2020
502 Clouds 30 1018 55 10000 5.1 350 21:18 30.03.2020
503 Clouds 30 1018 55 10000 5.1 350 20:40 30.03.2020
504 Clouds 30 1018 55 10000 5.1 350 20:22 30.03.2020
505 Clouds 30 1018 55 10000 5.1 350 19:59 30.03.2020
506 Clouds 30 1019 58 10000 5.1 20 19:40 30.03.2020
507 Clouds 30 1019 58 10000 5.1 20 19:21 30.03.2020
508 Clouds 30 1020 58 10000 5.1 30 18:56 30.03.2020
509 Clouds 30 1020 58 10000 5.1 30 18:37 30.03.2020
510 Clouds 30 1020 58 10000 5.1 30 18:19 30.03.2020
511 Clouds 29 1019 66 10000 5.1 40 17:55 30.03.2020
512 Clouds 29 1019 66 10000 5.1 40 17:36 30.03.2020
513 Clouds 29 1019 66 10000 5.1 40 17:18 30.03.2020
514 Clouds 28 1019 69 10000 4.1 20 16:41 30.03.2020
515 Clouds 28 1019 69 10000 4.1 20 16:22 30.03.2020
516 Clouds 27 1019 69 10000 4.1 20 15:57 30.03.2020
517 Clouds 27 1019 78 10000 4.1 360 15:57 30.03.2020
518 Clouds 26 1019 78 10000 4.1 360 15:39 30.03.2020
519 Clouds 26 1019 78 10000 4.1 360 15:21 30.03.2020
520 Clouds 26 1019 78 10000 4.1 360 14:58 30.03.2020
521 Clouds 23 1019 88 10000 3.03 7 14:38 30.03.2020
522 Clouds 23 1019 88 10000 2.99 9 14:19 30.03.2020
523 Clouds 23 1018 94 10000 2.1 10 13:58 30.03.2020
524 Clouds 24 1018 94 10000 2.1 10 13:39 30.03.2020
525 Clouds 23 1018 94 10000 2.1 10 13:20 30.03.2020
526 Rain 24 1018 82 0 1.79 5 12:45 30.03.2020
527 Clouds 23 1016 94 10000 2.1 10 12:22 30.03.2020
528 Clouds 23 1016 94 10000 2.1 10 11:59 30.03.2020
529 Clouds 23 1016 94 10000 2.1 10 11:59 30.03.2020
530 Clouds 23 1016 94 10000 2.1 10 11:41 30.03.2020
531 Clouds 23 1016 94 10000 2.1 10 11:22 30.03.2020
532 Rain 24 1017 83 0 1.79 9 10:55 30.03.2020
533 Rain 24 1017 83 0 1.79 12 10:37 30.03.2020
534 Rain 23 1017 83 0 2.24 3 10:18 30.03.2020
535 Rain 23 1017 83 0 2.24 354 09:40 30.03.2020
536 Clouds 23 1017 94 10000 2.1 20 09:19 30.03.2020
537 Clouds 23 1017 94 10000 2.1 20 09:19 30.03.2020
538 Clouds 23 1017 94 10000 2.1 20 08:56 30.03.2020
539 Clouds 23 1017 94 10000 2.1 20 08:36 30.03.2020
540 Clouds 23 1017 94 10000 2.1 20 08:18 30.03.2020
541 Clear 23 1018 83 0 2.24 358 07:42 30.03.2020
542 Clear 24 1018 82 0 2.24 357 07:20 30.03.2020
543 Clear 24 1019 82 0 1.79 2 06:42 30.03.2020
544 Clouds 24 1019 83 10000 2.1 30 06:23 30.03.2020
545 Clouds 25 1019 83 10000 2.1 30 05:39 30.03.2020
546 Clouds 25 1018 74 10000 2.1 40 04:29 30.03.2020
547 Clouds 26 1018 74 10000 2.1 40 03:53 30.03.2020
548 Clouds 26 1017 74 10000 2.1 40 02:44 30.03.2020
549 Rain 27 1016 74 10000 2.1 90 01:54 30.03.2020
550 Rain 27 1015 69 10000 4.1 120 00:57 30.03.2020
551 Clouds 28 1015 69 10000 4.1 120 00:26 30.03.2020
552 Clouds 28 1015 66 10000 5.1 140 23:55 29.03.2020
553 Clouds 29 1015 66 10000 5.1 140 23:36 29.03.2020
554 Clouds 29 1015 66 10000 5.1 140 23:18 29.03.2020
555 Clouds 30 1015 62 10000 5.1 140 22:40 29.03.2020
556 Clouds 30 1015 62 10000 5.1 140 22:20 29.03.2020
557 Clouds 30 1015 62 10000 5.1 140 21:59 29.03.2020
558 Clouds 30 1016 62 10000 6.2 140 21:37 29.03.2020
559 Clouds 31 1017 59 10000 4.1 180 21:19 29.03.2020
560 Clouds 30 1017 59 10000 4.1 180 20:55 29.03.2020
561 Clouds 31 1017 59 10000 4.1 180 20:37 29.03.2020
562 Clouds 30 1017 59 10000 4.1 180 20:18 29.03.2020
563 Clouds 30 1018 58 10000 3.41 70 19:55 29.03.2020
564 Clouds 30 1018 58 10000 3.41 70 19:37 29.03.2020
565 Clouds 30 1018 58 10000 3.41 70 19:18 29.03.2020
566 Clouds 30 1019 58 10000 6.2 90 18:55 29.03.2020
567 Clouds 30 1019 58 10000 6.2 90 18:55 29.03.2020
568 Clouds 29 1019 58 10000 6.2 90 18:36 29.03.2020
569 Clouds 29 1019 58 10000 6.2 90 18:18 29.03.2020
570 Clouds 29 1020 74 10000 2.6 60 17:42 29.03.2020
571 Clouds 29 1020 74 10000 2.6 60 17:23 29.03.2020
572 Clouds 29 1020 74 10000 2.6 60 16:59 29.03.2020
573 Clouds 28 1020 66 10000 2.6 360 16:40 29.03.2020
574 Clouds 28 1020 66 10000 2.6 360 16:21 29.03.2020
575 Clouds 27 1020 78 10000 3.1 360 15:58 29.03.2020
576 Clouds 27 1020 78 10000 3.1 360 15:40 29.03.2020
577 Clouds 26 1020 78 10000 3.1 360 15:20 29.03.2020
578 Clouds 24 1019 88 10000 2.6 360 14:56 29.03.2020
579 Clouds 25 1019 88 10000 2.6 360 14:37 29.03.2020
580 Clouds 25 1019 88 10000 2.6 360 14:19 29.03.2020
581 Clouds 24 1017 94 10000 1.5 0 13:55 29.03.2020
582 Clouds 24 1017 94 10000 1.5 0 13:55 29.03.2020
583 Clouds 24 1017 94 10000 1.5 0 13:36 29.03.2020
584 Clouds 24 1017 94 10000 1.5 0 13:18 29.03.2020
585 Rain 25 1020 100 0 3.79 358 12:54 29.03.2020
586 Rain 24 1018 83 0 2.24 3 12:36 29.03.2020
587 Clouds 23 1016 94 10000 1.5 0 12:18 29.03.2020
588 Clouds 23 1016 94 10000 1.5 0 12:18 29.03.2020
589 Clouds 22 1016 94 10000 1.5 0 11:38 29.03.2020
590 Clouds 23 1016 94 10000 1.5 0 11:20 29.03.2020
591 Rain 23 1016 87 0 0.45 34 10:40 29.03.2020
592 Rain 23 1016 87 0 0.45 34 10:21 29.03.2020
593 Rain 23 1016 87 0 0.45 34 09:57 29.03.2020
594 Rain 23 1016 87 0 3.76 348 09:38 29.03.2020
595 Clouds 23 1017 94 10000 1.5 360 09:18 29.03.2020
596 Clouds 23 1017 94 10000 1.5 360 09:18 29.03.2020
597 Clouds 23 1017 94 10000 1.5 360 08:45 29.03.2020
598 Clouds 23 1017 94 10000 1.5 360 08:26 29.03.2020
599 Clear 24 1017 85 0 2.24 14 07:47 29.03.2020
600 Clear 24 1017 84 0 2.68 6 07:23 29.03.2020
601 Clear 24 1017 83 0 2.24 3 06:40 29.03.2020
602 Clear 25 1019 100 0 2.81 353 04:56 29.03.2020
603 Clear 25 1019 100 0 2.81 353 03:41 29.03.2020
604 Clouds 26 1015 78 10000 1.5 0 03:20 29.03.2020
605 Clouds 26 1015 78 10000 1.5 0 01:43 29.03.2020
606 Clouds 26 1015 78 10000 1.5 0 01:22 29.03.2020
607 Clouds 26 1015 78 10000 2.1 50 00:45 29.03.2020
608 Clouds 26 1015 78 10000 2.1 50 00:27 29.03.2020
609 Clouds 27 1014 69 10000 2.1 80 23:41 28.03.2020
610 Clouds 27 1014 69 10000 2.1 80 23:22 28.03.2020
611 Clouds 28 1014 66 10000 2.6 150 22:46 28.03.2020
612 Clouds 29 1014 66 10000 2.6 150 22:23 28.03.2020
613 Clouds 29 1014 66 10000 2.6 150 21:59 28.03.2020
614 Clouds 29 1014 58 10000 3.1 150 21:39 28.03.2020
615 Clouds 29 1014 58 10000 3.1 150 21:21 28.03.2020
616 Clouds 29 1014 62 10000 3.6 140 20:57 28.03.2020
617 Clouds 28 1014 62 10000 3.6 140 20:38 28.03.2020
618 Clouds 30 1016 62 10000 6.2 360 20:20 28.03.2020
619 Clouds 30 1016 62 10000 6.2 360 19:55 28.03.2020
620 Clouds 30 1016 62 10000 6.2 360 19:36 28.03.2020
621 Clouds 30 1016 62 10000 6.2 360 19:18 28.03.2020
622 Clouds 30 1016 66 10000 6.2 360 18:42 28.03.2020
623 Clouds 31 1016 66 10000 6.2 360 18:20 28.03.2020
624 Clouds 30 1017 70 10000 5.1 360 17:43 28.03.2020
625 Clouds 30 1017 70 10000 5.1 360 17:24 28.03.2020
626 Clouds 29 1017 74 10000 6.2 360 16:59 28.03.2020
627 Clouds 29 1017 74 10000 6.2 360 16:39 28.03.2020
628 Clouds 28 1017 74 10000 6.2 360 16:18 28.03.2020
629 Clouds 28 1017 78 10000 5.1 360 15:40 28.03.2020
630 Clouds 27 1017 78 10000 5.1 360 15:20 28.03.2020
631 Clouds 27 1017 78 10000 5.1 360 14:58 28.03.2020
632 Clouds 26 1017 83 10000 5.1 360 14:40 28.03.2020
633 Clouds 26 1017 83 10000 5.1 360 14:21 28.03.2020
634 Clouds 23 1016 94 10000 2.6 360 13:43 28.03.2020
635 Clouds 23 1016 94 10000 2.6 360 13:23 28.03.2020
636 Clouds 23 1015 94 10000 2.1 360 12:41 28.03.2020
637 Clouds 23 1015 94 10000 2.1 360 12:22 28.03.2020
638 Clear 24 1017 95 0 3.5 357 11:44 28.03.2020
639 Clouds 23 1013 88 10000 2.1 20 11:25 28.03.2020
640 Clouds 22 1013 88 10000 2.1 20 10:58 28.03.2020
641 Clouds 22 1013 88 10000 2.1 20 10:38 28.03.2020
642 Clouds 22 1013 88 10000 2.1 20 10:19 28.03.2020
643 Clear 22 1014 84 0 3.26 354 09:43 28.03.2020
644 Clear 23 1014 80 0 1.79 5 09:24 28.03.2020
645 Clear 23 1014 80 0 1.79 8 08:57 28.03.2020
646 Clear 23 1013 80 0 2.24 3 08:39 28.03.2020
647 Clear 23 1013 80 0 2.24 3 08:39 28.03.2020
648 Clouds 23 1014 88 10000 2.1 360 08:20 28.03.2020
649 Clouds 23 1014 88 10000 2.1 360 07:44 28.03.2020
650 Rain 23 1014 82 0 2.92 1 06:59 28.03.2020
651 Rain 24 1017 95 0 2.92 1 06:35 28.03.2020
652 Rain 24 1017 95 0 2.92 1 05:43 28.03.2020
653 Clouds 24 1015 88 10000 2.1 360 05:21 28.03.2020
654 Clouds 24 1015 88 10000 2.1 360 04:41 28.03.2020
655 Clouds 24 1017 95 0 3.18 6 03:42 28.03.2020
656 Clouds 25 1013 88 10000 2.81 14 01:57 28.03.2020
657 Clouds 25 1013 88 10000 3.05 10 01:26 28.03.2020
658 Clouds 25 1013 88 10000 3.05 10 00:59 28.03.2020
659 Clouds 25 1012 83 10000 3.05 10 00:36 28.03.2020
660 Rain 26 1012 83 8000 2.1 180 23:56 27.03.2020
661 Rain 26 1012 83 8000 2.1 180 23:38 27.03.2020
662 Rain 26 1012 83 8000 2.1 180 23:38 27.03.2020
663 Rain 26 1012 83 8000 2.1 180 23:19 27.03.2020
664 Rain 27 1012 83 7000 2.1 160 22:56 27.03.2020
665 Rain 27 1012 83 7000 2.1 160 22:37 27.03.2020
666 Rain 27 1012 83 7000 2.1 160 22:18 27.03.2020
667 Rain 27 1012 83 7000 2.1 160 22:18 27.03.2020
668 Rain 28 1012 69 8000 3.1 10 21:42 27.03.2020
669 Rain 28 1012 69 8000 3.1 10 21:24 27.03.2020
670 Clouds 28 1012 62 10000 3.1 180 20:58 27.03.2020
671 Clouds 28 1012 62 10000 3.1 180 20:40 27.03.2020
672 Clouds 28 1014 66 10000 4.1 360 20:20 27.03.2020
673 Clouds 28 1014 66 10000 4.1 360 19:57 27.03.2020
674 Clouds 29 1014 66 10000 4.1 360 19:38 27.03.2020
675 Clouds 29 1014 66 10000 4.1 360 19:20 27.03.2020
676 Clouds 28 1014 69 10000 3.1 10 18:44 27.03.2020
677 Clouds 28 1014 69 10000 3.1 10 18:44 27.03.2020
678 Clouds 28 1014 69 10000 3.1 10 18:23 27.03.2020
679 Clouds 29 1015 66 10000 2.1 130 17:57 27.03.2020
680 Clouds 29 1015 66 10000 2.1 130 17:38 27.03.2020
681 Clouds 29 1015 66 10000 2.1 130 17:19 27.03.2020
682 Clouds 29 1015 69 10000 2.1 90 16:44 27.03.2020
683 Clouds 29 1015 69 10000 2.1 90 16:25 27.03.2020
684 Clouds 29 1015 69 10000 2.1 90 16:25 27.03.2020
685 Clouds 29 1015 69 10000 2.1 90 16:25 27.03.2020
686 Clouds 27 1014 78 10000 2.1 40 15:45 27.03.2020
687 Clouds 27 1014 78 10000 2.1 40 15:27 27.03.2020
688 Clouds 26 1014 83 10000 2.1 40 14:57 27.03.2020
689 Clouds 26 1014 83 10000 2.1 40 14:39 27.03.2020
690 Clouds 25 1014 83 10000 2.1 40 14:21 27.03.2020
691 Clouds 25 1013 94 10000 2.56 14 13:43 27.03.2020
692 Clouds 24 1013 94 10000 2.56 14 13:22 27.03.2020
693 Rain 24 1014 84 0 1.34 59 12:59 27.03.2020
694 Rain 24 1013 86 0 1.34 46 12:41 27.03.2020
695 Rain 24 1013 86 0 1.34 26 12:19 27.03.2020
696 Rain 24 1013 85 0 0.89 26 11:43 27.03.2020
697 Rain 24 1012 85 0 1.34 27 11:25 27.03.2020
698 Rain 24 1012 86 0 0.89 14 10:57 27.03.2020
699 Rain 24 1012 86 0 0.89 346 10:39 27.03.2020
700 Rain 24 1012 86 0 0.89 353 10:20 27.03.2020
701 Rain 24 1012 87 0 0.89 342 09:58 27.03.2020
702 Rain 24 1012 88 0 0.89 312 09:38 27.03.2020
703 Rain 24 1012 88 0 0.89 337 09:20 27.03.2020
704 Rain 24 1012 90 0 0.89 313 08:57 27.03.2020
705 Rain 24 1012 89 0 1.34 283 08:39 27.03.2020
706 Rain 24 1012 90 0 0.89 301 08:20 27.03.2020
707 Rain 24 1012 90 0 1.34 269 07:52 27.03.2020
708 Rain 25 1013 89 0 0.45 285 07:26 27.03.2020
709 Rain 25 1016 100 0 1.7 16 06:55 27.03.2020
710 Rain 25 1016 100 0 1.7 16 06:37 27.03.2020
711 Rain 26 1016 100 0 1.7 16 05:28 27.03.2020
712 Rain 26 1016 100 0 0.75 1 02:49 27.03.2020
713 Rain 26 1015 100 0 1.37 160 01:36 27.03.2020
714 Rain 26 1015 97 0 1.34 169 00:53 27.03.2020
715 Rain 26 1015 97 0 1.34 169 00:32 27.03.2020
716 Rain 26 1014 96 0 1.34 169 23:44 26.03.2020
717 Clouds 27 1012 66 10000 4.1 120 23:23 26.03.2020
718 Clouds 27 1012 66 10000 4.1 120 22:59 26.03.2020
719 Clouds 28 1012 66 10000 4.1 120 22:39 26.03.2020
720 Clouds 28 1012 66 10000 4.1 120 22:20 26.03.2020
721 Clouds 28 1013 66 10000 5.1 160 21:57 26.03.2020
722 Clouds 28 1013 66 10000 5.1 160 21:39 26.03.2020
723 Clouds 28 1013 66 10000 5.1 160 21:20 26.03.2020
724 Clouds 29 1013 58 10000 5.1 120 20:58 26.03.2020
725 Clouds 29 1013 58 10000 5.1 120 20:38 26.03.2020
726 Clouds 29 1013 58 10000 5.1 120 20:38 26.03.2020
727 Clouds 29 1014 58 10000 5.1 160 20:20 26.03.2020
728 Clouds 29 1014 58 10000 5.1 160 20:20 26.03.2020
729 Clouds 29 1014 58 10000 5.1 160 19:55 26.03.2020
730 Clouds 29 1014 58 10000 5.1 160 19:37 26.03.2020
731 Clouds 29 1014 58 10000 5.1 160 19:19 26.03.2020
732 Clouds 29 1014 62 10000 4.1 160 18:55 26.03.2020
733 Clouds 29 1014 62 10000 4.1 160 18:36 26.03.2020
734 Clouds 29 1014 62 10000 4.1 160 18:18 26.03.2020
735 Clouds 29 1015 58 10000 5.1 120 17:42 26.03.2020
736 Clouds 29 1015 58 10000 5.1 120 17:18 26.03.2020
737 Clouds 28 1015 61 10000 5.1 120 16:45 26.03.2020
738 Clouds 28 1015 61 10000 5.1 120 16:45 26.03.2020
739 Clouds 28 1015 61 10000 5.1 120 16:26 26.03.2020
740 Clouds 28 1015 61 10000 5.1 120 15:58 26.03.2020
741 Clouds 27 1014 74 10000 3.1 90 15:39 26.03.2020
742 Clouds 27 1014 74 10000 3.1 90 15:20 26.03.2020
743 Clouds 26 1014 78 10000 1.92 101 14:57 26.03.2020
744 Clouds 26 1014 78 10000 1.92 101 14:37 26.03.2020
745 Clouds 25 1014 78 10000 1.34 349 14:18 26.03.2020
746 Clouds 24 1013 88 10000 1.34 349 13:41 26.03.2020
747 Clouds 24 1013 88 10000 1.32 351 13:22 26.03.2020
748 Clear 24 1017 100 0 1.32 351 12:54 26.03.2020
749 Clear 24 1017 100 0 1.32 351 12:36 26.03.2020
750 Clear 24 1014 82 0 1.34 30 12:18 26.03.2020
751 Clear 24 1014 82 0 0.89 357 11:43 26.03.2020
752 Clear 21 1013 90 0 1.82 354 11:19 26.03.2020
753 Clear 23 1013 85 0 1.82 354 10:42 26.03.2020
754 Clear 23 1013 85 0 1.82 354 10:42 26.03.2020
755 Clear 24 1013 80 0 0.89 352 10:20 26.03.2020
756 Clear 24 1013 80 0 1.34 11 09:55 26.03.2020
757 Clear 24 1013 80 0 1.34 11 09:55 26.03.2020
758 Clear 24 1013 80 0 1.34 11 09:55 26.03.2020
759 Clear 24 1013 80 0 0.89 337 09:37 26.03.2020
760 Clear 24 1013 80 0 0.89 16 09:19 26.03.2020
761 Clear 24 1013 79 0 1.34 353 08:42 26.03.2020
762 Clear 24 1014 79 0 0.89 334 08:24 26.03.2020
763 Rain 24 1014 78 0 0.45 355 07:57 26.03.2020
764 Rain 24 1014 78 0 0.89 39 07:38 26.03.2020
765 Rain 24 1014 79 0 1.34 46 07:19 26.03.2020
766 Rain 24 1015 79 0 0.89 54 06:33 26.03.2020
767 Rain 24 1015 78 0 1.34 66 05:48 26.03.2020
768 Rain 26 1017 95 0 2.36 66 03:46 26.03.2020
769 Rain 26 1017 95 0 2.36 66 02:58 26.03.2020
770 Rain 27 1017 94 0 2.1 125 01:51 26.03.2020
771 Rain 27 1017 94 0 2.1 125 01:19 26.03.2020
772 Rain 27 1016 94 0 1.56 131 00:32 26.03.2020
773 Rain 27 1016 92 0 1.56 131 23:44 25.03.2020
774 Clouds 28 1013 66 10000 6.2 150 23:26 25.03.2020
775 Clouds 28 1013 66 10000 6.2 150 22:54 25.03.2020
776 Clouds 29 1013 66 10000 6.2 150 22:36 25.03.2020
777 Clouds 29 1013 66 10000 6.2 150 22:18 25.03.2020
778 Clouds 29 1013 58 10000 5.1 180 21:42 25.03.2020
779 Clouds 29 1013 58 10000 5.1 180 21:24 25.03.2020
780 Clouds 29 1014 58 10000 5.1 180 20:58 25.03.2020
781 Clouds 29 1014 58 10000 5.1 180 20:38 25.03.2020
782 Clouds 29 1014 58 10000 5.1 180 20:19 25.03.2020
783 Clouds 29 1015 58 10000 2.6 120 19:55 25.03.2020
784 Clouds 29 1015 58 10000 2.6 120 19:36 25.03.2020
785 Clouds 29 1015 58 10000 2.6 120 19:18 25.03.2020
786 Clouds 29 1016 62 10000 3.19 128 18:42 25.03.2020
787 Clouds 29 1016 62 10000 3.19 128 18:24 25.03.2020
788 Clouds 29 1017 62 10000 2.6 30 17:58 25.03.2020
789 Clouds 29 1017 62 10000 2.6 30 17:40 25.03.2020
790 Clouds 29 1017 62 10000 2.6 30 17:21 25.03.2020
791 Clouds 29 1017 66 10000 5.1 60 16:55 25.03.2020
792 Clouds 28 1017 66 10000 5.1 60 16:37 25.03.2020
793 Clouds 28 1017 66 10000 5.1 60 16:19 25.03.2020
794 Clear 26 1019 89 0 3.22 42 15:41 25.03.2020
795 Clouds 26 1017 83 10000 3.22 42 15:20 25.03.2020
796 Clouds 26 1017 83 10000 3.22 42 14:56 25.03.2020
797 Clouds 25 1017 83 10000 3.22 42 14:37 25.03.2020
798 Clouds 24 1017 83 10000 3.23 345 14:19 25.03.2020
799 Clouds 24 1017 88 10000 3.23 345 13:42 25.03.2020
800 Clouds 23 1017 88 10000 3.23 345 13:22 25.03.2020
801 Clouds 22 1019 96 0 3.13 343 12:38 25.03.2020
802 Clouds 22 1019 96 0 3.13 343 12:20 25.03.2020
803 Clouds 23 1019 89 0 3.13 343 11:57 25.03.2020
804 Clouds 23 1019 89 0 3.13 343 11:39 25.03.2020
805 Clouds 23 1019 89 0 3.6 340 11:20 25.03.2020
806 Clouds 23 1018 89 0 3.6 340 10:57 25.03.2020
807 Clouds 23 1018 89 0 3.6 340 10:39 25.03.2020
808 Clouds 23 1018 89 0 3.6 340 10:18 25.03.2020
809 Clouds 23 1018 89 0 3.6 340 09:43 25.03.2020
810 Clouds 23 1018 89 0 3.6 340 09:25 25.03.2020
811 Clouds 23 1018 89 0 3.6 340 08:58 25.03.2020
812 Clouds 23 1018 89 0 3.6 340 08:58 25.03.2020
813 Clouds 22 1016 78 0 1.79 341 08:39 25.03.2020
814 Clear 23 1016 78 0 2.24 346 08:19 25.03.2020
815 Clear 23 1017 79 0 1.34 350 07:41 25.03.2020
816 Clear 23 1017 78 0 1.79 353 07:23 25.03.2020
817 Clear 23 1017 78 0 1.79 4 06:50 25.03.2020
818 Clear 23 1020 89 0 3.04 336 06:28 25.03.2020
819 Clear 23 1020 89 0 3.04 336 05:57 25.03.2020
820 Clear 23 1021 89 0 3.04 336 05:37 25.03.2020
821 Clear 23 1021 89 0 3.36 357 04:40 25.03.2020
822 Clear 23 1021 89 0 3.36 357 03:49 25.03.2020
823 Clear 23 1021 89 0 3.36 357 03:29 25.03.2020
824 Clouds 25 1020 83 0 4.27 30 01:25 25.03.2020
825 Clouds 26 1019 79 0 4.11 31 00:49 25.03.2020
826 Clouds 26 1019 79 0 4.11 31 00:25 25.03.2020
827 Clouds 27 1018 75 0 4.11 31 23:46 24.03.2020
828 Clouds 28 1016 58 10000 5.1 30 23:28 24.03.2020
829 Clouds 29 1016 58 10000 5.1 30 22:57 24.03.2020
830 Clouds 29 1016 58 10000 5.1 30 22:38 24.03.2020
831 Clouds 29 1016 58 10000 5.1 30 22:19 24.03.2020
832 Clouds 30 1016 55 10000 6.2 30 21:56 24.03.2020
833 Clouds 30 1016 55 10000 6.2 30 21:38 24.03.2020
834 Clouds 30 1016 55 10000 6.2 30 21:18 24.03.2020
835 Clouds 30 1017 52 10000 5.1 50 20:56 24.03.2020
836 Clouds 30 1017 52 10000 5.1 50 20:38 24.03.2020
837 Clouds 30 1017 52 10000 5.1 50 20:20 24.03.2020
838 Clouds 30 1018 52 10000 7.7 10 19:44 24.03.2020
839 Clouds 30 1018 52 10000 7.7 10 19:19 24.03.2020
840 Clouds 30 1019 58 10000 5.1 30 18:56 24.03.2020
841 Clouds 30 1019 58 10000 5.1 30 18:37 24.03.2020
842 Clouds 30 1019 58 10000 5.1 30 18:18 24.03.2020
843 Clouds 29 1021 76 0 3.36 51 17:42 24.03.2020
844 Clouds 29 1020 69 10000 5.1 20 17:23 24.03.2020
845 Clouds 28 1020 69 10000 5.1 20 16:58 24.03.2020
846 Clouds 28 1020 69 10000 5.1 20 16:40 24.03.2020
847 Clouds 28 1020 69 10000 5.1 20 16:22 24.03.2020
848 Clouds 28 1020 69 10000 5.1 20 15:58 24.03.2020
849 Clouds 27 1020 74 10000 5.7 360 15:38 24.03.2020
850 Clouds 27 1020 74 10000 5.7 360 15:20 24.03.2020
851 Clouds 25 1020 78 10000 3.1 360 14:43 24.03.2020
852 Clouds 25 1020 78 10000 3.1 360 14:20 24.03.2020
853 Clouds 24 1020 88 10000 3.1 360 13:44 24.03.2020
854 Clouds 24 1020 88 10000 3.1 360 13:24 24.03.2020
855 Clouds 23 1022 100 0 3.39 1 12:58 24.03.2020
856 Clouds 23 1022 100 0 3.39 1 12:38 24.03.2020
857 Clouds 23 1022 100 0 3.39 1 12:20 24.03.2020
858 Clouds 23 1021 100 0 3.39 1 11:40 24.03.2020
859 Clouds 23 1018 94 10000 2.1 10 11:20 24.03.2020
860 Clouds 23 1018 94 10000 2.1 10 10:43 24.03.2020
861 Clouds 23 1018 94 10000 2.1 10 10:20 24.03.2020
862 Clouds 23 1018 94 10000 2.1 10 10:20 24.03.2020
863 Clouds 22 1018 94 10000 2.1 10 09:59 24.03.2020
864 Clouds 23 1021 100 0 2.83 356 09:41 24.03.2020
865 Clouds 23 1021 100 0 2.83 356 09:41 24.03.2020
866 Clouds 23 1021 100 0 2.83 356 09:22 24.03.2020
867 Clouds 22 1019 92 0 2.83 356 08:39 24.03.2020
868 Clouds 23 1019 88 10000 2.1 10 08:21 24.03.2020
869 Clouds 23 1019 88 10000 2.1 10 07:50 24.03.2020
870 Clouds 23 1019 88 10000 2.1 10 07:25 24.03.2020
871 Clouds 23 1019 91 0 0.45 11 06:58 24.03.2020
872 Clouds 23 1020 90 0 0.89 345 06:32 24.03.2020
873 Clouds 23 1020 83 10000 2.1 40 05:27 24.03.2020
874 Clouds 23 1020 83 10000 2.1 40 04:31 24.03.2020
875 Clouds 23 1020 88 10000 2.1 80 03:18 24.03.2020
876 Clouds 24 1019 88 10000 2.1 10 01:49 24.03.2020
877 Clouds 24 1019 85 10000 2.1 320 00:49 24.03.2020
878 Clouds 24 1019 85 10000 2.1 320 00:26 24.03.2020
879 Rain 24 1018 83 8000 2.1 40 23:46 23.03.2020
880 Rain 24 1018 83 8000 2.1 40 23:26 23.03.2020
881 Thunderstorm 24 1017 83 7000 4.1 270 22:56 23.03.2020
882 Thunderstorm 24 1017 83 7000 4.1 270 22:37 23.03.2020
883 Thunderstorm 24 1017 83 7000 4.1 270 22:19 23.03.2020
884 Thunderstorm 24 1018 88 7000 3.1 270 21:44 23.03.2020
885 Rain 24 1019 88 7000 3.37 39 21:21 23.03.2020
886 Rain 24 1019 88 7000 3.37 39 20:58 23.03.2020
887 Rain 24 1019 88 7000 3.37 39 20:40 23.03.2020
888 Rain 23 1019 88 7000 3.37 39 20:22 23.03.2020
889 Rain 25 1020 83 7000 6.2 150 19:46 23.03.2020
890 Rain 25 1020 83 7000 6.2 150 19:28 23.03.2020
891 Clouds 26 1020 78 10000 6.2 360 18:59 23.03.2020
892 Clouds 26 1020 78 10000 6.2 360 18:41 23.03.2020
893 Clouds 26 1020 78 10000 6.2 360 18:22 23.03.2020
894 Rain 27 1020 74 6000 4.6 80 17:56 23.03.2020
895 Clouds 28 1021 74 10000 6.2 360 17:37 23.03.2020
896 Clouds 28 1021 74 10000 6.2 360 17:18 23.03.2020
897 Clouds 28 1021 78 10000 5.1 360 16:43 23.03.2020
898 Clouds 28 1021 78 10000 5.1 360 16:24 23.03.2020
899 Clouds 26 1021 83 10000 5.1 360 15:42 23.03.2020
900 Clouds 26 1021 83 10000 5.1 360 15:21 23.03.2020
901 Clouds 25 1021 83 10000 3.1 30 14:55 23.03.2020
902 Clouds 25 1021 83 10000 3.1 30 14:36 23.03.2020
903 Clouds 25 1021 83 10000 3.1 30 14:18 23.03.2020
904 Rain 23 1019 94 8000 4.14 7 13:41 23.03.2020
905 Rain 23 1019 94 8000 3.95 11 13:22 23.03.2020
906 Clouds 23 1019 94 10000 2.6 10 12:55 23.03.2020
907 Clouds 23 1019 94 10000 2.6 10 12:37 23.03.2020
908 Clouds 23 1019 94 10000 2.6 10 12:19 23.03.2020
909 Rain 22 1021 87 0 3.95 11 11:42 23.03.2020
910 Thunderstorm 22 1018 94 10000 2.1 10 11:21 23.03.2020
911 Thunderstorm 22 1018 94 10000 2.1 10 10:58 23.03.2020
912 Thunderstorm 22 1018 94 10000 2.1 10 10:39 23.03.2020
913 Thunderstorm 22 1018 94 10000 2.1 10 10:21 23.03.2020
914 Rain 22 1019 85 0 0.89 3 09:48 23.03.2020
915 Rain 22 1019 85 0 0.89 3 09:21 23.03.2020
916 Rain 22 1019 85 0 0.89 3 09:21 23.03.2020
917 Rain 22 1019 85 0 0.89 3 08:58 23.03.2020
918 Rain 23 1019 86 0 0.45 39 08:37 23.03.2020
919 Thunderstorm 23 1019 88 10000 2.1 360 08:19 23.03.2020
920 Thunderstorm 23 1019 88 10000 2.1 360 07:48 23.03.2020
921 Thunderstorm 23 1019 88 10000 2.1 360 07:29 23.03.2020
922 Rain 23 1020 86 0 1.34 26 06:52 23.03.2020
923 Rain 23 1020 85 0 1.79 41 06:20 23.03.2020
924 Rain 23 1020 84 0 2.24 23 05:34 23.03.2020
925 Rain 24 1023 91 0 2.77 355 03:45 23.03.2020
926 Clouds 25 1019 78 10000 3.1 40 02:37 23.03.2020
927 Clouds 26 1019 78 10000 4.6 40 01:34 23.03.2020
928 Clouds 26 1018 78 10000 3.1 30 00:40 23.03.2020
929 Clouds 28 1017 69 10000 4.1 360 23:53 22.03.2020
930 Clouds 28 1017 69 10000 4.1 360 23:27 22.03.2020
931 Clouds 28 1017 62 10000 5.1 360 22:56 22.03.2020
932 Clouds 29 1017 62 10000 5.1 360 22:36 22.03.2020
933 Clouds 28 1017 62 10000 5.1 360 22:18 22.03.2020
934 Clouds 29 1017 55 10000 5.7 360 21:39 22.03.2020
935 Clouds 29 1017 55 10000 5.7 360 21:20 22.03.2020
936 Clouds 29 1018 52 10000 5.1 340 20:56 22.03.2020
937 Clouds 30 1018 52 10000 5.1 340 20:38 22.03.2020
938 Clouds 30 1018 52 10000 5.1 340 20:20 22.03.2020
939 Clouds 30 1019 52 10000 6.2 350 19:55 22.03.2020
940 Clouds 30 1019 52 10000 6.2 350 19:36 22.03.2020
941 Clouds 30 1019 52 10000 6.2 350 19:18 22.03.2020
942 Clouds 30 1020 55 10000 5.1 350 18:41 22.03.2020
943 Clouds 30 1020 55 10000 5.1 350 18:23 22.03.2020
944 Clouds 29 1020 58 10000 5.1 20 17:59 22.03.2020
945 Clouds 29 1020 58 10000 5.1 20 17:39 22.03.2020
946 Clouds 29 1020 58 10000 5.1 20 17:21 22.03.2020
947 Clouds 28 1021 61 10000 5.1 360 16:59 22.03.2020
948 Clouds 28 1021 61 10000 5.1 360 16:41 22.03.2020
949 Clouds 28 1021 61 10000 5.1 360 16:22 22.03.2020
950 Clouds 28 1021 61 10000 5.1 360 15:58 22.03.2020
951 Clouds 27 1020 65 10000 4.1 360 15:39 22.03.2020
952 Clouds 25 1020 73 10000 4.1 30 14:47 22.03.2020
953 Clouds 24 1020 73 10000 4.1 30 14:19 22.03.2020
954 Clouds 23 1019 83 10000 3.1 360 13:58 22.03.2020
955 Clouds 23 1019 83 10000 3.1 360 13:40 22.03.2020
956 Clouds 23 1019 83 10000 3.1 360 13:19 22.03.2020
957 Clouds 22 1019 88 10000 2.1 360 12:44 22.03.2020
958 Clouds 21 1019 88 10000 2.1 360 12:21 22.03.2020
959 Clear 23 1019 79 0 1.34 3 11:57 22.03.2020
960 Clear 22 1019 78 0 1.34 355 11:39 22.03.2020
961 Clouds 22 1017 83 10000 2.1 360 11:20 22.03.2020
962 Clouds 22 1017 83 10000 2.1 360 10:43 22.03.2020
963 Clouds 22 1017 83 10000 2.1 360 10:24 22.03.2020
964 Clear 22 1018 79 0 1.79 2 09:49 22.03.2020
965 Clear 22 1018 79 0 1.79 353 09:30 22.03.2020
966 Clear 22 1018 79 0 1.79 14 08:55 22.03.2020
967 Clear 22 1018 79 0 2.24 358 08:36 22.03.2020
968 Clear 22 1018 79 0 2.24 358 08:36 22.03.2020
969 Clouds 22 1018 88 10000 2.1 350 08:18 22.03.2020
970 Clouds 22 1018 88 10000 2.1 350 07:48 22.03.2020
971 Clouds 22 1018 88 10000 2.1 350 07:18 22.03.2020
972 Clouds 23 1020 83 10000 2.1 10 05:54 22.03.2020
973 Clouds 23 1020 83 10000 2.1 360 04:58 22.03.2020
974 Clouds 24 1019 83 10000 2.1 30 02:43 22.03.2020
975 Clouds 25 1018 78 10000 2.1 40 01:20 22.03.2020
976 Clouds 26 1019 78 10000 4.57 20 00:35 22.03.2020
977 Clouds 27 1018 74 10000 5.1 30 23:57 21.03.2020
978 Clouds 27 1018 74 10000 5.1 30 23:38 21.03.2020
979 Clouds 28 1018 74 10000 5.1 30 23:18 21.03.2020
980 Clouds 29 1018 70 10000 5.1 360 22:38 21.03.2020
981 Clouds 29 1018 70 10000 5.1 360 22:38 21.03.2020
982 Clouds 29 1018 70 10000 5.1 360 22:20 21.03.2020
983 Clouds 30 1018 70 10000 5.1 360 21:59 21.03.2020
984 Clouds 30 1018 66 10000 5.1 360 21:39 21.03.2020
985 Clouds 30 1018 66 10000 5.1 360 21:21 21.03.2020
986 Clouds 30 1019 66 10000 5.1 360 20:45 21.03.2020
987 Clouds 30 1019 66 10000 5.1 360 20:23 21.03.2020
988 Clouds 30 1019 62 10000 6.2 360 19:57 21.03.2020
989 Clouds 30 1019 62 10000 6.2 360 19:38 21.03.2020
990 Clouds 30 1019 62 10000 6.2 360 19:19 21.03.2020
991 Clouds 30 1020 66 10000 5.1 360 18:54 21.03.2020
992 Clouds 30 1020 66 10000 5.1 360 18:36 21.03.2020
993 Clouds 30 1020 66 10000 5.1 360 18:18 21.03.2020
994 Clouds 29 1021 66 10000 5.1 360 17:42 21.03.2020
995 Clouds 29 1021 66 10000 5.1 360 17:23 21.03.2020
996 Clouds 28 1020 78 10000 5.1 360 16:43 21.03.2020
997 Clouds 28 1020 78 10000 5.1 360 16:43 21.03.2020
998 Clouds 27 1020 78 10000 5.1 360 16:24 21.03.2020
999 Clouds 27 1020 78 10000 5.1 360 16:24 21.03.2020
1000 Clouds 27 1020 78 10000 5.1 360 15:59 21.03.2020
1001 Clouds 26 1020 83 10000 4.1 360 15:41 21.03.2020
1002 Clouds 26 1020 83 10000 4.1 360 15:23 21.03.2020
1003 Clouds 24 1019 83 10000 3.1 270 14:57 21.03.2020
1004 Clouds 24 1019 83 10000 3.1 270 14:39 21.03.2020
1005 Clouds 24 1019 83 10000 3.1 270 14:20 21.03.2020
1006 Clouds 23 1019 83 10000 3.1 270 13:58 21.03.2020
1007 Clouds 23 1019 83 10000 3.1 270 13:58 21.03.2020
1008 Rain 22 1019 88 7000 4.1 270 13:39 21.03.2020
1009 Rain 22 1019 88 7000 4.1 270 13:21 21.03.2020
1010 Rain 22 1019 94 10000 2.1 20 12:57 21.03.2020
1011 Rain 22 1019 94 10000 2.1 20 12:37 21.03.2020
1012 Rain 22 1019 94 10000 2.1 20 12:19 21.03.2020
1013 Clouds 22 1018 88 10000 5.1 40 11:55 21.03.2020
1014 Clouds 22 1018 88 10000 5.1 40 11:37 21.03.2020
1015 Clouds 22 1018 88 10000 5.1 40 11:18 21.03.2020
1016 Clouds 22 1018 88 10000 3.1 360 10:56 21.03.2020
1017 Clouds 22 1018 88 10000 3.1 360 10:38 21.03.2020
1018 Clouds 22 1018 88 10000 3.1 360 10:19 21.03.2020
1019 Clouds 22 1018 88 10000 3.1 10 09:41 21.03.2020
1020 Clouds 22 1018 88 10000 3.1 10 09:23 21.03.2020
1021 Clouds 22 1018 88 10000 2.1 10 08:59 21.03.2020
1022 Clouds 22 1018 88 10000 2.1 10 08:41 21.03.2020
1023 Clouds 22 1018 88 10000 2.1 10 08:22 21.03.2020
1024 Clouds 22 1019 88 10000 2.1 10 07:42 21.03.2020
1025 Clouds 23 1019 88 10000 2.1 10 07:23 21.03.2020
1026 Clouds 23 1019 83 10000 2.1 20 06:45 21.03.2020
1027 Clouds 23 1019 83 10000 2.1 20 06:26 21.03.2020
1028 Clouds 23 1020 83 10000 3.1 30 05:41 21.03.2020
1029 Clouds 23 1020 83 10000 3.1 30 04:37 21.03.2020
1030 Clouds 24 1019 78 10000 2.1 40 02:39 21.03.2020
1031 Clouds 25 1019 74 10000 3.1 50 01:57 21.03.2020
1032 Clouds 25 1019 74 10000 3.1 50 01:29 21.03.2020
1033 Clouds 26 1018 83 10000 4.67 13 00:47 21.03.2020
1034 Clouds 26 1018 83 10000 4.67 13 00:24 21.03.2020
1035 Clouds 27 1018 65 10000 4.1 40 23:48 20.03.2020
1036 Clouds 28 1018 65 10000 4.1 40 23:24 20.03.2020
1037 Clouds 28 1017 69 10000 4.1 40 22:55 20.03.2020
1038 Clouds 29 1017 69 10000 4.1 40 22:36 20.03.2020
1039 Clouds 29 1017 69 10000 4.1 40 22:18 20.03.2020
1040 Clouds 29 1017 66 10000 4.1 360 21:54 20.03.2020
1041 Clouds 29 1017 66 10000 4.1 360 21:36 20.03.2020
1042 Clouds 29 1017 66 10000 4.1 360 21:18 20.03.2020
1043 Clouds 29 1018 62 10000 5.1 360 20:41 20.03.2020
1044 Clouds 29 1018 62 10000 5.1 360 20:41 20.03.2020
1045 Clouds 30 1018 62 10000 5.1 360 20:21 20.03.2020
1046 Clouds 30 1018 62 10000 5.1 360 19:58 20.03.2020
1047 Clouds 29 1019 69 10000 5.1 360 19:40 20.03.2020
1048 Clouds 29 1019 69 10000 5.1 360 19:18 20.03.2020
1049 Rain 28 1019 78 10000 7.2 360 18:39 20.03.2020
1050 Rain 28 1019 78 10000 7.2 360 18:20 20.03.2020
1051 Rain 27 1020 83 8000 4.1 360 17:57 20.03.2020
1052 Rain 27 1020 83 8000 4.1 360 17:39 20.03.2020
1053 Rain 26 1020 83 8000 4.1 360 17:20 20.03.2020
1054 Rain 26 1021 74 10000 5.1 360 16:43 20.03.2020
1055 Rain 27 1021 74 10000 5.1 360 16:22 20.03.2020
1056 Rain 27 1021 74 10000 5.1 360 15:59 20.03.2020
1057 Clouds 26 1020 78 10000 5.1 360 15:41 20.03.2020
1058 Clouds 26 1020 78 10000 5.1 360 15:21 20.03.2020
1059 Clouds 25 1020 88 10000 3.1 360 14:43 20.03.2020
1060 Clouds 24 1020 88 10000 3.1 360 14:23 20.03.2020
1061 Rain 24 1022 82 0 2.24 26 13:55 20.03.2020
1062 Rain 23 1021 86 0 1.79 6 13:37 20.03.2020
1063 Rain 22 1020 100 8000 2.6 10 13:19 20.03.2020
1064 Rain 22 1020 100 8000 2.6 10 12:39 20.03.2020
1065 Rain 22 1020 100 8000 2.6 10 12:20 20.03.2020
1066 Rain 22 1020 100 8000 2.6 10 12:20 20.03.2020
1067 Clouds 22 1019 100 10000 1.5 0 11:54 20.03.2020
1068 Clouds 21 1019 100 10000 1.5 0 11:36 20.03.2020
1069 Clouds 21 1019 100 10000 1.5 0 11:18 20.03.2020
1070 Rain 22 1019 94 10000 2.1 40 10:41 20.03.2020
1071 Rain 22 1019 94 10000 2.1 40 10:20 20.03.2020
1072 Clouds 22 1019 94 10000 2.1 40 09:47 20.03.2020
1073 Rain 22 1019 94 10000 2.1 40 09:22 20.03.2020
1074 Rain 21 1019 94 10000 2.1 40 08:59 20.03.2020
1075 Rain 21 1019 94 10000 2.1 20 08:40 20.03.2020
1076 Rain 22 1019 94 10000 2.1 20 08:20 20.03.2020
1077 Rain 22 1019 100 8000 2.1 30 07:46 20.03.2020
1078 Rain 22 1020 100 10000 2.1 10 07:26 20.03.2020
1079 Rain 23 1020 100 10000 2.6 10 06:49 20.03.2020
1080 Rain 23 1020 100 10000 2.6 10 06:31 20.03.2020
1081 Clouds 24 1021 94 10000 2.6 20 04:49 20.03.2020
1082 Clouds 24 1020 94 10000 4.1 20 03:19 20.03.2020
1083 Clouds 24 1019 100 10000 2.1 20 01:51 20.03.2020
1084 Rain 25 1019 83 8000 6.2 70 00:46 20.03.2020
1085 Rain 25 1019 83 8000 6.2 70 00:25 20.03.2020
1086 Clouds 26 1019 74 10000 7.7 360 23:44 19.03.2020
1087 Clouds 26 1019 74 10000 7.7 360 23:25 19.03.2020
1088 Clouds 26 1018 65 10000 9.3 30 22:56 19.03.2020
1089 Rain 27 1018 65 10000 9.3 30 22:37 19.03.2020
1090 Rain 27 1018 65 10000 9.3 30 22:18 19.03.2020
1091 Rain 27 1018 58 8000 5.1 360 21:41 19.03.2020
1092 Rain 27 1018 58 8000 5.1 360 21:20 19.03.2020
1093 Clouds 29 1018 52 10000 5.1 60 20:56 19.03.2020
1094 Clouds 29 1018 52 10000 5.1 60 20:56 19.03.2020
1095 Clouds 30 1018 52 10000 5.1 60 20:38 19.03.2020
1096 Clouds 30 1018 52 10000 5.1 60 20:19 19.03.2020
1097 Clouds 29 1018 52 10000 5.1 360 19:55 19.03.2020
1098 Clouds 30 1018 52 10000 5.1 360 19:36 19.03.2020
1099 Clouds 30 1018 52 10000 5.1 360 19:18 19.03.2020
1100 Clouds 29 1019 66 10000 6.7 30 18:42 19.03.2020
1101 Clouds 29 1019 66 10000 6.7 30 18:22 19.03.2020
1102 Clouds 28 1021 66 10000 5.1 30 17:56 19.03.2020
1103 Clouds 28 1021 66 10000 5.1 30 17:38 19.03.2020
1104 Clouds 28 1021 66 10000 5.1 30 17:18 19.03.2020
1105 Clouds 28 1022 69 10000 7.7 360 16:43 19.03.2020
1106 Clouds 28 1022 69 10000 7.7 360 16:22 19.03.2020
1107 Clouds 27 1021 69 10000 8.7 360 15:44 19.03.2020
1108 Clouds 27 1021 69 10000 8.7 360 15:25 19.03.2020
1109 Clouds 26 1021 78 10000 4.1 30 14:55 19.03.2020
1110 Clouds 26 1021 78 10000 4.1 30 14:37 19.03.2020
1111 Clouds 25 1021 78 10000 4.1 30 14:18 19.03.2020
1112 Clouds 24 1018 83 10000 2.1 360 13:39 19.03.2020
1113 Clouds 24 1018 83 10000 2.1 360 13:19 19.03.2020
1114 Clouds 22 1019 94 10000 4.1 30 12:42 19.03.2020
1115 Clouds 22 1019 94 10000 4.1 30 12:24 19.03.2020
1116 Clouds 23 1019 94 10000 2.1 20 11:59 19.03.2020
1117 Clouds 23 1019 94 10000 2.1 20 11:41 19.03.2020
1118 Clouds 21 1019 94 10000 2.1 20 11:22 19.03.2020
1119 Clouds 22 1018 88 10000 3.1 20 10:44 19.03.2020
1120 Clouds 22 1018 88 10000 3.1 20 10:22 19.03.2020
1121 Clouds 22 1018 88 10000 3.1 20 09:58 19.03.2020
1122 Clouds 22 1018 88 10000 4.1 350 09:40 19.03.2020
1123 Clouds 22 1018 88 10000 4.1 350 09:20 19.03.2020
1124 Clouds 22 1018 88 10000 2.1 30 08:46 19.03.2020
1125 Clouds 22 1018 88 10000 2.1 30 08:22 19.03.2020
1126 Clouds 23 1019 88 10000 2.1 10 07:48 19.03.2020
1127 Clouds 23 1019 88 10000 2.1 10 07:30 19.03.2020
1128 Clouds 23 1019 88 10000 2.1 10 06:51 19.03.2020
1129 Clouds 23 1020 88 10000 3.1 20 05:53 19.03.2020
1130 Clouds 24 1020 88 10000 3.1 20 05:22 19.03.2020
1131 Clouds 24 1020 83 10000 2.1 20 04:41 19.03.2020
1132 Clouds 24 1020 83 10000 2.1 30 03:36 19.03.2020
1133 Clouds 26 1018 78 10000 2.1 30 01:27 19.03.2020
1134 Clouds 26 1016 78 10000 4.1 360 00:37 19.03.2020
1135 Clouds 27 1016 78 10000 4.1 360 23:58 18.03.2020
1136 Clouds 27 1016 78 10000 4.1 360 23:36 18.03.2020
1137 Clouds 27 1016 78 10000 4.1 360 23:18 18.03.2020
1138 Clouds 28 1016 69 10000 7.2 360 22:42 18.03.2020
1139 Clouds 28 1016 69 10000 7.2 360 22:22 18.03.2020
1140 Clouds 30 1017 58 10000 6.2 360 21:54 18.03.2020
1141 Clouds 30 1017 58 10000 6.2 360 21:36 18.03.2020
1142 Clouds 30 1017 58 10000 6.2 360 21:18 18.03.2020
1143 Clouds 30 1017 55 10000 6.2 360 20:41 18.03.2020
1144 Clouds 31 1017 55 10000 6.2 360 20:21 18.03.2020
1145 Clouds 31 1017 55 10000 6.2 360 19:58 18.03.2020
1146 Clouds 30 1018 66 10000 7.7 360 19:40 18.03.2020
1147 Clouds 30 1018 66 10000 7.7 360 19:21 18.03.2020
1148 Clouds 30 1018 66 10000 7.7 360 19:21 18.03.2020
1149 Clouds 30 1018 66 10000 6.2 20 18:42 18.03.2020
1150 Clouds 30 1018 66 10000 6.2 20 18:21 18.03.2020
1151 Clouds 30 1019 66 10000 5.1 360 17:59 18.03.2020
1152 Clouds 30 1019 66 10000 5.1 360 17:59 18.03.2020
1153 Clouds 30 1019 66 10000 5.1 360 17:41 18.03.2020
1154 Clouds 29 1019 66 10000 5.1 360 17:22 18.03.2020
1155 Clouds 29 1019 66 10000 5.1 360 16:58 18.03.2020
1156 Clouds 29 1019 66 10000 5.1 360 16:40 18.03.2020
1157 Clouds 29 1019 66 10000 5.1 360 16:20 18.03.2020
1158 Clouds 27 1019 78 10000 4.1 360 15:45 18.03.2020
1159 Clouds 27 1019 78 10000 4.1 360 15:23 18.03.2020
1160 Clouds 26 1019 83 10000 5.1 360 14:57 18.03.2020
1161 Clouds 26 1019 83 10000 5.1 360 14:39 18.03.2020
1162 Clouds 26 1019 83 10000 5.1 360 14:20 18.03.2020
1163 Clouds 26 1019 83 10000 5.1 360 14:20 18.03.2020
1164 Clouds 24 1019 88 10000 2.1 350 13:39 18.03.2020
1165 Clouds 24 1019 88 10000 2.1 350 13:19 18.03.2020
1166 Clouds 24 1019 88 10000 2.1 350 13:19 18.03.2020
1167 Clouds 22 1018 94 10000 2.1 10 12:42 18.03.2020
1168 Clouds 22 1018 94 10000 2.1 10 12:20 18.03.2020
1169 Clouds 22 1017 94 10000 2.1 10 11:41 18.03.2020
1170 Clouds 22 1017 94 10000 2.1 10 11:22 18.03.2020
1171 Clouds 22 1017 94 10000 3.1 360 10:59 18.03.2020
1172 Clouds 22 1017 94 10000 3.1 360 10:59 18.03.2020
1173 Clouds 22 1017 94 10000 3.1 360 10:39 18.03.2020
1174 Clouds 22 1017 94 10000 3.1 360 10:21 18.03.2020
1175 Clouds 22 1017 94 10000 3.1 360 09:59 18.03.2020
1176 Clouds 22 1016 94 10000 2.1 360 09:39 18.03.2020
1177 Clouds 22 1016 94 10000 2.1 360 09:21 18.03.2020
1178 Clouds 22 1017 88 10000 2.6 360 08:40 18.03.2020
1179 Clouds 23 1017 88 10000 2.6 360 08:21 18.03.2020
1180 Clouds 22 1017 88 10000 2.6 360 07:49 18.03.2020
1181 Clouds 22 1017 88 10000 2.6 360 07:31 18.03.2020
1182 Clouds 23 1018 94 10000 2.6 360 06:54 18.03.2020
1183 Clouds 22 1018 94 10000 2.6 360 06:35 18.03.2020
1184 Clouds 23 1019 94 10000 2.1 360 05:37 18.03.2020
1185 Clouds 23 1019 94 10000 3.1 360 04:29 18.03.2020
1186 Clouds 23 1019 88 10000 2.1 360 03:21 18.03.2020
1187 Clouds 23 1018 88 10000 2.6 350 02:32 18.03.2020
1188 Clouds 23 1017 78 10000 2.6 360 01:31 18.03.2020
1189 Clouds 24 1016 88 10000 5.1 360 00:42 18.03.2020
1190 Clouds 24 1016 88 10000 5.1 360 00:42 18.03.2020
1191 Clouds 24 1016 88 10000 5.1 360 00:21 18.03.2020
1192 Clouds 25 1016 69 10000 6.2 360 23:40 17.03.2020
1193 Clouds 26 1016 69 10000 6.2 360 23:19 17.03.2020
1194 Clouds 27 1016 65 10000 6.2 360 22:42 17.03.2020
1195 Clouds 27 1016 65 10000 6.2 360 22:24 17.03.2020
1196 Clouds 27 1016 65 10000 6.2 360 21:43 17.03.2020
1197 Clouds 27 1016 65 10000 6.2 360 21:23 17.03.2020
1198 Clouds 28 1017 62 10000 5.1 360 20:56 17.03.2020
1199 Clouds 28 1017 62 10000 5.1 360 20:37 17.03.2020
1200 Clouds 28 1017 62 10000 5.1 360 20:19 17.03.2020
1201 Clouds 29 1017 58 10000 6.2 360 19:41 17.03.2020
1202 Clouds 29 1017 58 10000 6.2 360 19:18 17.03.2020
1203 Clouds 28 1018 66 10000 6.2 350 18:56 17.03.2020
1204 Clouds 28 1018 66 10000 6.2 350 18:38 17.03.2020
1205 Clouds 28 1018 66 10000 6.2 350 18:20 17.03.2020
1206 Clouds 27 1019 65 10000 6.7 360 17:41 17.03.2020
1207 Clouds 27 1019 65 10000 6.7 360 17:23 17.03.2020
1208 Clouds 27 1019 69 10000 6.2 360 16:57 17.03.2020
1209 Clouds 27 1019 69 10000 6.2 360 16:39 17.03.2020
1210 Clouds 27 1019 69 10000 6.2 360 16:18 17.03.2020
1211 Clouds 26 1018 69 10000 6.2 360 15:44 17.03.2020
1212 Clouds 26 1018 69 10000 6.2 360 15:22 17.03.2020
1213 Clouds 24 1017 69 10000 5.1 350 14:44 17.03.2020
1214 Clouds 24 1017 69 10000 5.1 350 14:23 17.03.2020
1215 Clouds 22 1016 83 10000 5.49 339 13:56 17.03.2020
1216 Clouds 22 1016 83 10000 5.49 339 13:38 17.03.2020
1217 Clouds 22 1016 83 10000 5.49 339 13:20 17.03.2020
1218 Clouds 20 1017 82 10000 2.1 350 12:42 17.03.2020
1219 Clouds 20 1017 82 10000 2.1 350 12:22 17.03.2020
1220 Clouds 20 1017 82 10000 2.6 350 11:47 17.03.2020
1221 Clouds 20 1017 82 10000 2.6 350 11:29 17.03.2020
1222 Clouds 21 1016 77 10000 2.6 360 10:58 17.03.2020
1223 Clouds 21 1016 77 10000 2.6 360 10:38 17.03.2020
1224 Clouds 21 1016 77 10000 2.6 360 10:20 17.03.2020
1225 Clouds 21 1016 83 10000 2.6 350 09:59 17.03.2020
1226 Clouds 21 1016 83 10000 2.6 350 09:39 17.03.2020
1227 Clouds 21 1016 83 10000 2.6 350 09:19 17.03.2020
1228 Clouds 21 1016 83 10000 2.6 340 08:47 17.03.2020
1229 Clouds 21 1016 83 10000 2.6 340 08:22 17.03.2020
1230 Clouds 22 1017 78 10000 2.1 360 07:50 17.03.2020
1231 Clouds 22 1017 78 10000 2.1 360 07:26 17.03.2020
1232 Clouds 22 1017 78 10000 2.1 20 06:58 17.03.2020
1233 Clouds 22 1017 78 10000 2.1 20 06:33 17.03.2020
1234 Clouds 22 1018 78 10000 2.1 20 05:49 17.03.2020
1235 Clouds 23 1018 73 10000 3.1 10 03:41 17.03.2020
1236 Clouds 23 1017 73 10000 3.1 10 02:46 17.03.2020
1237 Clouds 24 1016 73 10000 2.1 20 01:43 17.03.2020
1238 Clouds 25 1016 73 10000 2.1 20 01:24 17.03.2020
1239 Clouds 25 1015 73 10000 5.1 360 00:31 17.03.2020
1240 Clouds 27 1014 65 10000 5.1 360 23:45 16.03.2020
1241 Clouds 27 1014 65 10000 5.1 360 23:25 16.03.2020
1242 Clouds 29 1014 58 10000 6.2 360 22:40 16.03.2020
1243 Clouds 29 1014 58 10000 6.2 360 22:22 16.03.2020
1244 Clouds 29 1015 58 10000 5.1 360 21:57 16.03.2020
1245 Clouds 29 1015 58 10000 5.1 360 21:57 16.03.2020
1246 Clouds 29 1015 58 10000 5.1 360 21:38 16.03.2020
1247 Clouds 29 1015 58 10000 5.1 360 21:20 16.03.2020
1248 Clouds 30 1017 58 10000 7.7 360 20:55 16.03.2020
1249 Clouds 30 1017 58 10000 7.7 360 20:37 16.03.2020
1250 Clouds 30 1017 58 10000 7.7 360 20:18 16.03.2020
1251 Clouds 30 1017 58 10000 7.7 360 20:18 16.03.2020
1252 Clouds 30 1017 58 10000 7.7 360 19:40 16.03.2020
1253 Clouds 30 1017 58 10000 7.7 360 19:20 16.03.2020
1254 Clouds 29 1018 65 10000 6.2 360 18:41 16.03.2020
1255 Clouds 29 1018 65 10000 6.2 360 18:20 16.03.2020
1256 Clouds 28 1017 61 10000 5.1 360 17:47 16.03.2020
1257 Clouds 28 1017 61 10000 5.1 360 17:26 16.03.2020
1258 Clouds 27 1018 69 10000 5.1 360 16:59 16.03.2020
1259 Clouds 27 1018 69 10000 5.1 360 16:41 16.03.2020
1260 Clouds 27 1018 69 10000 5.1 360 16:22 16.03.2020
1261 Clouds 26 1018 78 10000 5.1 360 15:44 16.03.2020
1262 Clouds 26 1018 78 10000 5.1 360 15:25 16.03.2020
1263 Clouds 24 1017 78 10000 5.1 360 14:49 16.03.2020
1264 Clouds 24 1017 78 10000 5.1 360 14:25 16.03.2020
1265 Clouds 22 1017 83 10000 5.1 270 13:55 16.03.2020
1266 Clouds 22 1017 83 10000 5.1 270 13:37 16.03.2020
1267 Clouds 22 1017 83 10000 5.1 270 13:18 16.03.2020
1268 Clouds 21 1017 88 10000 2.6 360 12:42 16.03.2020
1269 Clouds 21 1017 88 10000 2.6 360 12:23 16.03.2020
1270 Clouds 21 1016 93 10000 2.1 350 11:45 16.03.2020
1271 Clouds 19 1016 93 10000 2.1 350 11:26 16.03.2020
1272 Clouds 20 1016 88 10000 2.1 10 10:47 16.03.2020
1273 Clouds 21 1016 88 10000 2.1 10 10:25 16.03.2020
1274 Clouds 21 1016 88 10000 2.1 10 09:59 16.03.2020
1275 Clouds 21 1016 94 10000 1.5 0 09:40 16.03.2020
1276 Clouds 21 1016 94 10000 1.5 0 09:20 16.03.2020
1277 Clouds 22 1016 88 10000 2.1 350 08:43 16.03.2020
1278 Clouds 22 1016 88 10000 2.1 350 08:23 16.03.2020
1279 Clear 23 1019 91 0 5 353 07:44 16.03.2020
1280 Clear 23 1019 91 0 5 353 07:21 16.03.2020
1281 Clouds 23 1017 88 10000 2.1 10 06:46 16.03.2020
1282 Clouds 23 1017 88 10000 2.1 10 06:22 16.03.2020
1283 Clouds 23 1018 83 10000 2.1 10 04:26 16.03.2020
1284 Clouds 24 1016 73 10000 3.1 30 01:47 16.03.2020
1285 Clouds 26 1016 74 10000 7.7 10 00:46 16.03.2020
1286 Clouds 26 1016 74 10000 7.7 10 00:27 16.03.2020
1287 Clouds 27 1015 69 10000 4.1 360 23:40 15.03.2020
1288 Clouds 27 1015 69 10000 4.1 360 23:19 15.03.2020
1289 Clouds 28 1015 70 10000 5.1 360 22:42 15.03.2020
1290 Clouds 28 1015 70 10000 5.1 360 22:21 15.03.2020
1291 Clouds 29 1015 62 10000 5.1 360 21:39 15.03.2020
1292 Clouds 29 1015 62 10000 5.1 360 21:21 15.03.2020
1293 Clouds 30 1015 58 10000 5.1 360 20:58 15.03.2020
1294 Clouds 29 1015 58 10000 5.1 360 20:40 15.03.2020
1295 Clouds 30 1015 58 10000 5.1 360 20:19 15.03.2020
1296 Clouds 29 1016 62 10000 5.1 360 19:55 15.03.2020
1297 Clouds 30 1016 62 10000 5.1 360 19:37 15.03.2020
1298 Clouds 30 1016 62 10000 5.1 360 19:18 15.03.2020
1299 Clouds 29 1018 62 10000 6.2 360 18:42 15.03.2020
1300 Clouds 29 1018 62 10000 6.2 360 18:24 15.03.2020
1301 Clouds 29 1018 66 10000 6.2 360 17:59 15.03.2020
1302 Clouds 29 1018 66 10000 6.2 360 17:39 15.03.2020
1303 Clouds 29 1018 66 10000 6.2 360 17:20 15.03.2020
1304 Clouds 28 1019 69 10000 7.2 360 16:55 15.03.2020
1305 Clouds 28 1019 69 10000 7.2 360 16:36 15.03.2020
1306 Clouds 28 1019 69 10000 7.2 360 16:18 15.03.2020
1307 Clouds 27 1018 78 10000 7.2 360 15:41 15.03.2020
1308 Clouds 27 1018 78 10000 7.2 360 15:20 15.03.2020
1309 Clouds 25 1018 94 10000 5.1 360 14:47 15.03.2020
1310 Clouds 25 1018 94 10000 5.1 360 14:26 15.03.2020
1311 Clouds 22 1017 94 10000 4.16 358 13:59 15.03.2020
1312 Clouds 23 1017 94 10000 4.16 358 13:39 15.03.2020
1313 Clouds 23 1017 94 10000 4.21 358 13:21 15.03.2020
1314 Clouds 22 1018 94 10000 2.1 360 12:44 15.03.2020
1315 Clouds 22 1018 94 10000 2.1 360 12:26 15.03.2020
1316 Clouds 21 1017 94 10000 3.1 10 11:59 15.03.2020
1317 Clouds 21 1017 94 10000 3.1 10 11:40 15.03.2020
1318 Clouds 21 1017 94 10000 3.1 10 11:22 15.03.2020
1319 Clouds 21 1017 94 10000 2.1 350 10:56 15.03.2020
1320 Clouds 21 1017 94 10000 2.1 350 10:37 15.03.2020
1321 Clouds 21 1017 94 10000 2.1 350 10:18 15.03.2020
1322 Clouds 22 1017 94 10000 2.6 360 09:40 15.03.2020
1323 Clouds 22 1017 94 10000 2.6 360 09:21 15.03.2020
1324 Clouds 22 1017 88 10000 3.1 10 08:42 15.03.2020
1325 Clouds 22 1017 88 10000 3.1 10 08:21 15.03.2020
1326 Clouds 22 1017 94 10000 2.6 30 07:51 15.03.2020
1327 Clouds 22 1017 94 10000 2.6 30 07:31 15.03.2020
1328 Clouds 22 1018 94 10000 2.1 30 06:52 15.03.2020
1329 Clouds 23 1018 88 10000 2.1 40 05:50 15.03.2020
1330 Clouds 23 1018 88 10000 2.1 40 05:18 15.03.2020
1331 Clouds 24 1018 88 10000 2.1 20 04:43 15.03.2020
1332 Clouds 24 1018 88 10000 2.1 20 04:24 15.03.2020
1333 Clouds 24 1018 83 10000 2.1 50 03:38 15.03.2020
1334 Clouds 24 1017 78 10000 3.1 20 02:37 15.03.2020
1335 Clouds 25 1016 78 10000 3.1 40 01:34 15.03.2020
1336 Clouds 26 1016 78 10000 5.1 360 00:45 15.03.2020
1337 Clouds 26 1016 78 10000 5.1 360 00:22 15.03.2020
1338 Clouds 27 1016 69 10000 7.7 360 23:42 14.03.2020
1339 Clouds 28 1016 69 10000 7.7 360 23:22 14.03.2020
1340 Clouds 29 1015 66 10000 9.3 360 22:59 14.03.2020
1341 Clouds 29 1015 66 10000 9.3 360 22:41 14.03.2020
1342 Clouds 29 1015 66 10000 9.3 360 22:23 14.03.2020
1343 Clouds 30 1015 62 10000 5.1 360 21:56 14.03.2020
1344 Clouds 30 1015 62 10000 5.1 360 21:36 14.03.2020
1345 Clouds 30 1015 62 10000 5.1 360 21:18 14.03.2020
1346 Clouds 30 1016 70 10000 7.2 60 20:58 14.03.2020
1347 Clouds 30 1016 70 10000 7.2 60 20:39 14.03.2020
1348 Clouds 30 1016 70 10000 7.2 60 20:19 14.03.2020
1349 Clouds 30 1016 62 10000 6.2 30 19:42 14.03.2020
1350 Clouds 30 1016 62 10000 6.2 30 19:42 14.03.2020
1351 Clouds 30 1016 62 10000 6.2 30 19:24 14.03.2020
1352 Clouds 28 1018 69 8000 10.3 30 18:41 14.03.2020
1353 Clouds 28 1018 69 8000 10.3 30 18:22 14.03.2020
1354 Clouds 29 1019 62 10000 7.7 30 17:56 14.03.2020
1355 Clouds 29 1019 62 10000 7.7 30 17:37 14.03.2020
1356 Clouds 29 1019 62 10000 7.7 30 17:19 14.03.2020
1357 Clouds 28 1019 69 10000 6.2 360 16:40 14.03.2020
1358 Clouds 28 1019 69 10000 6.2 360 16:22 14.03.2020
1359 Clouds 27 1019 69 10000 4.1 360 15:54 14.03.2020
1360 Clouds 27 1019 69 10000 4.1 360 15:26 14.03.2020
1361 Clouds 26 1019 74 10000 3.1 360 14:47 14.03.2020
1362 Clouds 26 1019 74 10000 3.1 360 14:24 14.03.2020
1363 Clouds 24 1019 83 10000 3.1 30 13:58 14.03.2020
1364 Clouds 24 1019 83 10000 3.1 30 13:39 14.03.2020
1365 -273 0 0 0 0 0 13:21 14.03.2020
1366 Clouds 22 1017 100 10000 2.1 20 12:47 14.03.2020
1367 Clouds 22 1017 100 10000 2.1 20 12:27 14.03.2020
1368 Clouds 23 1017 100 10000 2.1 50 11:56 14.03.2020
1369 Clouds 20 1017 100 10000 2.1 50 11:38 14.03.2020
1370 Clouds 20 1017 100 10000 2.1 50 11:19 14.03.2020
1371 Clouds 21 1016 100 10000 2.1 30 10:44 14.03.2020
1372 Clouds 21 1016 100 10000 2.1 30 10:25 14.03.2020
1373 Clouds 22 1016 94 10000 2.1 20 09:47 14.03.2020
1374 Clouds 22 1016 94 10000 2.1 20 09:24 14.03.2020
1375 Clouds 22 1016 94 10000 3.1 20 08:54 14.03.2020
1376 Clouds 22 1016 94 10000 3.1 20 08:35 14.03.2020
1377 Clouds 22 1017 94 10000 3.1 352 07:56 14.03.2020
1378 Clouds 22 1017 94 10000 3.1 352 07:38 14.03.2020
1379 Clouds 23 1017 94 10000 3.1 352 07:19 14.03.2020
1380 Clouds 23 1017 94 10000 3.1 352 06:41 14.03.2020
1381 Clouds 23 1017 100 10000 3.1 352 05:47 14.03.2020
1382 Clouds 23 1017 100 10000 3.1 352 05:47 14.03.2020
1383 Clouds 24 1017 94 10000 2.1 20 04:42 14.03.2020
1384 Clouds 24 1016 94 10000 3.14 352 03:24 14.03.2020
1385 Clouds 25 1016 88 10000 2.1 70 02:25 14.03.2020
1386 Rain 26 1013 83 10000 3.1 360 00:57 14.03.2020
1387 Clouds 27 1013 70 10000 4.1 70 23:51 13.03.2020
1388 Clouds 27 1013 70 10000 4.1 70 23:30 13.03.2020
1389 Clouds 28 1013 66 10000 4.1 50 22:52 13.03.2020
1390 Clouds 28 1013 66 10000 4.1 50 22:52 13.03.2020
1391 Clouds 28 1013 66 10000 4.1 50 22:26 13.03.2020
1392 Clouds 29 1014 62 10000 5.1 360 21:44 13.03.2020
1393 Clouds 29 1014 62 10000 5.1 360 21:22 13.03.2020
1394 Rain 28 1014 58 10000 2.1 40 20:59 13.03.2020
1395 Rain 28 1014 58 10000 2.1 40 20:41 13.03.2020
1396 Rain 28 1014 58 10000 2.1 40 20:21 13.03.2020
1397 Clouds 29 1014 58 10000 5.1 360 19:48 13.03.2020
1398 Clouds 30 1014 58 10000 5.1 360 19:30 13.03.2020
1399 Clouds 30 1015 58 10000 3.1 70 18:49 13.03.2020
1400 Clouds 30 1015 58 10000 3.1 70 18:31 13.03.2020
1401 Clouds 30 1016 62 10000 3.6 60 17:57 13.03.2020
1402 Clouds 30 1016 62 10000 3.6 60 17:39 13.03.2020
1403 Clouds 30 1016 62 10000 3.6 60 17:20 13.03.2020
1404 Clouds 29 1016 69 10000 3.1 330 16:42 13.03.2020
1405 Clouds 29 1016 69 10000 3.1 330 16:24 13.03.2020
1406 Clouds 28 1016 69 10000 3.1 330 15:58 13.03.2020
1407 Clouds 27 1015 88 10000 2.5 25 15:38 13.03.2020
1408 Clouds 27 1015 88 10000 2.5 25 15:20 13.03.2020
1409 Clouds 25 1015 94 10000 2.5 25 14:43 13.03.2020
1410 Clouds 23 1015 94 10000 2.5 25 14:22 13.03.2020
1411 Clouds 23 1014 94 10000 2.24 349 13:57 13.03.2020
1412 Clouds 23 1014 94 10000 2.24 349 13:39 13.03.2020
1413 Clouds 22 1014 94 10000 2.32 347 13:19 13.03.2020
1414 Clouds 23 1014 94 10000 2.1 20 12:54 13.03.2020
1415 Clouds 22 1014 94 10000 2.1 20 12:36 13.03.2020
1416 Clouds 22 1014 94 10000 2.1 20 12:18 13.03.2020
1417 Clouds 22 1014 100 10000 2.1 20 11:42 13.03.2020
1418 Clouds 22 1014 100 10000 2.1 20 11:24 13.03.2020
1419 Clouds 22 1013 94 10000 2.1 0 10:48 13.03.2020
1420 Clouds 23 1013 94 10000 2.1 0 10:28 13.03.2020
1421 Clouds 23 1013 100 10000 4.1 40 09:59 13.03.2020
1422 Clouds 23 1013 100 10000 4.1 40 09:41 13.03.2020
1423 Clouds 23 1013 100 10000 4.1 40 09:22 13.03.2020
1424 Clouds 23 1014 88 10000 1.71 344 08:45 13.03.2020
1425 Clouds 23 1014 88 10000 1.71 344 08:23 13.03.2020
1426 Clouds 23 1014 88 10000 2.1 30 07:50 13.03.2020
1427 Clouds 23 1014 88 10000 2.1 30 07:28 13.03.2020
1428 Clouds 24 1015 88 10000 2.1 30 06:53 13.03.2020
1429 Clouds 24 1015 88 10000 2.1 30 06:32 13.03.2020
1430 Clouds 24 1015 88 10000 2.1 10 05:54 13.03.2020
1431 Clouds 24 1015 88 10000 2.1 10 05:24 13.03.2020
1432 Clouds 24 1015 83 10000 2.1 50 04:38 13.03.2020
1433 Clouds 24 1014 83 10000 2.1 70 03:42 13.03.2020
1434 Clouds 25 1013 78 10000 2.1 30 01:47 13.03.2020
1435 Clouds 26 1013 78 10000 2.1 30 01:19 13.03.2020
1436 Clouds 26 1013 88 10000 1.23 127 00:53 13.03.2020
1437 Clouds 26 1013 88 10000 1.23 127 00:24 13.03.2020
1438 Clouds 27 1012 78 10000 2.6 110 23:50 12.03.2020
1439 Clouds 27 1012 78 10000 2.6 110 23:27 12.03.2020
1440 Clouds 27 1012 83 10000 3.1 90 22:56 12.03.2020
1441 Clouds 27 1012 83 10000 3.1 90 22:38 12.03.2020
1442 Clouds 27 1012 83 10000 3.1 90 22:20 12.03.2020
1443 Rain 28 1012 78 8000 4.1 160 21:43 12.03.2020
1444 Rain 27 1012 78 8000 4.1 160 21:25 12.03.2020
1445 Clouds 27 1012 78 10000 4.1 150 20:57 12.03.2020
1446 Clouds 27 1012 78 10000 4.1 150 20:37 12.03.2020
1447 Clouds 27 1012 78 10000 4.1 150 20:37 12.03.2020
1448 Clouds 27 1012 78 10000 4.1 150 20:18 12.03.2020
1449 Clouds 27 1013 78 10000 2.1 170 19:39 12.03.2020
1450 Clouds 26 1013 78 10000 2.1 170 19:20 12.03.2020
1451 Rain 26 1014 78 8000 3.1 180 18:43 12.03.2020
1452 Rain 26 1014 78 8000 3.1 180 18:24 12.03.2020
1453 Rain 27 1014 74 8000 3.1 150 17:57 12.03.2020
1454 Rain 26 1014 74 8000 3.1 150 17:38 12.03.2020
1455 Rain 26 1014 74 8000 3.1 150 17:38 12.03.2020
1456 Rain 26 1014 74 8000 3.1 150 17:19 12.03.2020
1457 Clouds 26 1014 74 10000 3.1 70 16:54 12.03.2020
1458 Clouds 27 1014 74 10000 3.1 70 16:36 12.03.2020
1459 Clouds 27 1014 74 10000 3.1 70 16:18 12.03.2020
1460 Clouds 27 1014 74 10000 1.51 88 15:43 12.03.2020
1461 Clouds 27 1014 74 10000 1.51 88 15:24 12.03.2020
1462 Clouds 25 1013 88 10000 1.51 88 14:40 12.03.2020
1463 Clouds 24 1013 88 10000 1.51 88 14:21 12.03.2020
1464 Clouds 23 1013 100 10000 2.1 10 13:41 12.03.2020
1465 Clouds 23 1013 100 10000 2.1 10 13:22 12.03.2020
1466 Clouds 23 1012 94 10000 2.1 10 12:56 12.03.2020
1467 Clouds 22 1012 94 10000 2.1 10 12:38 12.03.2020
1468 Clouds 22 1012 94 10000 2.1 10 12:19 12.03.2020
1469 Clouds 22 1012 94 10000 2.1 350 11:56 12.03.2020
1470 Clouds 22 1012 94 10000 2.1 350 11:37 12.03.2020
1471 Clouds 21 1012 94 10000 2.1 350 11:19 12.03.2020
1472 Clouds 21 1012 94 10000 2.1 350 11:19 12.03.2020
1473 Clouds 21 1012 94 10000 2.1 10 10:57 12.03.2020
1474 Clouds 21 1012 94 10000 2.1 10 10:57 12.03.2020
1475 Clouds 21 1012 94 10000 2.1 10 10:39 12.03.2020
1476 Clouds 22 1012 94 10000 2.1 10 10:21 12.03.2020
1477 Clouds 23 1012 88 10000 2.1 10 09:43 12.03.2020
1478 Clouds 23 1012 88 10000 2.1 10 09:43 12.03.2020
1479 Clouds 23 1012 88 10000 2.1 10 09:25 12.03.2020
1480 Clouds 23 1012 94 10000 2.02 336 08:41 12.03.2020
1481 Clouds 23 1012 94 10000 2.17 336 08:20 12.03.2020
1482 Clouds 23 1013 94 10000 2.17 336 07:53 12.03.2020
1483 Clouds 23 1013 94 10000 2.17 336 07:23 12.03.2020
1484 Clouds 23 1014 88 10000 1.5 0 06:52 12.03.2020
1485 Clouds 23 1014 88 10000 1.5 0 05:41 12.03.2020
1486 Clouds 24 1014 83 10000 2.1 40 04:29 12.03.2020
1487 Clouds 24 1014 78 10000 2.1 50 02:38 12.03.2020
1488 Clouds 24 1013 78 10000 3.1 70 01:31 12.03.2020
1489 Clouds 26 1013 83 10000 3.1 30 00:44 12.03.2020
1490 Clouds 26 1013 83 10000 3.1 30 00:26 12.03.2020
1491 Clouds 26 1013 78 10000 3.1 90 23:45 11.03.2020
1492 Clouds 26 1013 78 10000 3.1 90 23:24 11.03.2020
1493 Clouds 28 1014 69 10000 5.1 90 22:48 11.03.2020
1494 Clouds 28 1014 69 10000 5.1 90 22:29 11.03.2020
1495 Clouds 28 1014 69 10000 5.1 90 21:59 11.03.2020
1496 Clouds 28 1014 74 10000 5.1 120 21:41 11.03.2020
1497 Clouds 28 1014 74 10000 5.1 120 21:22 11.03.2020
1498 Clouds 28 1014 74 10000 5.1 120 21:22 11.03.2020
1499 Clouds 29 1015 66 10000 5.1 90 20:58 11.03.2020
1500 Clouds 29 1015 66 10000 5.1 90 20:39 11.03.2020
1501 Clouds 29 1015 66 10000 5.1 90 20:19 11.03.2020
1502 Clouds 29 1016 70 10000 5.1 90 19:43 11.03.2020
1503 Clouds 29 1016 70 10000 5.1 90 19:25 11.03.2020
1504 Clouds 29 1017 74 10000 5.1 30 18:58 11.03.2020
1505 Clouds 29 1017 74 10000 5.1 30 18:38 11.03.2020
1506 Clouds 29 1017 74 10000 5.1 30 18:20 11.03.2020
1507 Clouds 29 1017 70 10000 3.1 30 17:56 11.03.2020
1508 Clouds 29 1017 70 10000 3.1 30 17:37 11.03.2020
1509 Clouds 29 1017 70 10000 3.1 30 17:19 11.03.2020
1510 Clouds 28 1016 70 10000 5.1 90 16:45 11.03.2020
1511 Clouds 28 1016 70 10000 5.1 90 16:21 11.03.2020
1512 Clouds 26 1016 83 10000 4.1 30 15:44 11.03.2020
1513 Clouds 26 1016 83 10000 4.1 30 15:23 11.03.2020
1514 Clouds 24 1015 83 10000 2.8 28 14:56 11.03.2020
1515 Clouds 24 1015 83 10000 2.8 28 14:38 11.03.2020
1516 Clouds 23 1015 83 10000 2.78 340 14:19 11.03.2020
1517 Clouds 22 1015 94 10000 2.78 340 13:44 11.03.2020
1518 Clouds 22 1015 94 10000 2.78 340 13:25 11.03.2020
1519 Clouds 22 1015 100 10000 2.6 10 12:57 11.03.2020
1520 Clouds 22 1015 100 10000 2.6 10 12:39 11.03.2020
1521 Clouds 22 1015 100 10000 2.6 10 12:19 11.03.2020
1522 Clouds 21 1014 100 10000 2.1 360 11:41 11.03.2020
1523 Clouds 21 1014 100 10000 2.1 360 11:22 11.03.2020
1524 Clouds 21 1015 100 10000 2.1 360 10:49 11.03.2020
1525 Clouds 21 1015 100 10000 2.1 360 10:21 11.03.2020
1526 Clouds 22 1015 100 10000 2.1 360 10:00 11.03.2020
1527 Clouds 22 1015 100 10000 3.1 360 09:41 11.03.2020
1528 Clouds 22 1015 100 10000 3.1 360 09:22 11.03.2020
1529 Clouds 22 1015 100 10000 3.1 360 09:22 11.03.2020
1530 Clouds 22 1014 94 10000 2.6 350 08:44 11.03.2020
1531 Clouds 22 1014 94 10000 2.6 350 08:26 11.03.2020
1532 Clouds 22 1016 94 10000 2.1 360 07:48 11.03.2020
1533 Clouds 22 1016 94 10000 2.1 360 07:22 11.03.2020
1534 Clouds 22 1017 94 10000 2.1 360 06:53 11.03.2020
1535 Clouds 22 1017 94 10000 2.1 360 06:33 11.03.2020
1536 Clouds 22 1018 94 10000 2.1 360 05:33 11.03.2020
1537 Clouds 23 1018 88 10000 2.1 40 03:26 11.03.2020
1538 Clouds 23 1017 83 10000 2.1 20 01:54 11.03.2020
1539 Clouds 23 1017 83 10000 2.1 20 01:24 11.03.2020
1540 Clouds 23 1017 94 10000 4.51 349 00:40 11.03.2020
1541 Clouds 24 1016 83 10000 4.1 360 23:50 10.03.2020
1542 Clouds 25 1016 83 10000 4.1 360 23:28 10.03.2020
1543 Clouds 25 1016 83 10000 4.1 360 22:58 10.03.2020
1544 Clouds 25 1016 83 10000 4.1 360 22:37 10.03.2020
1545 Clouds 25 1016 83 10000 4.1 360 22:19 10.03.2020
1546 Rain 25 1016 83 8000 5.1 360 21:56 10.03.2020
1547 Rain 24 1016 83 8000 5.1 360 21:38 10.03.2020
1548 Rain 24 1016 83 8000 5.1 360 21:19 10.03.2020
1549 Clouds 25 1016 74 10000 3.1 130 20:43 10.03.2020
1550 Clouds 26 1016 74 10000 3.1 130 20:21 10.03.2020
1551 Clouds 26 1016 74 10000 3.1 130 19:59 10.03.2020
1552 Rain 26 1018 83 0 3.1 360 19:41 10.03.2020
1553 Rain 26 1018 83 0 3.1 360 19:23 10.03.2020
1554 Rain 27 1019 66 10000 7.2 360 18:58 10.03.2020
1555 Clouds 27 1019 66 10000 7.2 360 18:40 10.03.2020
1556 Clouds 27 1019 66 10000 7.2 360 18:21 10.03.2020
1557 Clouds 28 1019 69 10000 4.1 70 17:56 10.03.2020
1558 Clouds 27 1019 69 10000 4.1 70 17:37 10.03.2020
1559 Clouds 27 1019 69 10000 4.1 70 17:18 10.03.2020
1560 Clouds 26 1020 74 10000 3.1 60 16:38 10.03.2020
1561 Clouds 26 1020 74 10000 3.1 60 16:18 10.03.2020
1562 Clouds 25 1019 88 10000 4.1 360 15:43 10.03.2020
1563 Clouds 25 1019 88 10000 4.1 360 15:20 10.03.2020
1564 Clouds 25 1019 88 10000 4.1 360 14:59 10.03.2020
1565 Clouds 24 1018 94 10000 3.1 360 14:40 10.03.2020
1566 Clouds 23 1018 94 10000 3.1 360 14:19 10.03.2020
1567 Clouds 23 1019 100 10000 2.1 360 13:44 10.03.2020
1568 Clouds 22 1019 100 10000 2.1 360 13:26 10.03.2020
1569 Clouds 22 1019 100 10000 3.1 10 12:56 10.03.2020
1570 Clouds 22 1019 100 10000 3.1 10 12:37 10.03.2020
1571 Clouds 22 1019 100 10000 3.1 10 12:37 10.03.2020
1572 Clouds 21 1019 100 10000 3.1 10 12:18 10.03.2020
1573 Clouds 21 1018 100 10000 2.6 360 11:42 10.03.2020
1574 Clouds 21 1018 100 10000 2.6 360 11:24 10.03.2020
1575 Rain 21 1018 100 8000 4.57 346 10:58 10.03.2020
1576 Rain 21 1018 100 8000 4.57 346 10:39 10.03.2020
1577 Rain 22 1018 100 8000 2.1 330 10:19 10.03.2020
1578 Rain 21 1018 100 8000 2.1 330 09:55 10.03.2020
1579 Rain 21 1018 100 8000 2.1 330 09:36 10.03.2020
1580 Rain 21 1018 100 8000 2.1 330 09:18 10.03.2020
1581 Rain 21 1018 100 8000 2.1 20 08:42 10.03.2020
1582 Rain 21 1018 100 8000 2.1 20 08:24 10.03.2020
1583 Rain 21 1020 100 8000 2.1 20 07:45 10.03.2020
1584 Rain 21 1020 100 8000 2.1 20 07:27 10.03.2020
1585 Rain 21 1020 100 8000 2.1 10 06:38 10.03.2020
1586 Rain 21 1021 88 7000 2.1 360 05:58 10.03.2020
1587 Rain 21 1021 88 7000 2.1 360 05:38 10.03.2020
1588 Rain 22 1021 88 8000 3.1 10 04:33 10.03.2020
1589 Clouds 22 1021 88 10000 3.1 20 03:31 10.03.2020
1590 Rain 22 1020 78 8000 3.1 20 01:43 10.03.2020
1591 Rain 22 1021 94 8000 2.6 350 00:52 10.03.2020
1592 Rain 22 1021 94 8000 2.6 350 00:29 10.03.2020
1593 Rain 22 1021 100 8000 3.6 350 23:55 09.03.2020
1594 Rain 22 1021 100 8000 3.6 350 23:36 09.03.2020
1595 Rain 22 1021 100 8000 3.6 350 23:18 09.03.2020
1596 Rain 23 1021 94 7000 4.1 360 22:38 09.03.2020
1597 Rain 23 1021 94 7000 4.1 360 22:20 09.03.2020
1598 Rain 24 1019 65 10000 5.1 50 21:45 09.03.2020
1599 Clouds 25 1019 65 10000 5.1 50 21:22 09.03.2020
1600 Clouds 25 1019 65 10000 5.1 50 21:22 09.03.2020
1601 Rain 25 1021 78 8000 5.1 360 20:59 09.03.2020
1602 Rain 25 1021 78 8000 5.1 360 20:41 09.03.2020
1603 Rain 25 1021 78 8000 5.1 360 20:22 09.03.2020
1604 Clouds 25 1022 88 10000 5.1 360 19:59 09.03.2020
1605 Clouds 25 1022 88 10000 5.1 360 19:41 09.03.2020
1606 Clouds 25 1022 88 10000 5.1 360 19:19 09.03.2020
1607 Clouds 25 1022 74 10000 7.7 30 18:56 09.03.2020
1608 Clouds 25 1022 74 10000 7.7 30 18:56 09.03.2020
1609 Clouds 25 1022 74 10000 7.7 30 18:38 09.03.2020
1610 Clouds 25 1022 74 10000 7.7 30 18:18 09.03.2020
1611 Rain 25 1023 78 8000 5.1 30 17:55 09.03.2020
1612 Rain 25 1023 78 8000 5.1 30 17:37 09.03.2020
1613 Rain 25 1023 78 8000 5.1 30 17:19 09.03.2020
1614 Rain 25 1023 78 7000 5.1 30 16:55 09.03.2020
1615 Rain 25 1023 78 7000 5.1 30 16:36 09.03.2020
1616 Clouds 25 1023 88 10000 7.7 30 16:18 09.03.2020
1617 Clouds 25 1023 88 10000 7.7 30 15:55 09.03.2020
1618 Clouds 25 1023 88 10000 7.7 30 15:55 09.03.2020
1619 Clouds 25 1023 88 10000 7.7 30 15:37 09.03.2020
1620 Clouds 24 1023 88 10000 7.7 30 15:18 09.03.2020
1621 Clouds 24 1022 83 10000 5.1 360 14:39 09.03.2020
1622 Clouds 23 1022 83 10000 5.1 360 14:20 09.03.2020
1623 Clouds 23 1018 88 10000 6.2 360 13:58 09.03.2020
1624 Clouds 22 1018 88 10000 6.2 360 13:39 09.03.2020
1625 Clouds 22 1018 88 10000 6.2 360 13:20 09.03.2020
1626 Clouds 21 1020 100 10000 4.1 20 12:44 09.03.2020
1627 Clouds 21 1020 100 10000 4.1 20 12:24 09.03.2020
1628 Clouds 21 1019 94 10000 4.1 20 11:58 09.03.2020
1629 Clouds 21 1019 94 10000 4.1 20 11:40 09.03.2020
1630 Clouds 21 1019 94 10000 4.1 20 11:20 09.03.2020
1631 Clouds 21 1019 94 10000 2.6 10 10:55 09.03.2020
1632 Clouds 21 1019 94 10000 2.6 10 10:37 09.03.2020
1633 Clouds 21 1019 94 10000 2.6 10 10:18 09.03.2020
1634 Clouds 21 1018 94 10000 3.1 10 09:42 09.03.2020
1635 Clouds 21 1018 94 10000 3.1 10 09:23 09.03.2020
1636 Rain 22 1021 100 0 5.69 10 08:45 09.03.2020
1637 Clouds 22 1019 94 10000 3.1 50 08:27 09.03.2020
1638 Clouds 22 1019 94 10000 3.1 50 07:44 09.03.2020
1639 Clouds 22 1019 94 10000 3.1 50 07:23 09.03.2020
1640 Clouds 22 1020 94 10000 2.6 30 06:59 09.03.2020
1641 Clouds 22 1020 94 10000 2.6 30 06:39 09.03.2020
1642 Clouds 22 1020 94 10000 2.6 30 06:20 09.03.2020
1643 Clouds 22 1020 88 10000 2.6 30 05:41 09.03.2020
1644 Clouds 22 1020 94 10000 2.6 20 04:48 09.03.2020
1645 Clouds 22 1020 94 10000 2.6 20 04:23 09.03.2020
1646 Clouds 22 1020 94 10000 2.6 10 03:46 09.03.2020
1647 Clouds 22 1020 94 10000 4.1 30 02:37 09.03.2020
1648 Rain 23 1017 94 8000 6.2 360 00:42 09.03.2020
1649 Rain 23 1017 94 8000 6.2 360 00:24 09.03.2020
1650 Clouds 23 1017 78 10000 3.6 20 23:55 08.03.2020
1651 Clouds 24 1017 78 10000 3.6 20 23:28 08.03.2020
1652 Rain 25 1015 88 8000 6.7 360 22:58 08.03.2020
1653 Rain 25 1015 88 8000 6.7 360 22:39 08.03.2020
1654 Rain 25 1015 88 8000 6.7 360 22:21 08.03.2020
1655 Rain 26 1016 78 8000 6.2 360 21:57 08.03.2020
1656 Rain 26 1016 78 8000 6.2 360 21:57 08.03.2020
1657 Rain 26 1016 78 8000 6.2 360 21:39 08.03.2020
1658 Rain 26 1016 78 8000 6.2 360 21:19 08.03.2020
1659 Rain 26 1016 78 8000 6.2 360 21:19 08.03.2020
1660 Clouds 27 1017 69 10000 6.2 360 20:56 08.03.2020
1661 Clouds 27 1017 69 10000 6.2 360 20:37 08.03.2020
1662 Clouds 27 1017 69 10000 6.2 360 20:18 08.03.2020
1663 Clouds 26 1017 78 10000 4.6 20 19:37 08.03.2020
1664 Rain 26 1017 78 10000 4.6 20 19:19 08.03.2020
1665 Rain 26 1017 78 10000 4.6 20 19:19 08.03.2020
1666 Rain 25 1018 74 8000 6.2 360 18:42 08.03.2020
1667 Rain 25 1018 74 8000 6.2 360 18:24 08.03.2020
1668 Rain 26 1018 74 8000 6.2 360 17:57 08.03.2020
1669 Clouds 27 1018 70 0 4.02 13 17:38 08.03.2020
1670 Clouds 27 1019 74 10000 4.1 360 17:19 08.03.2020
1671 Clouds 27 1019 74 10000 4.1 360 16:47 08.03.2020
1672 Clouds 27 1019 74 10000 4.1 360 16:28 08.03.2020
1673 Clouds 27 1019 78 10000 3.1 360 15:58 08.03.2020
1674 Clouds 26 1019 78 10000 3.1 360 15:40 08.03.2020
1675 Clouds 26 1019 78 10000 3.1 360 15:21 08.03.2020
1676 Clouds 25 1018 83 10000 2.1 330 14:42 08.03.2020
1677 Clouds 24 1018 83 10000 2.1 330 14:22 08.03.2020
1678 Clouds 24 1018 83 10000 2.1 330 13:59 08.03.2020
1679 Clouds 23 1018 88 10000 4.18 351 13:39 08.03.2020
1680 Clouds 23 1018 88 10000 4.18 351 13:19 08.03.2020
1681 Clouds 23 1016 94 10000 2.1 360 12:43 08.03.2020
1682 Clouds 23 1016 94 10000 2.1 360 12:43 08.03.2020
1683 Clouds 23 1016 94 10000 2.1 360 12:24 08.03.2020
1684 Clouds 23 1016 94 10000 2.1 360 11:56 08.03.2020
1685 Clouds 23 1015 94 10000 2.1 360 11:38 08.03.2020
1686 Clouds 23 1015 94 10000 2.1 20 11:19 08.03.2020
1687 Clouds 22 1015 94 10000 2.1 20 10:41 08.03.2020
1688 Clouds 22 1015 94 10000 2.1 20 10:23 08.03.2020
1689 Clouds 22 1015 94 10000 3.1 30 09:43 08.03.2020
1690 Clouds 22 1015 94 10000 3.1 30 09:25 08.03.2020
1691 Clouds 23 1015 88 10000 3.1 20 08:57 08.03.2020
1692 Clouds 23 1015 88 10000 3.1 20 08:39 08.03.2020
1693 Clouds 23 1015 88 10000 3.1 20 08:19 08.03.2020
1694 Clouds 23 1015 88 10000 2.1 30 07:42 08.03.2020
1695 Clouds 24 1015 88 10000 2.1 30 07:23 08.03.2020
1696 Clouds 24 1016 88 10000 2.1 30 06:42 08.03.2020
1697 Clouds 24 1016 88 10000 2.1 30 06:22 08.03.2020
1698 Clouds 24 1016 88 10000 2.1 50 05:35 08.03.2020
1699 Clouds 25 1016 83 10000 2.1 50 03:52 08.03.2020
1700 Clouds 25 1015 88 10000 2.2 338 02:29 08.03.2020
1701 Clouds 26 1014 78 10000 0.5 188 01:23 08.03.2020
1702 Clouds 26 1014 78 10000 0.5 188 00:49 08.03.2020
1703 Clouds 27 1014 78 10000 0.5 188 00:26 08.03.2020
1704 Clouds 27 1014 74 10000 3.1 160 23:44 07.03.2020
1705 Clouds 27 1014 74 10000 3.1 160 23:23 07.03.2020
1706 Clouds 28 1014 74 10000 5.1 180 22:41 07.03.2020
1707 Clouds 28 1014 74 10000 5.1 180 22:22 07.03.2020
1708 Clouds 29 1014 70 10000 5.1 180 21:50 07.03.2020
1709 Clouds 29 1014 70 10000 5.1 180 21:29 07.03.2020
1710 Clouds 29 1015 66 10000 5.1 160 20:57 07.03.2020
1711 Clouds 29 1015 66 10000 5.1 160 20:57 07.03.2020
1712 Clouds 29 1015 66 10000 5.1 160 20:38 07.03.2020
1713 Clouds 29 1015 66 10000 5.1 160 20:19 07.03.2020
1714 Clouds 29 1016 62 10000 5.1 150 19:41 07.03.2020
1715 Clouds 29 1016 62 10000 5.1 150 19:22 07.03.2020
1716 Clouds 29 1016 62 10000 5.1 180 18:46 07.03.2020
1717 Clouds 29 1016 62 10000 5.1 180 18:27 07.03.2020
1718 Clouds 29 1016 66 10000 3.1 170 17:57 07.03.2020
1719 Clouds 29 1016 66 10000 3.1 170 17:39 07.03.2020
1720 Clouds 29 1016 66 10000 3.1 170 17:18 07.03.2020
1721 Clouds 29 1017 74 10000 3.1 180 16:43 07.03.2020
1722 Clouds 28 1017 74 10000 3.1 180 16:23 07.03.2020
1723 Clouds 28 1017 74 10000 3.1 180 16:23 07.03.2020
1724 Clouds 28 1017 78 10000 2.38 149 15:58 07.03.2020
1725 Clouds 28 1017 78 10000 2.38 149 15:40 07.03.2020
1726 Clouds 27 1017 78 10000 2.38 149 15:21 07.03.2020
1727 Clouds 26 1016 83 10000 2.38 149 14:57 07.03.2020
1728 Clouds 26 1016 83 10000 2.38 149 14:38 07.03.2020
1729 Clouds 25 1016 83 10000 1.05 329 14:19 07.03.2020
1730 Clouds 23 1016 94 10000 1.05 329 13:40 07.03.2020
1731 Clouds 22 1016 94 10000 1.11 343 13:21 07.03.2020
1732 Clouds 23 1015 94 10000 2.1 30 12:44 07.03.2020
1733 Clouds 23 1015 94 10000 2.1 30 12:44 07.03.2020
1734 Clouds 22 1015 94 10000 2.1 30 12:22 07.03.2020
1735 Clouds 22 1014 94 10000 2.1 40 11:59 07.03.2020
1736 Clouds 22 1014 94 10000 2.1 40 11:40 07.03.2020
1737 Clouds 22 1014 94 10000 2.1 40 11:22 07.03.2020
1738 Clouds 22 1014 94 10000 2.1 50 10:42 07.03.2020
1739 Clouds 22 1014 94 10000 2.1 50 10:21 07.03.2020
1740 Clouds 22 1014 94 10000 2.1 30 09:58 07.03.2020
1741 Clouds 21 1014 94 10000 2.1 30 09:39 07.03.2020
1742 Clouds 21 1014 94 10000 2.1 30 09:19 07.03.2020
1743 Clouds 22 1014 94 10000 2.6 40 08:44 07.03.2020
1744 Clouds 23 1014 94 10000 2.6 40 08:21 07.03.2020
1745 Clouds 23 1015 94 10000 2.1 50 07:52 07.03.2020
1746 Clouds 23 1015 94 10000 2.1 50 07:23 07.03.2020
1747 Clouds 24 1015 79 0 1.34 25 06:59 07.03.2020
1748 Clouds 24 1016 84 0 1.14 351 06:35 07.03.2020
1749 Clouds 24 1016 82 0 0.45 53 05:55 07.03.2020
1750 Clouds 23 1016 88 10000 2.6 110 04:56 07.03.2020
1751 Clear 26 1017 75 0 0.89 215 02:58 07.03.2020
1752 Clear 26 1017 77 0 0.45 110 02:34 07.03.2020
1753 Clouds 26 1016 83 10000 2.1 100 01:45 07.03.2020
1754 Clouds 26 1017 78 10000 5.1 160 00:40 07.03.2020
1755 Clouds 26 1017 78 10000 5.1 160 00:21 07.03.2020
1756 Clouds 27 1016 69 10000 5.1 180 23:49 06.03.2020
1757 Clouds 27 1016 69 10000 5.1 180 23:26 06.03.2020
1758 Clouds 28 1016 70 10000 5.1 180 22:48 06.03.2020
1759 Clouds 28 1016 70 10000 5.1 180 22:23 06.03.2020
1760 Clear 29 1015 68 0 0.89 172 21:59 06.03.2020
1761 Clear 29 1015 68 0 0.89 172 21:59 06.03.2020
1762 Clear 29 1017 81 0 3.39 162 21:41 06.03.2020
1763 Clouds 29 1017 66 10000 6.2 160 21:18 06.03.2020
1764 Clouds 29 1017 66 10000 6.2 160 20:39 06.03.2020
1765 Clouds 29 1017 66 10000 6.2 160 20:20 06.03.2020
1766 Clouds 29 1018 62 10000 6.2 180 19:51 06.03.2020
1767 Clouds 29 1018 62 10000 6.2 180 19:33 06.03.2020
1768 Clouds 29 1019 66 10000 5.1 160 18:58 06.03.2020
1769 Clouds 29 1019 66 10000 5.1 160 18:39 06.03.2020
1770 Clouds 29 1019 66 10000 5.1 160 18:19 06.03.2020
1771 Clouds 29 1019 66 10000 5.1 160 18:19 06.03.2020
1772 Clouds 28 1019 78 10000 5.1 90 17:42 06.03.2020
1773 Clouds 28 1019 78 10000 5.1 90 17:24 06.03.2020
1774 Clouds 28 1019 78 10000 3.1 90 16:59 06.03.2020
1775 Clouds 28 1019 78 10000 3.1 90 16:40 06.03.2020
1776 Clouds 28 1019 78 10000 3.1 90 16:20 06.03.2020
1777 Clouds 27 1018 83 10000 3.1 30 15:45 06.03.2020
1778 Clouds 27 1018 83 10000 3.1 30 15:24 06.03.2020
1779 Clouds 26 1018 83 10000 2.41 102 14:55 06.03.2020
1780 Clouds 26 1018 83 10000 2.41 102 14:37 06.03.2020
1781 Clouds 25 1018 83 10000 2.06 345 14:18 06.03.2020
1782 Clouds 24 1017 94 10000 2.06 345 13:42 06.03.2020
1783 Clouds 23 1017 94 10000 2.06 348 13:21 06.03.2020
1784 Clouds 23 1017 88 10000 2.06 348 12:56 06.03.2020
1785 Clouds 23 1017 88 10000 2.06 348 12:37 06.03.2020
1786 Clouds 23 1017 88 10000 2.06 348 12:18 06.03.2020
1787 Clouds 23 1017 88 10000 2.1 40 11:56 06.03.2020
1788 Clear 24 1018 84 0 1.79 15 11:38 06.03.2020
1789 Clouds 24 1016 88 10000 2.1 30 11:19 06.03.2020
1790 Clouds 23 1016 88 10000 2.1 30 10:38 06.03.2020
1791 Clouds 23 1016 88 10000 2.1 30 10:20 06.03.2020
1792 Clouds 23 1016 88 10000 2.1 20 09:54 06.03.2020
1793 Clouds 23 1016 88 10000 2.1 20 09:36 06.03.2020
1794 Clouds 23 1016 88 10000 2.1 20 09:18 06.03.2020
1795 Clouds 23 1017 88 10000 3.1 20 08:41 06.03.2020
1796 Clouds 24 1017 88 10000 3.1 20 08:23 06.03.2020
1797 Clouds 23 1018 94 10000 4.1 30 07:47 06.03.2020
1798 Clouds 23 1018 94 10000 4.1 30 07:26 06.03.2020
1799 Clouds 24 1019 88 10000 1.5 0 06:51 06.03.2020
1800 Clouds 24 1019 88 10000 1.5 0 06:33 06.03.2020
1801 Clouds 25 1019 83 10000 1.5 0 05:41 06.03.2020
1802 Clouds 25 1019 83 10000 1.5 0 05:20 06.03.2020
1803 Clouds 25 1019 83 10000 3.1 70 04:44 06.03.2020
1804 Clouds 27 1017 78 10000 3.1 130 01:56 06.03.2020
1805 Clouds 27 1017 78 10000 3.1 130 01:38 06.03.2020
1806 Clouds 27 1017 78 10000 3.1 130 01:18 06.03.2020
1807 Clouds 27 1017 83 10000 2.6 180 00:31 06.03.2020
1808 Clouds 27 1016 78 10000 4.1 180 23:47 05.03.2020
1809 Clouds 28 1016 78 10000 4.1 180 23:29 05.03.2020
1810 Clouds 28 1016 74 10000 4.1 180 22:57 05.03.2020
1811 Clouds 29 1016 74 10000 4.1 180 22:37 05.03.2020
1812 Clouds 29 1016 74 10000 4.1 180 22:18 05.03.2020
1813 Clouds 29 1016 74 10000 5.1 180 21:56 05.03.2020
1814 Clouds 29 1016 74 10000 5.1 180 21:56 05.03.2020
1815 Clouds 29 1016 74 10000 5.1 180 21:37 05.03.2020
1816 Clouds 29 1016 74 10000 5.1 180 21:19 05.03.2020
1817 Clouds 30 1017 66 10000 4.1 180 20:55 05.03.2020
1818 Clouds 30 1017 66 10000 4.1 180 20:36 05.03.2020
1819 Clouds 30 1017 66 10000 4.1 180 20:18 05.03.2020
1820 Clouds 30 1017 62 10000 4.1 160 19:40 05.03.2020
1821 Clouds 30 1017 62 10000 4.1 160 19:22 05.03.2020
1822 Clouds 30 1018 62 10000 3.1 90 18:59 05.03.2020
1823 Clouds 30 1018 62 10000 3.1 90 18:38 05.03.2020
1824 Clouds 30 1018 62 10000 3.1 90 18:19 05.03.2020
1825 Clouds 30 1019 70 10000 3.1 100 17:57 05.03.2020
1826 Clouds 30 1019 70 10000 3.1 100 17:39 05.03.2020
1827 Clouds 30 1019 70 10000 3.1 100 17:21 05.03.2020
1828 Clouds 29 1019 74 10000 3.1 90 16:42 05.03.2020
1829 Clouds 29 1019 74 10000 3.1 90 16:24 05.03.2020
1830 Clouds 28 1018 78 10000 3.1 40 15:59 05.03.2020
1831 Clouds 27 1018 78 10000 3.1 40 15:38 05.03.2020
1832 Clouds 27 1018 78 10000 3.1 40 15:20 05.03.2020
1833 Clouds 26 1018 94 10000 2.6 360 14:43 05.03.2020
1834 Clouds 25 1018 94 10000 2.6 360 14:23 05.03.2020
1835 Clouds 22 1017 94 10000 2.78 341 13:59 05.03.2020
1836 Clouds 23 1017 94 10000 2.78 341 13:40 05.03.2020
1837 Clouds 23 1017 94 10000 2.78 341 13:21 05.03.2020
1838 Clouds 24 1018 94 10000 2.6 20 12:56 05.03.2020
1839 Clouds 23 1018 94 10000 2.6 20 12:38 05.03.2020
1840 Clouds 23 1018 94 10000 2.6 20 12:38 05.03.2020
1841 Clouds 23 1018 94 10000 2.6 20 12:18 05.03.2020
1842 Clouds 23 1017 94 10000 2.6 20 11:56 05.03.2020
1843 Clouds 23 1017 94 10000 2.6 20 11:56 05.03.2020
1844 Clouds 23 1017 94 10000 2.6 20 11:37 05.03.2020
1845 Clouds 23 1017 94 10000 2.6 20 11:18 05.03.2020
1846 Clouds 23 1017 94 10000 2.6 40 10:55 05.03.2020
1847 Clouds 23 1017 94 10000 2.6 40 10:37 05.03.2020
1848 Clouds 23 1017 94 10000 2.6 40 10:19 05.03.2020
1849 Clouds 23 1017 94 10000 2.6 40 09:41 05.03.2020
1850 Clouds 23 1017 94 10000 2.6 40 09:23 05.03.2020
1851 Clouds 23 1017 94 10000 2.1 40 08:43 05.03.2020
1852 Clouds 23 1017 94 10000 2.1 40 08:25 05.03.2020
1853 Rain 23 1018 85 0 1.34 356 07:46 05.03.2020
1854 Clouds 23 1018 94 10000 3.1 50 07:22 05.03.2020
1855 Clouds 23 1018 94 10000 3.1 50 06:48 05.03.2020
1856 Clouds 23 1018 94 10000 3.1 50 06:21 05.03.2020
1857 Clouds 24 1018 88 10000 3.1 40 05:39 05.03.2020
1858 Clouds 25 1019 88 10000 3.1 60 04:33 05.03.2020
1859 Clouds 25 1018 83 10000 3.1 70 03:59 05.03.2020
1860 Clouds 25 1018 83 10000 3.1 70 03:19 05.03.2020
1861 Clouds 27 1017 78 10000 3.1 120 01:46 05.03.2020
1862 Clouds 26 1017 78 10000 3.1 120 01:20 05.03.2020
1863 Clouds 27 1017 78 10000 2.1 180 00:25 05.03.2020
1864 Clouds 27 1017 69 10000 5.7 180 23:42 04.03.2020
1865 Clouds 28 1017 69 10000 5.7 180 23:22 04.03.2020
1866 Clouds 28 1016 66 10000 5.1 180 22:57 04.03.2020
1867 Clouds 28 1016 66 10000 5.1 180 22:39 04.03.2020
1868 Clouds 29 1016 66 10000 5.1 180 22:19 04.03.2020
1869 Clouds 29 1016 70 10000 7.2 170 21:57 04.03.2020
1870 Clouds 29 1016 70 10000 7.2 170 21:38 04.03.2020
1871 Clouds 29 1016 70 10000 7.2 170 21:19 04.03.2020
1872 Rain 29 1017 70 8000 3.1 180 20:42 04.03.2020
1873 Rain 29 1017 70 8000 3.1 180 20:24 04.03.2020
1874 Clouds 29 1018 66 10000 5.1 180 19:59 04.03.2020
1875 Clouds 30 1018 66 10000 5.1 180 19:41 04.03.2020
1876 Clouds 29 1018 66 10000 5.1 180 19:22 04.03.2020
1877 Clouds 29 1019 62 10000 3.1 160 18:43 04.03.2020
1878 Clouds 29 1019 62 10000 3.1 160 18:24 04.03.2020
1879 Clouds 29 1020 70 10000 2.6 20 17:59 04.03.2020
1880 Clouds 29 1020 70 10000 2.6 20 17:40 04.03.2020
1881 Clouds 29 1020 70 10000 2.6 20 17:21 04.03.2020
1882 Clouds 29 1019 74 10000 3.1 60 16:58 04.03.2020
1883 Clouds 29 1019 74 10000 3.1 60 16:38 04.03.2020
1884 Clouds 29 1019 74 10000 3.1 60 16:20 04.03.2020
1885 Clouds 28 1020 78 10000 2.62 74 15:55 04.03.2020
1886 Clouds 28 1020 78 10000 2.62 74 15:36 04.03.2020
1887 Clouds 28 1020 78 10000 2.62 74 15:18 04.03.2020
1888 Clouds 26 1019 83 10000 2.62 74 14:41 04.03.2020
1889 Clouds 25 1019 83 10000 2.62 74 14:21 04.03.2020
1890 Clouds 24 1018 100 10000 2.15 347 13:58 04.03.2020
1891 Clouds 23 1018 100 10000 2.15 347 13:39 04.03.2020
1892 Clouds 22 1018 100 10000 2.12 338 13:21 04.03.2020
1893 Clouds 23 1017 94 10000 2.1 20 12:56 04.03.2020
1894 Clouds 23 1017 94 10000 2.1 20 12:38 04.03.2020
1895 Clouds 23 1017 94 10000 2.1 20 12:19 04.03.2020
1896 Clouds 23 1017 94 10000 1.5 0 11:42 04.03.2020
1897 Clouds 23 1017 94 10000 1.5 0 11:24 04.03.2020
1898 Clouds 24 1016 88 10000 1 10 10:59 04.03.2020
1899 Clouds 23 1016 88 10000 1 10 10:41 04.03.2020
1900 Clouds 23 1016 88 10000 1 10 10:22 04.03.2020
1901 Clouds 23 1016 88 10000 1 20 09:44 04.03.2020
1902 Clouds 23 1016 88 10000 1 20 09:44 04.03.2020
1903 Clouds 23 1016 88 10000 1 20 09:21 04.03.2020
1904 Clouds 24 1017 88 10000 2.6 20 08:58 04.03.2020
1905 Clouds 24 1017 88 10000 2.6 20 08:40 04.03.2020
1906 Clouds 24 1017 88 10000 2.6 20 08:21 04.03.2020
1907 Clouds 24 1018 88 10000 2.6 10 07:41 04.03.2020
1908 Clouds 24 1018 88 10000 2.6 10 07:23 04.03.2020
1909 Clouds 24 1018 88 10000 2.1 30 06:47 04.03.2020
1910 Clouds 24 1018 88 10000 2.1 30 06:47 04.03.2020
1911 Clouds 24 1018 88 10000 2.1 30 06:24 04.03.2020
1912 Clouds 24 1018 88 10000 2.1 30 05:54 04.03.2020
1913 Clouds 25 1018 83 10000 2.1 60 04:40 04.03.2020
1914 Clouds 25 1018 83 10000 2.1 60 03:46 04.03.2020
1915 Clouds 25 1018 83 10000 2.1 60 03:27 04.03.2020
1916 Clouds 25 1017 88 10000 2.1 60 02:58 04.03.2020
1917 Clouds 25 1017 88 10000 2.1 60 02:22 04.03.2020
1918 Clouds 26 1016 83 10000 2.6 120 01:56 04.03.2020
1919 Clouds 27 1016 78 10000 2.25 6 00:53 04.03.2020
1920 Clouds 27 1016 78 10000 2.25 6 00:27 04.03.2020
1921 Clouds 27 1015 78 10000 5.1 180 23:59 03.03.2020
1922 Clouds 27 1015 78 10000 5.1 180 23:40 03.03.2020
1923 Clouds 27 1015 78 10000 5.1 180 23:22 03.03.2020
1924 Clouds 28 1015 78 10000 5.1 180 22:41 03.03.2020
1925 Clouds 28 1015 78 10000 5.1 180 22:20 03.03.2020
1926 Clouds 29 1016 74 10000 5.1 180 21:58 03.03.2020
1927 Clouds 29 1016 74 10000 5.1 180 21:40 03.03.2020
1928 Clouds 29 1016 74 10000 5.1 180 21:20 03.03.2020
1929 Clouds 29 1016 62 10000 5.1 180 20:56 03.03.2020
1930 Clouds 29 1016 62 10000 5.1 180 20:37 03.03.2020
1931 Clouds 29 1016 62 10000 5.1 180 20:18 03.03.2020
1932 Rain 28 1017 74 8000 2.96 74 19:55 03.03.2020
1933 Rain 28 1017 74 8000 2.96 74 19:36 03.03.2020
1934 Rain 28 1017 74 8000 2.96 74 19:18 03.03.2020
1935 Rain 28 1017 78 8000 3.1 270 18:55 03.03.2020
1936 Rain 28 1017 78 8000 3.1 270 18:36 03.03.2020
1937 Rain 28 1017 78 8000 3.1 270 18:18 03.03.2020
1938 Clouds 28 1018 78 10000 5.1 120 17:40 03.03.2020
1939 Clouds 27 1018 78 10000 5.1 120 17:21 03.03.2020
1940 Clouds 27 1018 78 10000 5.1 120 17:21 03.03.2020
1941 Clouds 26 1019 83 10000 2.6 30 16:58 03.03.2020
1942 Clouds 27 1019 83 10000 2.6 30 16:38 03.03.2020
1943 Clouds 27 1019 83 10000 2.6 30 16:38 03.03.2020
1944 Clouds 26 1019 83 10000 2.6 30 16:19 03.03.2020
1945 Clouds 26 1018 88 10000 2.6 360 15:57 03.03.2020
1946 Clouds 25 1018 88 10000 2.6 360 15:39 03.03.2020
1947 Clouds 25 1018 100 10000 2.28 56 15:19 03.03.2020
1948 Clouds 24 1018 100 10000 2.28 56 14:41 03.03.2020
1949 Clouds 24 1018 100 10000 2.28 56 14:41 03.03.2020
1950 Clouds 24 1018 100 10000 3.31 352 14:19 03.03.2020
1951 Clouds 23 1017 100 10000 2.1 60 13:57 03.03.2020
1952 Clouds 23 1017 100 10000 2.1 60 13:39 03.03.2020
1953 Clouds 23 1017 100 10000 2.1 60 13:19 03.03.2020
1954 Rain 22 1016 100 8000 2.1 60 12:47 03.03.2020
1955 Rain 22 1016 100 8000 2.1 60 12:26 03.03.2020
1956 Clouds 23 1015 100 10000 2.1 40 11:57 03.03.2020
1957 Clouds 23 1015 100 10000 2.1 40 11:37 03.03.2020
1958 Rain 22 1015 100 10000 2.1 40 11:18 03.03.2020
1959 Rain 23 1015 100 10000 3.1 40 10:55 03.03.2020
1960 Rain 23 1015 100 10000 3.1 40 10:37 03.03.2020
1961 Clouds 22 1015 100 10000 3.1 40 10:18 03.03.2020
1962 Clouds 23 1015 94 10000 2.1 360 09:43 03.03.2020
1963 Clouds 23 1015 94 10000 2.1 360 09:43 03.03.2020
1964 Rain 22 1015 94 10000 2.1 360 09:22 03.03.2020
1965 Rain 22 1015 94 8000 2.1 350 08:56 03.03.2020
1966 Rain 23 1015 94 8000 2.1 350 08:37 03.03.2020
1967 Rain 23 1015 94 8000 2.1 350 08:19 03.03.2020
1968 Rain 23 1016 94 7000 2.1 20 07:42 03.03.2020
1969 Rain 23 1016 94 7000 2.1 20 07:19 03.03.2020
1970 Rain 23 1017 94 7000 2.1 20 06:40 03.03.2020
1971 Rain 23 1017 94 7000 2.1 20 06:21 03.03.2020
1972 Rain 23 1018 91 0 1.79 22 05:46 03.03.2020
1973 Rain 23 1018 94 10000 2.1 40 04:56 03.03.2020
1974 Clouds 24 1018 88 10000 3.25 12 03:26 03.03.2020
1975 Rain 24 1016 88 10000 3.82 32 01:35 03.03.2020
1976 Rain 24 1016 94 8000 3.92 28 00:47 03.03.2020
1977 Rain 24 1016 94 8000 3.92 28 00:47 03.03.2020
1978 Rain 24 1016 94 8000 3.92 28 00:24 03.03.2020
1979 Rain 24 1015 94 10000 3.1 30 23:51 02.03.2020
1980 Rain 25 1015 94 10000 3.1 30 23:23 02.03.2020
1981 Rain 25 1015 100 8000 2.1 10 22:58 02.03.2020
1982 Rain 25 1015 100 8000 2.1 10 22:39 02.03.2020
1983 Rain 25 1015 100 8000 2.1 10 22:20 02.03.2020
1984 Clouds 26 1016 88 10000 4.1 10 21:58 02.03.2020
1985 Clouds 26 1016 88 10000 4.1 10 21:39 02.03.2020
1986 Clouds 26 1016 88 10000 4.1 10 21:20 02.03.2020
1987 Clouds 27 1017 94 10000 2.6 40 20:56 02.03.2020
1988 Clouds 26 1017 94 10000 2.6 40 20:38 02.03.2020
1989 Clouds 26 1017 94 10000 2.6 40 20:38 02.03.2020
1990 Clouds 26 1017 94 10000 2.6 40 20:19 02.03.2020
1991 Rain 26 1017 94 8000 3.1 40 19:54 02.03.2020
1992 Rain 26 1017 94 8000 3.1 40 19:54 02.03.2020
1993 Rain 26 1017 94 8000 3.1 40 19:36 02.03.2020
1994 Rain 25 1017 94 8000 3.1 40 19:18 02.03.2020
1995 Rain 25 1018 94 8000 3.1 40 18:43 02.03.2020
1996 Rain 25 1018 94 8000 3.1 40 18:19 02.03.2020
1997 Clouds 26 1019 69 10000 4.1 330 17:57 02.03.2020
1998 Clouds 26 1019 69 10000 4.1 330 17:39 02.03.2020
1999 Rain 26 1019 69 10000 4.1 330 17:20 02.03.2020
2000 Rain 25 1020 74 10000 6.2 10 16:45 02.03.2020
2001 Clouds 26 1020 74 10000 6.2 10 16:27 02.03.2020
2002 Clouds 26 1019 74 10000 5.1 360 15:59 02.03.2020
2003 Clouds 26 1019 74 10000 5.1 360 15:41 02.03.2020
2004 Clouds 26 1019 74 10000 5.1 360 15:19 02.03.2020
2005 Clouds 24 1018 83 10000 3.1 330 14:40 02.03.2020
2006 Clouds 24 1018 83 10000 3.1 330 14:20 02.03.2020
2007 Clouds 23 1017 94 10000 3.1 360 13:57 02.03.2020
2008 Clouds 23 1017 94 10000 3.1 360 13:38 02.03.2020
2009 Clouds 23 1017 94 10000 3.1 360 13:18 02.03.2020
2010 Clouds 22 1017 94 10000 2.1 10 12:43 02.03.2020
2011 Clouds 22 1017 94 10000 2.1 10 12:19 02.03.2020
2012 Clouds 22 1017 94 10000 2.1 10 12:19 02.03.2020
2013 Clouds 22 1017 94 10000 3.1 360 11:40 02.03.2020
2014 Clouds 22 1017 94 10000 3.1 360 11:22 02.03.2020
2015 Clouds 22 1016 100 10000 3.1 350 10:59 02.03.2020
2016 Clouds 22 1016 100 10000 3.1 350 10:41 02.03.2020
2017 Clouds 22 1016 100 10000 3.1 350 10:20 02.03.2020
2018 Clouds 23 1016 94 10000 3.1 360 09:55 02.03.2020
2019 Clouds 23 1016 94 10000 3.1 360 09:37 02.03.2020
2020 Clouds 22 1016 94 10000 3.1 360 09:18 02.03.2020
2021 Clouds 23 1017 94 10000 3.1 350 08:40 02.03.2020
2022 Clouds 23 1017 94 10000 3.1 350 08:19 02.03.2020
2023 Clouds 23 1018 100 10000 3.1 360 07:40 02.03.2020
2024 Clouds 23 1018 100 10000 2.1 330 06:57 02.03.2020
2025 Clouds 23 1018 100 10000 2.1 330 06:37 02.03.2020
2026 Clouds 23 1019 100 10000 2.1 350 05:52 02.03.2020
2027 Clouds 23 1019 100 10000 4.1 350 04:19 02.03.2020
2028 Clouds 23 1019 94 10000 2.6 10 03:19 02.03.2020
2029 Rain 23 1018 100 7000 2.1 10 02:36 02.03.2020
2030 Rain 23 1017 100 7000 2.1 70 01:41 02.03.2020
2031 Rain 23 1017 100 7000 2.1 70 01:22 02.03.2020
2032 Clouds 24 1016 88 10000 5.1 360 00:23 02.03.2020
2033 Clouds 24 1016 83 10000 5.1 360 23:56 01.03.2020
2034 Clouds 25 1016 83 10000 5.1 360 23:38 01.03.2020
2035 Clouds 25 1016 83 10000 5.1 360 23:19 01.03.2020
2036 Clouds 26 1015 78 10000 5.1 360 22:42 01.03.2020
2037 Clouds 26 1015 78 10000 5.1 360 22:19 01.03.2020
2038 Rain 27 1016 78 8000 2.1 320 21:44 01.03.2020
2039 Clouds 28 1015 69 10000 6.2 360 21:25 01.03.2020
2040 Clouds 29 1016 70 10000 6.2 360 20:59 01.03.2020
2041 Clouds 29 1016 70 10000 6.2 360 20:41 01.03.2020
2042 Clouds 29 1016 70 10000 6.2 360 20:22 01.03.2020
2043 Clouds 30 1017 66 10000 4.1 360 19:43 01.03.2020
2044 Clouds 30 1017 66 10000 4.1 360 19:23 01.03.2020
2045 Clouds 29 1018 66 10000 6.2 360 18:59 01.03.2020
2046 Clouds 29 1018 66 10000 6.2 360 18:40 01.03.2020
2047 Clouds 29 1018 66 10000 6.2 360 18:19 01.03.2020
2048 Clouds 28 1018 66 10000 5.1 360 17:57 01.03.2020
2049 Clouds 28 1018 66 10000 5.1 360 17:39 01.03.2020
2050 Clouds 28 1018 66 10000 5.1 360 17:20 01.03.2020
2051 Clouds 29 1019 66 10000 6.2 360 16:55 01.03.2020
2052 Clouds 28 1019 66 10000 6.2 360 16:37 01.03.2020
2053 Clouds 28 1019 66 10000 6.2 360 16:18 01.03.2020
2054 Clouds 27 1019 83 10000 5.1 360 15:56 01.03.2020
2055 Clouds 27 1019 83 10000 5.1 360 15:37 01.03.2020
2056 Clouds 27 1019 83 10000 5.1 360 15:19 01.03.2020
2057 Clouds 25 1018 88 10000 5.1 270 14:55 01.03.2020
2058 Clouds 25 1018 88 10000 5.1 270 14:37 01.03.2020
2059 Clouds 25 1018 88 10000 5.1 270 14:18 01.03.2020
2060 Clouds 24 1018 100 10000 3.13 340 13:44 01.03.2020
2061 Clouds 22 1018 100 10000 3.02 340 13:21 01.03.2020
2062 Clouds 23 1017 100 10000 2.1 360 12:59 01.03.2020
2063 Clouds 22 1017 100 10000 2.1 360 12:41 01.03.2020
2064 Clouds 22 1017 100 10000 2.1 360 12:20 01.03.2020
2065 Clouds 22 1016 94 10000 2.6 360 11:42 01.03.2020
2066 Clouds 22 1016 94 10000 2.6 360 11:23 01.03.2020
2067 Clouds 22 1016 94 10000 2.1 10 10:57 01.03.2020
2068 Clouds 22 1016 94 10000 2.1 10 10:38 01.03.2020
2069 Clouds 22 1016 94 10000 2.1 10 10:19 01.03.2020
2070 Clouds 23 1016 94 10000 2.1 20 09:55 01.03.2020
2071 Clouds 23 1016 94 10000 2.1 20 09:36 01.03.2020
2072 Clouds 23 1016 94 10000 2.1 20 09:18 01.03.2020
2073 Clouds 23 1016 94 10000 2.1 20 08:39 01.03.2020
2074 Clouds 23 1016 94 10000 2.1 20 08:19 01.03.2020
2075 Clouds 23 1017 88 10000 2.1 20 07:42 01.03.2020
2076 Clouds 23 1017 88 10000 2.1 20 07:23 01.03.2020
2077 Clouds 24 1018 83 10000 2.6 30 06:53 01.03.2020
2078 Clouds 24 1018 83 10000 2.6 30 06:53 01.03.2020
2079 Clouds 23 1018 83 10000 2.6 30 06:33 01.03.2020
2080 Clouds 25 1018 83 10000 2.6 80 04:24 01.03.2020
2081 Rain 26 1018 83 8000 4.1 110 02:29 01.03.2020
2082 Clouds 26 1017 78 10000 2.1 100 01:53 01.03.2020
2083 Clouds 27 1017 78 10000 2.1 100 01:22 01.03.2020
2084 Clouds 27 1016 78 10000 1.06 56 00:43 01.03.2020
2085 Clouds 27 1016 78 10000 1.06 56 00:21 01.03.2020
2086 Clouds 27 1016 69 10000 4.1 180 23:49 29.02.2020
2087 Clouds 27 1016 69 10000 4.1 180 23:49 29.02.2020
2088 Clouds 27 1016 69 10000 4.1 180 23:30 29.02.2020
2089 Clouds 28 1015 70 10000 4.1 180 22:44 29.02.2020
2090 Clouds 28 1015 70 10000 4.1 180 22:24 29.02.2020
2091 Clouds 29 1016 62 10000 2.6 90 21:42 29.02.2020
2092 Clouds 30 1016 62 10000 2.6 90 21:24 29.02.2020
2093 Clouds 30 1016 58 10000 3.1 40 20:44 29.02.2020
2094 Clouds 30 1016 58 10000 3.1 40 20:22 29.02.2020
2095 Clouds 30 1017 52 10000 3.1 40 19:57 29.02.2020
2096 Clouds 30 1017 52 10000 3.1 40 19:38 29.02.2020
2097 Clouds 31 1017 52 10000 3.1 40 19:19 29.02.2020
2098 Clouds 31 1017 52 10000 3.1 40 19:19 29.02.2020
2099 Clouds 30 1018 62 10000 4.1 360 18:43 29.02.2020
2100 Clouds 30 1018 62 10000 4.1 360 18:25 29.02.2020
2101 Clouds 30 1019 62 10000 4.1 60 17:58 29.02.2020
2102 Clouds 29 1019 62 10000 4.1 60 17:40 29.02.2020
2103 Clouds 29 1019 62 10000 4.1 60 17:21 29.02.2020
2104 Clouds 28 1019 70 10000 3.1 70 16:45 29.02.2020
2105 Clouds 28 1019 70 10000 3.1 70 16:45 29.02.2020
2106 Clouds 28 1019 70 10000 3.1 70 16:22 29.02.2020
2107 Clouds 27 1018 83 10000 3.1 360 15:59 29.02.2020
2108 Clouds 27 1018 83 10000 3.1 360 15:41 29.02.2020
2109 Clouds 26 1018 83 10000 3.1 360 15:23 29.02.2020
2110 Clouds 25 1018 94 10000 2.6 360 14:42 29.02.2020
2111 Clouds 25 1018 94 10000 2.6 360 14:24 29.02.2020
2112 Clouds 24 1017 94 10000 2.66 353 13:57 29.02.2020
2113 Clouds 23 1017 94 10000 2.66 353 13:38 29.02.2020
2114 Clouds 22 1017 94 10000 2.48 351 13:20 29.02.2020
2115 Clouds 23 1018 94 10000 1.5 0 12:42 29.02.2020
2116 Clouds 22 1018 94 10000 1.5 0 12:22 29.02.2020
2117 Clouds 22 1017 100 10000 2.6 30 11:56 29.02.2020
2118 Clouds 22 1017 100 10000 2.6 30 11:38 29.02.2020
2119 Clouds 22 1017 100 10000 2.6 30 11:20 29.02.2020
2120 Clouds 23 1016 94 10000 2.61 353 10:46 29.02.2020
2121 Clouds 23 1016 94 10000 2.61 353 10:28 29.02.2020
2122 Clouds 23 1016 94 10000 2.1 40 09:48 29.02.2020
2123 Clouds 23 1016 94 10000 2.1 40 09:25 29.02.2020
2124 Clouds 23 1017 94 10000 2.1 40 08:42 29.02.2020
2125 Clouds 23 1017 94 10000 2.1 40 08:23 29.02.2020
2126 Clouds 23 1017 94 10000 2.1 40 07:58 29.02.2020
2127 Clouds 23 1017 94 10000 2.1 40 07:40 29.02.2020
2128 Clouds 23 1017 94 10000 2.1 40 07:18 29.02.2020
2129 Clouds 24 1018 94 10000 2.1 50 06:44 29.02.2020
2130 Clouds 24 1018 94 10000 2.1 50 06:23 29.02.2020
2131 Clouds 24 1018 94 10000 2.1 50 05:46 29.02.2020
2132 Clouds 25 1018 94 10000 2.6 60 04:46 29.02.2020
2133 Clouds 26 1018 88 10000 2.1 50 03:40 29.02.2020
2134 Clouds 26 1018 88 10000 2.1 50 03:21 29.02.2020
2135 Clouds 26 1017 94 10000 1.5 0 02:37 29.02.2020
2136 Clouds 27 1016 69 10000 2.6 120 00:59 29.02.2020
2137 Clouds 27 1016 69 10000 2.6 120 00:37 29.02.2020
2138 Clouds 27 1016 62 10000 5.1 180 23:46 28.02.2020
2139 Clouds 28 1016 62 10000 5.1 180 23:25 28.02.2020
2140 Clouds 28 1015 58 10000 5.1 150 22:55 28.02.2020
2141 Clouds 29 1015 58 10000 5.1 150 22:36 28.02.2020
2142 Clouds 29 1015 58 10000 5.1 150 22:18 28.02.2020
2143 Clouds 29 1015 55 10000 6.2 120 21:41 28.02.2020
2144 Clouds 30 1015 55 10000 6.2 120 21:21 28.02.2020
2145 Clouds 30 1015 55 10000 5.1 150 20:41 28.02.2020
2146 Clouds 30 1015 55 10000 5.1 150 20:23 28.02.2020
2147 Clouds 30 1016 55 10000 4.1 360 19:59 28.02.2020
2148 Clouds 30 1016 55 10000 4.1 360 19:39 28.02.2020
2149 Clouds 30 1016 55 10000 4.1 360 19:21 28.02.2020
2150 Clouds 29 1018 62 10000 2.32 98 18:58 28.02.2020
2151 Clouds 29 1018 62 10000 2.32 98 18:39 28.02.2020
2152 Clouds 29 1018 62 10000 2.32 98 18:21 28.02.2020
2153 Clouds 29 1019 62 10000 3.1 60 17:41 28.02.2020
2154 Clouds 29 1019 62 10000 3.1 60 17:22 28.02.2020
2155 Clouds 28 1019 66 10000 1.84 59 16:47 28.02.2020
2156 Clouds 28 1019 66 10000 1.84 59 16:21 28.02.2020
2157 Clouds 27 1019 78 10000 5.1 60 15:59 28.02.2020
2158 Clouds 27 1019 78 10000 5.1 60 15:41 28.02.2020
2159 Clouds 27 1019 78 10000 5.1 60 15:20 28.02.2020
2160 Clouds 26 1019 88 10000 2.1 30 14:57 28.02.2020
2161 Clouds 25 1019 88 10000 2.1 30 14:39 28.02.2020
2162 Clouds 25 1019 88 10000 2.1 30 14:19 28.02.2020
2163 Clouds 23 1018 100 10000 2.38 27 13:57 28.02.2020
2164 Clouds 23 1018 100 10000 2.38 27 13:39 28.02.2020
2165 Clouds 23 1018 100 10000 2.35 29 13:19 28.02.2020
2166 Clouds 23 1017 100 10000 2.1 40 12:41 28.02.2020
2167 Clouds 23 1017 100 10000 2.1 40 12:22 28.02.2020
2168 Clouds 23 1016 100 10000 2.1 20 11:43 28.02.2020
2169 Clouds 23 1016 100 10000 2.1 20 11:24 28.02.2020
2170 Clouds 23 1016 100 10000 2.1 50 10:58 28.02.2020
2171 Clouds 23 1016 100 10000 2.1 50 10:39 28.02.2020
2172 Clouds 23 1016 100 10000 2.1 50 10:39 28.02.2020
2173 Clouds 23 1016 100 10000 2.1 50 10:20 28.02.2020
2174 Clouds 22 1016 100 10000 2.1 50 09:44 28.02.2020
2175 Clouds 23 1016 100 10000 2.1 50 09:21 28.02.2020
2176 Clouds 23 1016 94 10000 2.1 50 08:56 28.02.2020
2177 Clouds 23 1016 94 10000 2.1 50 08:37 28.02.2020
2178 Clouds 23 1016 94 10000 2.1 50 08:18 28.02.2020
2179 Clouds 23 1017 94 10000 2.1 60 07:40 28.02.2020
2180 Clouds 23 1017 94 10000 2.1 60 07:19 28.02.2020
2181 Rain 24 1017 83 0 1.79 62 06:44 28.02.2020
2182 Clouds 24 1015 88 10000 2.1 40 05:51 28.02.2020
2183 Clouds 25 1018 88 10000 2.1 30 04:34 28.02.2020
2184 Clouds 26 1017 88 10000 2.6 130 03:48 28.02.2020
2185 Clouds 26 1017 83 10000 2.1 110 02:45 28.02.2020
2186 Clouds 26 1017 83 10000 2.1 110 02:20 28.02.2020
2187 Clouds 26 1016 78 10000 1.06 147 00:39 28.02.2020
2188 -273 0 0 0 0 0 00:21 28.02.2020
2189 Clouds 27 1016 69 10000 3.1 180 23:41 27.02.2020
2190 Clouds 27 1016 69 10000 3.1 180 23:41 27.02.2020
2191 Clouds 27 1016 69 10000 3.1 180 23:19 27.02.2020
2192 Clouds 28 1015 66 10000 5.1 180 22:41 27.02.2020
2193 Clouds 29 1015 66 10000 5.1 180 22:23 27.02.2020
2194 Clouds 29 1015 66 10000 5.1 180 21:56 27.02.2020
2195 Clouds 29 1015 66 10000 5.1 180 21:37 27.02.2020
2196 Clouds 29 1015 66 10000 5.1 180 21:18 27.02.2020
2197 Clouds 29 1016 62 10000 6.2 180 20:54 27.02.2020
2198 Clouds 29 1016 62 10000 6.2 180 20:36 27.02.2020
2199 Clouds 30 1016 62 10000 6.2 180 20:18 27.02.2020
2200 Clouds 29 1016 66 10000 5.1 180 19:42 27.02.2020
2201 Clouds 29 1016 66 10000 5.1 180 19:23 27.02.2020
2202 Clouds 29 1016 66 10000 5.1 180 18:58 27.02.2020
2203 Clouds 29 1016 66 10000 5.1 180 18:39 27.02.2020
2204 Clouds 29 1016 66 10000 5.1 180 18:20 27.02.2020
2205 Clouds 29 1017 74 10000 6.2 180 17:56 27.02.2020
2206 Clouds 28 1017 74 10000 6.2 180 17:38 27.02.2020
2207 Clouds 28 1017 74 10000 6.2 180 17:19 27.02.2020
2208 Clouds 28 1018 78 10000 4.1 160 16:54 27.02.2020
2209 Clouds 28 1018 78 10000 4.1 160 16:36 27.02.2020
2210 Clouds 28 1018 78 10000 4.1 160 16:18 27.02.2020
2211 Clouds 27 1018 78 10000 2.6 90 15:39 27.02.2020
2212 Clouds 27 1018 78 10000 2.6 90 15:20 27.02.2020
2213 Clouds 26 1018 88 10000 1.81 132 14:59 27.02.2020
2214 Clouds 25 1018 88 10000 1.81 132 14:39 27.02.2020
2215 Clouds 25 1018 88 10000 1.81 132 14:21 27.02.2020
2216 Clouds 23 1017 94 10000 0.92 335 13:45 27.02.2020
2217 Clouds 23 1017 94 10000 0.92 335 13:23 27.02.2020
2218 Clouds 23 1016 100 10000 0.75 327 12:59 27.02.2020
2219 Clouds 23 1016 100 10000 0.75 327 12:59 27.02.2020
2220 Clouds 23 1016 100 10000 0.75 327 12:41 27.02.2020
2221 Clouds 23 1016 100 10000 0.75 327 12:19 27.02.2020
2222 Clouds 23 1015 94 10000 2.1 40 11:45 27.02.2020
2223 Clouds 23 1015 94 10000 2.1 40 11:23 27.02.2020
2224 Clouds 23 1015 94 10000 2.1 40 10:55 27.02.2020
2225 Clouds 23 1015 94 10000 2.1 40 10:37 27.02.2020
2226 Clouds 23 1015 94 10000 2.1 40 10:18 27.02.2020
2227 Clouds 23 1015 94 10000 2.1 40 09:40 27.02.2020
2228 Clouds 23 1015 94 10000 2.1 40 09:40 27.02.2020
2229 Clouds 23 1015 94 10000 2.1 40 09:22 27.02.2020
2230 Clouds 23 1015 88 10000 2.1 30 08:42 27.02.2020
2231 Clouds 23 1015 88 10000 2.1 30 08:23 27.02.2020
2232 Clouds 23 1016 88 10000 2.1 30 07:48 27.02.2020
2233 Clouds 23 1016 88 10000 2.1 30 07:48 27.02.2020
2234 Clouds 23 1016 88 10000 2.1 30 07:28 27.02.2020
2235 Clouds 23 1017 88 10000 2.1 30 06:54 27.02.2020
2236 Clouds 23 1017 88 10000 2.1 30 06:19 27.02.2020
2237 Clouds 24 1017 88 10000 2.1 30 04:21 27.02.2020
2238 Clouds 24 1016 83 10000 2.1 20 02:35 27.02.2020
2239 Rain 24 1016 94 8000 2.53 72 00:47 27.02.2020
2240 Rain 25 1016 94 8000 2.53 72 00:29 27.02.2020
2241 Rain 25 1016 94 7000 2.53 72 23:40 26.02.2020
2242 Rain 26 1016 94 7000 2.01 102 23:20 26.02.2020
2243 Rain 26 1015 88 8000 2.01 102 22:58 26.02.2020
2244 Rain 26 1015 88 8000 2.01 102 22:58 26.02.2020
2245 Rain 26 1015 88 8000 2.01 102 22:39 26.02.2020
2246 Rain 26 1015 88 8000 2.01 102 22:21 26.02.2020
2247 Rain 27 1016 78 8000 4.1 90 21:56 26.02.2020
2248 Rain 27 1016 78 8000 4.1 90 21:38 26.02.2020
2249 Rain 27 1016 78 8000 4.1 90 21:18 26.02.2020
2250 Clouds 27 1016 74 10000 5.1 40 20:55 26.02.2020
2251 Clouds 27 1016 74 10000 5.1 40 20:37 26.02.2020
2252 Clouds 28 1016 74 10000 5.1 40 20:18 26.02.2020
2253 Clouds 28 1016 74 10000 5.1 40 20:18 26.02.2020
2254 Clouds 28 1016 74 10000 5.1 40 20:18 26.02.2020
2255 Rain 28 1017 74 8000 5.1 40 19:45 26.02.2020
2256 Rain 28 1017 74 8000 5.1 40 19:21 26.02.2020
2257 Rain 28 1017 74 8000 5.1 40 19:21 26.02.2020
2258 Rain 27 1017 83 8000 4.1 40 18:58 26.02.2020
2259 Rain 28 1017 83 8000 4.1 40 18:40 26.02.2020
2260 Rain 27 1017 83 8000 4.1 40 18:22 26.02.2020
2261 Clouds 27 1018 74 10000 3.1 40 17:42 26.02.2020
2262 Clouds 27 1018 74 10000 3.1 40 17:42 26.02.2020
2263 Clouds 27 1018 74 10000 3.1 40 17:24 26.02.2020
2264 Clouds 27 1018 78 10000 2.1 40 16:59 26.02.2020
2265 Clouds 27 1018 78 10000 2.1 40 16:41 26.02.2020
2266 Clouds 26 1018 78 10000 2.1 40 16:22 26.02.2020
2267 Rain 25 1018 83 10000 3.1 40 15:48 26.02.2020
2268 Rain 25 1018 83 10000 3.1 40 15:29 26.02.2020
2269 Clouds 24 1017 83 10000 2.1 40 14:59 26.02.2020
2270 Clouds 24 1017 83 10000 2.1 40 14:41 26.02.2020
2271 Clouds 24 1017 83 10000 2.1 40 14:22 26.02.2020
2272 Clouds 23 1017 94 10000 2.7 350 13:43 26.02.2020
2273 Clouds 24 1019 99 0 2.7 350 13:22 26.02.2020
2274 Rain 24 1016 86 0 1.34 351 12:42 26.02.2020
2275 Rain 24 1016 83 0 1.79 3 12:22 26.02.2020
2276 Rain 24 1016 83 0 1.79 3 11:59 26.02.2020
2277 Rain 24 1016 83 0 1.79 3 11:40 26.02.2020
2278 Rain 24 1016 83 0 1.79 3 11:21 26.02.2020
2279 Clouds 24 1016 82 0 1.34 356 10:43 26.02.2020
2280 Clouds 24 1015 82 0 1.34 13 10:24 26.02.2020
2281 Clouds 24 1016 82 0 1.34 14 09:58 26.02.2020
2282 Clouds 23 1016 82 0 1.34 352 09:40 26.02.2020
2283 Clouds 23 1016 82 0 1.79 6 09:21 26.02.2020
2284 Clouds 23 1015 83 0 2.24 354 08:40 26.02.2020
2285 Clouds 23 1016 82 0 1.79 5 08:22 26.02.2020
2286 Clouds 23 1015 82 0 1.34 10 07:51 26.02.2020
2287 Clouds 23 1017 88 10000 2.1 50 07:30 26.02.2020
2288 Clouds 23 1017 88 10000 2.1 50 06:59 26.02.2020
2289 Clouds 23 1017 88 10000 2.1 50 06:40 26.02.2020
2290 Clouds 23 1017 88 10000 2.1 50 06:21 26.02.2020
2291 Clouds 24 1017 83 10000 2.1 60 05:48 26.02.2020
2292 Clouds 24 1016 83 10000 2.1 60 04:58 26.02.2020
2293 Clouds 24 1016 78 10000 3.1 80 02:56 26.02.2020
2294 Clouds 25 1015 73 10000 2.1 80 01:56 26.02.2020
2295 Clouds 25 1015 73 10000 2.1 80 01:24 26.02.2020
2296 Clouds 26 1016 78 10000 5.1 30 00:38 26.02.2020
2297 Clouds 26 1016 78 10000 5.1 30 00:19 26.02.2020
2298 Clouds 27 1015 74 10000 3.1 90 23:41 25.02.2020
2299 Clouds 28 1015 74 10000 3.1 90 23:21 25.02.2020
2300 Clouds 29 1015 66 10000 5.1 30 22:43 25.02.2020
2301 Clouds 29 1015 66 10000 5.1 30 22:20 25.02.2020
2302 Clouds 29 1014 62 10000 3.1 90 21:59 25.02.2020
2303 Clouds 28 1014 62 10000 3.1 90 21:38 25.02.2020
2304 Clouds 29 1014 62 10000 3.1 90 21:20 25.02.2020
2305 Clouds 29 1015 66 10000 3.1 90 20:56 25.02.2020
2306 Clouds 29 1015 66 10000 3.1 90 20:56 25.02.2020
2307 Clouds 29 1015 66 10000 3.1 90 20:37 25.02.2020
2308 Clouds 29 1015 66 10000 3.1 90 20:19 25.02.2020
2309 Clouds 29 1016 66 10000 5.1 360 19:44 25.02.2020
2310 Clouds 29 1016 66 10000 5.1 360 19:23 25.02.2020
2311 Clouds 29 1017 70 10000 3.1 90 18:59 25.02.2020
2312 Clouds 29 1017 70 10000 3.1 90 18:39 25.02.2020
2313 Clouds 29 1017 70 10000 3.1 90 18:20 25.02.2020
2314 Clouds 29 1017 66 10000 4.1 90 17:55 25.02.2020
2315 Clouds 29 1017 66 10000 4.1 90 17:37 25.02.2020
2316 Clouds 28 1017 66 10000 4.1 90 17:18 25.02.2020
2317 Clouds 28 1018 74 10000 5.1 360 16:55 25.02.2020
2318 Clouds 28 1018 74 10000 5.1 360 16:36 25.02.2020
2319 Clouds 27 1018 74 10000 5.1 360 16:18 25.02.2020
2320 Clouds 26 1017 74 10000 5.1 360 15:44 25.02.2020
2321 Clouds 26 1017 74 10000 5.1 360 15:20 25.02.2020
2322 Clouds 25 1017 78 10000 4.1 360 14:59 25.02.2020
2323 Clouds 24 1017 78 10000 4.1 360 14:39 25.02.2020
2324 Clouds 24 1017 78 10000 4.1 360 14:18 25.02.2020
2325 Clouds 23 1016 88 10000 3.66 342 13:58 25.02.2020
2326 Clouds 23 1016 88 10000 3.66 342 13:39 25.02.2020
2327 Clouds 22 1016 88 10000 3.66 342 13:20 25.02.2020
2328 Clouds 22 1016 94 10000 2.1 360 12:56 25.02.2020
2329 Clouds 22 1016 94 10000 2.1 360 12:37 25.02.2020
2330 Clouds 22 1016 94 10000 2.1 360 12:19 25.02.2020
2331 Clouds 22 1015 88 10000 4.1 360 11:55 25.02.2020
2332 Clouds 22 1015 88 10000 4.1 360 11:37 25.02.2020
2333 Clouds 22 1015 88 10000 4.1 360 11:18 25.02.2020
2334 Clouds 22 1015 94 10000 2.1 360 10:41 25.02.2020
2335 Clouds 22 1015 94 10000 2.1 360 10:41 25.02.2020
2336 Clouds 22 1015 94 10000 2.1 360 10:23 25.02.2020
2337 Clouds 22 1016 88 10000 2.6 20 09:42 25.02.2020
2338 Clouds 22 1016 88 10000 2.6 20 09:23 25.02.2020
2339 Clouds 22 1016 88 10000 2.6 20 08:56 25.02.2020
2340 Clouds 22 1016 88 10000 2.6 20 08:38 25.02.2020
2341 Clouds 22 1016 88 10000 2.6 20 08:20 25.02.2020
2342 Clouds 22 1017 88 10000 2.6 360 07:48 25.02.2020
2343 Clouds 22 1017 88 10000 2.6 360 07:20 25.02.2020
2344 Clouds 23 1017 88 10000 2.1 360 06:41 25.02.2020
2345 Clouds 23 1017 88 10000 2.6 360 05:39 25.02.2020
2346 Clouds 23 1017 88 10000 2.1 30 03:44 25.02.2020
2347 Clouds 25 1016 69 10000 4.1 50 02:00 25.02.2020
2348 Clouds 25 1015 88 10000 2.6 360 00:48 25.02.2020
2349 Clouds 25 1015 88 10000 2.6 360 00:29 25.02.2020
2350 Clouds 26 1015 83 10000 3.6 360 23:44 24.02.2020
2351 Clouds 26 1015 83 10000 3.6 360 23:22 24.02.2020
2352 Clouds 27 1014 78 10000 4.1 360 22:43 24.02.2020
2353 Clouds 27 1014 78 10000 4.1 360 22:21 24.02.2020
2354 Clouds 28 1015 78 10000 4.1 360 21:57 24.02.2020
2355 Clouds 28 1015 78 10000 4.1 360 21:39 24.02.2020
2356 Clouds 28 1015 78 10000 4.1 360 21:20 24.02.2020
2357 Clouds 28 1015 74 10000 5.1 360 20:58 24.02.2020
2358 Clouds 28 1015 74 10000 5.1 360 20:40 24.02.2020
2359 Clouds 28 1015 74 10000 5.1 360 20:19 24.02.2020
2360 Clouds 28 1016 69 10000 4.1 360 19:58 24.02.2020
2361 Clouds 28 1016 69 10000 4.1 360 19:39 24.02.2020
2362 Clouds 28 1016 69 10000 4.1 360 19:20 24.02.2020
2363 Clouds 27 1016 78 10000 6.2 360 18:55 24.02.2020
2364 Clouds 27 1016 78 10000 6.2 360 18:37 24.02.2020
2365 Clouds 26 1016 78 10000 6.2 360 18:18 24.02.2020
2366 Clouds 27 1017 70 10000 5.1 360 17:40 24.02.2020
2367 Clouds 27 1017 70 10000 5.1 360 17:20 24.02.2020
2368 Clouds 26 1018 74 10000 5.1 360 16:58 24.02.2020
2369 Clouds 26 1018 74 10000 5.1 360 16:39 24.02.2020
2370 Clouds 26 1018 74 10000 5.1 360 16:20 24.02.2020
2371 Clouds 26 1018 74 10000 5.1 360 16:20 24.02.2020
2372 Clouds 25 1017 83 10000 4.1 360 15:58 24.02.2020
2373 Clouds 25 1017 83 10000 4.1 360 15:39 24.02.2020
2374 Clouds 25 1017 83 10000 4.1 360 15:21 24.02.2020
2375 Clouds 24 1016 94 10000 2.6 360 14:57 24.02.2020
2376 Clouds 24 1016 94 10000 2.6 360 14:38 24.02.2020
2377 Clouds 23 1016 94 10000 2.6 360 14:18 24.02.2020
2378 Clouds 22 1015 94 10000 4.85 358 13:56 24.02.2020
2379 Rain 22 1015 94 10000 4.85 358 13:36 24.02.2020
2380 Rain 22 1015 94 10000 4.94 357 13:18 24.02.2020
2381 Clouds 22 1016 100 10000 2.1 340 12:42 24.02.2020
2382 Clouds 22 1016 100 10000 2.1 340 12:24 24.02.2020
2383 Clouds 22 1015 94 10000 2.1 20 11:51 24.02.2020
2384 Clouds 22 1015 94 10000 2.1 20 11:32 24.02.2020
2385 Clouds 22 1014 100 10000 2.1 360 10:58 24.02.2020
2386 Clouds 22 1014 100 10000 2.1 360 10:40 24.02.2020
2387 Clouds 22 1014 100 10000 2.1 360 10:22 24.02.2020
2388 Clouds 22 1015 100 10000 5.06 360 09:40 24.02.2020
2389 Clouds 22 1015 100 10000 5.06 360 09:19 24.02.2020
2390 Clouds 22 1015 100 10000 5.06 360 09:19 24.02.2020
2391 Clouds 22 1015 100 10000 2.1 360 08:52 24.02.2020
2392 Clouds 22 1015 100 10000 2.1 360 08:29 24.02.2020
2393 Rain 22 1016 100 10000 2.1 30 07:55 24.02.2020
2394 Rain 22 1016 100 10000 2.1 30 07:33 24.02.2020
2395 Rain 22 1016 100 8000 2.1 30 06:52 24.02.2020
2396 Rain 22 1016 100 8000 2.1 30 06:24 24.02.2020
2397 Clouds 22 1016 94 10000 2.1 30 05:45 24.02.2020
2398 Clouds 22 1016 94 10000 2.1 30 05:25 24.02.2020
2399 Clouds 23 1016 94 10000 4.18 357 02:58 24.02.2020
2400 Clouds 23 1016 94 10000 3.56 338 02:18 24.02.2020
2401 Rain 22 1015 100 8000 3.56 338 01:30 24.02.2020
2402 Rain 22 1014 100 7000 2.6 30 00:44 24.02.2020
2403 Rain 22 1014 100 7000 2.6 30 00:20 24.02.2020
2404 Rain 23 1014 94 8000 2.6 120 23:42 23.02.2020
2405 Rain 23 1014 94 8000 2.6 120 23:23 23.02.2020
2406 Rain 24 1013 94 7000 3.1 90 22:58 23.02.2020
2407 Rain 25 1013 94 7000 3.1 90 22:40 23.02.2020
2408 Rain 25 1013 94 7000 3.1 90 22:21 23.02.2020
2409 Rain 26 1012 78 8000 5.1 180 21:46 23.02.2020
2410 Rain 27 1012 78 8000 5.1 180 21:21 23.02.2020
2411 Clouds 27 1013 74 10000 5.1 180 20:59 23.02.2020
2412 Clouds 27 1013 74 10000 5.1 180 20:40 23.02.2020
2413 Clouds 27 1013 74 10000 5.1 180 20:22 23.02.2020
2414 Clouds 27 1014 74 10000 5.1 180 19:59 23.02.2020
2415 Clouds 27 1014 74 10000 5.1 180 19:41 23.02.2020
2416 Clouds 28 1014 74 10000 5.1 180 19:19 23.02.2020
2417 Clouds 27 1015 70 10000 5.1 150 18:59 23.02.2020
2418 Clouds 27 1015 70 10000 5.1 150 18:37 23.02.2020
2419 Clouds 27 1015 70 10000 5.1 150 18:19 23.02.2020
2420 Clouds 27 1015 70 10000 2.33 188 17:57 23.02.2020
2421 Clouds 27 1015 70 10000 2.33 188 17:39 23.02.2020
2422 Clouds 27 1015 70 10000 1.62 17 17:20 23.02.2020
2423 Clouds 27 1016 78 10000 3.1 50 16:46 23.02.2020
2424 Clouds 27 1016 78 10000 3.1 50 16:28 23.02.2020
2425 Clouds 27 1016 83 10000 4.1 30 15:59 23.02.2020
2426 Clouds 26 1016 83 10000 4.1 30 15:39 23.02.2020
2427 Clouds 26 1016 83 10000 4.1 30 15:21 23.02.2020
2428 Clouds 25 1015 94 10000 1.62 17 14:59 23.02.2020
2429 Clouds 25 1015 94 10000 1.62 17 14:40 23.02.2020
2430 Clouds 24 1015 94 10000 1.62 17 14:21 23.02.2020
2431 Clouds 24 1015 100 10000 1.28 310 13:57 23.02.2020
2432 Clouds 23 1015 100 10000 1.28 310 13:38 23.02.2020
2433 Clouds 23 1015 100 10000 0.95 300 13:20 23.02.2020
2434 Clouds 24 1014 100 10000 0.95 300 12:42 23.02.2020
2435 Clouds 24 1014 100 10000 0.95 300 12:22 23.02.2020
2436 Clouds 24 1013 94 10000 2.1 90 11:56 23.02.2020
2437 Clouds 24 1013 94 10000 2.1 90 11:37 23.02.2020
2438 Clouds 23 1013 94 10000 2.1 90 11:18 23.02.2020
2439 Clouds 23 1013 94 10000 2.1 90 11:18 23.02.2020
2440 Clouds 23 1013 100 10000 2.1 90 10:42 23.02.2020
2441 Clouds 23 1013 100 10000 2.1 90 10:24 23.02.2020
2442 Clouds 24 1013 100 10000 2.1 20 10:00 23.02.2020
2443 Clouds 24 1013 100 10000 2.1 20 09:39 23.02.2020
2444 Clouds 24 1013 100 10000 2.1 20 09:21 23.02.2020
2445 Rain 23 1013 94 6000 2.1 20 08:51 23.02.2020
2446 Rain 23 1013 94 6000 2.1 20 08:30 23.02.2020
2447 Clouds 24 1013 94 10000 1.52 300 07:58 23.02.2020
2448 Clouds 24 1013 94 10000 1.52 300 07:39 23.02.2020
2449 Clouds 24 1014 88 10000 2.1 220 06:39 23.02.2020
2450 Clouds 24 1015 88 10000 1.52 300 05:47 23.02.2020
2451 Clouds 26 1015 83 10000 1.87 260 04:35 23.02.2020
2452 Clouds 26 1015 83 10000 1.87 260 04:35 23.02.2020
2453 Clouds 26 1015 83 10000 2.1 200 02:59 23.02.2020
2454 Clouds 25 1015 83 10000 2.1 200 02:26 23.02.2020
2455 Clouds 26 1014 78 10000 2.1 170 01:24 23.02.2020
2456 Clouds 26 1014 74 10000 2.1 180 00:46 23.02.2020
2457 Clouds 26 1014 74 10000 2.1 180 00:24 23.02.2020
2458 Clouds 26 1013 69 10000 3.1 180 23:45 22.02.2020
2459 Clouds 27 1013 69 10000 3.1 180 23:26 22.02.2020
2460 Clouds 28 1013 62 10000 6.2 180 22:56 22.02.2020
2461 Clouds 28 1013 62 10000 6.2 180 22:36 22.02.2020
2462 Clouds 28 1013 62 10000 6.2 180 22:18 22.02.2020
2463 Clouds 28 1013 62 10000 6.2 180 21:40 22.02.2020
2464 Clouds 28 1013 62 10000 6.2 180 21:21 22.02.2020
2465 Clouds 29 1014 58 10000 5.1 180 20:44 22.02.2020
2466 Clouds 29 1014 58 10000 5.1 180 20:24 22.02.2020
2467 Clouds 28 1014 62 10000 5.1 180 19:55 22.02.2020
2468 Clouds 28 1014 62 10000 5.1 180 19:37 22.02.2020
2469 Clouds 28 1014 62 10000 5.1 180 19:18 22.02.2020
2470 Clouds 28 1015 70 10000 4.1 180 18:39 22.02.2020
2471 Clouds 28 1015 70 10000 4.1 180 18:21 22.02.2020
2472 Clouds 27 1016 69 10000 5.1 180 17:57 22.02.2020
2473 Clouds 27 1016 69 10000 5.1 180 17:38 22.02.2020
2474 Clouds 27 1016 69 10000 5.1 180 17:19 22.02.2020
2475 Rain 27 1016 75 0 1.34 162 16:56 22.02.2020
2476 Rain 27 1016 71 0 1.79 190 16:38 22.02.2020
2477 Clouds 26 1017 78 10000 2.37 146 16:19 22.02.2020
2478 Clouds 26 1017 78 10000 2.37 146 15:43 22.02.2020
2479 Clouds 25 1017 78 10000 2.37 146 15:24 22.02.2020
2480 Clouds 24 1016 88 10000 2.37 146 14:43 22.02.2020
2481 Clouds 24 1016 88 10000 2.37 146 14:23 22.02.2020
2482 Rain 23 1016 94 8000 1.19 303 13:57 22.02.2020
2483 Rain 23 1016 94 8000 1.19 303 13:39 22.02.2020
2484 Rain 23 1016 94 8000 1.01 259 13:18 22.02.2020
2485 Rain 24 1014 94 10000 2.1 80 12:42 22.02.2020
2486 Rain 24 1014 94 10000 2.1 80 12:23 22.02.2020
2487 Clouds 24 1013 94 10000 2.1 60 11:46 22.02.2020
2488 Clouds 23 1013 94 10000 2.1 60 11:28 22.02.2020
2489 Clouds 22 1013 94 10000 2.1 70 10:57 22.02.2020
2490 Clouds 22 1013 94 10000 2.1 70 10:39 22.02.2020
2491 Clouds 22 1013 94 10000 2.1 70 10:19 22.02.2020
2492 Clouds 23 1013 94 10000 2.1 40 09:57 22.02.2020
2493 Clouds 23 1013 94 10000 2.1 40 09:38 22.02.2020
2494 Clouds 23 1013 94 10000 2.1 40 09:19 22.02.2020
2495 Clouds 25 1014 94 10000 2.1 60 08:44 22.02.2020
2496 Clouds 24 1014 94 10000 2.1 60 08:26 22.02.2020
2497 Clouds 25 1014 94 10000 2.1 60 07:43 22.02.2020
2498 Clouds 25 1014 94 10000 2.1 60 07:19 22.02.2020
2499 Clouds 24 1015 94 10000 0.53 226 06:46 22.02.2020
2500 Clouds 24 1015 94 10000 0.53 226 06:26 22.02.2020
2501 Clouds 25 1015 83 10000 0.85 216 04:30 22.02.2020
2502 Clouds 25 1015 83 10000 0.85 216 02:46 22.02.2020
2503 Clouds 26 1015 83 10000 0.85 216 02:21 22.02.2020
2504 Clouds 26 1015 78 10000 1.6 191 01:41 22.02.2020
2505 Clouds 26 1015 78 10000 1.6 191 01:22 22.02.2020
2506 Clouds 27 1016 74 10000 1.54 197 00:40 22.02.2020
2507 Clouds 27 1016 74 10000 1.54 197 00:20 22.02.2020
2508 Clouds 27 1015 69 10000 3.1 160 23:42 21.02.2020
2509 Clouds 27 1015 69 10000 3.1 160 23:21 21.02.2020
2510 Clouds 28 1014 70 10000 5.1 180 22:43 21.02.2020
2511 Clouds 28 1014 70 10000 5.1 180 22:25 21.02.2020
2512 Clouds 29 1015 66 10000 5.1 180 21:57 21.02.2020
2513 Clouds 29 1015 66 10000 5.1 180 21:37 21.02.2020
2514 Clouds 29 1015 66 10000 5.1 180 21:19 21.02.2020
2515 Clouds 29 1015 62 10000 6.2 180 20:47 21.02.2020
2516 Clouds 29 1015 62 10000 6.2 180 20:27 21.02.2020
2517 Clouds 29 1016 66 10000 6.2 180 19:41 21.02.2020
2518 Clouds 29 1016 66 10000 6.2 180 19:23 21.02.2020
2519 Clouds 29 1016 66 10000 5.1 160 18:46 21.02.2020
2520 Clouds 29 1016 66 10000 5.1 160 18:45 21.02.2020
2521 Clouds 29 1016 66 10000 5.1 160 18:25 21.02.2020
2522 Clouds 29 1017 70 10000 5.1 110 17:59 21.02.2020
2523 Clouds 29 1017 70 10000 5.1 110 17:39 21.02.2020
2524 Clouds 29 1017 70 10000 5.1 110 17:21 21.02.2020
2525 Clouds 28 1018 69 10000 4.1 90 16:57 21.02.2020
2526 Clouds 28 1018 69 10000 4.1 90 16:39 21.02.2020
2527 Clouds 28 1018 69 10000 4.1 90 16:20 21.02.2020
2528 Clouds 27 1018 78 10000 3.1 360 15:44 21.02.2020
2529 Clouds 26 1018 78 10000 3.1 360 15:19 21.02.2020
2530 Clouds 25 1017 83 10000 0.75 91 14:55 21.02.2020
2531 Clouds 24 1017 83 10000 0.75 91 14:37 21.02.2020
2532 Clouds 24 1017 83 10000 1.9 332 14:18 21.02.2020
2533 Clouds 23 1017 88 10000 1.9 332 13:42 21.02.2020
2534 Clouds 23 1017 88 10000 1.9 332 13:21 21.02.2020
2535 Clouds 22 1016 94 10000 2.1 10 12:46 21.02.2020
2536 Clouds 22 1016 94 10000 2.1 10 12:27 21.02.2020
2537 Clouds 22 1015 94 10000 2.6 20 11:58 21.02.2020
2538 Clouds 23 1015 94 10000 2.6 20 11:38 21.02.2020
2539 Clouds 23 1015 94 10000 2.6 20 11:20 21.02.2020
2540 Rain 23 1015 94 8000 2.1 40 10:42 21.02.2020
2541 Rain 22 1015 94 8000 2.1 40 10:22 21.02.2020
2542 Rain 23 1015 94 8000 2.6 40 09:58 21.02.2020
2543 Rain 23 1015 94 8000 2.6 40 09:39 21.02.2020
2544 Rain 23 1015 94 8000 2.6 40 09:20 21.02.2020
2545 Rain 23 1015 94 8000 3.1 40 08:56 21.02.2020
2546 Rain 23 1015 94 8000 3.1 40 08:36 21.02.2020
2547 Rain 23 1015 94 8000 3.1 40 08:18 21.02.2020
2548 Clouds 24 1016 88 10000 2.1 40 07:42 21.02.2020
2549 Clouds 24 1016 88 10000 2.1 40 07:21 21.02.2020
2550 Clouds 24 1017 88 10000 2.1 20 06:56 21.02.2020
2551 Clouds 24 1017 88 10000 2.1 20 06:33 21.02.2020
2552 Clouds 24 1017 88 10000 2.1 50 05:56 21.02.2020
2553 Clouds 25 1017 88 10000 2.1 50 05:30 21.02.2020
2554 Clouds 25 1017 83 10000 2.1 60 04:26 21.02.2020
2555 Clouds 26 1016 83 10000 2.1 70 03:46 21.02.2020
2556 Clouds 25 1016 83 10000 4.6 100 02:58 21.02.2020
2557 Clouds 26 1015 78 10000 3.1 70 01:32 21.02.2020
2558 Rain 26 1015 83 8000 4.1 120 00:47 21.02.2020
2559 Rain 26 1015 83 8000 4.1 120 00:25 21.02.2020
2560 Clouds 27 1015 74 10000 5.1 160 23:58 20.02.2020
2561 Clouds 27 1015 74 10000 5.1 160 23:39 20.02.2020
2562 Clouds 27 1015 74 10000 5.1 160 23:21 20.02.2020
2563 Clouds 27 1015 74 10000 5.1 160 23:21 20.02.2020
2564 Clouds 28 1014 66 10000 5.1 180 22:40 20.02.2020
2565 Clouds 29 1014 66 10000 5.1 180 22:21 20.02.2020
2566 Clouds 29 1015 62 10000 5.1 160 21:57 20.02.2020
2567 Clouds 29 1015 62 10000 5.1 160 21:39 20.02.2020
2568 Clouds 29 1015 62 10000 5.1 160 21:39 20.02.2020
2569 Clouds 29 1015 62 10000 5.1 160 21:39 20.02.2020
2570 Clouds 29 1015 62 10000 5.1 160 21:19 20.02.2020
2571 Clouds 29 1015 62 10000 5.1 160 21:19 20.02.2020
2572 Clouds 29 1015 58 10000 3.1 90 20:56 20.02.2020
2573 Clouds 30 1015 58 10000 3.1 90 20:38 20.02.2020
2574 Clouds 30 1015 58 10000 3.1 90 20:19 20.02.2020
2575 Clouds 30 1016 62 10000 4.1 160 19:58 20.02.2020
2576 Clouds 30 1016 62 10000 4.1 160 19:40 20.02.2020
2577 Clouds 30 1016 62 10000 4.1 160 19:22 20.02.2020
2578 Clouds 29 1017 66 10000 5.1 60 18:40 20.02.2020
2579 Clouds 29 1017 66 10000 5.1 60 18:21 20.02.2020
2580 Clouds 29 1018 70 10000 5.1 360 17:58 20.02.2020
2581 Clouds 29 1018 70 10000 5.1 360 17:39 20.02.2020
2582 Clouds 29 1018 70 10000 5.1 360 17:38 20.02.2020
2583 Clouds 29 1018 70 10000 5.1 360 17:18 20.02.2020
2584 Clouds 29 1018 74 10000 4.1 360 16:56 20.02.2020
2585 Clouds 28 1018 74 10000 4.1 360 16:37 20.02.2020
2586 Clouds 28 1018 74 10000 4.1 360 16:18 20.02.2020
2587 Clouds 27 1017 83 10000 5.1 70 15:42 20.02.2020
2588 Clouds 26 1017 83 10000 5.1 70 15:22 20.02.2020
2589 Clouds 26 1017 88 10000 2.1 30 14:57 20.02.2020
2590 Clouds 25 1017 88 10000 2.1 30 14:39 20.02.2020
2591 Clouds 25 1017 88 10000 2.1 30 14:39 20.02.2020
2592 Clouds 25 1017 88 10000 2.1 30 14:20 20.02.2020
2593 Clouds 24 1016 88 10000 3.1 360 13:46 20.02.2020
2594 Clouds 23 1016 88 10000 3.1 360 13:21 20.02.2020
2595 Clouds 23 1016 94 10000 2.1 360 12:59 20.02.2020
2596 Clouds 23 1016 94 10000 2.1 360 12:40 20.02.2020
2597 Clouds 23 1016 94 10000 2.1 360 12:20 20.02.2020
2598 Clouds 23 1016 100 10000 2.1 350 11:57 20.02.2020
2599 Clouds 23 1016 100 10000 2.1 350 11:39 20.02.2020
2600 Clouds 23 1016 100 10000 2.1 350 11:19 20.02.2020
2601 Clouds 23 1015 94 10000 2.1 360 10:42 20.02.2020
2602 Clouds 23 1015 94 10000 2.1 360 10:22 20.02.2020
2603 Clouds 23 1015 94 10000 2.1 360 09:55 20.02.2020
2604 Clouds 23 1015 94 10000 2.1 360 09:55 20.02.2020
2605 Clouds 23 1015 94 10000 2.1 360 09:37 20.02.2020
2606 Clouds 23 1015 94 10000 2.1 360 09:19 20.02.2020
2607 Clouds 23 1016 88 10000 3.6 20 08:40 20.02.2020
2608 Clouds 23 1016 88 10000 3.6 20 08:22 20.02.2020
2609 Clouds 23 1017 94 10000 3.1 20 07:47 20.02.2020
2610 Clouds 23 1017 94 10000 3.1 20 07:26 20.02.2020
2611 Clouds 23 1018 100 10000 2.1 20 06:56 20.02.2020
2612 Clouds 23 1018 100 10000 2.1 20 06:30 20.02.2020
2613 Clouds 24 1018 88 10000 2.1 10 05:47 20.02.2020
2614 Clouds 24 1018 88 10000 2.1 10 05:18 20.02.2020
2615 Clouds 24 1018 88 10000 2.6 20 04:28 20.02.2020
2616 Clouds 24 1018 88 10000 2.6 20 03:40 20.02.2020
2617 Clouds 25 1018 83 10000 2.1 30 02:37 20.02.2020
2618 Clouds 26 1017 78 10000 4.1 60 01:21 20.02.2020
2619 Clouds 26 1017 94 10000 3.96 38 00:34 20.02.2020
2620 Clouds 27 1016 83 10000 3.96 38 23:54 19.02.2020
2621 Clouds 28 1016 83 10000 3.96 38 23:23 19.02.2020
2622 Clouds 28 1015 78 10000 2.95 71 22:56 19.02.2020
2623 Clouds 28 1015 78 10000 2.95 71 22:38 19.02.2020
2624 Clouds 28 1015 78 10000 2.95 71 22:20 19.02.2020
2625 Clouds 29 1016 74 10000 3.1 90 21:55 19.02.2020
2626 Clouds 29 1016 74 10000 3.1 90 21:37 19.02.2020
2627 Clouds 29 1016 74 10000 3.1 90 21:18 19.02.2020
2628 Clouds 29 1017 74 10000 3.1 100 20:55 19.02.2020
2629 Clouds 29 1017 74 10000 3.1 100 20:36 19.02.2020
2630 Clouds 29 1017 74 10000 3.1 100 20:18 19.02.2020
2631 Clouds 28 1017 69 10000 3.75 79 19:54 19.02.2020
2632 Clouds 28 1017 69 10000 3.75 79 19:36 19.02.2020
2633 Clouds 28 1017 69 10000 3.75 79 19:18 19.02.2020
2634 Rain 27 1018 83 8000 5.1 40 18:55 19.02.2020
2635 Rain 27 1018 83 8000 5.1 40 18:37 19.02.2020
2636 Rain 26 1018 83 8000 5.1 40 18:19 19.02.2020
2637 Rain 26 1019 78 10000 3.1 40 17:42 19.02.2020
2638 Rain 26 1019 78 10000 3.1 40 17:42 19.02.2020
2639 Clouds 27 1019 78 10000 3.1 40 17:19 19.02.2020
2640 Rain 27 1019 88 7000 3.63 34 16:43 19.02.2020
2641 Rain 27 1019 88 7000 3.63 34 16:19 19.02.2020
2642 Clouds 25 1019 83 10000 5.1 360 15:58 19.02.2020
2643 Clouds 26 1019 83 10000 5.1 360 15:38 19.02.2020
2644 Clouds 26 1019 83 10000 5.1 360 15:20 19.02.2020
2645 Clouds 25 1019 94 10000 3.1 360 14:41 19.02.2020
2646 Clouds 25 1019 94 10000 3.1 360 14:23 19.02.2020
2647 Clouds 24 1018 100 10000 2.6 360 13:56 19.02.2020
2648 Clouds 23 1018 100 10000 2.6 360 13:37 19.02.2020
2649 Clouds 23 1018 100 10000 2.6 360 13:18 19.02.2020
2650 Clouds 23 1017 94 10000 2.1 20 12:39 19.02.2020
2651 Clouds 23 1017 94 10000 2.1 20 12:19 19.02.2020
2652 Clouds 23 1017 94 10000 2.1 30 11:55 19.02.2020
2653 Clouds 22 1017 94 10000 2.1 30 11:37 19.02.2020
2654 Clouds 22 1017 94 10000 2.1 30 11:18 19.02.2020
2655 Clouds 22 1017 94 10000 2.1 30 10:56 19.02.2020
2656 Clouds 23 1017 94 10000 2.1 30 10:36 19.02.2020
2657 Clouds 23 1017 94 10000 2.1 30 10:18 19.02.2020
2658 Clouds 23 1017 88 10000 2.1 30 09:41 19.02.2020
2659 Clouds 23 1017 88 10000 2.1 30 09:20 19.02.2020
2660 Clouds 23 1017 83 10000 2.1 20 08:56 19.02.2020
2661 Clouds 23 1017 83 10000 2.1 20 08:37 19.02.2020
2662 Clouds 23 1017 83 10000 2.1 20 08:18 19.02.2020
2663 Clouds 24 1018 83 10000 2.1 20 07:41 19.02.2020
2664 Clouds 24 1018 83 10000 2.1 20 07:20 19.02.2020
2665 Clouds 24 1018 83 10000 2.1 40 06:46 19.02.2020
2666 Clouds 24 1019 83 10000 2.1 20 05:35 19.02.2020
2667 Clouds 24 1018 78 10000 2.1 40 03:56 19.02.2020
2668 Clouds 25 1018 73 10000 2.1 60 02:45 19.02.2020
2669 Clouds 25 1017 69 10000 3.1 70 01:53 19.02.2020
2670 Clouds 25 1017 69 10000 3.1 70 01:23 19.02.2020
2671 Rain 26 1017 88 8000 4.07 39 00:42 19.02.2020
2672 Rain 26 1017 88 8000 4.07 39 00:22 19.02.2020
2673 Rain 27 1016 88 8000 4.07 39 23:40 18.02.2020
2674 Rain 27 1016 88 8000 3.31 62 23:20 18.02.2020
2675 Rain 27 1016 88 8000 3.31 62 22:55 18.02.2020
2676 Rain 28 1016 88 8000 3.31 62 22:37 18.02.2020
2677 Rain 28 1016 88 8000 3.31 62 22:19 18.02.2020
2678 Rain 28 1016 88 8000 3.31 62 22:19 18.02.2020
2679 Clouds 29 1016 74 10000 2.6 360 21:54 18.02.2020
2680 Clouds 28 1016 74 10000 2.6 360 21:36 18.02.2020
2681 Clouds 28 1016 74 10000 2.6 360 21:18 18.02.2020
2682 Clouds 28 1017 74 10000 3.6 30 20:40 18.02.2020
2683 Clouds 28 1017 74 10000 3.6 30 20:22 18.02.2020
2684 Rain 29 1018 78 8000 2.6 30 19:59 18.02.2020
2685 Rain 29 1018 78 8000 2.6 30 19:41 18.02.2020
2686 Rain 29 1018 78 8000 2.6 30 19:19 18.02.2020
2687 Clouds 29 1019 74 10000 2.6 40 18:55 18.02.2020
2688 Clouds 28 1019 74 10000 2.6 40 18:37 18.02.2020
2689 Clouds 28 1019 74 10000 2.6 40 18:18 18.02.2020
2690 Clouds 27 1019 78 10000 5.1 360 17:40 18.02.2020
2691 Clouds 27 1019 78 10000 5.1 360 17:19 18.02.2020
2692 Clouds 27 1020 78 10000 4.1 30 16:40 18.02.2020
2693 Clouds 27 1020 78 10000 4.1 30 16:21 18.02.2020
2694 Clouds 26 1020 78 10000 5.1 360 15:55 18.02.2020
2695 Clouds 26 1020 78 10000 5.1 360 15:36 18.02.2020
2696 Clouds 26 1020 78 10000 5.1 360 15:18 18.02.2020
2697 Clouds 25 1019 88 10000 5.1 360 14:55 18.02.2020
2698 Clouds 25 1019 88 10000 5.1 360 14:36 18.02.2020
2699 Clouds 25 1019 88 10000 5.1 360 14:18 18.02.2020
2700 Rain 23 1019 94 7000 3.25 355 13:41 18.02.2020
2701 Rain 23 1019 94 7000 3.25 355 13:21 18.02.2020
2702 Clouds 23 1017 100 10000 2.1 20 12:47 18.02.2020
2703 Clouds 23 1017 100 10000 2.1 20 12:29 18.02.2020
2704 Clouds 23 1017 100 10000 2.1 20 11:59 18.02.2020
2705 Clouds 23 1017 100 10000 2.1 20 11:41 18.02.2020
2706 Clouds 23 1017 100 10000 2.1 20 11:41 18.02.2020
2707 Clouds 23 1017 100 10000 2.1 20 11:22 18.02.2020
2708 Clouds 22 1016 94 10000 2.1 30 10:44 18.02.2020
2709 Clouds 23 1016 94 10000 2.1 30 10:24 18.02.2020
2710 Clouds 23 1016 94 10000 2.1 20 09:57 18.02.2020
2711 Clouds 23 1016 94 10000 2.1 20 09:39 18.02.2020
2712 Clouds 23 1016 94 10000 2.1 20 09:20 18.02.2020
2713 Clouds 23 1016 94 10000 2.1 20 08:57 18.02.2020
2714 Clouds 23 1016 94 10000 2.1 20 08:38 18.02.2020
2715 Clouds 23 1016 94 10000 2.1 20 08:19 18.02.2020
2716 Clouds 23 1017 94 10000 2.1 10 07:48 18.02.2020
2717 Clouds 23 1017 94 10000 2.1 10 07:25 18.02.2020
2718 Clouds 23 1017 94 10000 2.1 10 06:55 18.02.2020
2719 Clouds 23 1017 94 10000 2.1 10 06:29 18.02.2020
2720 Clouds 24 1018 88 10000 2.1 360 05:48 18.02.2020
2721 Clouds 24 1018 88 10000 2.1 360 05:21 18.02.2020
2722 Clouds 25 1018 94 10000 3.1 40 03:52 18.02.2020
2723 Clouds 25 1017 83 10000 3.6 50 02:58 18.02.2020
2724 Clouds 26 1015 83 10000 2.1 40 01:25 18.02.2020
2725 Clouds 27 1016 69 10000 3.55 48 00:40 18.02.2020
2726 Clouds 27 1016 69 10000 3.55 48 00:18 18.02.2020
2727 Clouds 28 1015 66 10000 3.1 180 23:39 17.02.2020
2728 Clouds 28 1015 66 10000 3.1 180 23:19 17.02.2020
2729 Clouds 29 1015 66 10000 5.1 180 22:58 17.02.2020
2730 Clouds 29 1015 66 10000 5.1 180 22:39 17.02.2020
2731 Clouds 29 1015 66 10000 5.1 180 22:18 17.02.2020
2732 Clouds 29 1015 66 10000 5.1 180 21:39 17.02.2020
2733 Clouds 30 1015 66 10000 5.1 180 21:19 17.02.2020
2734 Clouds 30 1015 66 10000 3.69 75 20:55 17.02.2020
2735 Clouds 30 1015 66 10000 3.69 75 20:37 17.02.2020
2736 Clouds 30 1015 66 10000 3.56 79 20:18 17.02.2020
2737 Rain 29 1016 74 8000 3.1 60 19:42 17.02.2020
2738 Rain 29 1016 74 8000 3.1 60 19:21 17.02.2020
2739 Rain 29 1016 66 8000 3.19 86 18:55 17.02.2020
2740 Rain 28 1016 66 8000 3.19 86 18:36 17.02.2020
2741 Rain 28 1016 66 8000 3.19 86 18:36 17.02.2020
2742 Rain 28 1016 66 8000 3.19 86 18:18 17.02.2020
2743 Clouds 28 1017 74 10000 5.1 360 17:38 17.02.2020
2744 Clouds 28 1017 74 10000 5.1 360 17:19 17.02.2020
2745 Clouds 28 1018 78 10000 5.1 40 16:58 17.02.2020
2746 Clouds 28 1018 78 10000 5.1 40 16:40 17.02.2020
2747 Clouds 28 1018 78 10000 5.1 40 16:21 17.02.2020
2748 Clouds 27 1017 78 10000 3.1 40 15:45 17.02.2020
2749 Clouds 27 1017 78 10000 3.1 40 15:27 17.02.2020
2750 Clouds 26 1016 83 10000 2.6 40 14:57 17.02.2020
2751 Clouds 26 1016 83 10000 2.6 40 14:39 17.02.2020
2752 Clouds 25 1016 83 10000 2.6 40 14:20 17.02.2020
2753 Clouds 24 1015 83 10000 3.09 5 13:41 17.02.2020
2754 Clouds 24 1015 83 10000 3.09 5 13:22 17.02.2020
2755 Clouds 24 1015 94 10000 2.97 4 12:59 17.02.2020
2756 Clouds 24 1015 94 10000 2.97 4 12:41 17.02.2020
2757 Clouds 24 1015 94 10000 2.97 4 12:22 17.02.2020
2758 Clouds 24 1015 94 10000 2.97 4 11:47 17.02.2020
2759 Clouds 24 1015 94 10000 2.97 4 11:29 17.02.2020
2760 Clouds 24 1014 94 10000 2.1 20 10:58 17.02.2020
2761 Clouds 24 1014 94 10000 2.1 20 10:40 17.02.2020
2762 Clouds 24 1014 94 10000 2.1 20 10:21 17.02.2020
2763 Clouds 24 1014 94 10000 2.1 20 10:21 17.02.2020
2764 Clouds 24 1015 94 10000 2.1 30 09:58 17.02.2020
2765 Clouds 23 1015 94 10000 2.1 30 09:40 17.02.2020
2766 Clouds 23 1015 94 10000 2.1 30 09:19 17.02.2020
2767 Clouds 23 1015 94 10000 2.1 340 08:56 17.02.2020
2768 Clouds 24 1015 94 10000 2.1 340 08:38 17.02.2020
2769 Clouds 24 1015 94 10000 2.1 340 08:19 17.02.2020
2770 Clouds 24 1016 94 10000 1.5 0 07:40 17.02.2020
2771 Clouds 24 1016 94 10000 1.5 0 07:22 17.02.2020
2772 Clouds 24 1016 94 10000 2.6 10 06:49 17.02.2020
2773 Clouds 24 1016 94 10000 2.6 10 06:30 17.02.2020
2774 Clouds 24 1016 88 10000 2.1 20 05:40 17.02.2020
2775 Clouds 24 1016 88 10000 2.1 30 04:40 17.02.2020
2776 Clouds 24 1016 94 10000 2.6 60 03:18 17.02.2020
2777 Clouds 25 1015 88 10000 2.1 40 01:25 17.02.2020
2778 Clouds 26 1016 83 10000 3.1 40 00:39 17.02.2020
2779 Clouds 26 1016 83 10000 3.1 40 00:39 17.02.2020
2780 Clouds 26 1016 83 10000 3.1 40 00:19 17.02.2020
2781 Clouds 26 1015 78 10000 4.1 30 23:52 16.02.2020
2782 Clouds 26 1015 78 10000 4.1 30 23:27 16.02.2020
2783 Clouds 27 1015 74 10000 3.1 10 22:56 16.02.2020
2784 Clouds 28 1015 74 10000 3.1 10 22:38 16.02.2020
2785 Clouds 28 1015 74 10000 3.1 10 22:38 16.02.2020
2786 Clouds 28 1015 74 10000 3.1 10 22:19 16.02.2020
2787 Clouds 28 1015 78 10000 5.1 360 21:55 16.02.2020
2788 Clouds 28 1015 78 10000 5.1 360 21:36 16.02.2020
2789 Clouds 28 1015 78 10000 5.1 360 21:18 16.02.2020
2790 Rain 28 1014 83 8000 2.1 100 20:54 16.02.2020
2791 Rain 27 1014 83 8000 2.1 100 20:36 16.02.2020
2792 Rain 28 1014 83 8000 2.1 100 20:18 16.02.2020
2793 Rain 28 1014 83 8000 2.1 100 20:18 16.02.2020
2794 Clouds 28 1016 66 10000 3.1 50 19:54 16.02.2020
2795 Clouds 29 1016 66 10000 3.1 50 19:36 16.02.2020
2796 Clouds 29 1016 66 10000 3.1 50 19:18 16.02.2020
2797 Clouds 29 1017 66 10000 5.1 90 18:41 16.02.2020
2798 Clouds 29 1017 66 10000 5.1 90 18:23 16.02.2020
2799 Clouds 29 1018 70 10000 6.2 360 17:45 16.02.2020
2800 Clouds 29 1018 70 10000 6.2 360 17:21 16.02.2020
2801 Clouds 29 1018 69 10000 5.1 360 16:57 16.02.2020
2802 Clouds 29 1018 69 10000 5.1 360 16:57 16.02.2020
2803 Clouds 29 1018 69 10000 5.1 360 16:39 16.02.2020
2804 Clouds 29 1018 69 10000 5.1 360 16:21 16.02.2020
2805 Clouds 28 1019 74 10000 2.6 40 15:56 16.02.2020
2806 Clouds 27 1019 74 10000 2.6 40 15:37 16.02.2020
2807 Clouds 27 1019 74 10000 2.6 40 15:18 16.02.2020
2808 Clouds 25 1018 83 10000 4.1 360 14:39 16.02.2020
2809 Clouds 25 1018 83 10000 4.1 360 14:21 16.02.2020
2810 Clouds 24 1018 88 10000 3.33 341 13:47 16.02.2020
2811 Clouds 23 1018 88 10000 3.33 341 13:24 16.02.2020
2812 Clouds 23 1015 94 10000 2.1 10 12:56 16.02.2020
2813 Clouds 23 1015 94 10000 2.1 10 12:38 16.02.2020
2814 Clouds 23 1015 94 10000 2.1 10 12:19 16.02.2020
2815 Clouds 23 1015 94 10000 2.1 360 11:39 16.02.2020
2816 Clouds 23 1015 94 10000 2.1 360 11:18 16.02.2020
2817 Clouds 23 1015 94 10000 2.1 10 10:56 16.02.2020
2818 Clouds 23 1015 94 10000 2.1 10 10:38 16.02.2020
2819 Clouds 23 1015 94 10000 2.1 10 10:38 16.02.2020
2820 Clouds 23 1015 94 10000 2.1 10 10:20 16.02.2020
2821 Clouds 23 1016 94 10000 5.1 40 09:55 16.02.2020
2822 Clouds 23 1016 94 10000 5.1 40 09:36 16.02.2020
2823 Clouds 23 1016 94 10000 5.1 40 09:18 16.02.2020
2824 Clouds 24 1016 88 10000 3.34 341 08:45 16.02.2020
2825 Clouds 24 1016 88 10000 3.32 347 08:21 16.02.2020
2826 Clouds 24 1017 83 10000 1.5 0 07:54 16.02.2020
2827 Clouds 24 1017 83 10000 1.5 0 07:34 16.02.2020
2828 Clouds 24 1017 83 10000 1.5 0 06:35 16.02.2020
2829 Clouds 24 1018 83 10000 1.5 0 04:45 16.02.2020
2830 Clouds 25 1017 69 10000 2.1 40 03:34 16.02.2020
2831 Clouds 25 1017 69 10000 2.6 90 02:32 16.02.2020
2832 Clouds 25 1016 69 10000 3.1 70 01:44 16.02.2020
2833 Clouds 25 1016 69 10000 3.1 70 01:44 16.02.2020
2834 Clouds 25 1016 69 10000 3.1 70 01:44 16.02.2020
2835 Clouds 25 1016 69 10000 3.1 70 01:26 16.02.2020
2836 Rain 25 1017 94 8000 3.74 31 00:58 16.02.2020
2837 Rain 26 1017 94 8000 3.74 31 00:34 16.02.2020
2838 Rain 27 1016 83 6000 3.74 31 23:58 15.02.2020
2839 Rain 27 1016 83 6000 3.74 31 23:40 15.02.2020
2840 Rain 27 1016 83 6000 3.74 31 23:22 15.02.2020
2841 Clouds 28 1015 69 10000 4.1 160 22:56 15.02.2020
2842 Clouds 28 1015 69 10000 4.1 160 22:37 15.02.2020
2843 Clouds 28 1015 69 10000 4.1 160 22:18 15.02.2020
2844 Clouds 29 1016 66 10000 4.1 180 21:42 15.02.2020
2845 Clouds 29 1016 66 10000 4.1 180 21:23 15.02.2020
2846 Clouds 29 1016 62 10000 5.1 180 20:42 15.02.2020
2847 Clouds 29 1016 62 10000 5.1 180 20:42 15.02.2020
2848 Clouds 29 1016 62 10000 5.1 180 20:21 15.02.2020
2849 Clouds 29 1016 62 10000 5.1 180 20:21 15.02.2020
2850 Clouds 29 1017 55 10000 5.1 180 19:57 15.02.2020
2851 Clouds 29 1017 55 10000 5.1 180 19:39 15.02.2020
2852 Clouds 30 1017 55 10000 5.1 180 19:20 15.02.2020
2853 Clouds 29 1018 62 10000 4.1 90 18:40 15.02.2020
2854 Clouds 29 1018 62 10000 4.1 90 18:20 15.02.2020
2855 Clouds 29 1019 66 10000 4.1 360 17:44 15.02.2020
2856 Clouds 29 1019 66 10000 4.1 360 17:24 15.02.2020
2857 Clouds 28 1019 74 10000 3.1 40 16:59 15.02.2020
2858 Clouds 28 1019 74 10000 3.1 40 16:39 15.02.2020
2859 Clouds 28 1019 74 10000 3.1 40 16:20 15.02.2020
2860 Clouds 27 1018 78 10000 4.1 360 15:49 15.02.2020
2861 Clouds 27 1018 78 10000 4.1 360 15:30 15.02.2020
2862 Clouds 25 1018 94 10000 3.77 41 14:46 15.02.2020
2863 Clouds 25 1018 94 10000 3.77 41 14:24 15.02.2020
2864 Clouds 23 1017 100 10000 2.92 348 13:58 15.02.2020
2865 Clouds 23 1017 100 10000 2.92 348 13:40 15.02.2020
2866 Clouds 22 1017 100 10000 2.92 348 13:21 15.02.2020
2867 Clouds 22 1018 94 10000 2.1 10 12:44 15.02.2020
2868 Clouds 22 1018 94 10000 2.1 10 12:26 15.02.2020
2869 Clouds 22 1017 94 10000 2.1 360 11:56 15.02.2020
2870 Clouds 22 1017 94 10000 2.1 360 11:36 15.02.2020
2871 Clouds 22 1017 94 10000 2.1 360 11:18 15.02.2020
2872 Clouds 23 1017 94 10000 1.5 30 10:40 15.02.2020
2873 Clouds 23 1017 94 10000 1.5 30 10:21 15.02.2020
2874 Clouds 22 1017 94 10000 1.5 30 09:44 15.02.2020
2875 Clouds 22 1017 94 10000 1.5 30 09:25 15.02.2020
2876 Clouds 22 1017 94 10000 1.5 30 08:58 15.02.2020
2877 Clouds 23 1017 94 10000 1.5 30 08:39 15.02.2020
2878 Clouds 23 1017 94 10000 1.5 30 08:19 15.02.2020
2879 Clouds 24 1018 88 10000 1.5 30 07:40 15.02.2020
2880 Clouds 24 1018 88 10000 1.5 30 07:22 15.02.2020
2881 Clouds 24 1018 88 10000 2.1 360 06:38 15.02.2020
2882 Clouds 24 1018 88 10000 2.1 360 06:18 15.02.2020
2883 Clouds 25 1018 88 10000 3.1 40 04:51 15.02.2020
2884 Clouds 24 1018 88 10000 3.1 40 04:26 15.02.2020
2885 Clouds 25 1018 88 10000 3.1 70 02:59 15.02.2020
2886 Clouds 25 1018 88 10000 3.1 70 02:28 15.02.2020
2887 Clouds 26 1017 83 10000 4.1 80 01:58 15.02.2020
2888 Clouds 26 1017 83 10000 4.1 80 01:36 15.02.2020
2889 Rain 26 1017 83 8000 2.45 62 00:30 15.02.2020
2890 Clouds 27 1016 78 10000 4.1 90 23:48 14.02.2020
2891 Clouds 28 1016 78 10000 4.1 90 23:21 14.02.2020
2892 Clouds 29 1016 70 10000 4.1 120 22:58 14.02.2020
2893 Clouds 29 1016 70 10000 4.1 120 22:40 14.02.2020
2894 Clouds 29 1016 70 10000 4.1 120 22:21 14.02.2020
2895 Clouds 29 1017 66 10000 5.1 90 21:49 14.02.2020
2896 Clouds 29 1017 66 10000 5.1 90 21:30 14.02.2020
2897 Clouds 29 1018 66 10000 5.1 120 20:48 14.02.2020
2898 Clouds 30 1018 66 10000 5.1 120 20:21 14.02.2020
2899 Clouds 30 1018 62 10000 2.1 90 19:59 14.02.2020
2900 Clouds 30 1018 62 10000 2.1 90 19:41 14.02.2020
2901 Clouds 30 1018 62 10000 2.1 90 19:41 14.02.2020
2902 Clouds 30 1018 62 10000 2.1 90 19:22 14.02.2020
2903 Clouds 30 1019 62 10000 4.1 360 18:56 14.02.2020
2904 Clouds 30 1019 62 10000 4.1 360 18:38 14.02.2020
2905 Clouds 30 1019 62 10000 4.1 360 18:19 14.02.2020
2906 Clouds 30 1020 70 10000 5.1 360 17:44 14.02.2020
2907 Clouds 29 1020 70 10000 5.1 360 17:21 14.02.2020
2908 Clouds 29 1020 58 10000 5.1 100 16:59 14.02.2020
2909 Clouds 28 1020 58 10000 5.1 100 16:40 14.02.2020
2910 Clouds 28 1020 58 10000 5.1 100 16:22 14.02.2020
2911 Clouds 28 1020 78 10000 3.46 38 15:56 14.02.2020
2912 Clouds 27 1020 78 10000 3.46 38 15:37 14.02.2020
2913 Clouds 27 1020 78 10000 3.46 38 15:19 14.02.2020
2914 Clouds 26 1019 83 10000 4.1 270 14:58 14.02.2020
2915 Clouds 25 1019 83 10000 4.1 270 14:40 14.02.2020
2916 Clouds 25 1019 83 10000 4.1 270 14:21 14.02.2020
2917 Clouds 24 1019 94 10000 3.1 270 13:54 14.02.2020
2918 Clouds 23 1019 94 10000 3.1 270 13:36 14.02.2020
2919 Clouds 23 1019 94 10000 3.1 270 13:18 14.02.2020
2920 Clouds 23 1019 94 10000 3.1 40 12:54 14.02.2020
2921 Clouds 23 1019 94 10000 3.1 40 12:54 14.02.2020
2922 Clouds 23 1019 94 10000 3.1 40 12:36 14.02.2020
2923 Clouds 23 1019 94 10000 3.1 40 12:18 14.02.2020
2924 Clouds 23 1018 94 10000 2.1 20 11:41 14.02.2020
2925 Clouds 23 1018 94 10000 2.1 20 11:21 14.02.2020
2926 Clouds 24 1017 88 10000 2.6 10 10:56 14.02.2020
2927 Clouds 24 1017 88 10000 2.6 10 10:37 14.02.2020
2928 Clouds 24 1017 88 10000 2.6 10 10:19 14.02.2020
2929 Clouds 24 1017 88 10000 2.1 20 09:42 14.02.2020
2930 Clouds 24 1017 88 10000 2.1 20 09:21 14.02.2020
2931 Clouds 23 1018 88 10000 2.1 30 08:44 14.02.2020
2932 Clouds 23 1018 88 10000 2.1 30 08:25 14.02.2020
2933 Clouds 23 1018 83 10000 2.1 40 07:57 14.02.2020
2934 Clouds 24 1018 83 10000 2.1 40 07:38 14.02.2020
2935 Clouds 24 1018 83 10000 2.1 40 07:19 14.02.2020
2936 Clouds 24 1018 83 10000 2.1 10 06:30 14.02.2020
2937 Clouds 24 1019 83 10000 2.1 20 05:47 14.02.2020
2938 Clouds 24 1019 78 10000 2.1 20 04:46 14.02.2020
2939 Clouds 25 1019 83 10000 2.1 40 03:29 14.02.2020
2940 Clouds 25 1018 78 10000 2.1 50 02:30 14.02.2020
2941 Clouds 26 1017 74 10000 4.1 50 01:27 14.02.2020
2942 Clouds 27 1017 69 10000 4.1 60 00:43 14.02.2020
2943 Clouds 27 1017 69 10000 4.1 60 00:43 14.02.2020
2944 Clouds 28 1017 69 10000 4.1 60 00:23 14.02.2020
2945 Clouds 30 1016 62 10000 4.1 20 23:45 13.02.2020
2946 Clouds 29 1016 62 10000 4.1 20 23:21 13.02.2020
2947 Clouds 30 1016 62 10000 4.1 30 22:44 13.02.2020
2948 Clouds 30 1016 62 10000 4.1 30 22:20 13.02.2020
2949 Clouds 30 1016 62 10000 4.1 30 22:20 13.02.2020
2950 Clouds 30 1016 62 10000 4.1 30 22:20 13.02.2020
2951 Clouds 31 1016 58 10000 4.1 60 21:59 13.02.2020
2952 Clouds 31 1016 58 10000 4.1 60 21:40 13.02.2020
2953 Clouds 31 1016 58 10000 4.1 60 21:22 13.02.2020
2954 Clouds 31 1016 52 10000 6.2 60 20:56 13.02.2020
2955 Clouds 31 1016 52 10000 6.2 60 20:38 13.02.2020
2956 Clouds 31 1016 52 10000 6.2 60 20:20 13.02.2020
2957 Clouds 31 1017 52 10000 5.1 60 19:55 13.02.2020
2958 Clouds 31 1017 52 10000 5.1 60 19:36 13.02.2020
2959 Clouds 31 1017 52 10000 5.1 60 19:36 13.02.2020
2960 Clouds 31 1017 52 10000 5.1 60 19:18 13.02.2020
2961 Clouds 31 1018 58 10000 4.1 30 18:43 13.02.2020
2962 Clouds 31 1018 58 10000 4.1 30 18:24 13.02.2020
2963 Clouds 30 1019 62 10000 4.1 90 17:59 13.02.2020
2964 Clouds 30 1019 62 10000 4.1 90 17:40 13.02.2020
2965 Clouds 30 1019 62 10000 4.1 90 17:40 13.02.2020
2966 Clouds 30 1019 62 10000 4.1 90 17:20 13.02.2020
2967 Clouds 29 1020 62 10000 4.1 30 16:58 13.02.2020
2968 Clouds 29 1020 62 10000 4.1 30 16:37 13.02.2020
2969 Clouds 29 1020 62 10000 4.1 30 16:19 13.02.2020
2970 Clouds 28 1020 69 10000 3.1 20 15:56 13.02.2020
2971 Clouds 27 1020 69 10000 3.1 20 15:37 13.02.2020
2972 Clouds 27 1020 69 10000 3.1 20 15:19 13.02.2020
2973 Clouds 26 1019 78 10000 4.1 360 14:55 13.02.2020
2974 Clouds 26 1019 78 10000 4.1 360 14:37 13.02.2020
2975 Clouds 25 1019 78 10000 4.1 360 14:19 13.02.2020
2976 Clouds 23 1018 94 10000 3.1 360 13:42 13.02.2020
2977 Clouds 23 1018 94 10000 3.1 360 13:18 13.02.2020
2978 Clouds 22 1017 94 10000 2.1 30 12:54 13.02.2020
2979 Clouds 22 1017 94 10000 2.1 30 12:54 13.02.2020
2980 Clouds 21 1017 94 10000 2.1 30 12:36 13.02.2020
2981 Clouds 21 1017 94 10000 2.1 30 12:18 13.02.2020
2982 Clouds 21 1017 94 10000 2.1 30 11:43 13.02.2020
2983 Clouds 21 1017 94 10000 2.1 30 11:43 13.02.2020
2984 Clouds 21 1017 94 10000 2.1 30 11:20 13.02.2020
2985 Clouds 21 1017 94 10000 2.1 30 11:20 13.02.2020
2986 Clouds 22 1016 94 10000 2.1 40 10:46 13.02.2020
2987 Clouds 22 1016 94 10000 2.1 40 10:27 13.02.2020
2988 Clouds 22 1017 94 10000 2.1 30 09:51 13.02.2020
2989 Clouds 22 1017 94 10000 2.1 30 09:28 13.02.2020
2990 Clouds 23 1017 94 10000 2.1 40 08:54 13.02.2020
2991 Clouds 23 1017 94 10000 2.1 40 08:36 13.02.2020
2992 Clouds 23 1017 94 10000 2.1 40 08:18 13.02.2020
2993 Clouds 23 1018 88 10000 2.1 30 07:38 13.02.2020
2994 Clouds 23 1018 88 10000 2.1 30 07:20 13.02.2020
2995 Clouds 23 1018 88 10000 2.1 30 06:44 13.02.2020
2996 Clouds 23 1018 88 10000 2.1 30 06:18 13.02.2020
2997 Clouds 23 1019 88 10000 2.1 20 05:30 13.02.2020
2998 Clouds 24 1019 83 10000 2.1 20 04:25 13.02.2020
2999 Clouds 24 1019 83 10000 2.1 20 03:47 13.02.2020
3000 Clouds 24 1019 83 10000 2.1 20 03:20 13.02.2020
3001 Clouds 24 1018 78 10000 2.1 40 02:50 13.02.2020
3002 Clouds 24 1018 78 10000 2.1 40 02:19 13.02.2020
3003 Clouds 26 1017 74 10000 2.1 50 01:32 13.02.2020
3004 Rain 26 1017 83 8000 3.61 35 00:33 13.02.2020
3005 Clouds 28 1017 78 10000 2.6 90 23:59 12.02.2020
3006 Clouds 28 1017 78 10000 2.6 90 23:38 12.02.2020
3007 Clouds 28 1017 78 10000 2.6 90 23:20 12.02.2020
3008 Clouds 29 1017 74 10000 5.1 90 22:44 12.02.2020
3009 Clouds 29 1017 74 10000 5.1 90 22:24 12.02.2020
3010 Clouds 30 1017 66 10000 6.2 90 21:58 12.02.2020
3011 Clouds 30 1017 66 10000 6.2 90 21:39 12.02.2020
3012 Clouds 29 1017 66 10000 6.2 90 21:19 12.02.2020
3013 Rain 29 1017 69 8000 4.1 110 20:56 12.02.2020
3014 Rain 29 1017 69 8000 4.1 110 20:56 12.02.2020
3015 Clouds 29 1017 62 10000 4.1 50 20:37 12.02.2020
3016 Clouds 30 1017 62 10000 4.1 50 20:18 12.02.2020
3017 Clouds 29 1018 62 10000 6.2 40 19:44 12.02.2020
3018 Clouds 30 1018 62 10000 6.2 40 19:23 12.02.2020
3019 Clouds 29 1019 78 10000 5.1 40 18:55 12.02.2020
3020 Clouds 29 1019 78 10000 5.1 40 18:37 12.02.2020
3021 Clouds 28 1019 78 10000 5.1 40 18:18 12.02.2020
3022 Rain 28 1020 88 8000 5.1 40 17:42 12.02.2020
3023 Rain 27 1020 88 8000 5.1 40 17:20 12.02.2020
3024 Clouds 28 1021 74 10000 5.1 40 16:58 12.02.2020
3025 Clouds 28 1021 74 10000 5.1 40 16:38 12.02.2020
3026 Clouds 28 1021 74 10000 5.1 40 16:18 12.02.2020
3027 Clouds 28 1021 74 10000 5.1 40 16:18 12.02.2020
3028 Clouds 26 1020 78 10000 5.1 360 15:41 12.02.2020
3029 Clouds 26 1020 78 10000 5.1 360 15:20 12.02.2020
3030 Clouds 25 1020 78 10000 2.6 30 14:56 12.02.2020
3031 Clouds 25 1020 78 10000 2.6 30 14:38 12.02.2020
3032 Clouds 25 1020 78 10000 2.6 30 14:19 12.02.2020
3033 Clouds 22 1018 94 10000 3.14 1 13:56 12.02.2020
3034 Clouds 22 1018 94 10000 3.14 1 13:37 12.02.2020
3035 Clouds 22 1018 94 10000 2.94 1 13:18 12.02.2020
3036 Clouds 22 1018 94 10000 2.94 1 13:18 12.02.2020
3037 Clouds 21 1018 100 10000 2.1 30 12:55 12.02.2020
3038 Clouds 20 1018 100 10000 2.1 30 12:36 12.02.2020
3039 Clouds 20 1018 100 10000 2.1 30 12:18 12.02.2020
3040 Clouds 21 1018 94 10000 2.1 20 11:42 12.02.2020
3041 Clouds 21 1018 94 10000 2.1 20 11:21 12.02.2020
3042 Clouds 22 1017 94 10000 2.1 360 10:59 12.02.2020
3043 Clouds 22 1017 94 10000 2.1 360 10:41 12.02.2020
3044 Clouds 22 1017 94 10000 2.1 360 10:21 12.02.2020
3045 Clouds 22 1017 94 10000 2.1 20 09:57 12.02.2020
3046 Clouds 22 1017 94 10000 2.1 20 09:39 12.02.2020
3047 Clouds 22 1017 94 10000 2.1 20 09:19 12.02.2020
3048 Clouds 22 1018 88 10000 2.1 30 08:55 12.02.2020
3049 Clouds 23 1018 88 10000 2.1 30 08:37 12.02.2020
3050 Clouds 23 1018 88 10000 2.1 30 08:19 12.02.2020
3051 Clouds 23 1018 88 10000 2.1 40 07:42 12.02.2020
3052 Clouds 23 1018 88 10000 2.1 40 07:22 12.02.2020
3053 Clouds 23 1019 88 0 1.5 40 06:52 12.02.2020
3054 Clouds 23 1019 88 0 1.5 40 06:20 12.02.2020
3055 Clouds 23 1019 88 10000 2.1 30 05:35 12.02.2020
3056 Clouds 24 1019 83 10000 2.1 50 04:56 12.02.2020
3057 Clouds 24 1019 83 10000 2.1 50 04:38 12.02.2020
3058 Clouds 25 1019 78 10000 2.1 50 03:31 12.02.2020
3059 Clouds 25 1019 78 10000 2.1 70 02:58 12.02.2020
3060 Clouds 25 1019 78 10000 2.1 70 02:28 12.02.2020
3061 Clouds 25 1018 78 10000 2.1 90 01:42 12.02.2020
3062 Clouds 26 1017 78 10000 2.47 31 00:44 12.02.2020
3063 Clouds 26 1017 78 10000 2.47 31 00:25 12.02.2020
3064 Clouds 26 1017 74 10000 3.1 130 23:55 11.02.2020
3065 Clouds 26 1017 74 10000 3.1 130 23:36 11.02.2020
3066 Clouds 26 1017 74 10000 3.1 130 23:18 11.02.2020
3067 Clouds 27 1017 69 10000 5.1 160 22:42 11.02.2020
3068 Clouds 27 1017 69 10000 5.1 160 22:21 11.02.2020
3069 Clouds 27 1017 70 10000 5.1 180 21:57 11.02.2020
3070 Clouds 27 1017 70 10000 5.1 180 21:39 11.02.2020
3071 Clouds 28 1017 70 10000 5.1 180 21:19 11.02.2020
3072 Clouds 28 1018 62 10000 6.2 180 20:59 11.02.2020
3073 Clouds 29 1018 62 10000 6.2 180 20:39 11.02.2020
3074 Clouds 29 1018 62 10000 6.2 180 20:20 11.02.2020
3075 Clouds 28 1019 62 10000 6.2 180 19:58 11.02.2020
3076 Clouds 29 1019 62 10000 6.2 180 19:40 11.02.2020
3077 Clouds 29 1019 62 10000 6.2 180 19:22 11.02.2020
3078 Clouds 29 1020 62 10000 6.2 150 18:46 11.02.2020
3079 Clouds 29 1020 62 10000 6.2 150 18:28 11.02.2020
3080 Clouds 27 1020 66 10000 3.1 120 17:57 11.02.2020
3081 Clouds 27 1020 66 10000 3.1 120 17:39 11.02.2020
3082 Clouds 27 1020 66 10000 3.1 120 17:20 11.02.2020
3083 Clouds 27 1021 70 10000 4.1 40 16:58 11.02.2020
3084 Clouds 27 1021 70 10000 4.1 40 16:58 11.02.2020
3085 Clouds 28 1021 70 10000 4.1 40 16:39 11.02.2020
3086 Clouds 28 1021 70 10000 4.1 40 16:21 11.02.2020
3087 Clouds 27 1021 69 10000 5.1 30 15:58 11.02.2020
3088 Clouds 27 1021 69 10000 5.1 30 15:39 11.02.2020
3089 Clouds 26 1021 69 10000 5.1 30 15:21 11.02.2020
3090 Clouds 25 1020 78 10000 2.6 360 14:42 11.02.2020
3091 Clouds 25 1020 78 10000 2.6 360 14:19 11.02.2020
3092 Clouds 24 1019 94 10000 2.1 350 13:56 11.02.2020
3093 Clouds 23 1019 94 10000 2.1 350 13:38 11.02.2020
3094 Clouds 23 1019 94 10000 2.1 350 13:19 11.02.2020
3095 Clouds 23 1019 100 10000 2.6 20 12:41 11.02.2020
3096 Clouds 23 1019 100 10000 2.6 20 12:22 11.02.2020
3097 Clouds 23 1019 100 10000 2.6 20 12:22 11.02.2020
3098 Clouds 23 1018 100 10000 2.1 20 11:59 11.02.2020
3099 Clouds 23 1018 100 10000 2.1 20 11:40 11.02.2020
3100 Clouds 23 1018 100 10000 2.1 20 11:19 11.02.2020
3101 Clouds 23 1018 100 10000 2.1 20 11:19 11.02.2020
3102 Rain 24 1019 83 0 1.79 6 10:54 11.02.2020
3103 Rain 24 1021 100 0 2.61 11 10:36 11.02.2020
3104 Clouds 24 1018 94 10000 2.6 30 10:18 11.02.2020
3105 Clouds 24 1018 94 10000 2.6 30 09:42 11.02.2020
3106 Clouds 24 1018 94 10000 2.6 30 09:22 11.02.2020
3107 Clouds 24 1018 94 10000 2.6 40 08:55 11.02.2020
3108 Clouds 24 1018 94 10000 2.6 40 08:37 11.02.2020
3109 Clouds 24 1018 94 10000 2.6 40 08:18 11.02.2020
3110 Clouds 24 1019 94 10000 2.1 40 07:41 11.02.2020
3111 Clouds 24 1019 94 10000 2.1 40 07:19 11.02.2020
3112 Clouds 24 1019 94 10000 2.1 40 07:19 11.02.2020
3113 Clouds 24 1019 91 10000 2.6 50 06:40 11.02.2020
3114 Clouds 24 1019 91 10000 2.6 50 06:20 11.02.2020
3115 Clouds 24 1020 78 10000 2.1 30 05:47 11.02.2020
3116 Clouds 24 1020 78 10000 2.1 30 05:47 11.02.2020
3117 Clouds 24 1020 78 10000 2.1 30 05:20 11.02.2020
3118 Clouds 24 1020 88 10000 2.6 40 04:34 11.02.2020
3119 Clouds 25 1019 88 10000 2.1 30 02:40 11.02.2020
3120 Clouds 25 1019 88 10000 2.1 30 02:22 11.02.2020
3121 Clouds 26 1019 83 10000 3.1 90 01:32 11.02.2020
3122 Clouds 26 1017 88 10000 1.88 47 00:28 11.02.2020
3123 Clouds 26 1016 83 10000 5.1 160 23:50 10.02.2020
3124 Clouds 26 1016 83 10000 5.1 160 23:30 10.02.2020
3125 Clouds 27 1017 78 10000 6.2 90 22:58 10.02.2020
3126 Clouds 27 1017 78 10000 6.2 90 22:58 10.02.2020
3127 Clouds 27 1017 78 10000 6.2 90 22:38 10.02.2020
3128 Clouds 28 1017 78 10000 6.2 90 22:19 10.02.2020
3129 Clouds 28 1017 74 10000 5.1 160 21:41 10.02.2020
3130 Clouds 29 1017 74 10000 5.1 160 21:23 10.02.2020
3131 Clouds 28 1018 83 10000 5.1 120 20:56 10.02.2020
3132 Clouds 28 1018 83 10000 5.1 120 20:38 10.02.2020
3133 Clouds 28 1018 83 10000 5.1 120 20:20 10.02.2020
3134 Clouds 29 1019 66 10000 5.1 180 19:58 10.02.2020
3135 Rain 28 1019 66 10000 5.1 180 19:37 10.02.2020
3136 Rain 28 1019 66 10000 5.1 180 19:18 10.02.2020
3137 Rain 28 1020 66 10000 3.1 360 18:58 10.02.2020
3138 Rain 29 1020 66 10000 3.1 360 18:39 10.02.2020
3139 Rain 29 1020 66 10000 3.1 360 18:20 10.02.2020
3140 Clouds 28 1021 66 10000 4.1 360 17:56 10.02.2020
3141 Clouds 29 1021 66 10000 4.1 360 17:37 10.02.2020
3142 Clouds 29 1021 66 10000 4.1 360 17:37 10.02.2020
3143 Clouds 29 1021 66 10000 4.1 360 17:18 10.02.2020
3144 Clouds 28 1020 66 10000 4.1 70 16:58 10.02.2020
3145 Clouds 28 1020 66 10000 4.1 70 16:38 10.02.2020
3146 Clouds 27 1020 66 10000 4.1 70 16:18 10.02.2020
3147 Clouds 27 1020 78 10000 3.1 90 15:42 10.02.2020
3148 Clouds 27 1020 78 10000 3.1 90 15:22 10.02.2020
3149 Clouds 26 1019 78 10000 4.1 30 14:59 10.02.2020
3150 Clouds 25 1019 78 10000 4.1 30 14:41 10.02.2020
3151 Clouds 25 1019 78 10000 4.1 30 14:19 10.02.2020
3152 Clouds 24 1019 88 10000 2.99 355 13:56 10.02.2020
3153 Clouds 24 1019 88 10000 2.99 355 13:37 10.02.2020
3154 Clouds 24 1019 88 10000 2.88 2 13:18 10.02.2020
3155 Clouds 23 1019 100 10000 2.88 2 12:43 10.02.2020
3156 Clouds 23 1019 100 10000 2.88 2 12:43 10.02.2020
3157 Clouds 23 1019 100 10000 2.88 2 12:24 10.02.2020
3158 Clouds 24 1018 100 10000 2.1 360 11:55 10.02.2020
3159 Clouds 24 1018 100 10000 2.1 360 11:36 10.02.2020
3160 Clouds 23 1018 100 10000 2.1 360 11:18 10.02.2020
3161 Clouds 23 1018 100 10000 2.95 350 10:44 10.02.2020
3162 Clouds 23 1018 100 10000 2.95 350 10:26 10.02.2020
3163 Clouds 22 1018 100 10000 2.95 350 09:45 10.02.2020
3164 Clouds 22 1018 100 10000 2.95 350 09:24 10.02.2020
3165 Clouds 22 1018 100 10000 2.1 360 08:43 10.02.2020
3166 Clouds 23 1018 100 10000 2.1 360 08:22 10.02.2020
3167 Clouds 24 1019 88 10000 3 356 07:58 10.02.2020
3168 Clouds 24 1019 88 10000 3 356 07:36 10.02.2020
3169 Clouds 24 1019 88 10000 3 356 06:58 10.02.2020
3170 Clouds 24 1020 88 10000 3 356 05:41 10.02.2020
3171 Clouds 24 1020 88 10000 2.89 353 04:26 10.02.2020
3172 Clouds 24 1020 78 10000 2.1 50 03:31 10.02.2020
3173 Clouds 25 1019 78 10000 2.1 60 02:53 10.02.2020
3174 Clouds 26 1019 69 10000 2.1 40 01:36 10.02.2020
3175 Clouds 26 1018 78 10000 4.3 19 00:46 10.02.2020
3176 Clouds 26 1018 78 10000 4.3 19 00:27 10.02.2020
3177 Clouds 27 1018 69 10000 3.1 160 23:43 09.02.2020
3178 Clouds 27 1018 69 10000 3.1 160 23:24 09.02.2020
3179 Clouds 28 1017 70 10000 3.1 70 22:57 09.02.2020
3180 Clouds 28 1017 70 10000 3.1 70 22:37 09.02.2020
3181 Clouds 29 1017 70 10000 3.1 70 22:19 09.02.2020
3182 Clouds 29 1017 62 10000 5.1 360 21:41 09.02.2020
3183 Clouds 29 1017 62 10000 5.1 360 21:22 09.02.2020
3184 Clouds 29 1018 62 10000 5.1 360 20:46 09.02.2020
3185 Clouds 31 1018 62 10000 5.1 360 20:23 09.02.2020
3186 Clouds 31 1019 58 10000 5.1 40 19:57 09.02.2020
3187 Clouds 31 1019 58 10000 5.1 40 19:57 09.02.2020
3188 Clouds 31 1019 58 10000 5.1 40 19:38 09.02.2020
3189 Clouds 31 1019 58 10000 5.1 40 19:20 09.02.2020
3190 Clouds 30 1020 62 10000 4.1 70 18:42 09.02.2020
3191 Clouds 30 1020 62 10000 4.1 70 18:23 09.02.2020
3192 Clouds 29 1020 62 10000 4.1 60 17:59 09.02.2020
3193 Clouds 29 1020 62 10000 4.1 60 17:39 09.02.2020
3194 Clouds 28 1020 62 10000 4.1 60 17:21 09.02.2020
3195 Clouds 28 1020 62 10000 4.1 60 17:21 09.02.2020
3196 Clouds 28 1021 70 10000 4.1 60 16:41 09.02.2020
3197 Clouds 28 1021 70 10000 4.1 60 16:22 09.02.2020
3198 Clouds 27 1020 78 10000 5.1 360 15:59 09.02.2020
3199 Clouds 27 1020 78 10000 5.1 360 15:59 09.02.2020
3200 Clouds 27 1020 78 10000 5.1 360 15:41 09.02.2020
3201 -273 0 0 0 0 0 15:21 09.02.2020
3202 Clouds 25 1019 94 10000 4.01 21 14:57 09.02.2020
3203 Clouds 25 1019 94 10000 4.01 21 14:38 09.02.2020
3204 Clouds 24 1019 94 10000 3.14 353 14:20 09.02.2020
3205 Clouds 23 1019 94 10000 3.14 353 13:43 09.02.2020
3206 Clouds 23 1019 94 10000 3.14 353 13:25 09.02.2020
3207 Clouds 22 1019 94 10000 3.14 356 12:56 09.02.2020
3208 Clouds 22 1019 94 10000 3.14 356 12:37 09.02.2020
3209 Clouds 23 1019 94 10000 3.14 356 12:18 09.02.2020
3210 Clouds 23 1019 94 10000 3.14 356 12:18 09.02.2020
3211 Clouds 23 1019 94 10000 3.14 356 11:41 09.02.2020
3212 Clouds 23 1019 94 10000 2.81 0 11:20 09.02.2020
3213 Clouds 23 1018 94 10000 2.1 30 10:57 09.02.2020
3214 Clouds 23 1018 94 10000 2.1 30 10:38 09.02.2020
3215 Clouds 23 1018 94 10000 2.1 30 10:38 09.02.2020
3216 Clouds 23 1018 94 10000 2.1 30 10:19 09.02.2020
3217 Clouds 24 1018 88 10000 2.1 60 09:41 09.02.2020
3218 Clouds 23 1018 88 10000 2.1 60 09:21 09.02.2020
3219 Clouds 23 1019 88 10000 2.1 30 08:44 09.02.2020
3220 Clouds 23 1019 88 10000 2.1 30 08:26 09.02.2020
3221 Clouds 23 1019 94 10000 2.1 40 07:57 09.02.2020
3222 Clouds 23 1019 94 10000 2.1 40 07:34 09.02.2020
3223 Clouds 23 1020 94 10000 2.1 30 06:45 09.02.2020
3224 Clouds 24 1020 88 10000 2.1 30 05:57 09.02.2020
3225 Clouds 24 1020 88 10000 2.1 30 05:35 09.02.2020
3226 Clouds 24 1020 88 10000 2.1 50 04:54 09.02.2020
3227 Clouds 25 1020 83 10000 2.1 50 03:51 09.02.2020
3228 Clouds 25 1019 78 10000 2.1 40 02:44 09.02.2020
3229 Clouds 26 1018 78 10000 3.1 80 01:55 09.02.2020
3230 Clouds 26 1018 78 10000 3.1 80 01:34 09.02.2020
3231 Clouds 26 1018 78 10000 3.59 45 00:41 09.02.2020
3232 Clouds 26 1018 78 10000 3.59 45 00:18 09.02.2020
3233 Clouds 27 1017 70 10000 5.1 180 23:42 08.02.2020
3234 Clouds 27 1017 70 10000 5.1 180 23:19 08.02.2020
3235 Clouds 28 1017 66 10000 5.1 170 22:41 08.02.2020
3236 Clouds 28 1017 66 10000 5.1 170 22:21 08.02.2020
3237 Clouds 29 1017 59 10000 5.7 150 21:58 08.02.2020
3238 Clouds 29 1017 59 10000 5.7 150 21:39 08.02.2020
3239 Clouds 29 1017 59 10000 5.7 150 21:19 08.02.2020
3240 Clouds 29 1018 55 10000 5.1 120 20:55 08.02.2020
3241 Clouds 29 1018 55 10000 5.1 120 20:37 08.02.2020
3242 Clouds 31 1018 55 10000 5.1 120 20:18 08.02.2020
3243 Clouds 30 1018 55 10000 4.1 120 19:40 08.02.2020
3244 Clouds 30 1018 55 10000 4.1 120 19:20 08.02.2020
3245 Clouds 30 1020 62 10000 5.1 90 18:58 08.02.2020
3246 Clouds 30 1020 62 10000 5.1 90 18:39 08.02.2020
3247 Clouds 30 1020 62 10000 5.1 90 18:21 08.02.2020
3248 Clouds 30 1021 62 10000 5.1 90 17:42 08.02.2020
3249 Clouds 30 1021 62 10000 5.1 90 17:42 08.02.2020
3250 Clouds 28 1021 62 10000 5.1 90 17:21 08.02.2020
3251 Clouds 28 1021 70 10000 3.1 60 16:56 08.02.2020
3252 Clouds 28 1021 70 10000 3.1 60 16:37 08.02.2020
3253 Clouds 28 1021 70 10000 3.1 60 16:18 08.02.2020
3254 Clouds 27 1021 78 10000 5.1 10 15:40 08.02.2020
3255 Clouds 26 1021 78 10000 5.1 10 15:19 08.02.2020
3256 Clouds 25 1021 94 10000 3.19 44 14:55 08.02.2020
3257 Clouds 25 1021 94 10000 3.19 44 14:36 08.02.2020
3258 Clouds 25 1021 94 10000 2.22 345 14:18 08.02.2020
3259 Clouds 23 1020 100 10000 2.22 345 13:41 08.02.2020
3260 Clouds 23 1020 100 10000 2.24 347 13:23 08.02.2020
3261 Clouds 23 1019 94 10000 2.1 30 12:49 08.02.2020
3262 Clouds 23 1019 94 10000 2.1 30 12:49 08.02.2020
3263 Clouds 24 1019 94 10000 2.1 30 12:24 08.02.2020
3264 Clouds 24 1018 100 10000 2.1 20 11:59 08.02.2020
3265 Clouds 24 1018 100 10000 2.1 20 11:40 08.02.2020
3266 Clouds 23 1018 100 10000 2.1 20 11:20 08.02.2020
3267 Clouds 23 1018 94 10000 2.1 60 10:43 08.02.2020
3268 Clouds 23 1018 94 10000 2.1 60 10:43 08.02.2020
3269 Clouds 23 1018 94 10000 2.1 60 10:23 08.02.2020
3270 Clouds 23 1018 94 10000 2.1 50 09:53 08.02.2020
3271 Clouds 23 1018 94 10000 2.1 50 09:29 08.02.2020
3272 Clouds 23 1018 100 10000 2.1 20 08:57 08.02.2020
3273 Clouds 23 1018 100 10000 2.1 20 08:38 08.02.2020
3274 Clouds 23 1018 100 10000 2.1 20 08:20 08.02.2020
3275 Clouds 24 1019 94 10000 2.1 30 07:50 08.02.2020
3276 Clouds 23 1019 94 10000 2.1 30 07:30 08.02.2020
3277 Clouds 24 1019 94 10000 2.1 50 06:33 08.02.2020
3278 Clouds 24 1019 94 10000 2.1 50 06:33 08.02.2020
3279 Clouds 24 1019 100 10000 2.6 60 05:49 08.02.2020
3280 Clouds 24 1019 100 10000 2.6 60 05:30 08.02.2020
3281 Clouds 25 1019 94 10000 2.1 50 04:50 08.02.2020
3282 Clouds 25 1019 88 10000 2.1 40 03:55 08.02.2020
3283 Clouds 26 1018 83 10000 2.1 100 02:57 08.02.2020
3284 Clouds 25 1018 83 10000 2.1 100 02:20 08.02.2020
3285 Clouds 26 1018 83 10000 2.1 120 01:26 08.02.2020
3286 Clouds 26 1017 78 10000 3.1 180 00:45 08.02.2020
3287 Clouds 26 1017 78 10000 3.1 180 00:22 08.02.2020
3288 Clouds 27 1017 66 10000 4.1 180 23:55 07.02.2020
3289 Clouds 27 1017 66 10000 4.1 180 23:37 07.02.2020
3290 Clouds 27 1017 66 10000 4.1 180 23:19 07.02.2020
3291 Clouds 28 1017 62 10000 4.1 180 22:40 07.02.2020
3292 Clouds 28 1017 62 10000 4.1 180 22:19 07.02.2020
3293 Clouds 28 1017 58 10000 5.1 180 21:44 07.02.2020
3294 Clouds 29 1017 58 10000 5.1 180 21:23 07.02.2020
3295 Clouds 28 1017 62 10000 5.1 180 20:58 07.02.2020
3296 Clouds 29 1017 62 10000 5.1 180 20:38 07.02.2020
3297 Clouds 29 1017 62 10000 5.1 180 20:18 07.02.2020
3298 Clouds 29 1018 62 10000 5.1 180 19:42 07.02.2020
3299 Clouds 29 1018 62 10000 5.1 180 19:22 07.02.2020
3300 Clouds 28 1019 74 10000 5.1 180 18:58 07.02.2020
3301 Clouds 28 1019 74 10000 5.1 180 18:58 07.02.2020
3302 Clouds 28 1019 74 10000 5.1 180 18:40 07.02.2020
3303 Clouds 28 1019 74 10000 5.1 180 18:20 07.02.2020
3304 Clouds 28 1020 78 10000 2.1 180 17:43 07.02.2020
3305 Clouds 27 1020 78 10000 2.1 180 17:22 07.02.2020
3306 Rain 26 1020 94 8000 2.96 120 16:57 07.02.2020
3307 Rain 26 1020 94 8000 2.96 120 16:38 07.02.2020
3308 Rain 26 1020 94 8000 2.96 120 16:19 07.02.2020
3309 Rain 24 1019 100 8000 2.96 120 15:47 07.02.2020
3310 Rain 23 1019 100 8000 2.96 120 15:22 07.02.2020
3311 Rain 23 1018 100 7000 2.1 130 14:44 07.02.2020
3312 Rain 23 1018 100 7000 2.1 130 14:26 07.02.2020
3313 Clouds 22 1018 94 10000 1.38 23 13:58 07.02.2020
3314 Clouds 22 1018 94 10000 1.38 23 13:39 07.02.2020
3315 Clouds 22 1018 94 10000 1.38 23 13:39 07.02.2020
3316 Clouds 22 1018 94 10000 1.43 37 13:21 07.02.2020
3317 Clouds 23 1017 100 10000 2.1 70 12:55 07.02.2020
3318 Clouds 23 1017 100 10000 2.1 70 12:55 07.02.2020
3319 Clouds 23 1017 100 10000 2.1 70 12:36 07.02.2020
3320 Clouds 23 1017 100 10000 2.1 70 12:18 07.02.2020
3321 Clouds 23 1016 100 10000 3.1 50 11:41 07.02.2020
3322 Clouds 23 1016 100 10000 3.1 50 11:20 07.02.2020
3323 Clouds 23 1016 94 10000 2.6 60 10:41 07.02.2020
3324 Clouds 23 1016 94 10000 2.6 60 10:22 07.02.2020
3325 Clouds 23 1016 94 10000 2.6 50 09:56 07.02.2020
3326 Clouds 23 1016 94 10000 2.6 50 09:37 07.02.2020
3327 Clouds 23 1016 94 10000 2.6 50 09:19 07.02.2020
3328 Clouds 23 1016 88 10000 2.1 50 08:42 07.02.2020
3329 Clouds 24 1016 88 10000 2.1 50 08:20 07.02.2020
3330 Rain 24 1017 94 10000 2.1 70 07:45 07.02.2020
3331 Rain 24 1017 94 10000 2.1 70 07:26 07.02.2020
3332 Clouds 24 1017 94 10000 2.1 70 06:45 07.02.2020
3333 Clouds 24 1017 94 10000 2.1 70 06:25 07.02.2020
3334 Clouds 24 1018 94 10000 2.1 130 05:44 07.02.2020
3335 Clouds 25 1018 88 10000 2.1 130 04:33 07.02.2020
3336 Clouds 25 1017 83 10000 3.1 140 02:33 07.02.2020
3337 Clouds 26 1016 78 10000 2.1 130 01:37 07.02.2020
3338 Clouds 26 1016 83 10000 1.8 134 00:45 07.02.2020
3339 Clouds 27 1016 83 10000 1.8 134 00:18 07.02.2020
3340 Clouds 27 1015 74 10000 4.1 160 23:37 06.02.2020
3341 Clouds 27 1015 74 10000 4.1 160 23:18 06.02.2020
3342 Clouds 28 1014 70 10000 6.2 180 22:44 06.02.2020
3343 Clouds 28 1014 70 10000 6.2 180 22:24 06.02.2020
3344 Clouds 28 1015 66 10000 6.2 180 21:38 06.02.2020
3345 Clouds 28 1015 66 10000 6.2 180 21:19 06.02.2020
3346 Clouds 28 1016 62 10000 7.2 180 20:58 06.02.2020
3347 Clouds 28 1016 62 10000 7.2 180 20:39 06.02.2020
3348 Clouds 29 1016 62 10000 7.2 180 20:19 06.02.2020
3349 Clouds 28 1017 62 10000 7.2 180 19:58 06.02.2020
3350 Clouds 29 1017 62 10000 7.2 180 19:40 06.02.2020
3351 Clouds 29 1017 62 10000 7.2 180 19:21 06.02.2020
3352 Clouds 28 1017 66 10000 5.1 160 18:58 06.02.2020
3353 Clouds 28 1017 66 10000 5.1 160 18:39 06.02.2020
3354 Clouds 28 1017 66 10000 5.1 160 18:20 06.02.2020
3355 Clouds 28 1018 66 10000 5.1 130 17:42 06.02.2020
3356 Clouds 28 1018 66 10000 5.1 130 17:21 06.02.2020
3357 Clouds 28 1018 74 10000 4.1 130 16:57 06.02.2020
3358 Clouds 28 1018 74 10000 4.1 130 16:39 06.02.2020
3359 Clouds 28 1018 74 10000 4.1 130 16:20 06.02.2020
3360 Clouds 27 1018 83 10000 2.6 90 15:42 06.02.2020
3361 Clouds 27 1018 83 10000 2.6 90 15:21 06.02.2020
3362 Clouds 25 1017 94 10000 2.53 78 14:48 06.02.2020
3363 Clouds 25 1017 94 10000 2.53 78 14:26 06.02.2020
3364 Clouds 24 1016 94 10000 1.78 341 13:55 06.02.2020
3365 Clouds 23 1016 94 10000 1.78 341 13:36 06.02.2020
3366 Clouds 23 1016 94 10000 2.05 335 13:18 06.02.2020
3367 Clouds 23 1016 100 10000 2.1 60 12:43 06.02.2020
3368 Clouds 23 1016 100 10000 2.1 60 12:18 06.02.2020
3369 Clouds 23 1015 100 10000 2.05 335 11:56 06.02.2020
3370 Clouds 23 1015 100 10000 2.05 335 11:37 06.02.2020
3371 Clouds 21 1015 100 10000 2.63 334 11:18 06.02.2020
3372 Clouds 21 1015 100 10000 2.1 30 10:54 06.02.2020
3373 Clouds 21 1015 100 10000 2.1 30 10:36 06.02.2020
3374 Clouds 23 1015 100 10000 2.1 30 10:18 06.02.2020
3375 Clouds 23 1015 100 10000 2.1 40 09:42 06.02.2020
3376 Clouds 23 1015 100 10000 2.1 40 09:20 06.02.2020
3377 Clouds 23 1015 94 10000 2.1 40 08:46 06.02.2020
3378 Clouds 23 1015 94 10000 2.1 40 08:24 06.02.2020
3379 Clouds 23 1016 94 10000 2.1 40 07:57 06.02.2020
3380 Clouds 23 1016 94 10000 2.1 40 07:33 06.02.2020
3381 Clear 23 1017 86 0 0.45 39 06:53 06.02.2020
3382 Clouds 24 1017 94 10000 2.1 40 06:19 06.02.2020
3383 Clouds 24 1017 94 10000 2.1 40 05:33 06.02.2020
3384 Clouds 24 1018 94 10000 2.1 40 04:18 06.02.2020
3385 Clouds 24 1017 88 10000 2.1 60 03:18 06.02.2020
3386 Clouds 26 1016 83 10000 0.74 75 01:57 06.02.2020
3387 Clouds 26 1016 83 10000 0.74 75 01:24 06.02.2020
3388 Clouds 26 1017 83 10000 1.35 60 00:38 06.02.2020
3389 Clouds 26 1017 83 10000 1.35 60 00:19 06.02.2020
3390 Clouds 27 1017 78 10000 2.1 160 23:40 05.02.2020
3391 Clouds 27 1017 78 10000 2.1 160 23:22 05.02.2020
3392 Clouds 28 1016 70 10000 5.1 160 22:41 05.02.2020
3393 Clouds 28 1016 70 10000 5.1 160 22:23 05.02.2020
3394 Clouds 28 1017 66 10000 5.1 160 21:58 05.02.2020
3395 Clouds 29 1017 66 10000 5.1 160 21:40 05.02.2020
3396 Clouds 29 1017 66 10000 5.1 160 21:22 05.02.2020
3397 Clouds 29 1018 62 10000 4.1 90 20:39 05.02.2020
3398 Clouds 29 1018 62 10000 4.1 90 20:21 05.02.2020
3399 Clouds 29 1018 62 10000 2.56 108 19:59 05.02.2020
3400 Clouds 29 1018 62 10000 2.56 108 19:41 05.02.2020
3401 Clouds 30 1018 62 10000 2.56 108 19:19 05.02.2020
3402 Clouds 29 1019 66 10000 4.1 30 18:57 05.02.2020
3403 Clouds 30 1019 66 10000 4.1 30 18:39 05.02.2020
3404 Clouds 30 1019 66 10000 4.1 30 18:19 05.02.2020
3405 Clouds 30 1019 66 10000 4.1 30 18:19 05.02.2020
3406 Clouds 29 1020 74 10000 4.1 90 17:40 05.02.2020
3407 Clouds 28 1020 74 10000 4.1 90 17:20 05.02.2020
3408 Clouds 28 1020 74 10000 5.1 360 16:58 05.02.2020
3409 Clouds 28 1020 74 10000 5.1 360 16:40 05.02.2020
3410 Clouds 28 1020 74 10000 5.1 360 16:40 05.02.2020
3411 Clouds 28 1020 74 10000 5.1 360 16:22 05.02.2020
3412 Clouds 27 1019 78 10000 5.1 360 15:47 05.02.2020
3413 Clouds 27 1019 78 10000 5.1 360 15:20 05.02.2020
3414 Clouds 26 1018 83 10000 2.28 40 14:59 05.02.2020
3415 Clouds 25 1018 83 10000 2.28 40 14:41 05.02.2020
3416 Clouds 25 1018 83 10000 2.28 40 14:41 05.02.2020
3417 Clouds 25 1018 83 10000 2.86 346 14:21 05.02.2020
3418 Clouds 24 1018 94 10000 2.86 346 13:43 05.02.2020
3419 Clouds 24 1018 94 10000 2.86 346 13:43 05.02.2020
3420 Clouds 23 1018 94 10000 2.72 347 13:23 05.02.2020
3421 Clouds 23 1018 94 10000 2.1 40 12:59 05.02.2020
3422 Clouds 23 1018 94 10000 2.1 40 12:37 05.02.2020
3423 Clouds 23 1018 94 10000 2.1 40 12:19 05.02.2020
3424 Clouds 23 1017 100 10000 2.1 20 11:41 05.02.2020
3425 Clouds 23 1017 100 10000 2.1 20 11:23 05.02.2020
3426 Clouds 24 1017 100 10000 2.6 20 10:57 05.02.2020
3427 Clouds 23 1017 100 10000 2.6 20 10:39 05.02.2020
3428 Clouds 23 1017 100 10000 2.6 20 10:18 05.02.2020
3429 Clouds 23 1017 100 10000 1.5 10 09:40 05.02.2020
3430 Clouds 23 1017 100 10000 1.5 10 09:22 05.02.2020
3431 Clouds 23 1017 100 10000 3.07 346 08:55 05.02.2020
3432 Clouds 23 1017 100 10000 3.07 346 08:37 05.02.2020
3433 Clouds 23 1017 100 10000 2.99 347 08:18 05.02.2020
3434 Clouds 23 1018 100 10000 2.92 343 07:42 05.02.2020
3435 Clouds 23 1018 100 10000 2.92 343 07:18 05.02.2020
3436 Rain 24 1018 85 0 1.34 5 06:39 05.02.2020
3437 Rain 24 1019 85 0 1.79 8 06:20 05.02.2020
3438 Clouds 24 1019 94 10000 1.5 0 05:20 05.02.2020
3439 Clouds 23 1019 94 10000 2.1 50 04:58 05.02.2020
3440 Clouds 24 1019 94 10000 2.1 50 04:22 05.02.2020
3441 Clouds 24 1019 94 10000 2.1 60 02:42 05.02.2020
3442 Clouds 24 1019 94 10000 2.1 60 02:20 05.02.2020
3443 Clouds 25 1018 94 10000 3.1 30 01:25 05.02.2020
3444 Rain 25 1018 83 8000 3.56 33 00:21 05.02.2020
3445 Rain 26 1018 74 8000 2.6 180 23:40 04.02.2020
3446 Rain 26 1018 74 8000 2.6 180 23:19 04.02.2020
3447 Rain 26 1018 74 8000 2.6 180 23:19 04.02.2020
3448 Rain 27 1017 74 8000 2.6 150 22:57 04.02.2020
3449 Rain 27 1017 74 8000 2.6 150 22:39 04.02.2020
3450 Rain 28 1017 74 8000 2.6 150 22:20 04.02.2020
3451 Clouds 29 1017 58 10000 4.1 90 21:54 04.02.2020
3452 Clouds 29 1017 58 10000 4.1 90 21:36 04.02.2020
3453 Clouds 29 1017 58 10000 4.1 90 21:18 04.02.2020
3454 Clouds 30 1017 52 10000 2.6 30 20:44 04.02.2020
3455 Clouds 30 1017 52 10000 2.6 30 20:21 04.02.2020
3456 Clouds 30 1018 55 10000 5.1 60 19:59 04.02.2020
3457 Clouds 30 1018 55 10000 5.1 60 19:40 04.02.2020
3458 Clouds 30 1018 55 10000 5.1 60 19:22 04.02.2020
3459 Rain 30 1019 58 10000 5.1 360 18:56 04.02.2020
3460 Rain 31 1019 58 10000 5.1 360 18:38 04.02.2020
3461 Rain 31 1019 58 10000 5.1 360 18:38 04.02.2020
3462 Rain 30 1019 58 10000 5.1 360 18:19 04.02.2020
3463 Clouds 28 1020 70 10000 5.1 360 17:43 04.02.2020
3464 Clouds 28 1020 70 10000 5.1 360 17:21 04.02.2020
3465 Clouds 28 1020 66 10000 3.9 35 16:57 04.02.2020
3466 Clouds 28 1020 66 10000 3.9 35 16:38 04.02.2020
3467 Clouds 28 1020 66 10000 3.9 35 16:19 04.02.2020
3468 Clouds 27 1020 69 10000 5.1 360 15:56 04.02.2020
3469 Clouds 27 1020 69 10000 5.1 360 15:56 04.02.2020
3470 Clouds 27 1020 69 10000 5.1 360 15:38 04.02.2020
3471 Clouds 27 1020 69 10000 5.1 360 15:19 04.02.2020
3472 Clouds 26 1020 78 10000 3.9 35 14:42 04.02.2020
3473 Clouds 25 1020 78 10000 3.9 35 14:23 04.02.2020
3474 Clouds 25 1019 88 10000 3.36 355 13:57 04.02.2020
3475 Clouds 24 1019 88 10000 3.36 355 13:39 04.02.2020
3476 Clouds 23 1019 88 10000 3.42 353 13:20 04.02.2020
3477 Clouds 23 1018 100 10000 2.1 10 12:44 04.02.2020
3478 Clouds 23 1018 100 10000 2.1 10 12:26 04.02.2020
3479 Clouds 24 1017 100 10000 3.42 353 11:58 04.02.2020
3480 Clouds 24 1017 100 10000 3.42 353 11:39 04.02.2020
3481 Clouds 22 1017 100 10000 3.33 355 11:20 04.02.2020
3482 Clouds 24 1017 100 10000 3.33 355 10:50 04.02.2020
3483 Clouds 24 1017 100 10000 3.33 355 10:30 04.02.2020
3484 Clouds 24 1017 100 10000 3.33 355 10:30 04.02.2020
3485 Clouds 24 1017 94 10000 2.1 360 09:58 04.02.2020
3486 Clouds 24 1017 94 10000 2.1 360 09:40 04.02.2020
3487 Clouds 24 1017 94 10000 2.1 360 09:21 04.02.2020
3488 Clouds 24 1017 94 10000 2.1 30 08:50 04.02.2020
3489 Clouds 24 1017 94 10000 2.1 30 08:28 04.02.2020
3490 Clouds 24 1018 94 10000 2.1 50 07:57 04.02.2020
3491 Clouds 24 1018 94 10000 2.1 50 07:37 04.02.2020
3492 Clouds 24 1018 94 10000 2.1 50 07:19 04.02.2020
3493 Clouds 24 1019 100 10000 2.1 10 06:42 04.02.2020
3494 Clouds 24 1019 94 10000 2.6 40 05:37 04.02.2020
3495 Clouds 24 1019 94 10000 2.1 10 04:51 04.02.2020
3496 Clouds 24 1019 94 10000 2.1 20 03:49 04.02.2020
3497 Clouds 24 1019 94 10000 2.1 20 03:30 04.02.2020
3498 Rain 24 1019 94 8000 2.1 40 02:49 04.02.2020
3499 Rain 24 1019 94 8000 2.1 40 02:28 04.02.2020
3500 Clouds 25 1018 94 10000 4.2 2 01:47 04.02.2020
3501 Clouds 25 1018 94 10000 4.2 2 01:19 04.02.2020
3502 Clouds 25 1017 88 10000 3.1 360 00:23 04.02.2020
3503 Clouds 26 1017 83 10000 5.1 350 23:55 03.02.2020
3504 Clouds 26 1017 83 10000 5.1 350 23:37 03.02.2020
3505 Clouds 26 1017 83 10000 5.1 350 23:18 03.02.2020
3506 Clouds 26 1017 83 10000 5.1 350 22:39 03.02.2020
3507 Clouds 26 1017 83 10000 5.1 350 22:19 03.02.2020
3508 Clouds 26 1017 78 10000 5.1 360 21:42 03.02.2020
3509 Clouds 26 1017 78 10000 5.1 360 21:20 03.02.2020
3510 Rain 27 1017 83 8000 4.78 3 20:57 03.02.2020
3511 Rain 27 1017 83 8000 4.78 3 20:39 03.02.2020
3512 Rain 27 1017 83 8000 5.01 17 20:18 03.02.2020
3513 Clouds 27 1017 74 10000 4.1 10 19:42 03.02.2020
3514 Clouds 27 1017 74 10000 4.1 10 19:23 03.02.2020
3515 Rain 26 1018 88 8000 2.6 150 18:59 03.02.2020
3516 Rain 26 1018 88 8000 2.6 150 18:41 03.02.2020
3517 Rain 27 1018 88 8000 2.6 150 18:22 03.02.2020
3518 Rain 27 1019 78 8000 2.1 190 17:57 03.02.2020
3519 Clouds 27 1019 78 10000 4.1 360 17:39 03.02.2020
3520 Clouds 27 1019 78 10000 4.1 360 17:19 03.02.2020
3521 Clouds 27 1019 83 10000 2.6 330 16:40 03.02.2020
3522 Clouds 27 1019 83 10000 2.6 330 16:22 03.02.2020
3523 Clouds 27 1018 83 10000 3.9 9 15:57 03.02.2020
3524 Clouds 27 1018 83 10000 3.9 9 15:39 03.02.2020
3525 Clouds 26 1018 83 10000 3.9 9 15:20 03.02.2020
3526 Clouds 25 1018 88 10000 3.9 9 14:57 03.02.2020
3527 Clouds 25 1018 88 10000 3.9 9 14:57 03.02.2020
3528 Clouds 25 1018 88 10000 3.9 9 14:38 03.02.2020
3529 Clouds 25 1018 88 10000 3.9 9 14:38 03.02.2020
3530 Clouds 25 1018 88 10000 3.9 9 14:38 03.02.2020
3531 Clouds 25 1018 88 10000 2.75 346 14:19 03.02.2020
3532 Clouds 24 1017 94 10000 2.75 346 13:42 03.02.2020
3533 Clouds 23 1017 94 10000 2.75 346 13:21 03.02.2020
3534 Clouds 23 1017 94 10000 2.1 40 12:58 03.02.2020
3535 Clouds 22 1017 94 10000 2.1 40 12:39 03.02.2020
3536 Clouds 21 1017 94 10000 2.1 40 12:21 03.02.2020
3537 Clouds 21 1016 100 10000 2.1 40 11:55 03.02.2020
3538 Clouds 21 1016 100 10000 2.1 40 11:36 03.02.2020
3539 Clouds 21 1016 100 10000 2.1 40 11:36 03.02.2020
3540 Clouds 21 1016 100 10000 2.1 40 11:18 03.02.2020
3541 Clouds 22 1016 94 10000 2.1 30 10:40 03.02.2020
3542 Clouds 22 1016 94 10000 2.1 30 10:21 03.02.2020
3543 Clouds 23 1015 94 10000 2.18 343 09:44 03.02.2020
3544 Clouds 23 1015 94 10000 2.18 343 09:21 03.02.2020
3545 Clouds 24 1015 94 10000 2.1 10 08:42 03.02.2020
3546 Clouds 24 1015 94 10000 2.1 10 08:23 03.02.2020
3547 Clouds 25 1016 94 10000 2.03 20 07:59 03.02.2020
3548 Clouds 25 1016 94 10000 2.03 20 07:40 03.02.2020
3549 Clouds 24 1016 94 10000 2.03 20 07:21 03.02.2020
3550 Clouds 25 1016 94 10000 2.1 60 06:49 03.02.2020
3551 Clouds 24 1016 94 10000 2.1 60 06:27 03.02.2020
3552 Clouds 24 1017 94 10000 2.1 70 05:36 03.02.2020
3553 Clouds 26 1017 88 10000 2.1 60 04:59 03.02.2020
3554 Clouds 26 1016 88 10000 1.45 20 02:58 03.02.2020
3555 Clouds 26 1016 88 10000 1.45 20 02:34 03.02.2020
3556 Clouds 26 1016 78 10000 2.1 50 01:30 03.02.2020
3557 Clouds 27 1017 88 10000 0.52 54 00:46 03.02.2020
3558 Clouds 27 1017 88 10000 0.52 54 00:22 03.02.2020
3559 Clouds 27 1017 78 10000 4.1 90 23:38 02.02.2020
3560 Clouds 27 1017 78 10000 4.1 90 23:20 02.02.2020
3561 Clouds 28 1017 70 10000 5.1 120 22:57 02.02.2020
3562 Clear 28 1015 77 0 0.89 176 22:37 02.02.2020
3563 Clear 28 1015 77 0 0.89 176 22:37 02.02.2020
3564 Clouds 29 1016 66 10000 5.1 90 22:19 02.02.2020
3565 Clouds 29 1016 66 10000 5.1 90 21:42 02.02.2020
3566 Clouds 30 1016 66 10000 5.1 90 21:24 02.02.2020
3567 Clear 29 1017 88 0 3.09 174 20:58 02.02.2020
3568 Clear 29 1017 88 0 3.09 174 20:39 02.02.2020
3569 Clouds 30 1016 66 10000 4.1 90 20:21 02.02.2020
3570 Clouds 30 1016 66 10000 4.1 90 19:59 02.02.2020
3571 Clouds 30 1016 66 10000 4.1 90 19:41 02.02.2020
3572 Clouds 30 1016 66 10000 4.1 90 19:23 02.02.2020
3573 Clouds 30 1017 66 10000 5.1 120 18:58 02.02.2020
3574 Clouds 30 1017 66 10000 5.1 120 18:38 02.02.2020
3575 Clouds 30 1017 66 10000 5.1 120 18:20 02.02.2020
3576 Clouds 30 1018 70 10000 3.1 180 17:58 02.02.2020
3577 Clouds 29 1018 70 10000 3.1 180 17:38 02.02.2020
3578 Clouds 29 1018 70 10000 3.1 180 17:38 02.02.2020
3579 Clouds 29 1018 70 10000 3.1 180 17:38 02.02.2020
3580 Clouds 29 1018 70 10000 3.1 180 17:18 02.02.2020
3581 Clouds 28 1017 78 10000 3.1 120 16:58 02.02.2020
3582 Clouds 28 1017 78 10000 3.1 120 16:39 02.02.2020
3583 Clouds 28 1017 78 10000 3.1 120 16:19 02.02.2020
3584 Clouds 27 1017 88 10000 1.76 162 15:57 02.02.2020
3585 Clouds 26 1017 88 10000 1.76 162 15:38 02.02.2020
3586 Clouds 26 1017 88 10000 1.76 162 15:19 02.02.2020
3587 Clouds 26 1017 88 10000 1.76 162 15:19 02.02.2020
3588 Clouds 26 1017 88 10000 1.76 162 15:19 02.02.2020
3589 Clouds 24 1017 94 10000 1.76 162 14:44 02.02.2020
3590 Clouds 24 1017 94 10000 0.47 338 14:20 02.02.2020
3591 Clouds 23 1016 100 10000 0.47 338 13:59 02.02.2020
3592 Clouds 23 1016 100 10000 0.47 338 13:41 02.02.2020
3593 Clouds 22 1016 100 10000 0.75 293 13:22 02.02.2020
3594 Mist 23 1016 100 3000 0.73 306 12:57 02.02.2020
3595 Mist 23 1016 100 3000 0.75 293 12:39 02.02.2020
3596 Clouds 22 1016 100 10000 2.1 30 12:21 02.02.2020
3597 Clouds 23 1015 94 10000 2.1 40 11:43 02.02.2020
3598 Clouds 23 1015 94 10000 2.1 40 11:43 02.02.2020
3599 Clouds 23 1015 94 10000 2.1 40 11:43 02.02.2020
3600 Clouds 21 1015 94 10000 2.1 40 11:20 02.02.2020
3601 Clouds 21 1015 100 10000 2.1 40 10:58 02.02.2020
3602 Clouds 21 1015 100 10000 2.1 40 10:58 02.02.2020
3603 Clouds 21 1015 100 10000 2.1 40 10:40 02.02.2020
3604 Clouds 23 1015 100 10000 2.1 40 10:22 02.02.2020
3605 Clouds 24 1015 94 10000 2.1 30 09:59 02.02.2020
3606 Clouds 24 1015 94 10000 2.1 30 09:40 02.02.2020
3607 Clouds 24 1015 94 10000 2.1 30 09:21 02.02.2020
3608 Clouds 24 1015 94 10000 2.1 60 08:49 02.02.2020
3609 Clouds 24 1015 94 10000 2.1 60 08:30 02.02.2020
3610 Clouds 24 1016 94 10000 2.1 60 07:49 02.02.2020
3611 Clouds 24 1016 94 10000 2.1 60 07:30 02.02.2020
3612 Clouds 24 1016 94 10000 2.1 60 06:56 02.02.2020
3613 Clouds 25 1016 94 10000 2.1 60 06:37 02.02.2020
3614 Clouds 23 1016 94 10000 2.1 60 06:18 02.02.2020
3615 Clouds 25 1017 94 10000 2.1 40 05:19 02.02.2020
3616 Clouds 24 1017 88 10000 2.1 140 03:43 02.02.2020
3617 Rain 23 1017 88 0 0.79 189 03:22 02.02.2020
3618 Clear 27 1017 78 0 0.89 147 02:19 02.02.2020
3619 Clouds 26 1016 83 10000 2.1 150 01:49 02.02.2020
3620 Clouds 27 1016 78 10000 1.44 128 00:50 02.02.2020
3621 Clouds 27 1016 78 10000 1.44 128 00:24 02.02.2020
3622 Clouds 27 1016 69 10000 3.1 160 23:55 01.02.2020
3623 Clouds 27 1016 69 10000 3.1 160 23:37 01.02.2020
3624 Clouds 28 1016 69 10000 3.1 160 23:18 01.02.2020
3625 Clouds 28 1015 66 10000 4.1 130 22:43 01.02.2020
3626 Clouds 29 1015 66 10000 4.1 130 22:18 01.02.2020
3627 Clouds 29 1015 66 10000 4.1 130 22:18 01.02.2020
3628 Clouds 29 1015 70 10000 4.1 180 21:40 01.02.2020
3629 Clouds 29 1015 70 10000 4.1 180 21:19 01.02.2020
3630 Clouds 29 1015 70 10000 4.1 180 21:19 01.02.2020
3631 Clouds 29 1016 62 10000 5.1 180 20:55 01.02.2020
3632 Clouds 29 1016 62 10000 5.1 180 20:36 01.02.2020
3633 Clouds 29 1016 62 10000 5.1 180 20:18 01.02.2020
3634 Clouds 30 1016 55 10000 5.1 180 19:54 01.02.2020
3635 Clouds 30 1016 55 10000 5.1 180 19:36 01.02.2020
3636 Clouds 30 1016 55 10000 5.1 180 19:18 01.02.2020
3637 Clouds 30 1017 62 10000 5.1 160 18:42 01.02.2020
3638 Clouds 30 1017 62 10000 5.1 160 18:23 01.02.2020
3639 Clouds 30 1018 70 10000 3.1 90 17:59 01.02.2020
3640 Clouds 30 1018 70 10000 3.1 90 17:40 01.02.2020
3641 Clouds 29 1018 70 10000 3.1 90 17:20 01.02.2020
3642 Clouds 29 1018 74 10000 2.6 90 16:57 01.02.2020
3643 Clouds 29 1018 74 10000 2.6 90 16:38 01.02.2020
3644 Clouds 29 1018 74 10000 2.6 90 16:20 01.02.2020
3645 Clouds 27 1018 83 10000 2.6 360 15:42 01.02.2020
3646 Clouds 27 1018 83 10000 2.6 360 15:24 01.02.2020
3647 Clouds 26 1017 94 10000 2.37 45 14:57 01.02.2020
3648 Clouds 25 1017 94 10000 2.37 45 14:38 01.02.2020
3649 Clouds 24 1017 94 10000 2.97 338 14:20 01.02.2020
3650 Clouds 23 1016 94 10000 2.97 338 13:43 01.02.2020
3651 Clouds 23 1016 94 10000 2.82 336 13:20 01.02.2020
3652 Clouds 23 1017 94 10000 2.1 10 12:44 01.02.2020
3653 Clouds 23 1017 94 10000 2.1 10 12:25 01.02.2020
3654 Clouds 23 1017 94 10000 2.1 20 11:56 01.02.2020
3655 Clouds 23 1017 94 10000 2.1 20 11:37 01.02.2020
3656 Clouds 22 1017 94 10000 2.1 20 11:18 01.02.2020
3657 Clouds 22 1016 94 10000 2.1 360 10:54 01.02.2020
3658 Clouds 22 1016 94 10000 2.1 360 10:36 01.02.2020
3659 Clouds 22 1016 94 10000 2.1 360 10:18 01.02.2020
3660 Clouds 22 1016 94 10000 2.1 360 10:18 01.02.2020
3661 Clouds 23 1016 100 10000 1.5 0 09:41 01.02.2020
3662 Clouds 23 1016 100 10000 1.5 0 09:22 01.02.2020
3663 Clouds 23 1016 94 10000 2.1 360 08:58 01.02.2020
3664 Clouds 23 1016 94 10000 2.1 360 08:22 01.02.2020
3665 Clouds 24 1017 94 10000 2.1 20 07:43 01.02.2020
3666 Clouds 23 1017 94 10000 2.1 20 07:24 01.02.2020
3667 Clouds 23 1017 94 10000 2.1 30 06:44 01.02.2020
3668 Clouds 24 1018 88 10000 2.1 60 05:54 01.02.2020
3669 Clouds 25 1018 88 10000 2.1 20 04:32 01.02.2020
3670 Clouds 25 1018 83 10000 2.1 70 03:26 01.02.2020
3671 Clouds 25 1017 83 10000 2.1 100 02:58 01.02.2020
3672 Clouds 25 1017 83 10000 2.1 100 02:39 01.02.2020
3673 Clouds 26 1017 83 10000 2.1 100 02:19 01.02.2020
3674 Clouds 26 1016 83 10000 2.1 140 01:40 01.02.2020
3675 Clouds 27 1016 83 10000 2.1 140 01:19 01.02.2020
3676 Clouds 27 1016 78 10000 0.65 105 00:23 01.02.2020
3677 Clouds 28 1016 70 10000 3.1 150 23:41 31.01.2020
3678 Clouds 28 1016 70 10000 3.1 150 23:19 31.01.2020
3679 Clouds 28 1016 70 10000 3.1 150 23:19 31.01.2020
3680 Clouds 29 1015 58 10000 4.1 150 22:56 31.01.2020
3681 Clouds 29 1015 58 10000 4.1 150 22:38 31.01.2020
3682 Clouds 30 1015 58 10000 4.1 150 22:20 31.01.2020
3683 Clouds 30 1015 59 10000 5.1 180 21:40 31.01.2020
3684 Clouds 30 1015 59 10000 5.1 180 21:21 31.01.2020
3685 Clouds 30 1015 55 10000 4.1 150 20:57 31.01.2020
3686 Clouds 30 1015 55 10000 4.1 150 20:39 31.01.2020
3687 Clouds 31 1015 55 10000 4.1 150 20:21 31.01.2020
3688 Clouds 30 1016 55 10000 3.6 90 19:57 31.01.2020
3689 Clouds 30 1016 55 10000 3.6 90 19:38 31.01.2020
3690 Clouds 30 1016 55 10000 3.6 90 19:20 31.01.2020
3691 Clouds 29 1018 58 10000 2.6 360 18:54 31.01.2020
3692 Clouds 30 1018 58 10000 2.6 360 18:36 31.01.2020
3693 Clouds 30 1018 58 10000 2.6 360 18:18 31.01.2020
3694 Clouds 29 1019 62 10000 2.6 90 17:40 31.01.2020
3695 Clouds 29 1019 62 10000 2.6 90 17:40 31.01.2020
3696 Clouds 29 1019 62 10000 2.6 90 17:21 31.01.2020
3697 Clouds 29 1019 66 10000 1.99 33 16:56 31.01.2020
3698 Clouds 29 1019 66 10000 1.99 33 16:38 31.01.2020
3699 Clouds 28 1019 66 10000 1.99 33 16:18 31.01.2020
3700 Clouds 26 1019 83 10000 1.99 33 15:56 31.01.2020
3701 Clouds 26 1019 83 10000 1.99 33 15:56 31.01.2020
3702 Clouds 26 1019 83 10000 1.99 33 15:37 31.01.2020
3703 Clouds 26 1019 83 10000 1.99 33 15:19 31.01.2020
3704 Clouds 24 1017 94 10000 1.99 33 14:42 31.01.2020
3705 Clouds 23 1017 94 10000 1.64 338 14:20 31.01.2020
3706 Clouds 22 1017 100 10000 1.64 338 13:50 31.01.2020
3707 Clouds 21 1017 100 10000 1.62 336 13:32 31.01.2020
3708 Mist 22 1016 94 3000 1.71 338 12:56 31.01.2020
3709 Mist 22 1016 94 3000 1.62 336 12:56 31.01.2020
3710 Mist 21 1016 94 3000 1.71 338 12:38 31.01.2020
3711 Mist 21 1016 94 3000 1.71 338 12:38 31.01.2020
3712 Mist 21 1016 94 3000 1.71 338 12:20 31.01.2020
3713 Clouds 21 1015 94 10000 1.5 30 11:41 31.01.2020
3714 Clouds 21 1015 94 10000 1.5 30 11:23 31.01.2020
3715 Clouds 21 1015 94 10000 2.6 50 10:58 31.01.2020
3716 Clouds 21 1015 94 10000 2.6 50 10:38 31.01.2020
3717 Clouds 21 1015 94 10000 2.6 50 10:20 31.01.2020
3718 Clouds 22 1014 94 10000 2.1 50 09:43 31.01.2020
3719 Clouds 22 1014 94 10000 2.1 50 09:22 31.01.2020
3720 Clouds 22 1015 94 10000 2.1 60 08:59 31.01.2020
3721 Clouds 22 1015 94 10000 2.1 60 08:41 31.01.2020
3722 Clouds 22 1015 94 10000 2.1 60 08:23 31.01.2020
3723 Clouds 22 1015 94 10000 2.1 70 07:52 31.01.2020
3724 Clouds 22 1015 94 10000 2.1 70 07:19 31.01.2020
3725 Clouds 21 1016 100 10000 1.26 329 06:38 31.01.2020
3726 Clouds 23 1016 88 10000 2.6 50 05:57 31.01.2020
3727 Clouds 22 1016 88 10000 2.6 50 05:33 31.01.2020
3728 Clouds 25 1016 94 10000 1.5 0 04:41 31.01.2020
3729 Clouds 25 1016 94 10000 1.5 0 04:41 31.01.2020
3730 Clouds 26 1015 83 10000 2.1 140 02:50 31.01.2020
3731 Clouds 26 1015 78 10000 2.1 140 01:32 31.01.2020
3732 Clouds 26 1013 74 10000 2.1 180 00:41 31.01.2020
3733 Clouds 26 1013 74 10000 2.1 180 00:23 31.01.2020
3734 Clouds 28 1013 62 10000 2.1 180 23:44 30.01.2020
3735 Clouds 28 1013 62 10000 2.1 180 23:23 30.01.2020
3736 Clouds 28 1013 55 10000 4.1 180 22:40 30.01.2020
3737 Clouds 28 1013 55 10000 4.1 180 22:21 30.01.2020
3738 Clouds 29 1013 55 10000 4.1 180 21:59 30.01.2020
3739 Clouds 29 1013 55 10000 4.1 180 21:41 30.01.2020
3740 Clouds 29 1013 55 10000 4.1 180 21:19 30.01.2020
3741 Clouds 29 1013 55 10000 4.1 180 20:57 30.01.2020
3742 Clouds 29 1013 55 10000 4.1 180 20:38 30.01.2020
3743 Clouds 29 1013 55 10000 4.1 180 20:20 30.01.2020
3744 Clouds 29 1014 55 10000 3.1 190 19:44 30.01.2020
3745 Clouds 29 1014 55 10000 3.1 190 19:19 30.01.2020
3746 Clouds 29 1014 55 10000 3.1 190 19:19 30.01.2020
3747 Clouds 29 1015 70 10000 3.1 170 18:59 30.01.2020
3748 Clouds 29 1015 70 10000 3.1 170 18:38 30.01.2020
3749 Clouds 28 1015 70 10000 3.1 170 18:19 30.01.2020
3750 Clouds 28 1016 70 10000 2.1 170 17:54 30.01.2020
3751 Clouds 29 1016 70 10000 2.1 170 17:36 30.01.2020
3752 Clouds 28 1016 70 10000 2.1 170 17:18 30.01.2020
3753 Clouds 28 1017 74 10000 3.1 140 16:40 30.01.2020
3754 Clouds 28 1017 74 10000 3.1 140 16:21 30.01.2020
3755 Clouds 26 1016 83 10000 1.82 127 15:45 30.01.2020
3756 Clouds 26 1016 83 10000 1.82 127 15:22 30.01.2020
3757 Clouds 26 1016 83 10000 1.82 127 15:22 30.01.2020
3758 Clouds 25 1015 88 10000 1.82 127 14:58 30.01.2020
3759 Clouds 24 1015 88 10000 1.82 127 14:40 30.01.2020
3760 Clouds 24 1015 88 10000 1.82 127 14:22 30.01.2020
3761 Clouds 23 1015 94 10000 1.11 314 13:42 30.01.2020
3762 Clouds 22 1015 94 10000 1.02 315 13:24 30.01.2020
3763 Clouds 23 1014 100 10000 1.02 315 12:57 30.01.2020
3764 Clouds 22 1014 100 10000 1.02 315 12:38 30.01.2020
3765 Clouds 22 1014 100 10000 1.02 315 12:20 30.01.2020
3766 Clouds 22 1013 100 10000 1.02 315 11:41 30.01.2020
3767 Clouds 22 1013 100 10000 1.02 315 11:41 30.01.2020
3768 Clouds 21 1013 100 10000 1.02 315 11:22 30.01.2020
3769 Clouds 22 1013 100 10000 2.1 90 10:59 30.01.2020
3770 Clouds 22 1013 100 10000 2.1 90 10:40 30.01.2020
3771 Clouds 22 1013 100 10000 2.1 90 10:20 30.01.2020
3772 Clouds 23 1013 100 10000 2.1 80 09:45 30.01.2020
3773 Clouds 23 1013 100 10000 2.1 80 09:26 30.01.2020
3774 Clouds 23 1014 100 10000 2.1 70 08:43 30.01.2020
3775 Clouds 23 1014 100 10000 2.1 70 08:22 30.01.2020
3776 Clouds 24 1014 94 10000 2.1 50 07:59 30.01.2020
3777 Clouds 24 1014 94 10000 2.1 50 07:41 30.01.2020
3778 Clouds 24 1014 94 10000 2.1 50 07:19 30.01.2020
3779 Clouds 24 1014 94 10000 2.1 40 06:45 30.01.2020
3780 Rain 24 1014 94 10000 2.1 40 06:26 30.01.2020
3781 Rain 24 1015 94 10000 2.1 50 05:39 30.01.2020
3782 Clouds 24 1015 94 10000 2.1 50 05:19 30.01.2020
3783 Clouds 24 1014 94 10000 2.1 130 03:48 30.01.2020
3784 Clouds 24 1014 94 10000 2.1 130 03:24 30.01.2020
3785 Clouds 26 1014 88 10000 1.32 212 01:35 30.01.2020
3786 Clouds 25 1013 88 10000 1.31 214 00:37 30.01.2020
3787 Clouds 25 1013 88 10000 1.31 214 00:18 30.01.2020
3788 Clouds 27 1013 74 10000 3.1 120 23:43 29.01.2020
3789 Clouds 27 1013 74 10000 3.1 120 23:20 29.01.2020
3790 Clouds 28 1012 74 10000 4.1 160 22:56 29.01.2020
3791 Clouds 28 1012 74 10000 4.1 160 22:56 29.01.2020
3792 Clouds 28 1012 74 10000 4.1 160 22:37 29.01.2020
3793 Clouds 29 1012 74 10000 4.1 160 22:18 29.01.2020
3794 Clouds 29 1013 58 10000 4.1 190 21:56 29.01.2020
3795 Clouds 29 1013 58 10000 4.1 190 21:37 29.01.2020
3796 Clouds 29 1013 58 10000 4.1 190 21:37 29.01.2020
3797 Clouds 29 1013 58 10000 4.1 190 21:18 29.01.2020
3798 Clouds 30 1013 66 10000 3.1 160 20:54 29.01.2020
3799 Clouds 30 1013 66 10000 3.1 160 20:36 29.01.2020
3800 Clouds 30 1013 66 10000 3.1 160 20:18 29.01.2020
3801 Clouds 30 1014 66 10000 4.1 90 19:54 29.01.2020
3802 Clouds 30 1014 66 10000 4.1 90 19:36 29.01.2020
3803 Clouds 30 1014 66 10000 4.1 90 19:18 29.01.2020
3804 Clouds 30 1014 70 10000 3.1 30 18:40 29.01.2020
3805 Clouds 30 1014 70 10000 3.1 30 18:19 29.01.2020
3806 Clouds 29 1015 74 10000 3.1 30 17:41 29.01.2020
3807 Clouds 29 1015 74 10000 3.1 30 17:23 29.01.2020
3808 Clouds 28 1016 78 10000 4.1 30 16:57 29.01.2020
3809 Clouds 28 1016 78 10000 4.1 30 16:39 29.01.2020
3810 Clouds 28 1016 78 10000 4.1 30 16:19 29.01.2020
3811 Clouds 26 1015 88 10000 2.1 40 15:39 29.01.2020
3812 Clouds 26 1015 88 10000 2.1 40 15:21 29.01.2020
3813 Clouds 25 1015 94 10000 2.1 40 14:55 29.01.2020
3814 Clouds 24 1015 94 10000 2.1 40 14:37 29.01.2020
3815 Clouds 24 1015 94 10000 1.38 340 14:18 29.01.2020
3816 Clouds 23 1014 94 10000 1.38 340 13:40 29.01.2020
3817 Clouds 22 1014 94 10000 1.38 342 13:22 29.01.2020
3818 Clouds 23 1014 100 10000 2.1 30 12:56 29.01.2020
3819 Clouds 22 1014 100 10000 2.1 30 12:38 29.01.2020
3820 Clouds 22 1014 100 10000 2.1 30 12:20 29.01.2020
3821 Clouds 23 1013 94 10000 2.1 30 11:47 29.01.2020
3822 Clouds 22 1013 94 10000 2.1 30 11:24 29.01.2020
3823 Clouds 22 1013 100 10000 2.1 30 10:56 29.01.2020
3824 Clouds 22 1013 100 10000 2.1 30 10:37 29.01.2020
3825 Clouds 22 1013 100 10000 2.1 30 10:19 29.01.2020
3826 Clouds 23 1013 100 10000 2.1 20 09:40 29.01.2020
3827 Clouds 23 1013 100 10000 2.1 20 09:21 29.01.2020
3828 Clouds 23 1013 94 10000 2.1 30 08:57 29.01.2020
3829 Clouds 23 1013 94 10000 2.1 30 08:39 29.01.2020
3830 Clouds 23 1013 94 10000 2.1 30 08:20 29.01.2020
3831 Clouds 23 1013 94 10000 2.1 40 07:44 29.01.2020
3832 Clouds 23 1013 94 10000 2.1 40 07:24 29.01.2020
3833 Clouds 23 1014 94 10000 2.1 60 06:54 29.01.2020
3834 Clouds 23 1014 94 10000 2.1 60 06:36 29.01.2020
3835 Clouds 24 1014 94 10000 2.1 60 06:18 29.01.2020
3836 Clouds 24 1014 88 10000 2.29 337 05:43 29.01.2020
3837 Clouds 24 1014 88 10000 2.29 337 05:25 29.01.2020
3838 Clouds 25 1014 78 10000 2.22 345 04:37 29.01.2020
3839 Clouds 26 1013 78 10000 3.1 240 02:43 29.01.2020
3840 Clouds 26 1013 78 10000 4.1 220 02:18 29.01.2020
3841 Clouds 26 1014 83 10000 1.96 215 00:42 29.01.2020
3842 Clouds 26 1014 83 10000 1.96 215 00:23 29.01.2020
3843 Clouds 27 1013 78 10000 2.6 160 23:45 28.01.2020
3844 Clouds 27 1013 78 10000 2.6 160 23:21 28.01.2020
3845 Clouds 27 1012 69 10000 3.1 180 22:58 28.01.2020
3846 Clouds 27 1012 69 10000 3.1 180 22:40 28.01.2020
3847 Clouds 28 1012 69 10000 3.1 180 22:21 28.01.2020
3848 Clouds 28 1012 66 10000 5.1 180 21:42 28.01.2020
3849 Clouds 28 1012 66 10000 5.1 180 21:22 28.01.2020
3850 Clouds 28 1013 62 10000 6.2 180 20:57 28.01.2020
3851 Clouds 28 1013 62 10000 6.2 180 20:39 28.01.2020
3852 Clouds 29 1013 62 10000 6.2 180 20:21 28.01.2020
3853 Clouds 29 1013 58 10000 5.1 180 19:39 28.01.2020
3854 Clouds 29 1013 58 10000 5.1 180 19:20 28.01.2020
3855 Clouds 29 1013 58 10000 5.1 180 19:20 28.01.2020
3856 Clouds 29 1014 62 10000 5.1 180 18:58 28.01.2020
3857 Clouds 29 1014 62 10000 5.1 180 18:39 28.01.2020
3858 Clouds 29 1014 62 10000 5.1 180 18:21 28.01.2020
3859 Clouds 28 1015 66 10000 4.1 200 17:56 28.01.2020
3860 Clouds 28 1015 66 10000 4.1 200 17:37 28.01.2020
3861 Clouds 28 1015 66 10000 4.1 200 17:19 28.01.2020
3862 Clouds 28 1015 74 10000 3.1 330 16:46 28.01.2020
3863 Clouds 28 1015 74 10000 3.1 330 16:27 28.01.2020
3864 Clouds 26 1014 94 10000 0.51 87 15:59 28.01.2020
3865 Clouds 26 1014 94 10000 0.51 87 15:40 28.01.2020
3866 Clouds 26 1014 94 10000 0.51 87 15:18 28.01.2020
3867 Clouds 24 1014 88 10000 0.51 87 14:45 28.01.2020
3868 Clouds 23 1014 88 10000 1.05 305 14:20 28.01.2020
3869 Clouds 21 1013 100 10000 1.05 305 13:46 28.01.2020
3870 Clouds 21 1013 100 10000 1.04 304 13:25 28.01.2020
3871 Mist 22 1013 94 5000 1.04 304 12:59 28.01.2020
3872 Mist 22 1013 94 5000 1.04 304 12:41 28.01.2020
3873 Mist 20 1013 94 5000 1.04 304 12:22 28.01.2020
3874 Clouds 21 1013 94 10000 1.04 304 11:43 28.01.2020
3875 Clouds 21 1013 94 10000 1.04 304 11:22 28.01.2020
3876 Clouds 21 1012 94 10000 2.1 20 10:56 28.01.2020
3877 Clouds 21 1012 94 10000 2.1 20 10:38 28.01.2020
3878 Clouds 21 1012 94 10000 2.1 20 10:18 28.01.2020
3879 Clouds 22 1012 100 10000 2.1 30 09:42 28.01.2020
3880 Clouds 22 1012 100 10000 2.1 30 09:20 28.01.2020
3881 Clouds 22 1013 94 10000 2.1 350 08:47 28.01.2020
3882 Clouds 23 1013 94 10000 2.1 350 08:26 28.01.2020
3883 Clouds 23 1014 94 10000 3.1 230 07:57 28.01.2020
3884 Clouds 23 1014 94 10000 3.1 230 07:36 28.01.2020
3885 Clouds 23 1014 88 10000 3.1 240 06:49 28.01.2020
3886 Clouds 23 1014 88 10000 3.1 240 06:25 28.01.2020
3887 Clouds 23 1015 88 10000 3.1 220 05:42 28.01.2020
3888 Clouds 24 1015 88 10000 3.1 220 05:24 28.01.2020
3889 Clouds 24 1015 88 10000 2.1 230 03:51 28.01.2020
3890 Clouds 25 1015 83 10000 3.1 230 02:55 28.01.2020
3891 Clouds 25 1015 83 10000 3.1 230 02:25 28.01.2020
3892 Clouds 26 1014 83 10000 3.1 220 01:56 28.01.2020
3893 Clouds 26 1014 83 10000 3.1 220 01:22 28.01.2020
3894 Clouds 26 1014 78 10000 2.79 197 00:45 28.01.2020
3895 Clouds 26 1014 78 10000 2.79 197 00:23 28.01.2020
3896 Clouds 27 1013 65 10000 3.1 150 23:44 27.01.2020
3897 Clouds 27 1013 65 10000 3.1 150 23:20 27.01.2020
3898 Clouds 28 1013 69 10000 3.1 160 22:45 27.01.2020
3899 Clouds 28 1013 69 10000 3.1 160 22:21 27.01.2020
3900 Clouds 28 1013 66 10000 6.2 180 21:58 27.01.2020
3901 Clouds 28 1013 66 10000 6.2 180 21:39 27.01.2020
3902 Clouds 28 1013 66 10000 6.2 180 21:19 27.01.2020
3903 Clear 28 1014 66 0 5.1 160 20:57 27.01.2020
3904 Clear 29 1014 66 0 5.1 160 20:38 27.01.2020
3905 Clear 29 1014 66 0 5.1 160 20:20 27.01.2020
3906 Clouds 28 1014 66 10000 5.1 180 19:57 27.01.2020
3907 Clouds 28 1014 66 10000 5.1 180 19:38 27.01.2020
3908 Clouds 28 1014 66 10000 5.1 180 19:20 27.01.2020
3909 Rain 28 1015 69 0 5.1 180 18:40 27.01.2020
3910 Rain 28 1015 69 0 5.1 180 18:21 27.01.2020
3911 Clouds 28 1016 62 10000 4.1 140 17:58 27.01.2020
3912 Clear 28 1015 74 0 1.34 163 17:38 27.01.2020
3913 Clouds 28 1016 74 10000 2.1 140 17:19 27.01.2020
3914 -273 0 0 0 0 0 17:19 27.01.2020
3915 Clouds 27 1016 74 10000 2.1 140 16:56 27.01.2020
3916 Clouds 27 1016 74 10000 2.1 140 16:37 27.01.2020
3917 Clouds 27 1016 74 10000 2.1 140 16:19 27.01.2020
3918 Clouds 27 1016 78 10000 0.93 90 15:41 27.01.2020
3919 Clouds 26 1016 78 10000 0.93 90 15:20 27.01.2020
3920 Clouds 25 1015 83 10000 0.93 90 14:57 27.01.2020
3921 Clouds 25 1015 83 10000 0.93 90 14:39 27.01.2020
3922 Clouds 24 1015 83 10000 1.68 324 14:20 27.01.2020
3923 Clouds 23 1014 94 10000 1.68 324 13:42 27.01.2020
3924 Clouds 22 1014 94 10000 1.68 324 13:22 27.01.2020
3925 Clouds 23 1014 94 10000 1.75 323 12:57 27.01.2020
3926 Clouds 23 1014 94 10000 1.75 323 12:57 27.01.2020
3927 Clouds 22 1014 94 10000 1.75 323 12:39 27.01.2020
3928 Clouds 22 1014 94 10000 1.75 323 12:20 27.01.2020
3929 Clouds 22 1013 94 10000 1.75 323 11:43 27.01.2020
3930 Clouds 22 1013 94 10000 1.75 323 11:22 27.01.2020
3931 Clouds 22 1013 94 10000 1.39 329 10:56 27.01.2020
3932 Clouds 22 1013 94 10000 1.39 329 10:37 27.01.2020
3933 Clouds 22 1013 94 10000 1.39 329 10:18 27.01.2020
3934 Clouds 23 1013 94 10000 1.39 329 09:39 27.01.2020
3935 Clouds 23 1013 94 10000 1.39 329 09:19 27.01.2020
3936 Clouds 23 1014 94 10000 1.39 329 08:48 27.01.2020
3937 Clouds 23 1014 94 10000 1.74 333 08:23 27.01.2020
3938 Clouds 23 1014 94 10000 1.22 356 07:56 27.01.2020
3939 Clouds 23 1014 94 10000 1.22 356 07:37 27.01.2020
3940 Clouds 23 1014 94 10000 1.22 356 07:19 27.01.2020
3941 Clouds 23 1015 80 0 1.34 345 06:33 27.01.2020
3942 Clouds 23 1015 82 0 1.34 1 05:37 27.01.2020
3943 Clouds 24 1015 88 10000 1.57 360 04:21 27.01.2020
3944 Clouds 24 1015 88 10000 2.1 50 03:27 27.01.2020
3945 Clouds 24 1015 83 10000 4.6 70 01:42 27.01.2020
3946 Clouds 25 1015 83 10000 4.6 70 01:22 27.01.2020
3947 Rain 24 1014 94 8000 1.49 22 00:40 27.01.2020
3948 Rain 25 1014 94 8000 1.49 22 00:19 27.01.2020
3949 Clouds 26 1014 83 10000 2.6 130 23:42 26.01.2020
3950 Clouds 26 1014 83 10000 2.6 130 23:20 26.01.2020
3951 Rain 26 1013 78 8000 2.6 150 22:57 26.01.2020
3952 Rain 26 1013 78 8000 2.6 150 22:37 26.01.2020
3953 Rain 26 1013 78 8000 2.6 150 22:19 26.01.2020
3954 Rain 26 1013 78 8000 2.6 150 22:19 26.01.2020
3955 Clouds 27 1013 69 10000 2.6 150 21:57 26.01.2020
3956 Clouds 27 1013 69 10000 2.6 150 21:38 26.01.2020
3957 Clouds 27 1013 69 10000 2.6 150 21:20 26.01.2020
3958 Clouds 28 1014 66 10000 1.9 163 20:56 26.01.2020
3959 Clouds 28 1014 66 10000 1.9 163 20:38 26.01.2020
3960 Clouds 28 1014 66 10000 1.96 106 20:18 26.01.2020
3961 Clouds 28 1015 66 10000 2.6 60 19:56 26.01.2020
3962 Clouds 29 1015 66 10000 2.6 60 19:37 26.01.2020
3963 Clouds 29 1015 66 10000 2.6 60 19:18 26.01.2020
3964 Clear 28 1014 72 0 1.34 168 18:41 26.01.2020
3965 Clouds 29 1015 62 10000 2.6 90 18:22 26.01.2020
3966 Clouds 29 1015 62 10000 2.6 90 17:58 26.01.2020
3967 Clouds 28 1015 62 10000 2.6 90 17:39 26.01.2020
3968 Clouds 28 1015 62 10000 2.6 90 17:20 26.01.2020
3969 Clouds 28 1017 74 10000 2.6 90 16:58 26.01.2020
3970 Clouds 28 1017 74 10000 2.6 90 16:58 26.01.2020
3971 Clouds 27 1017 74 10000 2.6 90 16:39 26.01.2020
3972 Clouds 27 1017 74 10000 2.6 90 16:21 26.01.2020
3973 Clear 26 1019 91 0 2.25 29 15:58 26.01.2020
3974 Clear 26 1017 73 0 1.34 17 15:39 26.01.2020
3975 Clear 26 1017 71 0 1.34 61 15:18 26.01.2020
3976 Clear 25 1017 77 0 0.45 342 14:40 26.01.2020
3977 Clouds 25 1016 76 0 1.34 11 14:21 26.01.2020
3978 Clouds 24 1016 80 0 1.34 49 13:55 26.01.2020
3979 Clouds 24 1016 78 0 1.34 3 13:37 26.01.2020
3980 Clouds 24 1016 78 0 1.34 3 13:37 26.01.2020
3981 Clouds 23 1015 79 0 1.34 354 13:18 26.01.2020
3982 Clouds 23 1015 79 0 1.34 354 13:18 26.01.2020
3983 Clouds 23 1015 79 0 1.34 345 12:41 26.01.2020
3984 Clouds 23 1015 79 0 0.89 354 12:23 26.01.2020
3985 Clouds 23 1014 80 0 0.89 310 11:57 26.01.2020
3986 Clouds 23 1014 81 0 0.45 330 11:39 26.01.2020
3987 Clouds 23 1013 88 10000 1.5 0 11:19 26.01.2020
3988 Clouds 23 1013 88 10000 1.5 0 10:58 26.01.2020
3989 Clouds 23 1013 88 10000 1.5 0 10:38 26.01.2020
3990 Clouds 23 1013 88 10000 1.5 0 10:20 26.01.2020
3991 Clouds 23 1014 88 10000 1 0 09:57 26.01.2020
3992 Clouds 23 1014 88 10000 1 0 09:39 26.01.2020
3993 Clouds 23 1014 88 10000 1 0 09:39 26.01.2020
3994 Clouds 23 1014 88 10000 1 0 09:20 26.01.2020
3995 Clouds 23 1014 88 10000 1.5 0 08:43 26.01.2020
3996 Clouds 24 1014 88 10000 1.5 0 08:22 26.01.2020
3997 Clouds 23 1015 100 10000 1.5 0 07:57 26.01.2020
3998 Clouds 23 1015 100 10000 1.5 0 07:39 26.01.2020
3999 Clouds 23 1015 100 10000 1.5 0 07:20 26.01.2020
4000 Clouds 23 1015 94 10000 2.6 80 06:30 26.01.2020
4001 Clouds 24 1015 94 10000 2.1 40 05:31 26.01.2020
4002 Clouds 24 1015 94 10000 2.1 80 04:45 26.01.2020
4003 Clouds 25 1015 88 10000 2.1 40 02:41 26.01.2020
4004 Clouds 25 1014 88 10000 3.1 80 01:47 26.01.2020
4005 Clouds 25 1014 88 10000 3.1 80 01:24 26.01.2020
4006 Clouds 25 1013 83 10000 0.21 174 00:44 26.01.2020
4007 Clouds 25 1013 83 10000 0.21 174 00:26 26.01.2020
4008 Clear 26 1016 88 0 0.21 174 23:40 25.01.2020
4009 Clear 27 1014 71 0 0.45 146 23:21 25.01.2020
4010 Clear 27 1015 89 0 3.27 164 22:58 25.01.2020
4011 Clear 27 1013 71 0 0.89 170 22:39 25.01.2020
4012 Clear 28 1013 70 0 1.79 157 22:18 25.01.2020
4013 Clear 28 1013 70 0 0.89 181 21:56 25.01.2020
4014 Clear 28 1013 68 0 1.34 187 21:38 25.01.2020
4015 Clear 26 1013 68 0 3.27 164 21:19 25.01.2020
4016 Clear 28 1013 69 0 1.79 166 20:43 25.01.2020
4017 Clear 26 1013 68 0 3.27 164 20:25 25.01.2020
4018 Clouds 28 1013 69 0 1.79 164 19:54 25.01.2020
4019 Clouds 28 1013 69 0 2.24 160 19:36 25.01.2020
4020 Clouds 28 1015 71 0 1.34 159 19:18 25.01.2020
4021 Clouds 28 1015 71 0 1.34 159 18:41 25.01.2020
4022 Clouds 28 1015 71 0 1.34 159 18:21 25.01.2020
4023 Clouds 28 1015 69 0 1.34 155 17:57 25.01.2020
4024 Clouds 28 1015 66 0 1.34 118 17:37 25.01.2020
4025 Clouds 28 1016 62 0 0.89 79 17:18 25.01.2020
4026 Clouds 27 1016 64 0 1.34 60 16:42 25.01.2020
4027 Clouds 27 1016 63 0 0.89 96 16:23 25.01.2020
4028 Clouds 27 1016 66 0 1.34 16 15:56 25.01.2020
4029 Clouds 27 1017 68 0 1.79 61 15:37 25.01.2020
4030 Clouds 26 1017 69 0 1.34 340 15:19 25.01.2020
4031 Clouds 25 1017 71 0 1.79 358 14:41 25.01.2020
4032 Clear 24 1016 78 0 1.34 8 14:19 25.01.2020
4033 Clear 24 1016 77 0 1.79 347 13:44 25.01.2020
4034 Clear 22 1015 83 0 1.34 29 13:25 25.01.2020
4035 Clear 23 1015 81 0 1.34 345 12:50 25.01.2020
4036 Clouds 22 1014 94 10000 2.05 344 12:30 25.01.2020
4037 Clouds 22 1014 94 10000 2.05 344 11:57 25.01.2020
4038 Clouds 22 1014 94 10000 2.05 344 11:38 25.01.2020
4039 Clouds 23 1014 94 10000 1.99 340 11:19 25.01.2020
4040 Clouds 23 1013 94 10000 1.99 340 10:42 25.01.2020
4041 Clouds 23 1013 94 10000 1.99 340 10:21 25.01.2020
4042 Clouds 23 1014 94 10000 1.99 340 09:59 25.01.2020
4043 Clouds 22 1014 94 10000 1.99 340 09:38 25.01.2020
4044 Clouds 22 1014 94 10000 1.99 340 09:19 25.01.2020
4045 Clouds 22 1014 94 10000 1.99 340 08:42 25.01.2020
4046 Clouds 22 1014 94 10000 1.99 340 08:42 25.01.2020
4047 Clouds 23 1014 81 0 0.89 33 07:54 25.01.2020
4048 Clouds 23 1015 94 10000 2.1 350 07:21 25.01.2020
4049 Clouds 23 1015 94 10000 2.1 350 06:31 25.01.2020
4050 Clouds 23 1015 94 10000 2.1 30 05:52 25.01.2020
4051 Clouds 23 1015 94 10000 2.1 30 05:32 25.01.2020
4052 Clouds 24 1015 88 10000 2.1 40 03:56 25.01.2020
4053 Clouds 24 1015 88 10000 2.1 40 03:37 25.01.2020
4054 Rain 24 1015 88 10000 2.6 50 02:35 25.01.2020
4055 Clouds 25 1014 88 10000 2.6 60 01:54 25.01.2020
4056 Clouds 25 1014 83 10000 3.1 30 00:59 25.01.2020
4057 Clouds 25 1014 83 10000 3.1 30 00:37 25.01.2020
4058 Clouds 25 1014 83 10000 3.1 30 00:18 25.01.2020
4059 Clouds 25 1014 83 10000 3.1 30 00:18 25.01.2020
4060 Clouds 26 1013 78 10000 3.1 160 23:41 24.01.2020
4061 Clouds 26 1013 78 10000 3.1 160 23:23 24.01.2020
4062 Clouds 26 1013 78 10000 3.1 160 23:23 24.01.2020
4063 Clouds 27 1012 74 10000 3.1 360 22:46 24.01.2020
4064 Clouds 27 1012 74 10000 3.1 360 22:26 24.01.2020
4065 Clouds 28 1012 74 10000 5.1 30 21:57 24.01.2020
4066 Clouds 28 1012 74 10000 5.1 30 21:39 24.01.2020
4067 Clouds 28 1012 74 10000 5.1 30 21:18 24.01.2020
4068 Clouds 28 1012 74 10000 3.1 30 20:43 24.01.2020
4069 Clouds 28 1012 74 10000 3.1 30 20:21 24.01.2020
4070 Clouds 28 1012 70 10000 5.1 30 19:58 24.01.2020
4071 Clouds 28 1012 70 10000 5.1 30 19:39 24.01.2020
4072 Clouds 28 1012 70 10000 5.1 30 19:21 24.01.2020
4073 Clouds 27 1013 74 10000 5.1 360 18:43 24.01.2020
4074 Clouds 27 1013 74 10000 5.1 360 18:25 24.01.2020
4075 Clouds 26 1014 83 10000 4.1 360 17:56 24.01.2020
4076 Clouds 26 1014 83 10000 4.1 360 17:56 24.01.2020
4077 Clouds 26 1014 83 10000 4.1 360 17:38 24.01.2020
4078 Clouds 26 1014 83 10000 4.1 360 17:20 24.01.2020
4079 Clouds 25 1013 83 10000 3.1 360 16:39 24.01.2020
4080 Clouds 25 1013 83 10000 3.1 360 16:21 24.01.2020
4081 Clouds 24 1013 88 10000 2.1 360 15:55 24.01.2020
4082 Clouds 24 1013 88 10000 2.1 360 15:37 24.01.2020
4083 Clouds 24 1013 88 10000 2.1 360 15:18 24.01.2020
4084 Clouds 23 1012 94 10000 2.57 24 14:41 24.01.2020
4085 Clouds 23 1012 94 10000 2.57 24 14:22 24.01.2020
4086 Clouds 22 1012 94 10000 2.22 343 13:44 24.01.2020
4087 Clouds 22 1012 94 10000 2.31 348 13:23 24.01.2020
4088 Clouds 22 1012 83 10000 2.6 360 12:45 24.01.2020
4089 Clouds 22 1012 83 10000 2.6 360 12:23 24.01.2020
4090 Clouds 22 1012 83 10000 2.6 360 11:58 24.01.2020
4091 Clouds 22 1012 83 10000 2.6 360 11:39 24.01.2020
4092 Clouds 22 1012 83 10000 2.6 360 11:18 24.01.2020
4093 Clouds 22 1011 83 10000 2.1 360 10:42 24.01.2020
4094 Clouds 22 1011 83 10000 2.1 360 10:42 24.01.2020
4095 Clouds 22 1011 83 10000 2.1 360 10:21 24.01.2020
4096 Clouds 22 1012 88 10000 2.1 360 09:55 24.01.2020
4097 Clouds 22 1012 88 10000 2.1 360 09:37 24.01.2020
4098 Clouds 23 1012 88 10000 2.1 360 09:18 24.01.2020
4099 Clouds 23 1012 88 10000 2.1 20 08:39 24.01.2020
4100 Clouds 23 1012 88 10000 2.1 20 08:19 24.01.2020
4101 Clouds 23 1012 88 10000 2.03 12 07:48 24.01.2020
4102 Clouds 23 1012 88 10000 2.03 12 07:22 24.01.2020
4103 Clouds 23 1013 78 10000 2.03 12 06:45 24.01.2020
4104 Clouds 23 1013 78 10000 2.03 12 06:24 24.01.2020
4105 Clouds 24 1013 78 10000 2.03 12 05:33 24.01.2020
4106 Clouds 24 1013 78 10000 2.1 10 03:36 24.01.2020
4107 Clouds 24 1012 78 10000 2.1 20 02:40 24.01.2020
4108 Clouds 24 1012 78 10000 2.1 20 02:21 24.01.2020
4109 Clouds 25 1012 73 10000 2.6 30 01:39 24.01.2020
4110 Clouds 25 1011 83 10000 3.4 29 00:49 24.01.2020
4111 Clouds 25 1011 83 10000 3.4 29 00:19 24.01.2020
4112 Clouds 26 1010 78 10000 3.1 360 23:42 23.01.2020
4113 Clouds 27 1010 78 10000 3.1 360 23:22 23.01.2020
4114 Clouds 27 1009 74 10000 3.1 360 22:58 23.01.2020
4115 Clouds 28 1009 74 10000 3.1 360 22:37 23.01.2020
4116 Clouds 28 1009 74 10000 3.1 360 22:18 23.01.2020
4117 Clouds 28 1010 65 10000 2.6 330 21:55 23.01.2020
4118 Clouds 28 1010 65 10000 2.6 330 21:37 23.01.2020
4119 Clouds 28 1010 65 10000 2.6 330 21:19 23.01.2020
4120 Clouds 28 1010 69 10000 3.1 360 20:54 23.01.2020
4121 Clouds 28 1010 69 10000 3.1 360 20:36 23.01.2020
4122 Clouds 28 1010 69 10000 3.1 360 20:18 23.01.2020
4123 Clouds 28 1011 66 10000 2.1 50 19:42 23.01.2020
4124 Clouds 28 1011 66 10000 2.1 50 19:23 23.01.2020
4125 Clouds 28 1011 69 10000 4.1 360 18:57 23.01.2020
4126 Clouds 28 1011 69 10000 4.1 360 18:38 23.01.2020
4127 Clouds 28 1011 69 10000 4.1 360 18:19 23.01.2020
4128 Clouds 27 1012 74 10000 4.1 360 17:45 23.01.2020
4129 Clouds 27 1012 74 10000 4.1 360 17:21 23.01.2020
4130 Clouds 26 1012 78 10000 5.1 360 16:59 23.01.2020
4131 Clouds 26 1012 78 10000 5.1 360 16:39 23.01.2020
4132 Clouds 26 1012 78 10000 5.1 360 16:20 23.01.2020
4133 Clouds 25 1012 83 10000 4.1 360 15:58 23.01.2020
4134 Clouds 25 1012 83 10000 4.1 360 15:39 23.01.2020
4135 Clouds 25 1012 83 10000 4.1 360 15:19 23.01.2020
4136 Clouds 24 1011 94 10000 3.1 360 14:58 23.01.2020
4137 Clouds 24 1011 94 10000 3.1 360 14:40 23.01.2020
4138 Clouds 24 1011 94 10000 3.1 360 14:22 23.01.2020
4139 Clouds 22 1011 100 10000 2.11 353 13:54 23.01.2020
4140 Clouds 22 1011 100 10000 2.11 353 13:36 23.01.2020
4141 Clouds 22 1011 100 10000 2.03 354 13:18 23.01.2020
4142 Clouds 21 1010 100 10000 3.1 20 12:40 23.01.2020
4143 Clouds 21 1010 100 10000 3.1 20 12:22 23.01.2020
4144 Clouds 22 1010 100 10000 3.1 20 11:55 23.01.2020
4145 Clouds 22 1010 100 10000 3.1 20 11:36 23.01.2020
4146 Rain 22 1010 100 10000 3.1 20 11:18 23.01.2020
4147 Rain 23 1009 94 10000 2.1 360 10:41 23.01.2020
4148 Clouds 21 1009 94 10000 2.1 360 10:19 23.01.2020
4149 Clouds 22 1009 100 10000 3.1 350 09:41 23.01.2020
4150 Clouds 22 1009 100 10000 3.1 350 09:22 23.01.2020
4151 Rain 23 1010 100 8000 4.1 340 08:57 23.01.2020
4152 Rain 22 1010 100 8000 4.1 340 08:38 23.01.2020
4153 Rain 22 1010 100 8000 4.1 340 08:19 23.01.2020
4154 Clouds 23 1011 94 10000 5.1 240 07:42 23.01.2020
4155 Clouds 23 1011 94 10000 5.1 240 07:21 23.01.2020
4156 Clouds 23 1011 94 10000 5.1 240 07:21 23.01.2020
4157 Clouds 22 1011 94 10000 4.1 240 06:44 23.01.2020
4158 Clouds 22 1011 94 10000 4.1 240 06:19 23.01.2020
4159 Clouds 24 1012 88 10000 4.1 230 04:25 23.01.2020
4160 Clouds 25 1011 83 10000 4.1 210 03:47 23.01.2020
4161 Clouds 26 1010 78 10000 4.1 220 01:55 23.01.2020
4162 Clouds 26 1011 78 10000 3.1 130 00:46 23.01.2020
4163 Clouds 26 1011 78 10000 3.1 130 00:24 23.01.2020
4164 Clouds 27 1010 69 10000 4.1 160 23:46 22.01.2020
4165 Clouds 27 1010 69 10000 4.1 160 23:28 22.01.2020
4166 Clouds 28 1009 65 10000 6.2 170 22:55 22.01.2020
4167 Clouds 28 1009 65 10000 6.2 170 22:36 22.01.2020
4168 Clouds 28 1009 65 10000 6.2 170 22:18 22.01.2020
4169 Clouds 28 1010 66 10000 7.2 180 21:38 22.01.2020
4170 Clouds 28 1010 66 10000 7.2 180 21:20 22.01.2020
4171 Clouds 28 1011 66 10000 5.1 180 20:55 22.01.2020
4172 Clouds 29 1011 66 10000 5.1 180 20:36 22.01.2020
4173 Clouds 29 1011 66 10000 5.1 180 20:18 22.01.2020
4174 Clouds 29 1011 66 10000 5.1 180 19:55 22.01.2020
4175 Clouds 29 1011 66 10000 5.1 180 19:36 22.01.2020
4176 Clouds 29 1011 66 10000 5.1 180 19:18 22.01.2020
4177 Clouds 28 1012 66 10000 6.2 180 18:54 22.01.2020
4178 Clouds 29 1012 66 10000 6.2 180 18:36 22.01.2020
4179 Clouds 29 1012 66 10000 6.2 180 18:18 22.01.2020
4180 Clouds 28 1012 70 10000 5.1 180 17:39 22.01.2020
4181 Clouds 28 1012 70 10000 5.1 180 17:20 22.01.2020
4182 Clouds 28 1013 74 10000 5.1 150 16:56 22.01.2020
4183 Clouds 28 1013 74 10000 5.1 150 16:37 22.01.2020
4184 Clouds 28 1013 74 10000 5.1 150 16:37 22.01.2020
4185 Clouds 28 1013 74 10000 5.1 150 16:18 22.01.2020
4186 Clouds 26 1013 73 10000 2.6 90 15:42 22.01.2020
4187 Clouds 26 1013 73 10000 2.6 90 15:24 22.01.2020
4188 Clouds 25 1013 77 10000 4.53 199 14:59 22.01.2020
4189 Clouds 24 1013 77 10000 4.53 199 14:38 22.01.2020
4190 Clouds 22 1013 77 10000 1.99 248 14:20 22.01.2020
4191 Clouds 20 1011 88 10000 1.99 248 13:56 22.01.2020
4192 Clouds 20 1011 88 10000 1.99 248 13:37 22.01.2020
4193 Clouds 20 1011 88 10000 1.86 264 13:19 22.01.2020
4194 Clouds 21 1011 94 10000 2.1 70 12:56 22.01.2020
4195 Clouds 21 1011 94 10000 2.1 70 12:56 22.01.2020
4196 Clouds 20 1011 94 10000 2.1 70 12:38 22.01.2020
4197 Clouds 20 1011 94 10000 2.1 70 12:19 22.01.2020
4198 Clouds 20 1011 94 10000 2.1 40 11:56 22.01.2020
4199 Clouds 20 1011 94 10000 2.1 40 11:38 22.01.2020
4200 Clouds 20 1011 94 10000 2.1 40 11:19 22.01.2020
4201 Clouds 20 1010 94 10000 2.1 40 10:45 22.01.2020
4202 Clouds 20 1010 94 10000 2.1 40 10:21 22.01.2020
4203 Clouds 21 1011 94 10000 2.1 50 09:57 22.01.2020
4204 Clouds 21 1011 94 10000 2.1 50 09:39 22.01.2020
4205 Clouds 21 1011 94 10000 2.1 50 09:20 22.01.2020
4206 Clouds 22 1011 94 10000 2.1 60 08:54 22.01.2020
4207 Clouds 22 1011 94 10000 2.1 60 08:36 22.01.2020
4208 Clouds 22 1011 94 10000 2.1 60 08:18 22.01.2020
4209 Clouds 23 1012 88 10000 1.5 180 07:40 22.01.2020
4210 Clouds 23 1012 88 10000 1.5 180 07:21 22.01.2020
4211 Clouds 23 1012 88 10000 1.5 180 07:21 22.01.2020
4212 Clouds 23 1013 88 10000 2.1 190 06:33 22.01.2020
4213 Clouds 23 1013 88 10000 1.5 150 05:42 22.01.2020
4214 Clouds 23 1013 88 10000 1.5 150 05:42 22.01.2020
4215 Clouds 23 1013 88 10000 1.5 160 04:24 22.01.2020
4216 Clouds 23 1013 88 10000 1.5 160 03:26 22.01.2020
4217 Clouds 23 1013 94 10000 2.1 140 02:38 22.01.2020
4218 Clouds 25 1013 88 10000 2.6 193 00:46 22.01.2020
4219 Clouds 25 1013 88 10000 2.6 193 00:27 22.01.2020
4220 Clouds 26 1013 78 10000 4.1 180 23:55 21.01.2020
4221 Clouds 27 1013 78 10000 4.1 180 23:36 21.01.2020
4222 Clouds 27 1013 78 10000 4.1 180 23:18 21.01.2020
4223 Clouds 27 1013 78 10000 4.1 180 23:18 21.01.2020
4224 Clouds 27 1012 78 10000 4.1 180 22:40 21.01.2020
4225 Clouds 27 1012 78 10000 4.1 180 22:20 21.01.2020
4226 Clouds 27 1012 74 10000 5.1 180 21:57 21.01.2020
4227 Clouds 27 1012 74 10000 5.1 180 21:38 21.01.2020
4228 Clouds 27 1012 74 10000 5.1 180 21:20 21.01.2020
4229 Clouds 28 1013 69 10000 5.1 150 20:56 21.01.2020
4230 Clouds 27 1013 69 10000 5.1 150 20:37 21.01.2020
4231 Clouds 28 1013 69 10000 5.1 150 20:18 21.01.2020
4232 Clouds 27 1013 65 10000 2.1 160 19:56 21.01.2020
4233 Clouds 27 1013 65 10000 2.1 160 19:37 21.01.2020
4234 Clouds 27 1013 65 10000 2.1 160 19:19 21.01.2020
4235 Clouds 28 1015 74 10000 5.1 180 18:55 21.01.2020
4236 Clouds 28 1015 74 10000 5.1 180 18:37 21.01.2020
4237 Clouds 28 1015 74 10000 5.1 180 18:18 21.01.2020
4238 Clouds 27 1016 83 10000 3.1 180 17:44 21.01.2020
4239 Clouds 27 1016 83 10000 3.1 180 17:20 21.01.2020
4240 Clouds 27 1016 83 10000 1.74 168 16:58 21.01.2020
4241 Clouds 27 1016 83 10000 1.74 168 16:37 21.01.2020
4242 Clouds 27 1016 83 10000 1.74 168 16:18 21.01.2020
4243 Clouds 26 1016 83 10000 1.74 168 15:42 21.01.2020
4244 Clouds 26 1016 83 10000 1.74 168 15:21 21.01.2020
4245 Clouds 24 1015 94 10000 1.74 168 14:59 21.01.2020
4246 Clouds 24 1015 94 10000 1.74 168 14:37 21.01.2020
4247 Clouds 23 1015 94 10000 0.9 298 14:19 21.01.2020
4248 Clouds 21 1015 100 10000 0.9 298 13:40 21.01.2020
4249 Clouds 21 1015 100 10000 0.9 298 13:19 21.01.2020
4250 Clouds 21 1014 100 10000 1.5 30 12:43 21.01.2020
4251 Clouds 21 1014 100 10000 1.5 30 12:43 21.01.2020
4252 Clouds 21 1014 100 10000 1.5 30 12:25 21.01.2020
4253 Clouds 21 1013 100 10000 0.95 313 11:57 21.01.2020
4254 Clouds 21 1013 100 10000 0.95 313 11:38 21.01.2020
4255 Clouds 21 1013 100 10000 1.6 329 11:20 21.01.2020
4256 Clouds 22 1013 94 10000 1.5 20 10:44 21.01.2020
4257 Clouds 22 1013 94 10000 1.5 20 10:23 21.01.2020
4258 Clouds 22 1013 94 10000 1.5 20 10:23 21.01.2020
4259 Clouds 22 1013 100 10000 1.6 329 09:59 21.01.2020
4260 Clouds 22 1013 100 10000 1.6 329 09:40 21.01.2020
4261 Clouds 22 1014 92 0 1.6 329 09:22 21.01.2020
4262 Clouds 22 1014 92 0 1.6 329 08:48 21.01.2020
4263 Clouds 22 1015 100 10000 1.6 329 08:27 21.01.2020
4264 Clouds 22 1015 100 10000 1.78 336 07:57 21.01.2020
4265 Clouds 22 1015 100 10000 1.78 336 07:38 21.01.2020
4266 Clouds 22 1015 100 10000 1.78 336 07:19 21.01.2020
4267 Clouds 22 1015 100 10000 1.78 336 06:45 21.01.2020
4268 Clouds 22 1015 100 10000 1.78 336 06:23 21.01.2020
4269 Clouds 23 1015 94 10000 1.78 336 05:41 21.01.2020
4270 Clouds 23 1014 100 10000 1.9 357 04:39 21.01.2020
4271 Clouds 24 1015 94 10000 1 0 02:54 21.01.2020
4272 Clouds 25 1015 88 10000 2.1 60 01:47 21.01.2020
4273 Clouds 26 1014 88 10000 1.79 28 00:52 21.01.2020
4274 Clouds 26 1014 88 10000 1.79 28 00:29 21.01.2020
4275 Clouds 27 1014 83 10000 1.79 28 23:57 20.01.2020
4276 Clouds 27 1014 83 10000 1.79 28 23:36 20.01.2020
4277 Clouds 27 1014 83 10000 2.03 84 23:18 20.01.2020
4278 Clouds 28 1014 78 10000 2.03 84 22:55 20.01.2020
4279 Clouds 28 1014 78 10000 2.03 84 22:36 20.01.2020
4280 Clouds 28 1014 78 10000 2.03 84 22:18 20.01.2020
4281 Rain 27 1014 83 8000 2.03 84 21:55 20.01.2020
4282 Rain 27 1014 83 8000 2.03 84 21:36 20.01.2020
4283 Rain 27 1014 83 8000 2.03 84 21:18 20.01.2020
4284 Clouds 28 1015 70 10000 2.03 84 20:43 20.01.2020
4285 Clouds 28 1015 70 10000 2.79 81 20:20 20.01.2020
4286 Rain 29 1015 66 8000 2.79 81 19:59 20.01.2020
4287 Rain 29 1015 66 8000 2.79 81 19:59 20.01.2020
4288 Rain 29 1015 66 8000 2.79 81 19:41 20.01.2020
4289 Rain 28 1015 66 8000 2.79 81 19:19 20.01.2020
4290 Clouds 28 1016 70 10000 2.79 81 18:56 20.01.2020
4291 Clouds 28 1016 70 10000 2.79 81 18:38 20.01.2020
4292 Clouds 28 1016 70 10000 2.79 81 18:19 20.01.2020
4293 Clouds 28 1018 70 10000 4.1 30 17:39 20.01.2020
4294 Clouds 28 1018 70 10000 4.1 30 17:19 20.01.2020
4295 Clouds 27 1018 74 10000 4.1 30 16:47 20.01.2020
4296 Clouds 27 1018 74 10000 4.1 30 16:47 20.01.2020
4297 Clouds 27 1018 74 10000 4.1 30 16:26 20.01.2020
4298 Clouds 26 1019 78 10000 4.1 340 15:59 20.01.2020
4299 Clouds 26 1019 78 10000 4.1 340 15:40 20.01.2020
4300 Clouds 26 1019 78 10000 4.1 340 15:22 20.01.2020
4301 Rain 25 1018 88 8000 2.72 28 14:58 20.01.2020
4302 Rain 25 1018 88 8000 2.72 28 14:39 20.01.2020
4303 Rain 24 1018 88 8000 2.85 341 14:20 20.01.2020
4304 Clouds 23 1017 88 10000 2.6 30 13:44 20.01.2020
4305 Clouds 23 1017 88 10000 2.6 30 13:24 20.01.2020
4306 Clouds 22 1016 94 10000 2.6 360 12:58 20.01.2020
4307 Clouds 22 1016 94 10000 2.6 360 12:40 20.01.2020
4308 Clouds 22 1016 94 10000 2.6 360 12:21 20.01.2020
4309 Clouds 22 1016 94 10000 2.1 350 11:43 20.01.2020
4310 Clouds 22 1016 94 10000 2.1 350 11:24 20.01.2020
4311 Clouds 22 1015 94 10000 2.1 360 10:58 20.01.2020
4312 Clouds 22 1015 94 10000 2.1 360 10:40 20.01.2020
4313 Clouds 22 1015 94 10000 2.1 360 10:20 20.01.2020
4314 Clouds 22 1016 94 10000 1.5 0 09:41 20.01.2020
4315 Clouds 22 1016 94 10000 1.5 0 09:22 20.01.2020
4316 Clouds 22 1016 94 10000 2.1 20 08:51 20.01.2020
4317 Clouds 22 1016 94 10000 2.1 20 08:31 20.01.2020
4318 Clouds 22 1017 94 10000 2.1 10 07:55 20.01.2020
4319 Clouds 22 1017 94 10000 2.1 10 07:31 20.01.2020
4320 Clouds 23 1017 88 10000 2.1 10 06:59 20.01.2020
4321 Clouds 23 1017 88 10000 2.1 10 06:35 20.01.2020
4322 Clouds 23 1018 88 10000 2.1 10 05:56 20.01.2020
4323 Clouds 23 1018 88 10000 2.1 10 05:37 20.01.2020
4324 Clouds 23 1018 88 10000 2.1 10 05:18 20.01.2020
4325 Clouds 23 1018 88 10000 2.1 30 03:46 20.01.2020
4326 Clouds 24 1017 88 10000 5.1 60 01:58 20.01.2020
4327 Clouds 24 1017 88 10000 5.1 60 01:38 20.01.2020
4328 Clouds 25 1017 83 10000 2.99 54 00:46 20.01.2020
4329 Clouds 25 1017 83 10000 2.99 54 00:26 20.01.2020
4330 Clouds 27 1016 74 10000 7.7 70 23:55 19.01.2020
4331 Clouds 27 1016 74 10000 7.7 70 23:36 19.01.2020
4332 Clouds 27 1016 74 10000 7.7 70 23:18 19.01.2020
4333 Clouds 27 1016 74 10000 7.7 70 23:18 19.01.2020
4334 Clouds 27 1016 74 10000 3.07 94 22:54 19.01.2020
4335 Clouds 27 1016 74 10000 3.07 94 22:36 19.01.2020
4336 Clouds 27 1016 74 10000 3.07 94 22:18 19.01.2020
4337 Clouds 28 1016 70 10000 5.1 90 21:54 19.01.2020
4338 Clouds 28 1016 70 10000 5.1 90 21:36 19.01.2020
4339 Clouds 28 1016 70 10000 5.1 90 21:36 19.01.2020
4340 Clouds 28 1016 70 10000 5.1 90 21:18 19.01.2020
4341 Clouds 28 1016 74 10000 4.1 90 20:54 19.01.2020
4342 Clouds 28 1016 74 10000 4.1 90 20:36 19.01.2020
4343 Clouds 28 1016 74 10000 4.1 90 20:18 19.01.2020
4344 Clouds 29 1017 66 10000 5.1 90 19:54 19.01.2020
4345 Clouds 28 1017 66 10000 5.1 90 19:36 19.01.2020
4346 Clouds 28 1017 66 10000 5.1 90 19:18 19.01.2020
4347 Clouds 28 1018 74 10000 5.1 90 18:54 19.01.2020
4348 Clouds 28 1018 74 10000 5.1 90 18:36 19.01.2020
4349 Clouds 28 1018 74 10000 5.1 90 18:36 19.01.2020
4350 Clouds 28 1018 74 10000 5.1 90 18:18 19.01.2020
4351 Clouds 27 1019 78 10000 5.1 360 17:55 19.01.2020
4352 Clouds 27 1019 78 10000 5.1 360 17:37 19.01.2020
4353 Clouds 27 1019 78 10000 5.1 360 17:18 19.01.2020
4354 Clouds 27 1019 78 10000 5.1 30 16:41 19.01.2020
4355 Clouds 27 1019 78 10000 5.1 30 16:22 19.01.2020
4356 Clouds 26 1019 83 10000 5.1 360 16:00 19.01.2020
4357 Clouds 26 1019 83 10000 5.1 360 15:40 19.01.2020
4358 Clouds 26 1019 83 10000 5.1 360 15:22 19.01.2020
4359 Clouds 25 1018 83 10000 4.1 360 14:59 19.01.2020
4360 Clouds 25 1018 83 10000 4.1 360 14:59 19.01.2020
4361 Clouds 25 1018 83 10000 4.1 360 14:40 19.01.2020
4362 Clouds 24 1018 83 10000 4.1 360 14:19 19.01.2020
4363 Clouds 22 1018 88 10000 2.1 360 13:58 19.01.2020
4364 Clouds 22 1018 88 10000 2.1 360 13:38 19.01.2020
4365 Clouds 22 1018 88 10000 2.1 360 13:20 19.01.2020
4366 Clouds 21 1018 94 10000 2.1 30 12:56 19.01.2020
4367 Clouds 20 1018 94 10000 2.1 30 12:37 19.01.2020
4368 Clouds 20 1018 94 10000 2.1 30 12:37 19.01.2020
4369 Clouds 20 1018 94 10000 2.1 30 12:19 19.01.2020
4370 Clouds 21 1017 94 10000 2.1 20 11:43 19.01.2020
4371 Clouds 21 1017 94 10000 2.1 20 11:21 19.01.2020
4372 Clouds 20 1017 100 10000 2.1 10 10:57 19.01.2020
4373 Clouds 20 1017 100 10000 2.1 10 10:39 19.01.2020
4374 Clouds 20 1017 100 10000 2.1 10 10:39 19.01.2020
4375 Clouds 20 1017 100 10000 2.1 10 10:19 19.01.2020
4376 Clouds 21 1017 94 10000 2.6 30 09:56 19.01.2020
4377 Clouds 21 1017 94 10000 2.6 30 09:56 19.01.2020
4378 Clouds 21 1017 94 10000 2.6 30 09:56 19.01.2020
4379 Clouds 21 1017 94 10000 2.6 30 09:56 19.01.2020
4380 Clouds 21 1017 94 10000 2.6 30 09:56 19.01.2020
4381 Clouds 21 1017 94 10000 2.6 30 09:37 19.01.2020
4382 Clouds 21 1017 94 10000 2.6 30 09:19 19.01.2020
4383 Clouds 22 1018 94 10000 3.1 30 08:52 19.01.2020
4384 Clouds 22 1018 94 10000 3.1 30 08:30 19.01.2020
4385 Clouds 22 1018 94 10000 2.1 20 07:46 19.01.2020
4386 Clouds 22 1018 94 10000 2.1 20 07:26 19.01.2020
4387 Clouds 22 1019 94 10000 2.1 40 06:54 19.01.2020
4388 Clouds 22 1019 94 10000 2.1 40 06:21 19.01.2020
4389 Clouds 22 1019 88 10000 2.1 50 03:28 19.01.2020
4390 Clouds 23 1019 83 10000 2.1 30 02:26 19.01.2020
4391 Clouds 24 1018 88 10000 4.1 50 01:29 19.01.2020
4392 Clouds 25 1018 83 10000 3.1 360 00:54 19.01.2020
4393 Clouds 26 1018 78 10000 4.1 360 00:31 19.01.2020
4394 Clouds 26 1018 78 10000 4.1 360 23:59 18.01.2020
4395 Clouds 26 1018 78 10000 4.1 360 23:41 18.01.2020
4396 Clouds 26 1018 78 10000 4.1 360 23:23 18.01.2020
4397 Clouds 27 1017 69 10000 5.1 70 22:55 18.01.2020
4398 Clouds 27 1017 69 10000 5.1 70 22:37 18.01.2020
4399 Clouds 27 1017 69 10000 5.1 70 22:19 18.01.2020
4400 Clouds 27 1017 69 10000 4.1 360 21:57 18.01.2020
4401 Clouds 27 1017 69 10000 4.1 360 21:37 18.01.2020
4402 Clouds 28 1017 69 10000 4.1 360 21:19 18.01.2020
4403 Clouds 28 1018 66 10000 5.1 70 20:43 18.01.2020
4404 Clouds 28 1018 66 10000 5.1 70 20:21 18.01.2020
4405 Clouds 28 1018 62 10000 7.2 360 19:58 18.01.2020
4406 Clouds 28 1018 62 10000 7.2 360 19:40 18.01.2020
4407 Clouds 28 1018 62 10000 7.2 360 19:22 18.01.2020
4408 Clouds 27 1019 69 10000 6.2 360 18:42 18.01.2020
4409 Clouds 26 1020 74 10000 7.2 360 18:22 18.01.2020
4410 Clouds 26 1020 74 10000 7.2 360 17:55 18.01.2020
4411 Rain 25 1016 80 0 0.89 56 17:37 18.01.2020
4412 Rain 25 1016 80 0 0.89 56 17:18 18.01.2020
4413 Rain 26 1016 80 0 0.89 56 16:42 18.01.2020
4414 Rain 26 1016 80 0 0.89 56 16:24 18.01.2020
4415 Rain 26 1016 80 0 0.89 56 15:59 18.01.2020
4416 Rain 25 1016 80 0 0.89 56 15:41 18.01.2020
4417 Rain 27 1016 80 0 0.89 56 15:22 18.01.2020
4418 Rain 24 1016 80 0 0.89 56 14:54 18.01.2020
4419 Rain 24 1016 80 0 0.89 56 14:36 18.01.2020
4420 Clouds 21 1019 100 10000 2.1 20 14:18 18.01.2020
4421 Clouds 21 1019 100 10000 2.1 20 13:43 18.01.2020
4422 Clouds 21 1019 100 10000 2.1 20 13:24 18.01.2020
4423 Clouds 20 1018 100 10000 3.1 360 12:55 18.01.2020
4424 Clouds 20 1018 100 10000 3.1 360 12:55 18.01.2020
4425 Clouds 20 1018 100 10000 3.1 360 12:37 18.01.2020
4426 Clouds 20 1018 100 10000 3.1 360 12:19 18.01.2020
4427 Clouds 21 1018 94 10000 3.1 360 11:44 18.01.2020
4428 Clouds 21 1018 94 10000 3.1 360 11:21 18.01.2020
4429 Clouds 21 1018 94 10000 4.1 360 10:54 18.01.2020
4430 Clouds 21 1018 94 10000 4.1 360 10:36 18.01.2020
4431 Clouds 21 1018 94 10000 4.1 360 10:18 18.01.2020
4432 Clouds 20 1017 94 10000 4.1 350 09:42 18.01.2020
4433 Clouds 20 1017 94 10000 4.1 350 09:20 18.01.2020
4434 Clouds 20 1018 94 10000 4.1 350 08:42 18.01.2020
4435 Clouds 21 1018 94 10000 4.1 350 08:20 18.01.2020
4436 Clouds 20 1019 100 10000 2.1 350 07:59 18.01.2020
4437 Clouds 21 1019 100 10000 2.1 350 07:40 18.01.2020
4438 Clouds 21 1019 100 10000 2.1 350 07:18 18.01.2020
4439 Clouds 21 1019 100 10000 4.1 20 06:44 18.01.2020
4440 Clouds 22 1019 94 10000 4.1 360 05:52 18.01.2020
4441 Clouds 23 1020 88 10000 2.1 50 04:25 18.01.2020
4442 Clouds 24 1019 83 10000 2.1 50 02:38 18.01.2020
4443 Clouds 25 1019 78 10000 2.1 60 01:40 18.01.2020
4444 Clouds 26 1018 78 10000 3.1 40 00:39 18.01.2020
4445 Clouds 26 1018 78 10000 3.1 40 00:19 18.01.2020
4446 Clouds 26 1017 65 10000 4.1 360 23:58 17.01.2020
4447 Clouds 26 1017 65 10000 4.1 360 23:38 17.01.2020
4448 Clouds 26 1017 65 10000 4.1 360 23:18 17.01.2020
4449 Clouds 27 1017 61 10000 5.1 360 22:41 17.01.2020
4450 Clouds 27 1017 61 10000 5.1 360 22:19 17.01.2020
4451 Clouds 27 1015 61 10000 5.1 360 21:54 17.01.2020
4452 Clouds 27 1015 61 10000 5.1 360 21:36 17.01.2020
4453 Clouds 28 1015 61 10000 5.1 360 21:18 17.01.2020
4454 Clouds 27 1018 61 10000 6.2 360 20:41 17.01.2020
4455 Clouds 28 1018 61 10000 6.2 360 20:21 17.01.2020
4456 Clouds 28 1018 61 10000 6.2 360 20:21 17.01.2020
4457 Clouds 28 1018 58 10000 7.2 360 19:57 17.01.2020
4458 Clouds 28 1018 58 10000 7.2 360 19:38 17.01.2020
4459 Clouds 28 1018 58 10000 7.2 360 19:20 17.01.2020
4460 Clouds 28 1018 66 10000 7.2 360 18:57 17.01.2020
4461 Clouds 28 1018 66 10000 7.2 360 18:38 17.01.2020
4462 Clouds 28 1018 66 10000 7.2 360 18:19 17.01.2020
4463 Clouds 28 1020 74 10000 6.2 360 17:40 17.01.2020
4464 Clouds 28 1020 74 10000 6.2 360 17:40 17.01.2020
4465 Clouds 28 1020 74 10000 6.2 360 17:21 17.01.2020
4466 Clouds 27 1020 69 10000 6.2 360 16:55 17.01.2020
4467 Clouds 27 1020 69 10000 6.2 360 16:36 17.01.2020
4468 Clouds 27 1020 69 10000 6.2 360 16:18 17.01.2020
4469 Clouds 26 1020 74 10000 5.1 360 15:43 17.01.2020
4470 Clouds 25 1020 74 10000 5.1 360 15:25 17.01.2020
4471 Clouds 24 1011 88 10000 4.1 360 14:44 17.01.2020
4472 Clouds 24 1011 88 10000 4.1 360 14:25 17.01.2020
4473 Clouds 22 1018 88 10000 4.7 342 13:47 17.01.2020
4474 Clouds 22 1018 88 10000 4.7 342 13:47 17.01.2020
4475 Clouds 22 1018 88 10000 4.01 342 13:25 17.01.2020
4476 Clouds 21 1018 94 10000 3.1 360 12:56 17.01.2020
4477 Clouds 20 1018 94 10000 3.1 360 12:37 17.01.2020
4478 Clouds 20 1018 94 10000 3.1 360 12:18 17.01.2020
4479 Clouds 19 1018 100 10000 2.1 10 11:38 17.01.2020
4480 Clouds 19 1018 100 10000 2.1 10 11:18 17.01.2020
4481 Clouds 20 1017 94 10000 2.1 10 10:42 17.01.2020
4482 Clouds 20 1017 94 10000 2.1 10 10:22 17.01.2020
4483 Rain 22 1018 85 0 0.89 42 09:57 17.01.2020
4484 Rain 22 1018 85 0 0.89 42 09:37 17.01.2020
4485 Clouds 21 1018 94 10000 3.1 360 09:18 17.01.2020
4486 Clouds 21 1018 94 10000 3.1 360 08:43 17.01.2020
4487 Clouds 21 1018 94 10000 3.1 360 08:24 17.01.2020
4488 Clouds 22 1019 88 10000 2.1 360 07:53 17.01.2020
4489 Clouds 22 1019 88 10000 2.1 360 07:31 17.01.2020
4490 Clouds 22 1019 88 10000 2.1 30 06:57 17.01.2020
4491 Clouds 22 1019 88 10000 2.1 30 06:38 17.01.2020
4492 Clouds 22 1019 94 10000 2.1 360 05:28 17.01.2020
4493 Clear 23 1020 83 0 0.89 57 03:39 17.01.2020
4494 Clear 23 1020 81 0 0.89 13 02:45 17.01.2020
4495 Clouds 24 1019 75 0 1.34 70 01:46 17.01.2020
4496 Clouds 24 1019 74 0 1.34 59 01:27 17.01.2020
4497 Clear 22 1018 76 0 3.97 11 00:44 17.01.2020
4498 Clouds 27 1017 78 10000 3.1 30 00:20 17.01.2020
4499 Clouds 27 1017 78 10000 3.1 30 23:42 16.01.2020
4500 Clouds 27 1017 78 10000 3.1 30 23:24 16.01.2020
4501 Clouds 28 1017 70 10000 5.1 30 22:43 16.01.2020
4502 Clouds 28 1017 70 10000 5.1 30 22:22 16.01.2020
4503 Clouds 29 1017 70 10000 5.1 360 21:57 16.01.2020
4504 Clouds 29 1017 70 10000 5.1 360 21:39 16.01.2020
4505 Clouds 29 1017 70 10000 5.1 360 21:19 16.01.2020
4506 Clouds 29 1017 66 10000 4.1 30 20:59 16.01.2020
4507 Clouds 29 1017 66 10000 4.1 30 20:39 16.01.2020
4508 Clouds 29 1017 66 10000 4.1 30 20:20 16.01.2020
4509 Clouds 29 1018 66 10000 4.1 30 19:57 16.01.2020
4510 Clouds 29 1018 66 10000 4.1 30 19:39 16.01.2020
4511 Clouds 29 1018 66 10000 4.1 30 19:20 16.01.2020
4512 Clouds 29 1019 74 10000 5.1 360 18:55 16.01.2020
4513 Clouds 29 1019 74 10000 5.1 360 18:37 16.01.2020
4514 Clouds 29 1019 74 10000 5.1 360 18:18 16.01.2020
4515 Clouds 28 1020 74 10000 5.1 30 17:44 16.01.2020
4516 Clouds 28 1020 74 10000 5.1 30 17:23 16.01.2020
4517 Clouds 28 1020 74 10000 5.1 30 16:57 16.01.2020
4518 Clouds 27 1020 74 10000 5.1 30 16:39 16.01.2020
4519 Clouds 28 1020 74 10000 5.1 30 16:21 16.01.2020
4520 Clouds 26 1019 83 10000 4.1 360 15:44 16.01.2020
4521 Clouds 26 1019 83 10000 4.1 360 15:44 16.01.2020
4522 Clouds 26 1019 83 10000 4.1 360 15:24 16.01.2020
4523 Clouds 26 1019 83 10000 4.1 360 15:24 16.01.2020
4524 Clouds 25 1019 83 10000 3.1 360 14:59 16.01.2020
4525 Clouds 25 1019 83 10000 3.1 360 14:41 16.01.2020
4526 Clouds 24 1019 83 10000 3.1 360 14:22 16.01.2020
4527 Clouds 22 1018 94 10000 2.1 30 13:45 16.01.2020
4528 Clouds 22 1018 94 10000 2.1 30 13:26 16.01.2020
4529 Clouds 21 1018 94 10000 1.5 20 12:57 16.01.2020
4530 Clouds 21 1018 94 10000 1.5 20 12:38 16.01.2020
4531 Clouds 21 1018 94 10000 1.5 20 12:20 16.01.2020
4532 Clouds 21 1018 100 10000 2.1 20 11:41 16.01.2020
4533 Clouds 21 1018 100 10000 2.1 20 11:41 16.01.2020
4534 Clouds 21 1018 100 10000 2.1 20 11:23 16.01.2020
4535 Clouds 22 1017 94 10000 1.5 10 10:55 16.01.2020
4536 Clouds 22 1017 94 10000 1.5 10 10:55 16.01.2020
4537 Clouds 22 1017 94 10000 1.5 10 10:37 16.01.2020
4538 Clouds 22 1017 94 10000 1.5 10 10:19 16.01.2020
4539 Clouds 22 1017 100 10000 2.1 10 09:42 16.01.2020
4540 Clouds 22 1017 100 10000 2.1 10 09:24 16.01.2020
4541 Clouds 22 1017 100 10000 2.1 20 08:58 16.01.2020
4542 Clouds 22 1017 100 10000 2.1 20 08:39 16.01.2020
4543 Clouds 22 1017 100 10000 2.1 20 08:18 16.01.2020
4544 Clouds 23 1018 88 10000 1.5 40 07:42 16.01.2020
4545 Clouds 23 1018 88 10000 1.5 40 07:23 16.01.2020
4546 Clouds 23 1018 94 10000 2.6 20 06:50 16.01.2020
4547 Clouds 23 1018 94 10000 2.6 20 06:32 16.01.2020
4548 Clouds 23 1018 94 10000 1 30 05:47 16.01.2020
4549 Clouds 23 1019 94 10000 2.1 50 04:46 16.01.2020
4550 Clouds 23 1019 94 10000 2.1 50 04:46 16.01.2020
4551 Clouds 23 1018 88 10000 1.5 30 03:29 16.01.2020
4552 Clouds 24 1018 88 10000 2.1 20 02:46 16.01.2020
4553 Clouds 24 1017 83 10000 3.1 30 01:32 16.01.2020
4554 Rain 24 1017 94 8000 3.33 7 00:42 16.01.2020
4555 Rain 24 1017 94 8000 3.33 7 00:22 16.01.2020
4556 Clouds 26 1016 88 10000 3.33 7 23:40 15.01.2020
4557 Clouds 26 1016 88 10000 3.6 36 23:22 15.01.2020
4558 Clouds 26 1016 88 10000 3.6 36 23:22 15.01.2020
4559 Clouds 26 1016 88 10000 3.6 36 23:21 15.01.2020
4560 Clouds 26 1016 94 10000 3.1 300 22:56 15.01.2020
4561 Clouds 26 1016 94 10000 3.1 300 22:37 15.01.2020
4562 Clouds 26 1016 94 10000 3.1 300 22:18 15.01.2020
4563 Clouds 26 1016 94 10000 3.1 300 22:18 15.01.2020
4564 Rain 27 1016 83 8000 3.1 130 21:55 15.01.2020
4565 Rain 27 1016 83 8000 3.1 130 21:36 15.01.2020
4566 Rain 27 1016 83 8000 3.1 130 21:18 15.01.2020
4567 Clouds 27 1017 66 10000 3.6 20 20:55 15.01.2020
4568 Clouds 27 1017 66 10000 3.6 20 20:37 15.01.2020
4569 Rain 27 1017 66 10000 3.6 20 20:18 15.01.2020
4570 Rain 26 1017 69 10000 4.1 10 19:54 15.01.2020
4571 Rain 26 1017 69 10000 4.1 10 19:36 15.01.2020
4572 Rain 27 1017 69 10000 4.1 10 19:18 15.01.2020
4573 Rain 28 1018 66 10000 4.1 100 18:55 15.01.2020
4574 Rain 28 1018 66 10000 4.1 100 18:55 15.01.2020
4575 Rain 28 1018 66 10000 4.1 100 18:55 15.01.2020
4576 Rain 28 1018 66 10000 4.1 100 18:36 15.01.2020
4577 Clouds 28 1018 66 10000 4.1 100 18:18 15.01.2020
4578 Clouds 28 1019 66 10000 4.6 30 17:40 15.01.2020
4579 Clouds 28 1019 66 10000 4.6 30 17:40 15.01.2020
4580 Clouds 28 1019 66 10000 4.6 30 17:21 15.01.2020
4581 Clouds 27 1020 69 10000 4.1 20 16:56 15.01.2020
4582 Clouds 28 1020 69 10000 4.1 20 16:38 15.01.2020
4583 Clouds 28 1020 69 10000 4.1 20 16:20 15.01.2020
4584 Clouds 28 1020 69 10000 4.1 20 16:20 15.01.2020
4585 Clouds 26 1019 74 10000 5.1 10 15:43 15.01.2020
4586 Clouds 26 1019 74 10000 5.1 10 15:21 15.01.2020
4587 Clouds 25 1019 78 10000 5.1 10 14:56 15.01.2020
4588 Clouds 25 1019 78 10000 5.1 10 14:37 15.01.2020
4589 Clouds 24 1019 78 10000 5.1 10 14:18 15.01.2020
4590 Clouds 23 1018 88 10000 2.1 30 13:44 15.01.2020
4591 Clouds 23 1018 88 10000 2.1 30 13:23 15.01.2020
4592 Clouds 22 1017 94 10000 2.1 360 12:55 15.01.2020
4593 Clouds 22 1017 94 10000 2.1 360 12:37 15.01.2020
4594 Clouds 22 1017 94 10000 2.1 360 12:18 15.01.2020
4595 Clouds 22 1017 94 10000 2.1 360 12:18 15.01.2020
4596 Clouds 22 1016 94 10000 2.1 360 11:39 15.01.2020
4597 Clouds 22 1016 94 10000 2.1 360 11:20 15.01.2020
4598 Clouds 22 1016 100 10000 2.1 360 10:58 15.01.2020
4599 Clouds 22 1016 100 10000 2.1 360 10:40 15.01.2020
4600 Clouds 22 1016 100 10000 2.1 360 10:21 15.01.2020
4601 Clouds 22 1016 100 10000 3.1 10 09:41 15.01.2020
4602 Clouds 22 1016 100 10000 3.1 10 09:21 15.01.2020
4603 Clouds 22 1016 100 10000 2.1 20 08:45 15.01.2020
4604 Clouds 22 1016 100 10000 2.1 20 08:26 15.01.2020
4605 Clouds 22 1017 94 10000 2.1 10 07:56 15.01.2020
4606 Clouds 22 1017 94 10000 2.1 10 07:33 15.01.2020
4607 Clouds 22 1017 94 10000 2.1 20 06:54 15.01.2020
4608 Clouds 22 1017 94 10000 2.1 20 06:32 15.01.2020
4609 Clouds 22 1018 94 10000 2.1 20 05:32 15.01.2020
4610 Clouds 23 1018 94 10000 2.1 20 03:20 15.01.2020
4611 Clouds 23 1017 88 10000 2.1 20 01:48 15.01.2020
4612 Clouds 23 1017 88 10000 2.1 20 01:22 15.01.2020
4613 Clouds 24 1018 88 10000 4.06 353 00:37 15.01.2020
4614 Clouds 24 1018 88 10000 4.06 353 00:19 15.01.2020
4615 Clouds 24 1018 78 10000 2.6 360 23:46 14.01.2020
4616 Clouds 24 1018 78 10000 2.6 360 23:27 14.01.2020
4617 Rain 25 1017 78 8000 3.96 24 22:57 14.01.2020
4618 Rain 25 1017 78 8000 3.96 24 22:57 14.01.2020
4619 Rain 25 1017 78 8000 3.96 24 22:39 14.01.2020
4620 Rain 25 1017 78 8000 3.96 24 22:18 14.01.2020
4621 Rain 25 1017 62 8000 7.7 30 21:56 14.01.2020
4622 Rain 25 1017 62 8000 7.7 30 21:37 14.01.2020
4623 Rain 25 1017 62 8000 7.7 30 21:19 14.01.2020
4624 Clouds 26 1017 69 10000 6.2 10 20:42 14.01.2020
4625 Rain 27 1019 69 8000 6.7 30 20:22 14.01.2020
4626 Rain 27 1019 69 8000 6.7 30 19:57 14.01.2020
4627 Rain 27 1019 69 8000 6.7 30 19:57 14.01.2020
4628 Rain 27 1019 69 8000 6.7 30 19:38 14.01.2020
4629 Rain 27 1019 69 8000 6.7 30 19:20 14.01.2020
4630 Clouds 27 1020 66 10000 6.7 60 18:59 14.01.2020
4631 Clouds 27 1020 66 10000 6.7 60 18:40 14.01.2020
4632 Clouds 26 1021 74 10000 7.2 360 18:19 14.01.2020
4633 Clouds 26 1021 74 10000 7.2 360 18:19 14.01.2020
4634 Clouds 26 1021 74 10000 7.2 360 17:39 14.01.2020
4635 Rain 26 1021 74 10000 7.2 360 17:19 14.01.2020
4636 Rain 27 1021 66 10000 6.2 360 16:59 14.01.2020
4637 Rain 27 1021 66 10000 6.2 360 16:41 14.01.2020
4638 Clouds 27 1021 66 10000 6.2 360 16:21 14.01.2020
4639 Clouds 27 1021 78 10000 6.2 360 15:55 14.01.2020
4640 Clouds 26 1021 78 10000 6.2 360 15:37 14.01.2020
4641 Clouds 26 1021 78 10000 6.2 360 15:18 14.01.2020
4642 Clouds 25 1021 74 10000 5.1 20 14:43 14.01.2020
4643 Clouds 25 1021 74 10000 5.1 20 14:20 14.01.2020
4644 Clouds 23 1020 94 10000 2.1 40 13:43 14.01.2020
4645 Clouds 23 1020 94 10000 2.1 40 13:20 14.01.2020
4646 Clouds 23 1019 94 10000 2.1 10 12:59 14.01.2020
4647 Clouds 23 1019 94 10000 2.1 10 12:40 14.01.2020
4648 Clouds 23 1019 94 10000 2.1 10 12:20 14.01.2020
4649 Clouds 23 1018 100 10000 2.1 20 11:42 14.01.2020
4650 Clouds 23 1018 100 10000 2.1 20 11:23 14.01.2020
4651 Clouds 23 1019 100 10000 2.6 20 10:58 14.01.2020
4652 Clouds 23 1019 100 10000 2.6 20 10:39 14.01.2020
4653 Clouds 22 1019 100 10000 2.6 20 10:19 14.01.2020
4654 Clouds 22 1019 100 10000 2.6 20 09:56 14.01.2020
4655 Clouds 22 1019 100 10000 2.6 20 09:38 14.01.2020
4656 Clouds 22 1019 100 10000 2.6 20 09:20 14.01.2020
4657 Clouds 22 1019 100 10000 2.1 30 08:42 14.01.2020
4658 Clouds 22 1019 100 10000 2.1 30 08:23 14.01.2020
4659 Clouds 23 1020 94 10000 2.1 10 07:53 14.01.2020
4660 Clouds 23 1020 94 10000 2.1 10 07:26 14.01.2020
4661 Clouds 23 1021 94 10000 2.1 20 06:50 14.01.2020
4662 Clouds 23 1021 94 10000 2.1 20 06:23 14.01.2020
4663 Clouds 24 1021 88 10000 2.1 30 04:58 14.01.2020
4664 Clouds 24 1021 83 10000 2.1 30 03:48 14.01.2020
4665 Clouds 24 1021 83 10000 2.6 50 02:41 14.01.2020
4666 Clouds 24 1020 78 10000 2.1 30 01:34 14.01.2020
4667 Clouds 25 1020 83 10000 4.06 357 00:49 14.01.2020
4668 Clouds 25 1020 83 10000 4.06 357 00:27 14.01.2020
4669 Clouds 26 1019 83 10000 2.6 360 23:47 13.01.2020
4670 Clouds 27 1019 83 10000 2.6 360 23:19 13.01.2020
4671 Clouds 28 1019 78 10000 4.1 70 22:59 13.01.2020
4672 Clouds 28 1019 78 10000 4.1 70 22:40 13.01.2020
4673 Clouds 28 1019 78 10000 4.1 70 22:20 13.01.2020
4674 Clouds 28 1019 74 10000 4.1 360 21:56 13.01.2020
4675 Clouds 28 1019 74 10000 4.1 360 21:56 13.01.2020
4676 Clouds 28 1019 74 10000 4.1 360 21:37 13.01.2020
4677 Clouds 28 1019 74 10000 4.1 360 21:18 13.01.2020
4678 Clouds 28 1019 74 10000 4.1 360 21:18 13.01.2020
4679 Clouds 28 1020 74 10000 3.1 70 20:56 13.01.2020
4680 Clouds 29 1020 74 10000 3.1 70 20:38 13.01.2020
4681 Clouds 29 1020 74 10000 3.1 70 20:19 13.01.2020
4682 Rain 28 1020 78 10000 2.6 90 19:42 13.01.2020
4683 Rain 28 1020 78 10000 2.6 90 19:42 13.01.2020
4684 Rain 28 1020 78 10000 2.6 90 19:22 13.01.2020
4685 Clouds 29 1021 62 10000 5.1 360 18:59 13.01.2020
4686 Rain 29 1021 62 10000 5.1 360 18:40 13.01.2020
4687 Rain 29 1021 62 10000 5.1 360 18:20 13.01.2020
4688 Rain 28 1022 62 10000 4.1 70 17:59 13.01.2020
4689 Clouds 29 1022 62 10000 4.1 70 17:40 13.01.2020
4690 Clouds 29 1022 62 10000 4.1 70 17:21 13.01.2020
4691 Clouds 29 1022 62 10000 4.1 70 17:21 13.01.2020
4692 Clouds 28 1022 66 10000 4.1 70 16:55 13.01.2020
4693 Rain 28 1022 65 0 3.58 69 16:36 13.01.2020
4694 Rain 28 1022 67 0 3.58 61 16:18 13.01.2020
4695 Rain 27 1023 71 0 4.47 66 15:41 13.01.2020
4696 Rain 27 1023 70 0 3.13 73 15:21 13.01.2020
4697 Rain 26 1023 72 0 2.68 54 14:54 13.01.2020
4698 Rain 26 1023 73 0 2.68 39 14:36 13.01.2020
4699 Rain 25 1023 76 0 2.68 17 14:18 13.01.2020
4700 Rain 24 1022 79 0 2.24 10 13:40 13.01.2020
4701 Rain 24 1024 99 0 4.38 357 13:22 13.01.2020
4702 Rain 24 1021 81 0 2.24 8 12:58 13.01.2020
4703 Rain 24 1021 83 0 1.79 4 12:40 13.01.2020
4704 Clouds 23 1020 100 10000 4.1 40 12:21 13.01.2020
4705 Clouds 23 1020 100 10000 4.1 40 11:40 13.01.2020
4706 Clouds 23 1020 100 10000 4.1 40 11:20 13.01.2020
4707 Clouds 23 1019 100 10000 2.1 20 10:58 13.01.2020
4708 Clouds 23 1019 100 10000 2.1 20 10:39 13.01.2020
4709 Clouds 23 1019 100 10000 2.1 20 10:39 13.01.2020
4710 Clouds 23 1019 100 10000 2.1 20 10:39 13.01.2020
4711 Clouds 23 1019 100 10000 2.1 20 10:21 13.01.2020
4712 Clouds 23 1019 100 10000 4.1 20 09:59 13.01.2020
4713 Clouds 23 1019 100 10000 4.1 20 09:40 13.01.2020
4714 Clouds 23 1019 100 10000 4.1 20 09:22 13.01.2020
4715 Clouds 23 1020 94 10000 2.1 20 08:41 13.01.2020
4716 Clouds 23 1020 94 10000 2.1 20 08:21 13.01.2020
4717 Clouds 23 1012 94 10000 2.1 20 07:52 13.01.2020
4718 Clouds 23 1012 94 10000 2.1 20 07:33 13.01.2020
4719 Clouds 23 1021 94 10000 2.1 40 06:43 13.01.2020
4720 Clouds 23 1021 94 10000 2.1 40 06:21 13.01.2020
4721 Clouds 23 1021 94 10000 2.1 30 05:27 13.01.2020
4722 Clouds 24 1021 94 10000 2.1 30 03:55 13.01.2020
4723 Clouds 24 1021 94 10000 2.1 30 03:24 13.01.2020
4724 Clouds 24 1021 88 10000 2.1 40 02:45 13.01.2020
4725 Clouds 25 1021 89 10000 2.1 40 02:26 13.01.2020
4726 Clouds 25 1012 88 10000 2.1 40 01:20 13.01.2020
4727 Clouds 26 1020 83 10000 4.03 27 00:41 13.01.2020
4728 Clouds 26 1020 83 10000 4.03 27 00:22 13.01.2020
4729 Clouds 26 1019 78 10000 4.1 360 23:42 12.01.2020
4730 Clouds 27 1019 78 10000 4.1 360 23:24 12.01.2020
4731 Rain 27 1019 83 6000 4.1 80 22:58 12.01.2020
4732 Rain 27 1019 83 6000 4.1 80 22:58 12.01.2020
4733 Clouds 27 1018 74 10000 5.1 60 22:39 12.01.2020
4734 Clouds 27 1018 74 10000 5.1 60 22:21 12.01.2020
4735 Rain 27 1019 83 8000 5.1 60 21:56 12.01.2020
4736 Rain 27 1019 83 8000 5.1 60 21:38 12.01.2020
4737 Rain 26 1019 83 8000 5.1 60 21:19 12.01.2020
4738 Rain 27 1019 70 10000 3.1 90 20:56 12.01.2020
4739 Rain 28 1019 70 10000 3.1 90 20:37 12.01.2020
4740 Rain 28 1019 70 10000 3.1 90 20:19 12.01.2020
4741 Rain 27 1020 69 10000 5.1 360 19:55 12.01.2020
4742 Rain 26 1020 69 10000 5.1 360 19:37 12.01.2020
4743 Rain 27 1020 69 10000 5.1 360 19:18 12.01.2020
4744 Rain 27 1020 69 10000 5.1 360 19:18 12.01.2020
4745 Clouds 29 1021 58 10000 5.1 60 18:56 12.01.2020
4746 Rain 29 1021 58 10000 5.1 60 18:38 12.01.2020
4747 Rain 29 1021 58 10000 5.1 60 18:19 12.01.2020
4748 Clouds 29 1023 66 10000 6.2 360 17:42 12.01.2020
4749 Clouds 29 1023 66 10000 6.2 360 17:22 12.01.2020
4750 Clouds 29 1022 66 10000 5.1 60 16:58 12.01.2020
4751 Clouds 29 1022 66 10000 5.1 60 16:39 12.01.2020
4752 Clouds 28 1022 66 10000 5.1 60 16:20 12.01.2020
4753 Clouds 27 1022 74 10000 4.1 360 15:56 12.01.2020
4754 Clouds 27 1022 74 10000 4.1 360 15:38 12.01.2020
4755 Clouds 27 1022 74 10000 4.1 360 15:20 12.01.2020
4756 Clouds 26 1022 78 10000 3.1 360 14:42 12.01.2020
4757 Clouds 25 1022 78 10000 3.1 360 14:23 12.01.2020
4758 Clouds 24 1022 83 10000 3.65 353 13:57 12.01.2020
4759 Clouds 24 1022 83 10000 3.65 353 13:39 12.01.2020
4760 Clouds 23 1022 83 10000 3.53 349 13:20 12.01.2020
4761 Clouds 23 1020 94 10000 2.1 360 12:55 12.01.2020
4762 Clouds 23 1020 94 10000 2.1 360 12:37 12.01.2020
4763 Clouds 23 1020 94 10000 2.1 360 12:18 12.01.2020
4764 Clouds 23 1020 94 10000 2.1 360 11:40 12.01.2020
4765 Clouds 23 1020 94 10000 2.1 360 11:22 12.01.2020
4766 Clouds 23 1020 94 10000 3.49 1 10:56 12.01.2020
4767 Clouds 23 1020 94 10000 3.49 1 10:37 12.01.2020
4768 Clouds 23 1020 94 10000 3.49 1 10:18 12.01.2020
4769 Clouds 23 1020 94 10000 2.1 20 09:41 12.01.2020
4770 Clouds 23 1020 94 10000 2.1 20 09:41 12.01.2020
4771 Clouds 23 1020 94 10000 2.1 20 09:21 12.01.2020
4772 Clouds 23 1020 94 10000 2.1 20 08:47 12.01.2020
4773 Clouds 23 1020 94 10000 2.1 20 08:22 12.01.2020
4774 Clouds 23 1020 94 10000 2.1 40 07:46 12.01.2020
4775 Clouds 23 1020 94 10000 2.1 40 07:25 12.01.2020
4776 Clouds 23 1021 94 10000 2.1 40 06:54 12.01.2020
4777 Clouds 23 1021 94 10000 2.1 40 06:35 12.01.2020
4778 Clouds 24 1021 94 10000 2.1 40 05:50 12.01.2020
4779 Clouds 24 1020 100 10000 2.6 70 04:53 12.01.2020
4780 Clouds 24 1021 88 10000 2.1 20 03:35 12.01.2020
4781 Clouds 25 1021 83 10000 2.1 30 02:43 12.01.2020
4782 Clouds 25 1021 83 10000 2.1 30 02:24 12.01.2020
4783 Clouds 26 1020 83 10000 3.1 60 01:31 12.01.2020
4784 Clouds 27 1020 74 10000 2.6 30 00:46 12.01.2020
4785 Clouds 27 1020 74 10000 2.6 30 00:22 12.01.2020
4786 Clouds 28 1020 54 10000 3.57 20 23:56 11.01.2020
4787 Clouds 28 1020 54 10000 3.57 20 23:37 11.01.2020
4788 Clouds 28 1020 54 10000 5.35 52 23:18 11.01.2020
4789 Clouds 29 1019 55 10000 4.1 60 22:56 11.01.2020
4790 Clouds 29 1019 55 10000 4.1 60 22:37 11.01.2020
4791 Clouds 29 1019 55 10000 4.1 60 22:18 11.01.2020
4792 Clouds 31 1019 46 10000 6.2 60 21:43 11.01.2020
4793 Clouds 31 1019 46 10000 6.2 60 21:19 11.01.2020
4794 Clouds 30 1020 52 10000 6.7 60 20:55 11.01.2020
4795 Clouds 30 1020 52 10000 6.7 60 20:37 11.01.2020
4796 Clouds 30 1020 52 10000 6.7 60 20:18 11.01.2020
4797 Clouds 30 1019 62 10000 5.1 70 19:55 11.01.2020
4798 Clouds 30 1019 62 10000 5.1 70 19:36 11.01.2020
4799 Clouds 30 1019 62 10000 5.1 70 19:18 11.01.2020
4800 Clouds 29 1021 66 10000 5.1 60 18:54 11.01.2020
4801 Clouds 29 1021 66 10000 5.1 60 18:36 11.01.2020
4802 Clouds 29 1021 66 10000 5.1 60 18:18 11.01.2020
4803 Rain 28 1022 69 10000 5.1 30 17:54 11.01.2020
4804 Rain 28 1022 69 10000 5.1 30 17:36 11.01.2020
4805 Rain 28 1022 69 10000 5.1 30 17:18 11.01.2020
4806 Clouds 28 1023 65 10000 6.2 30 16:41 11.01.2020
4807 Clouds 28 1023 65 10000 6.2 30 16:22 11.01.2020
4808 Clouds 27 1022 74 10000 5.1 360 15:42 11.01.2020
4809 Clouds 27 1022 74 10000 5.1 360 15:23 11.01.2020
4810 Clouds 25 1022 83 10000 4.1 360 14:58 11.01.2020
4811 Clouds 25 1022 83 10000 4.1 360 14:40 11.01.2020
4812 Clouds 25 1022 83 10000 4.1 360 14:21 11.01.2020
4813 Clouds 23 1021 94 10000 2.1 360 13:55 11.01.2020
4814 Clouds 22 1021 94 10000 2.1 360 13:36 11.01.2020
4815 Clouds 22 1021 94 10000 2.1 360 13:18 11.01.2020
4816 Clouds 21 1020 94 10000 2.1 10 12:41 11.01.2020
4817 Clouds 21 1020 94 10000 2.1 10 12:23 11.01.2020
4818 Clouds 21 1019 94 10000 2.6 20 11:48 11.01.2020
4819 Clouds 21 1019 94 10000 2.6 20 11:27 11.01.2020
4820 Clouds 21 1019 100 10000 4.6 50 10:59 11.01.2020
4821 Clouds 21 1019 100 10000 4.6 50 10:40 11.01.2020
4822 Clouds 21 1019 100 10000 4.6 50 10:40 11.01.2020
4823 Rain 21 1019 100 10000 4.6 50 10:22 11.01.2020
4824 Rain 21 1020 100 10000 4.6 50 09:39 11.01.2020
4825 Rain 21 1020 100 10000 4.6 50 09:21 11.01.2020
4826 Clouds 22 1020 100 10000 1 40 08:42 11.01.2020
4827 Clouds 22 1020 100 10000 1 40 08:22 11.01.2020
4828 Clouds 23 1020 89 10000 2.1 40 07:44 11.01.2020
4829 Clouds 23 1020 89 10000 2.1 40 07:26 11.01.2020
4830 Clouds 23 1020 100 10000 1 20 06:52 11.01.2020
4831 Clouds 23 1021 100 10000 2.1 50 05:50 11.01.2020
4832 Clouds 23 1020 100 10000 2.1 50 04:47 11.01.2020
4833 Clouds 23 1020 100 10000 2.1 50 04:29 11.01.2020
4834 Clouds 23 1020 94 10000 2.1 30 02:58 11.01.2020
4835 Clouds 23 1020 94 10000 2.1 30 02:38 11.01.2020
4836 Clouds 23 1019 94 10000 2.6 60 01:43 11.01.2020
4837 Clouds 23 1019 94 10000 2.6 60 01:20 11.01.2020
4838 Rain 24 1018 83 10000 4.1 360 00:40 11.01.2020
4839 Clouds 27 1018 83 10000 4.1 360 23:59 10.01.2020
4840 Clouds 27 1018 83 10000 4.1 360 23:40 10.01.2020
4841 Clouds 27 1018 83 10000 4.1 360 23:22 10.01.2020
4842 Clouds 28 1018 78 10000 5.1 360 22:58 10.01.2020
4843 Clouds 28 1018 78 10000 5.1 360 22:40 10.01.2020
4844 Clouds 28 1018 78 10000 5.1 360 22:20 10.01.2020
4845 Clouds 28 1018 78 10000 5.1 360 21:57 10.01.2020
4846 Clouds 29 1018 78 10000 5.1 360 21:37 10.01.2020
4847 Clouds 29 1018 78 10000 5.1 360 21:19 10.01.2020
4848 Clouds 28 1019 74 10000 5.1 360 20:43 10.01.2020
4849 Clouds 28 1019 74 10000 5.1 360 20:24 10.01.2020
4850 Clouds 28 1020 88 10000 5.1 20 19:58 10.01.2020
4851 Clouds 28 1020 88 10000 5.1 20 19:38 10.01.2020
4852 Clouds 28 1020 88 10000 5.1 20 19:19 10.01.2020
4853 Rain 27 1021 88 7000 5.1 70 18:43 10.01.2020
4854 Rain 27 1021 88 7000 5.1 70 18:19 10.01.2020
4855 Clouds 28 1022 74 10000 5.1 30 17:57 10.01.2020
4856 Rain 28 1021 65 0 2.68 70 17:39 10.01.2020
4857 Rain 29 1021 63 0 3.13 86 17:20 10.01.2020
4858 Rain 28 1021 65 0 3.58 64 16:58 10.01.2020
4859 Rain 28 1021 65 0 4.02 60 16:39 10.01.2020
4860 Clouds 27 1022 78 10000 5.1 10 16:19 10.01.2020
4861 Clouds 27 1022 78 10000 5.1 10 15:56 10.01.2020
4862 Clouds 27 1022 78 10000 5.1 10 15:56 10.01.2020
4863 Clouds 26 1022 78 10000 5.1 10 15:37 10.01.2020
4864 Clouds 26 1022 78 10000 5.1 10 15:18 10.01.2020
4865 Clouds 26 1021 78 10000 4.1 10 14:55 10.01.2020
4866 Clouds 26 1021 78 10000 4.1 10 14:37 10.01.2020
4867 Clouds 26 1021 78 10000 4.1 10 14:18 10.01.2020
4868 Rain 24 1020 94 8000 3.1 30 13:43 10.01.2020
4869 Rain 23 1020 94 8000 3.1 30 13:25 10.01.2020
4870 Clouds 23 1019 94 10000 4.1 70 12:58 10.01.2020
4871 Clouds 23 1019 94 10000 4.1 70 12:39 10.01.2020
4872 Clouds 23 1019 94 10000 4.1 70 12:19 10.01.2020
4873 Clouds 23 1019 94 10000 4.1 70 12:19 10.01.2020
4874 Rain 23 1019 100 8000 3.6 70 11:56 10.01.2020
4875 Rain 23 1019 100 8000 3.6 70 11:38 10.01.2020
4876 Rain 23 1019 100 8000 3.6 70 11:18 10.01.2020
4877 Clouds 23 1018 100 10000 3.73 12 10:57 10.01.2020
4878 Clouds 23 1018 100 10000 3.73 12 10:36 10.01.2020
4879 Clouds 23 1018 100 10000 3.73 12 10:18 10.01.2020
4880 Clouds 23 1019 100 10000 3.1 30 09:42 10.01.2020
4881 Clouds 23 1019 100 10000 3.1 30 09:23 10.01.2020
4882 Clouds 24 1019 88 10000 2.1 30 08:43 10.01.2020
4883 Clouds 24 1019 88 10000 2.1 30 08:24 10.01.2020
4884 Clouds 24 1020 91 10000 2.1 40 07:48 10.01.2020
4885 Clouds 24 1020 91 10000 2.1 40 07:30 10.01.2020
4886 Clouds 24 1020 88 10000 2.1 20 06:56 10.01.2020
4887 Clouds 24 1020 88 10000 2.1 20 06:27 10.01.2020
4888 Clouds 24 1021 88 10000 2.1 40 05:52 10.01.2020
4889 Clouds 25 1021 88 10000 2.1 40 03:50 10.01.2020
4890 Clouds 25 1021 88 10000 2.1 40 03:31 10.01.2020
4891 Clouds 25 1021 88 10000 3.1 30 02:51 10.01.2020
4892 Clouds 25 1020 83 10000 3.1 30 01:52 10.01.2020
4893 Clouds 26 1020 83 10000 3.1 30 01:29 10.01.2020
4894 Clouds 26 1018 83 10000 2.1 360 00:48 10.01.2020
4895 Clouds 26 1018 83 10000 2.1 360 00:30 10.01.2020
4896 Clouds 28 1017 78 10000 5.1 360 23:39 09.01.2020
4897 Clouds 28 1017 78 10000 5.1 360 23:39 09.01.2020
4898 Clouds 28 1017 78 10000 5.1 360 23:39 09.01.2020
4899 Clouds 28 1017 78 10000 5.1 360 23:39 09.01.2020
4900 Clouds 28 1017 78 10000 5.1 360 23:39 09.01.2020
4901 Clouds 28 1017 78 10000 5.1 360 23:21 09.01.2020
4902 Clouds 29 1017 70 10000 4.1 360 22:58 09.01.2020
4903 Clouds 29 1017 70 10000 4.1 360 22:58 09.01.2020
4904 Clouds 29 1017 70 10000 4.1 360 22:39 09.01.2020
4905 Clouds 29 1017 70 10000 4.1 360 22:19 09.01.2020
4906 Clouds 29 1017 70 10000 4.1 360 22:19 09.01.2020
4907 Clouds 30 1017 66 10000 5.1 30 21:57 09.01.2020
4908 Clouds 30 1017 66 10000 5.1 30 21:57 09.01.2020
4909 Clouds 30 1017 66 10000 5.1 30 21:38 09.01.2020
4910 Clouds 30 1017 66 10000 5.1 30 21:20 09.01.2020
4911 Clouds 29 1019 78 10000 6.2 110 20:58 09.01.2020
4912 Clouds 29 1019 78 10000 6.2 110 20:39 09.01.2020
4913 Clouds 29 1019 78 10000 6.2 110 20:20 09.01.2020
4914 Clouds 29 1019 78 10000 6.2 110 19:58 09.01.2020
4915 Clouds 30 1018 66 10000 5.1 360 19:39 09.01.2020
4916 Clouds 30 1018 66 10000 5.1 360 19:20 09.01.2020
4917 Clouds 30 1019 74 10000 5.1 360 18:56 09.01.2020
4918 Clouds 30 1019 74 10000 5.1 360 18:56 09.01.2020
4919 Clouds 30 1019 74 10000 5.1 360 18:37 09.01.2020
4920 Clouds 30 1019 74 10000 5.1 360 18:19 09.01.2020
4921 Clouds 29 1020 74 10000 5.1 360 17:41 09.01.2020
4922 Clouds 29 1020 74 10000 5.1 360 17:19 09.01.2020
4923 Clouds 29 1021 74 10000 5.1 360 16:56 09.01.2020
4924 Clouds 29 1021 74 10000 5.1 360 16:36 09.01.2020
4925 Clouds 29 1021 74 10000 5.1 360 16:18 09.01.2020
4926 Clouds 28 1021 78 10000 5.1 270 15:41 09.01.2020
4927 Clouds 28 1021 78 10000 5.1 270 15:41 09.01.2020
4928 Clouds 28 1021 78 10000 5.1 270 15:20 09.01.2020
4929 Clouds 26 1020 94 10000 4.1 270 14:55 09.01.2020
4930 Clouds 26 1020 94 10000 4.1 270 14:37 09.01.2020
4931 Clouds 26 1020 94 10000 4.1 270 14:18 09.01.2020
4932 Clouds 25 1020 100 10000 2.1 30 13:54 09.01.2020
4933 Clouds 24 1020 100 10000 2.1 30 13:36 09.01.2020
4934 Clouds 24 1020 100 10000 2.1 30 13:18 09.01.2020
4935 Clouds 24 1019 100 10000 2.1 30 12:42 09.01.2020
4936 Clouds 24 1019 100 10000 2.1 30 12:23 09.01.2020
4937 Clouds 24 1019 100 10000 2.1 30 11:59 09.01.2020
4938 Clouds 24 1019 94 10000 2.1 30 11:41 09.01.2020
4939 Clouds 24 1019 94 10000 2.1 30 11:22 09.01.2020
4940 Clouds 24 1018 94 10000 2.1 20 10:45 09.01.2020
4941 Clouds 24 1018 94 10000 2.1 20 10:23 09.01.2020
4942 Clouds 24 1018 94 10000 2.1 20 09:59 09.01.2020
4943 Clouds 24 1018 94 10000 2.1 20 09:40 09.01.2020
4944 Clouds 24 1018 94 10000 2.1 20 09:21 09.01.2020
4945 Clouds 24 1018 94 10000 2.1 20 09:21 09.01.2020
4946 Clouds 24 1019 100 10000 2.1 20 08:55 09.01.2020
4947 Clouds 24 1019 100 10000 2.1 20 08:37 09.01.2020
4948 Clouds 24 1019 100 10000 2.1 20 08:19 09.01.2020
4949 Clouds 23 1019 94 10000 3.46 357 07:42 09.01.2020
4950 Clouds 23 1019 94 10000 3.46 357 07:42 09.01.2020
4951 Clouds 23 1019 94 10000 3.46 357 07:23 09.01.2020
4952 Clouds 24 1020 88 10000 3.46 357 06:39 09.01.2020
4953 Clouds 24 1020 88 10000 3.46 357 06:20 09.01.2020
4954 Clouds 24 1020 94 10000 2.1 20 05:49 09.01.2020
4955 Clouds 25 1020 94 10000 2.1 20 04:44 09.01.2020
4956 Clouds 25 1020 88 10000 2.1 50 03:38 09.01.2020
4957 Clouds 25 1019 88 10000 2.1 50 02:54 09.01.2020
4958 Clouds 26 1019 88 10000 2.1 50 02:24 09.01.2020
4959 Clouds 26 1018 78 10000 3.1 50 01:39 09.01.2020
4960 Clouds 26 1018 78 10000 3.82 12 00:43 09.01.2020
4961 Rain 27 1018 78 10000 3.82 12 00:21 09.01.2020
4962 Rain 27 1018 78 10000 3.82 12 00:21 09.01.2020
4963 Rain 27 1018 78 10000 3.82 12 00:21 09.01.2020
4964 Clouds 28 1017 69 0 2.6 40 23:44 08.01.2020
4965 Clouds 28 1017 69 0 2.6 40 23:25 08.01.2020
4966 Clouds 29 1017 70 10000 5.1 10 22:59 08.01.2020
4967 Clouds 29 1017 70 10000 5.1 10 22:39 08.01.2020
4968 Clouds 29 1017 70 10000 5.1 10 22:39 08.01.2020
4969 Clouds 29 1017 70 10000 5.1 10 22:20 08.01.2020
4970 Clouds 29 1017 66 10000 3.1 360 21:57 08.01.2020
4971 Rain 29 1017 66 10000 3.1 360 21:38 08.01.2020
4972 Rain 29 1017 66 10000 3.1 360 21:20 08.01.2020
4973 Rain 30 1017 59 10000 4.6 60 20:58 08.01.2020
4974 Clouds 30 1017 59 10000 4.6 60 20:38 08.01.2020
4975 Clouds 31 1017 59 10000 4.6 60 20:20 08.01.2020
4976 Clouds 30 1018 62 10000 4.1 40 19:56 08.01.2020
4977 Clouds 30 1018 62 10000 4.1 40 19:56 08.01.2020
4978 Clouds 31 1018 62 10000 4.1 40 19:37 08.01.2020
4979 Clouds 31 1018 62 10000 4.1 40 19:18 08.01.2020
4980 Clouds 30 1018 62 10000 3.1 360 18:55 08.01.2020
4981 Clouds 30 1018 62 10000 3.1 360 18:37 08.01.2020
4982 Clouds 30 1018 62 10000 3.1 360 18:18 08.01.2020
4983 Clouds 30 1019 62 10000 4.1 360 17:45 08.01.2020
4984 Clouds 29 1019 62 10000 4.1 360 17:24 08.01.2020
4985 Clouds 29 1020 66 10000 4.1 360 16:57 08.01.2020
4986 Clouds 29 1020 66 10000 4.1 360 16:39 08.01.2020
4987 Clouds 28 1020 66 10000 4.1 360 16:19 08.01.2020
4988 Clouds 28 1020 66 10000 4.1 360 16:19 08.01.2020
4989 Clouds 27 1020 74 10000 2.6 360 15:57 08.01.2020
4990 Clouds 27 1020 74 10000 2.6 360 15:39 08.01.2020
4991 Clouds 27 1020 74 10000 2.6 360 15:18 08.01.2020
4992 Clouds 25 1020 88 10000 3.56 17 14:55 08.01.2020
4993 Clouds 25 1020 88 10000 3.56 17 14:36 08.01.2020
4994 Clouds 24 1020 88 10000 3.01 336 14:18 08.01.2020
4995 Clouds 22 1018 94 10000 3.01 336 13:38 08.01.2020
4996 Clouds 22 1018 94 10000 3.01 336 13:18 08.01.2020
4997 Clouds 22 1018 100 10000 2.1 20 12:41 08.01.2020
4998 Clouds 20 1018 100 10000 2.1 20 12:18 08.01.2020
4999 Clouds 21 1017 94 10000 2.1 20 11:55 08.01.2020
5000 Clouds 21 1017 94 10000 2.1 20 11:36 08.01.2020
5001 Clouds 21 1017 94 10000 2.1 20 11:18 08.01.2020
5002 Clouds 21 1017 100 10000 2.1 20 10:41 08.01.2020
5003 Clouds 21 1017 100 10000 2.1 20 10:22 08.01.2020
5004 Clouds 21 1017 100 10000 2.1 20 09:58 08.01.2020
5005 Clouds 23 1017 94 10000 2.1 50 09:38 08.01.2020
5006 Clouds 23 1017 94 10000 2.1 50 09:18 08.01.2020
5007 Clouds 23 1017 94 10000 2.1 30 08:42 08.01.2020
5008 Clouds 23 1017 94 10000 2.1 30 08:24 08.01.2020
5009 Clouds 23 1017 94 10000 2.1 30 07:59 08.01.2020
5010 Clouds 23 1018 94 10000 2.1 40 07:41 08.01.2020
5011 Clouds 23 1018 94 10000 2.1 40 07:23 08.01.2020
5012 Clouds 23 1018 94 10000 2.1 40 06:44 08.01.2020
5013 Clouds 23 1018 94 10000 2.1 30 05:57 08.01.2020
5014 Clouds 24 1018 94 10000 2.1 30 05:27 08.01.2020
5015 Clouds 24 1018 88 10000 2.1 60 04:46 08.01.2020
5016 Clouds 25 1018 83 10000 2.1 60 03:32 08.01.2020
5017 Clouds 25 1018 83 10000 2.1 50 02:44 08.01.2020
5018 Clouds 25 1018 83 10000 2.1 50 02:18 08.01.2020
5019 Clouds 25 1018 83 10000 2.1 50 02:18 08.01.2020
5020 Clouds 26 1017 83 10000 2.18 41 01:39 08.01.2020
5021 Clouds 26 1015 83 10000 1.84 15 00:52 08.01.2020
5022 Clouds 26 1015 83 10000 1.84 15 00:24 08.01.2020
5023 Clouds 27 1014 83 10000 1.84 15 23:46 07.01.2020
5024 Clouds 27 1014 83 10000 1.95 87 23:21 07.01.2020
5025 Clouds 27 1014 78 10000 3.1 70 22:57 07.01.2020
5026 Clouds 27 1014 78 10000 3.1 70 22:38 07.01.2020
5027 Clouds 27 1014 78 10000 3.1 70 22:19 07.01.2020
5028 Clouds 28 1014 74 10000 3.1 80 21:42 07.01.2020
5029 Clouds 28 1014 74 10000 3.1 80 21:22 07.01.2020
5030 Clouds 28 1015 74 10000 2.6 80 20:58 07.01.2020
5031 Clouds 28 1015 74 10000 2.6 80 20:40 07.01.2020
5032 Clouds 28 1015 74 10000 2.6 80 20:21 07.01.2020
5033 Clouds 28 1016 70 10000 4.1 60 19:57 07.01.2020
5034 Clouds 29 1016 70 10000 4.1 60 19:37 07.01.2020
5035 Clouds 29 1016 70 10000 4.1 60 19:19 07.01.2020
5036 Clouds 29 1016 70 10000 4.1 360 18:56 07.01.2020
5037 Clouds 29 1016 70 10000 4.1 360 18:38 07.01.2020
5038 Clouds 29 1016 70 10000 4.1 360 18:18 07.01.2020
5039 Clouds 27 1017 74 10000 4.1 360 17:54 07.01.2020
5040 Clouds 27 1017 74 10000 4.1 360 17:36 07.01.2020
5041 Clouds 27 1017 74 10000 4.1 360 17:18 07.01.2020
5042 Clouds 27 1017 78 10000 5.1 360 16:54 07.01.2020
5043 Clouds 27 1017 78 10000 5.1 360 16:36 07.01.2020
5044 Clouds 27 1017 78 10000 5.1 360 16:18 07.01.2020
5045 Clouds 27 1017 78 10000 3.1 360 15:42 07.01.2020
5046 Clouds 26 1017 78 10000 3.1 360 15:23 07.01.2020
5047 Clouds 25 1016 83 10000 4.14 16 14:58 07.01.2020
5048 Clouds 25 1016 83 10000 4.14 16 14:38 07.01.2020
5049 Clouds 25 1016 83 10000 3.35 349 14:19 07.01.2020
5050 Clouds 25 1016 83 10000 3.35 349 14:19 07.01.2020
5051 Clouds 23 1015 94 10000 3.35 349 13:40 07.01.2020
5052 Clouds 23 1016 88 10000 2.1 360 13:20 07.01.2020
5053 Clouds 22 1016 88 10000 2.1 360 12:54 07.01.2020
5054 Clouds 22 1016 88 10000 2.1 360 12:36 07.01.2020
5055 Clouds 22 1016 88 10000 2.1 360 12:18 07.01.2020
5056 Clouds 22 1015 88 10000 2.1 10 11:41 07.01.2020
5057 Clouds 22 1015 88 10000 2.1 10 11:41 07.01.2020
5058 Clouds 22 1015 88 10000 2.1 10 11:21 07.01.2020
5059 Clouds 22 1015 88 10000 2.6 10 10:43 07.01.2020
5060 Clouds 22 1015 88 10000 2.6 10 10:43 07.01.2020
5061 Clouds 22 1015 88 10000 2.6 10 10:24 07.01.2020
5062 Clouds 22 1015 88 10000 2.6 10 09:59 07.01.2020
5063 Clouds 23 1015 88 10000 3.1 360 09:38 07.01.2020
5064 Clouds 23 1015 88 10000 3.1 360 09:20 07.01.2020
5065 Clouds 23 1015 88 10000 2.6 260 08:47 07.01.2020
5066 Clouds 23 1015 88 10000 2.6 260 08:27 07.01.2020
5067 Clouds 23 1015 88 10000 2.1 360 07:55 07.01.2020
5068 Clouds 23 1015 88 10000 2.1 360 07:34 07.01.2020
5069 Clouds 23 1016 94 10000 2.1 10 06:54 07.01.2020
5070 Clouds 23 1016 94 10000 2.1 10 06:54 07.01.2020
5071 Clouds 23 1016 94 10000 2.1 10 06:35 07.01.2020
5072 Clouds 23 1016 83 10000 2.1 20 05:57 07.01.2020
5073 Clouds 23 1016 83 10000 2.1 20 05:35 07.01.2020
5074 Clouds 23 1016 88 10000 2.1 20 03:29 07.01.2020
5075 Clouds 25 1016 78 10000 3.1 40 02:24 07.01.2020
5076 Clouds 25 1016 73 10000 3.6 30 01:57 07.01.2020
5077 Clouds 26 1016 73 10000 3.6 30 01:32 07.01.2020
5078 Clouds 27 1014 74 10000 3.1 360 00:37 07.01.2020
5079 Clouds 27 1014 74 10000 3.1 360 00:19 07.01.2020
5080 Clouds 28 1014 65 10000 5.7 360 23:55 06.01.2020
5081 Clouds 28 1014 65 10000 5.7 360 23:36 06.01.2020
5082 Clouds 28 1014 65 10000 5.7 360 23:36 06.01.2020
5083 Clouds 28 1014 65 10000 5.7 360 23:18 06.01.2020
5084 Clouds 29 1014 58 10000 7.2 360 22:42 06.01.2020
5085 Clouds 29 1014 58 10000 7.2 360 22:22 06.01.2020
5086 Clouds 29 1014 55 10000 6.2 360 21:56 06.01.2020
5087 Clouds 30 1014 55 10000 6.2 360 21:38 06.01.2020
5088 Clouds 30 1014 55 10000 6.2 360 21:20 06.01.2020
5089 Clouds 30 1015 52 10000 6.7 360 20:56 06.01.2020
5090 Clouds 30 1015 52 10000 6.7 360 20:37 06.01.2020
5091 Clouds 30 1015 52 10000 6.7 360 20:19 06.01.2020
5092 Clouds 31 1016 55 10000 5.7 360 19:55 06.01.2020
5093 Clouds 30 1016 55 10000 5.7 360 19:37 06.01.2020
5094 Clouds 30 1016 55 10000 5.7 360 19:19 06.01.2020
5095 Clouds 29 1017 58 10000 6.2 360 18:45 06.01.2020
5096 Clouds 29 1017 58 10000 6.2 360 18:21 06.01.2020
5097 Clouds 29 1017 66 10000 6.2 360 17:56 06.01.2020
5098 Clouds 28 1017 66 10000 6.2 360 17:37 06.01.2020
5099 Clouds 28 1017 66 10000 6.2 360 17:18 06.01.2020
5100 Clouds 28 1018 69 10000 6.2 360 16:42 06.01.2020
5101 Clouds 28 1018 69 10000 6.2 360 16:42 06.01.2020
5102 Clouds 27 1018 69 10000 6.2 360 16:23 06.01.2020
5103 Clouds 27 1018 69 10000 6.2 360 15:59 06.01.2020
5104 Clouds 26 1017 78 10000 5.1 360 15:38 06.01.2020
5105 Clouds 25 1017 78 10000 5.1 360 15:18 06.01.2020
5106 Clouds 23 1017 83 10000 3.1 350 14:42 06.01.2020
5107 Clouds 23 1017 83 10000 3.1 350 14:23 06.01.2020
5108 Clouds 23 1017 83 10000 3.1 350 14:23 06.01.2020
5109 Clouds 23 1017 83 10000 3.1 350 13:59 06.01.2020
5110 Clouds 22 1016 94 10000 4.2 339 13:40 06.01.2020
5111 Clouds 21 1016 94 10000 4.04 340 13:21 06.01.2020
5112 Clouds 21 1015 94 10000 2.6 350 12:58 06.01.2020
5113 Clouds 21 1015 94 10000 2.6 350 12:39 06.01.2020
5114 Clouds 21 1015 94 10000 2.6 350 12:39 06.01.2020
5115 Clouds 21 1015 94 10000 2.6 350 12:19 06.01.2020
5116 Clouds 21 1015 100 10000 2.1 360 11:43 06.01.2020
5117 Clouds 21 1015 100 10000 2.1 360 11:24 06.01.2020
5118 Clouds 21 1015 100 10000 2.1 360 10:59 06.01.2020
5119 Clouds 22 1015 94 10000 2.1 30 10:41 06.01.2020
5120 Clouds 22 1015 94 10000 2.1 30 10:21 06.01.2020
5121 Clouds 23 1015 94 10000 1.5 360 09:42 06.01.2020
5122 Clouds 23 1015 94 10000 1.5 360 09:23 06.01.2020
5123 Clouds 22 1015 94 10000 1.5 340 08:55 06.01.2020
5124 Clouds 22 1015 94 10000 1.5 340 08:37 06.01.2020
5125 Clouds 23 1015 94 10000 1.5 340 07:58 06.01.2020
5126 Clouds 23 1016 88 10000 2.1 360 07:39 06.01.2020
5127 Clouds 23 1016 94 10000 1.5 20 06:51 06.01.2020
5128 Clouds 23 1016 94 10000 1.5 20 06:32 06.01.2020
5129 Clouds 24 1017 88 10000 2.1 30 05:48 06.01.2020
5130 Clouds 24 1017 88 10000 2.1 30 04:58 06.01.2020
5131 Clouds 24 1017 88 10000 2.1 30 04:22 06.01.2020
5132 Clouds 24 1016 94 10000 2.1 30 03:26 06.01.2020
5133 Clouds 25 1016 83 10000 2.1 20 02:26 06.01.2020
5134 Clouds 25 1015 78 10000 3.6 40 01:49 06.01.2020
5135 Clouds 26 1015 78 10000 3.6 40 01:29 06.01.2020
5136 Clouds 26 1014 74 10000 3.1 20 00:44 06.01.2020
5137 Clouds 27 1014 74 10000 3.1 20 00:24 06.01.2020
5138 Clouds 29 1014 66 10000 5.1 60 23:57 05.01.2020
5139 Clouds 30 1014 66 10000 5.1 60 23:37 05.01.2020
5140 Clouds 29 1014 66 10000 5.1 60 23:19 05.01.2020
5141 Clouds 30 1014 62 10000 5.1 30 22:40 05.01.2020
5142 Clouds 30 1014 62 10000 5.1 30 22:20 05.01.2020
5143 Clouds 30 1014 62 10000 5.1 360 21:56 05.01.2020
5144 Clouds 30 1014 62 10000 5.1 360 21:38 05.01.2020
5145 Clouds 30 1014 62 10000 5.1 360 21:20 05.01.2020
5146 Clouds 31 1014 55 10000 6.2 30 20:56 05.01.2020
5147 Clouds 31 1014 55 10000 6.2 30 20:37 05.01.2020
5148 Clouds 30 1014 55 10000 6.2 30 20:19 05.01.2020
5149 Clouds 31 1016 55 10000 5.1 360 19:56 05.01.2020
5150 Clouds 30 1016 55 10000 5.1 360 19:37 05.01.2020
5151 Clouds 30 1016 55 10000 5.1 360 19:19 05.01.2020
5152 Clouds 30 1017 70 10000 3.1 360 18:54 05.01.2020
5153 Clouds 30 1017 70 10000 3.1 360 18:36 05.01.2020
5154 Clouds 30 1017 70 10000 3.1 360 18:18 05.01.2020
5155 Clouds 30 1019 62 10000 6.7 360 17:55 05.01.2020
5156 Clouds 30 1019 62 10000 6.7 360 17:55 05.01.2020
5157 Clouds 30 1019 62 10000 6.7 360 17:37 05.01.2020
5158 Clouds 29 1019 62 10000 6.7 360 17:18 05.01.2020
5159 Clouds 28 1020 66 10000 5.1 10 16:54 05.01.2020
5160 Clouds 28 1020 66 10000 5.1 10 16:36 05.01.2020
5161 Clouds 28 1020 66 10000 5.1 10 16:18 05.01.2020
5162 Clouds 27 1020 78 10000 5.1 360 15:36 05.01.2020
5163 Clouds 27 1020 78 10000 5.1 360 15:18 05.01.2020
5164 Clouds 24 1020 83 10000 2.1 360 14:54 05.01.2020
5165 Clouds 24 1020 83 10000 2.1 360 14:36 05.01.2020
5166 Clouds 24 1020 83 10000 2.1 360 14:18 05.01.2020
5167 Clouds 22 1019 94 10000 3.45 342 13:39 05.01.2020
5168 Clouds 22 1019 94 10000 3.6 342 13:21 05.01.2020
5169 Clouds 22 1017 94 10000 2.6 360 12:57 05.01.2020
5170 Clouds 22 1017 94 10000 2.6 360 12:57 05.01.2020
5171 Clouds 22 1017 94 10000 2.6 360 12:57 05.01.2020
5172 Clouds 22 1017 94 10000 2.6 360 12:39 05.01.2020
5173 Clouds 22 1017 94 10000 2.6 360 12:39 05.01.2020
5174 Clouds 22 1017 94 10000 2.6 360 12:39 05.01.2020
5175 Clouds 22 1017 94 10000 2.6 360 12:21 05.01.2020
5176 Clouds 22 1017 94 10000 2.6 360 12:21 05.01.2020
5177 Clouds 22 1017 94 10000 2.6 360 11:55 05.01.2020
5178 Clouds 22 1017 94 10000 2.6 360 11:37 05.01.2020
5179 Clouds 22 1017 94 10000 2.6 360 11:19 05.01.2020
5180 Clouds 22 1017 94 10000 2.6 360 11:19 05.01.2020
5181 Clouds 22 1017 94 10000 2.6 360 11:19 05.01.2020
5182 Clouds 22 1017 94 10000 2.1 360 10:42 05.01.2020
5183 Clouds 22 1017 94 10000 2.1 360 10:20 05.01.2020
5184 Clouds 23 1017 94 10000 2.1 360 09:59 05.01.2020
5185 Clouds 23 1017 94 10000 2.1 360 09:41 05.01.2020
5186 Clouds 23 1017 94 10000 2.1 360 09:41 05.01.2020
5187 Clouds 23 1017 94 10000 2.1 360 09:41 05.01.2020
5188 Clouds 23 1017 94 10000 2.1 360 09:21 05.01.2020
5189 Clouds 23 1017 94 10000 2.1 360 08:45 05.01.2020
5190 Clouds 23 1017 94 10000 2.1 360 08:26 05.01.2020
5191 Clouds 23 1017 94 10000 2.1 40 07:55 05.01.2020
5192 Clouds 23 1017 94 10000 2.1 40 07:32 05.01.2020
5193 Clouds 23 1018 94 10000 2.1 10 06:57 05.01.2020
5194 Clouds 24 1018 94 10000 2.1 10 05:53 05.01.2020
5195 Clouds 24 1018 94 10000 2.1 10 05:28 05.01.2020
5196 Clouds 24 1019 94 10000 2.1 30 04:24 05.01.2020
5197 Clouds 24 1019 94 10000 2.6 30 03:47 05.01.2020
5198 Clouds 24 1018 94 10000 4.1 50 02:43 05.01.2020
5199 Clouds 25 1018 94 10000 4.1 50 02:20 05.01.2020
5200 Clouds 25 1018 88 10000 4.1 50 01:39 05.01.2020
5201 Clouds 25 1018 88 10000 4.1 50 01:18 05.01.2020
5202 Clouds 26 1017 83 10000 3.61 39 00:40 05.01.2020
5203 Clouds 26 1017 83 10000 3.61 39 00:21 05.01.2020
5204 Clouds 26 1017 83 10000 3.61 39 23:59 04.01.2020
5205 Clouds 27 1017 78 10000 4.1 90 23:39 04.01.2020
5206 Clouds 27 1017 78 10000 4.1 90 23:18 04.01.2020
5207 Clouds 28 1016 74 10000 5.1 160 22:39 04.01.2020
5208 Clouds 28 1016 74 10000 5.1 160 22:39 04.01.2020
5209 Clouds 29 1016 74 10000 5.1 160 22:21 04.01.2020
5210 Clouds 29 1016 74 10000 5.1 90 21:57 04.01.2020
5211 Clouds 29 1016 74 10000 5.1 90 21:38 04.01.2020
5212 Clouds 29 1016 74 10000 5.1 90 21:19 04.01.2020
5213 Clouds 30 1016 66 10000 5.1 90 20:56 04.01.2020
5214 Clouds 30 1016 66 10000 5.1 90 20:37 04.01.2020
5215 Clouds 30 1016 66 10000 5.1 90 20:19 04.01.2020
5216 Clouds 30 1017 70 10000 5.1 60 19:42 04.01.2020
5217 Clouds 30 1017 70 10000 5.1 60 19:42 04.01.2020
5218 Clouds 30 1017 70 10000 5.1 60 19:23 04.01.2020
5219 Clouds 30 1018 70 10000 4.1 360 18:58 04.01.2020
5220 Clouds 31 1018 70 10000 4.1 360 18:39 04.01.2020
5221 Clouds 30 1018 70 10000 4.1 360 18:20 04.01.2020
5222 Clouds 30 1019 74 10000 5.1 360 17:58 04.01.2020
5223 Clouds 30 1019 74 10000 5.1 360 17:40 04.01.2020
5224 Clouds 30 1019 74 10000 5.1 360 17:21 04.01.2020
5225 Clouds 29 1020 66 10000 3.1 60 16:42 04.01.2020
5226 Clouds 28 1020 66 10000 3.1 60 16:24 04.01.2020
5227 Clouds 28 1020 66 10000 3.1 60 16:24 04.01.2020
5228 Clouds 28 1020 78 10000 5.1 360 15:57 04.01.2020
5229 Clouds 28 1020 78 10000 5.1 360 15:57 04.01.2020
5230 Clouds 27 1020 78 10000 5.1 360 15:39 04.01.2020
5231 Clouds 27 1020 78 10000 5.1 360 15:39 04.01.2020
5232 Clouds 27 1020 78 10000 5.1 360 15:19 04.01.2020
5233 Clouds 26 1019 88 10000 4.1 360 14:57 04.01.2020
5234 Clouds 25 1019 88 10000 4.1 360 14:39 04.01.2020
5235 Clouds 25 1019 88 10000 4.1 360 14:19 04.01.2020
5236 Clouds 25 1019 88 10000 4.1 360 14:19 04.01.2020
5237 Clouds 24 1019 88 10000 3.03 345 13:55 04.01.2020
5238 Clouds 24 1019 88 10000 3.03 345 13:36 04.01.2020
5239 -273 0 0 0 0 0 13:18 04.01.2020
5240 Clouds 23 1019 87 10000 2.1 30 12:41 04.01.2020
5241 Clear 22 1020 87 0 3.08 348 12:20 04.01.2020
5242 Clear 22 1020 87 0 3.08 348 11:58 04.01.2020
5243 Clouds 22 1018 94 10000 2.1 30 11:39 04.01.2020
5244 Clouds 22 1018 94 10000 2.1 30 11:39 04.01.2020
5245 Clouds 22 1018 94 10000 2.1 30 11:19 04.01.2020
5246 Clouds 23 1016 94 10000 2.1 30 10:42 04.01.2020
5247 Clouds 23 1016 94 10000 2.1 30 10:23 04.01.2020
5248 Clouds 23 1016 94 10000 2.1 30 10:23 04.01.2020
5249 Clouds 23 1016 94 10000 2.1 30 09:59 04.01.2020
5250 Clouds 24 1018 100 10000 2.1 360 09:41 04.01.2020
5251 Clouds 24 1018 100 10000 2.1 360 09:21 04.01.2020
5252 Clouds 24 1018 88 10000 2.1 20 08:41 04.01.2020
5253 Clouds 24 1018 88 10000 2.1 20 08:21 04.01.2020
5254 Clouds 24 1019 88 10000 2.1 40 07:44 04.01.2020
5255 Clouds 25 1019 88 10000 2.1 40 07:20 04.01.2020
5256 Clouds 25 1019 88 10000 2.1 30 06:33 04.01.2020
5257 Clouds 25 1020 88 10000 2.1 40 05:22 04.01.2020
5258 Clouds 25 1020 78 10000 2.1 40 04:42 04.01.2020
5259 Clouds 25 1020 78 10000 2.1 40 04:24 04.01.2020
5260 Clouds 25 1020 78 10000 2.1 40 03:18 04.01.2020
5261 Clouds 26 1019 74 10000 2.1 40 02:22 04.01.2020
5262 Clouds 26 1019 74 10000 2.1 50 01:55 04.01.2020
5263 Clouds 26 1019 74 10000 2.1 50 01:32 04.01.2020
5264 Clouds 27 1016 83 10000 3.73 15 00:46 04.01.2020
5265 Clouds 27 1016 83 10000 3.73 15 00:26 04.01.2020
5266 Clouds 28 1015 74 10000 4.1 60 23:48 03.01.2020
5267 Clouds 28 1015 74 10000 4.1 60 23:25 03.01.2020
5268 Clouds 29 1015 70 10000 5.1 360 22:54 03.01.2020
5269 Clouds 29 1015 70 10000 5.1 360 22:36 03.01.2020
5270 Clouds 29 1015 70 10000 5.1 360 22:18 03.01.2020
5271 Clouds 29 1015 70 10000 5.1 60 21:54 03.01.2020
5272 Clouds 29 1015 70 10000 5.1 60 21:36 03.01.2020
5273 Clouds 29 1015 70 10000 5.1 60 21:18 03.01.2020
5274 Clouds 30 1015 66 10000 6.2 40 20:42 03.01.2020
5275 Clouds 30 1015 66 10000 6.2 40 20:19 03.01.2020
5276 Clouds 31 1015 58 10000 7.2 360 19:57 03.01.2020
5277 Clouds 30 1015 58 10000 7.2 360 19:39 03.01.2020
5278 Clouds 31 1015 58 10000 7.2 360 19:21 03.01.2020
5279 Clouds 30 1016 62 10000 6.2 360 18:44 03.01.2020
5280 Clouds 30 1016 62 10000 6.2 360 18:44 03.01.2020
5281 Clouds 30 1016 62 10000 6.2 360 18:26 03.01.2020
5282 Clouds 30 1017 66 10000 7.2 360 17:56 03.01.2020
5283 Clouds 29 1017 66 10000 7.2 360 17:38 03.01.2020
5284 Clouds 29 1017 66 10000 7.2 360 17:19 03.01.2020
5285 Clouds 29 1018 74 10000 7.2 360 16:42 03.01.2020
5286 Clouds 28 1018 74 10000 7.2 360 16:24 03.01.2020
5287 Clouds 27 1017 83 10000 5.1 360 15:58 03.01.2020
5288 Clouds 27 1017 83 10000 5.1 360 15:39 03.01.2020
5289 Clouds 27 1017 83 10000 5.1 360 15:18 03.01.2020
5290 Clouds 25 1016 88 10000 2.6 360 14:39 03.01.2020
5291 Clouds 25 1016 88 10000 2.6 360 14:19 03.01.2020
5292 Clouds 22 1016 94 10000 4.05 343 13:44 03.01.2020
5293 Clouds 22 1016 94 10000 4.17 344 13:24 03.01.2020
5294 Clouds 22 1016 94 10000 4.17 344 13:00 03.01.2020
5295 Clouds 21 1017 100 10000 2.1 20 12:39 03.01.2020
5296 Clouds 21 1017 100 10000 2.1 20 12:21 03.01.2020
5297 Clouds 22 1017 94 10000 2.1 360 11:47 03.01.2020
5298 Clouds 22 1017 94 10000 2.1 360 11:23 03.01.2020
5299 Clouds 22 1017 100 10000 2.1 20 10:47 03.01.2020
5300 Clouds 22 1017 100 10000 2.1 20 10:27 03.01.2020
5301 Clouds 22 1016 100 10000 2.1 360 09:58 03.01.2020
5302 Clouds 22 1016 100 10000 2.1 360 09:40 03.01.2020
5303 Clouds 23 1016 100 10000 2.1 360 09:22 03.01.2020
5304 Clouds 23 1016 94 10000 2.1 360 08:57 03.01.2020
5305 Clouds 23 1016 94 10000 2.1 360 08:38 03.01.2020
5306 Clouds 23 1016 94 10000 2.1 360 08:19 03.01.2020
5307 Clouds 23 1017 94 10000 3.49 351 07:40 03.01.2020
5308 Clouds 23 1017 94 10000 3.49 351 07:19 03.01.2020
5309 Clouds 23 1018 94 10000 3.49 351 06:50 03.01.2020
5310 Clouds 23 1018 94 10000 3.49 351 06:32 03.01.2020
5311 Clouds 23 1018 100 10000 2.1 20 05:46 03.01.2020
5312 Clouds 24 1018 94 10000 2.1 30 04:24 03.01.2020
5313 Clouds 24 1018 94 10000 2.1 40 02:57 03.01.2020
5314 Clouds 24 1018 94 10000 2.1 40 02:33 03.01.2020
5315 Clouds 25 1017 88 10000 2.1 40 01:44 03.01.2020
5316 Clouds 27 1015 74 10000 3.74 23 00:50 03.01.2020
5317 Clouds 27 1015 74 10000 3.74 23 00:31 03.01.2020
5318 Clouds 28 1015 70 10000 2.6 360 23:56 02.01.2020
5319 Clouds 28 1015 70 10000 2.6 360 23:38 02.01.2020
5320 Clouds 28 1015 70 10000 2.6 360 23:19 02.01.2020
5321 Clouds 29 1014 66 10000 4.1 360 22:57 02.01.2020
5322 Clouds 29 1014 66 10000 4.1 360 22:38 02.01.2020
5323 Clouds 29 1014 66 10000 4.1 360 22:18 02.01.2020
5324 Clouds 30 1013 66 10000 5.1 360 21:41 02.01.2020
5325 Clouds 30 1013 66 10000 5.1 360 21:23 02.01.2020
5326 Clouds 30 1013 66 10000 5.1 360 20:59 02.01.2020
5327 Clouds 30 1014 66 10000 6.2 40 20:39 02.01.2020
5328 Clouds 30 1014 66 10000 6.2 40 20:21 02.01.2020
5329 Rain 30 1015 66 8000 5.1 40 19:55 02.01.2020
5330 Rain 30 1015 66 8000 5.1 40 19:55 02.01.2020
5331 Rain 30 1015 66 8000 5.1 40 19:37 02.01.2020
5332 Rain 30 1015 66 8000 5.1 40 19:19 02.01.2020
5333 Clouds 30 1017 66 10000 5.1 360 18:57 02.01.2020
5334 Clouds 30 1017 66 10000 5.1 360 18:38 02.01.2020
5335 Clouds 30 1017 66 10000 5.1 360 18:20 02.01.2020
5336 Clouds 29 1018 66 10000 5.1 360 17:56 02.01.2020
5337 Clouds 29 1018 66 10000 5.1 360 17:37 02.01.2020
5338 Clouds 29 1018 66 10000 5.1 360 17:18 02.01.2020
5339 Clouds 29 1019 74 10000 5.1 40 16:56 02.01.2020
5340 Clouds 29 1019 74 10000 5.1 40 16:38 02.01.2020
5341 Clouds 29 1019 74 10000 5.1 40 16:19 02.01.2020
5342 Clouds 27 1018 78 10000 4.1 10 15:44 02.01.2020
5343 Clouds 27 1018 78 10000 4.1 10 15:24 02.01.2020
5344 Clouds 26 1016 83 10000 3.71 33 14:58 02.01.2020
5345 Clouds 25 1016 83 10000 3.71 33 14:38 02.01.2020
5346 Clouds 25 1016 83 10000 3.03 350 14:20 02.01.2020
5347 Clouds 23 1015 94 10000 3.03 350 13:58 02.01.2020
5348 Clouds 23 1015 94 10000 3.17 351 13:39 02.01.2020
5349 Clouds 23 1015 94 10000 3.17 351 13:18 02.01.2020
5350 Clouds 22 1015 100 10000 2.1 10 12:42 02.01.2020
5351 Clouds 22 1014 100 10000 2.1 30 12:21 02.01.2020
5352 Clouds 22 1014 100 10000 2.1 30 11:42 02.01.2020
5353 Clouds 22 1014 100 10000 2.1 30 11:22 02.01.2020
5354 Clear 22 1015 93 0 3.13 352 10:46 02.01.2020
5355 Clouds 23 1014 94 10000 3.13 352 10:28 02.01.2020
5356 Clouds 24 1014 94 10000 3.13 352 09:58 02.01.2020
5357 Clouds 24 1014 94 10000 3.13 352 09:35 02.01.2020
5358 Clouds 23 1014 94 10000 2.1 30 08:59 02.01.2020
5359 Clouds 23 1014 94 10000 2.1 30 08:39 02.01.2020
5360 Clouds 24 1014 94 10000 2.1 30 08:19 02.01.2020
5361 Clouds 23 1015 94 10000 3.28 351 07:47 02.01.2020
5362 Clouds 23 1015 94 10000 3.28 351 07:26 02.01.2020
5363 Clouds 23 1016 100 10000 3.28 351 06:41 02.01.2020
5364 Clouds 23 1016 100 10000 3.28 351 06:41 02.01.2020
5365 Clouds 24 1016 100 10000 3.28 351 05:40 02.01.2020
5366 Clouds 25 1016 100 10000 2.1 40 04:34 02.01.2020
5367 Clouds 25 1016 100 10000 2.1 40 03:29 02.01.2020
5368 Clouds 25 1016 100 10000 2.1 40 03:29 02.01.2020
5369 Clouds 26 1015 94 10000 2.1 50 02:21 02.01.2020
5370 Clouds 26 1014 94 10000 2.1 50 01:49 02.01.2020
5371 Clouds 26 1014 94 10000 2.1 50 01:25 02.01.2020
5372 Clouds 25 1014 88 10000 2.7 23 00:38 02.01.2020
5373 Clouds 26 1014 88 10000 2.7 23 00:20 02.01.2020
5374 Clouds 27 1014 88 10000 2.7 23 23:42 01.01.2020
5375 Clouds 27 1014 88 10000 3.09 81 23:21 01.01.2020
5376 Clouds 27 1013 88 10000 2.1 120 22:39 01.01.2020
5377 Clouds 26 1013 88 10000 2.1 120 22:20 01.01.2020
5378 Clouds 29 1013 74 0 6.2 60 21:58 01.01.2020
5379 Clouds 29 1013 74 0 6.2 60 21:39 01.01.2020
5380 Clouds 29 1013 74 0 6.2 60 21:20 01.01.2020
5381 Clouds 30 1013 62 10000 2.6 350 20:56 01.01.2020
5382 Clouds 30 1013 62 10000 2.6 350 20:38 01.01.2020
5383 Clouds 31 1013 62 10000 2.6 350 20:19 01.01.2020
5384 Clouds 31 1013 62 10000 2.6 350 20:19 01.01.2020
5385 Clouds 31 1013 70 10000 2.5 58 19:55 01.01.2020
5386 Clouds 31 1013 70 10000 2.5 58 19:37 01.01.2020
5387 Clouds 31 1013 70 10000 2.5 58 19:19 01.01.2020
5388 Clouds 31 1015 66 10000 2.6 360 18:56 01.01.2020
5389 Clouds 30 1015 66 10000 2.6 360 18:36 01.01.2020
5390 Clouds 30 1015 66 10000 2.6 360 18:18 01.01.2020
5391 Clouds 30 1016 70 10000 3.1 80 17:56 01.01.2020
5392 Clouds 30 1016 70 10000 3.1 80 17:56 01.01.2020
5393 Clouds 30 1016 70 10000 3.1 80 17:38 01.01.2020
5394 Clouds 30 1016 70 10000 3.1 80 17:19 01.01.2020
5395 Clouds 29 1017 70 10000 3.6 20 16:42 01.01.2020
5396 Clouds 29 1017 70 10000 3.6 20 16:23 01.01.2020
5397 Clouds 28 1016 83 10000 2.1 60 15:58 01.01.2020
5398 Clouds 27 1016 83 10000 2.1 60 15:40 01.01.2020
5399 Clouds 26 1016 83 10000 2.1 60 15:21 01.01.2020
5400 Clouds 25 1016 83 10000 3.51 26 14:59 01.01.2020
5401 Clouds 25 1016 83 10000 3.51 26 14:40 01.01.2020
5402 Clouds 25 1016 83 10000 2.8 349 14:21 01.01.2020
5403 Clouds 23 1015 94 10000 2.8 349 13:56 01.01.2020
5404 Clouds 23 1015 94 10000 2.8 349 13:37 01.01.2020
5405 Clouds 23 1015 94 10000 2.8 349 13:37 01.01.2020
5406 Clouds 23 1015 94 10000 2.8 349 13:18 01.01.2020
5407 Clouds 23 1014 100 10000 2.1 360 12:56 01.01.2020
5408 Clouds 23 1014 100 10000 2.1 360 12:56 01.01.2020
5409 Clouds 22 1014 100 10000 2.1 360 12:38 01.01.2020
5410 Clouds 22 1014 100 10000 2.1 360 12:19 01.01.2020
5411 Clouds 22 1014 100 10000 2.1 20 11:43 01.01.2020
5412 Clouds 22 1014 100 10000 2.1 20 11:23 01.01.2020
5413 Clouds 22 1014 100 10000 2.1 20 10:59 01.01.2020
5414 Clouds 22 1014 100 10000 2.1 20 10:41 01.01.2020
5415 Clouds 22 1014 100 10000 2.1 20 10:21 01.01.2020
5416 Clouds 23 1014 94 10000 2.96 345 09:57 01.01.2020
5417 Clouds 23 1014 94 10000 2.96 345 09:37 01.01.2020
5418 Clouds 23 1014 94 10000 2.96 345 09:18 01.01.2020
5419 Clouds 23 1014 94 10000 2.96 345 08:55 01.01.2020
5420 Clouds 23 1014 94 10000 2.96 345 08:36 01.01.2020
5421 Clouds 23 1014 94 10000 2.96 345 08:36 01.01.2020
5422 Clouds 23 1015 94 10000 3.26 341 08:18 01.01.2020
5423 Clouds 23 1015 94 10000 3.26 341 07:51 01.01.2020
5424 Clouds 23 1015 94 10000 3.26 341 07:32 01.01.2020
5425 Clouds 23 1015 100 10000 1.5 350 06:44 01.01.2020
5426 Clouds 23 1015 100 10000 1.5 350 06:20 01.01.2020
5427 Clouds 24 1015 94 10000 1.5 40 05:21 01.01.2020
5428 Clouds 25 1015 94 10000 2.1 50 03:43 01.01.2020
5429 Clouds 25 1015 94 10000 2.1 50 03:22 01.01.2020
5430 Clouds 25 1015 94 10000 2.6 50 02:55 01.01.2020
5431 Clouds 25 1015 94 10000 2.6 50 02:32 01.01.2020
5432 Clouds 26 1014 88 10000 1.5 20 01:45 01.01.2020
5433 Clouds 26 1014 88 10000 1.5 20 01:24 01.01.2020
5434 Clouds 26 1014 83 0 3.05 18 00:57 01.01.2020
5435 Clouds 26 1014 83 0 3.05 18 00:37 01.01.2020
5436 Clouds 26 1014 83 0 3.05 18 00:19 01.01.2020
5437 Clouds 27 1014 78 10000 3.05 18 23:40 31.12.2019
5438 Clouds 27 1014 78 10000 2.02 66 23:21 31.12.2019
5439 Clouds 27 1013 66 10000 2.02 66 22:57 31.12.2019
5440 Clouds 27 1013 66 10000 2.02 66 22:38 31.12.2019
5441 Clouds 27 1013 66 10000 2.02 66 22:18 31.12.2019
5442 Clouds 28 1014 66 10000 2.1 350 21:54 31.12.2019
5443 Clouds 28 1014 66 10000 2.1 350 21:36 31.12.2019
5444 Clouds 29 1014 66 10000 2.1 350 21:18 31.12.2019
5445 Clouds 31 1014 62 10000 2.1 110 20:40 31.12.2019
5446 Clouds 31 1014 62 10000 2.1 110 20:21 31.12.2019
5447 Clouds 31 1014 62 10000 2.1 110 19:59 31.12.2019
5448 Clouds 31 1015 62 10000 2.1 70 19:40 31.12.2019
5449 Clouds 31 1015 62 10000 2.1 70 19:22 31.12.2019
5450 Clouds 31 1016 62 10000 2.1 90 18:57 31.12.2019
5451 Clouds 31 1016 62 10000 2.1 90 18:39 31.12.2019
5452 Clouds 31 1016 62 10000 2.1 90 18:19 31.12.2019
5453 Clouds 30 1017 66 10000 2.1 30 17:56 31.12.2019
5454 Clouds 30 1017 66 10000 2.1 30 17:37 31.12.2019
5455 Clouds 30 1017 66 10000 2.1 30 17:19 31.12.2019
5456 Clouds 29 1017 66 10000 3.1 340 16:56 31.12.2019
5457 Clouds 29 1017 66 10000 3.1 340 16:37 31.12.2019
5458 Clouds 29 1017 66 10000 3.1 340 16:19 31.12.2019
5459 Clouds 28 1016 74 10000 4.1 360 15:56 31.12.2019
5460 Clouds 28 1016 74 10000 4.1 360 15:38 31.12.2019
5461 Clouds 28 1016 74 10000 4.1 360 15:38 31.12.2019
5462 Clouds 27 1016 74 10000 4.1 360 15:20 31.12.2019
5463 Clouds 26 1016 83 10000 3.1 360 14:56 31.12.2019
5464 Clouds 26 1016 83 10000 3.1 360 14:37 31.12.2019
5465 Clouds 25 1016 83 10000 3.1 360 14:19 31.12.2019
5466 Clouds 24 1015 94 10000 2.3 346 13:56 31.12.2019
5467 Clouds 24 1015 94 10000 2.3 346 13:38 31.12.2019
5468 Clouds 24 1015 94 10000 2.3 346 13:38 31.12.2019
5469 Clouds 23 1015 94 10000 2.32 347 13:20 31.12.2019
5470 Clouds 22 1014 100 10000 1.5 350 12:55 31.12.2019
5471 Clouds 22 1014 100 10000 1.5 350 12:37 31.12.2019
5472 Clouds 22 1014 100 10000 1.5 350 12:19 31.12.2019
5473 Clouds 22 1013 100 10000 2.1 40 11:55 31.12.2019
5474 Clouds 22 1013 100 10000 2.1 40 11:37 31.12.2019
5475 Clouds 22 1013 100 10000 2.1 10 11:19 31.12.2019
5476 Clouds 22 1013 100 10000 2.1 10 10:55 31.12.2019
5477 Clouds 22 1013 100 10000 2.1 10 10:37 31.12.2019
5478 Clouds 22 1013 100 10000 2.1 10 10:19 31.12.2019
5479 Clouds 23 1013 94 10000 2.6 360 09:56 31.12.2019
5480 Clouds 23 1013 94 10000 2.6 360 09:38 31.12.2019
5481 Clouds 23 1013 94 10000 2.6 360 09:18 31.12.2019
5482 Clouds 23 1013 94 10000 2.6 360 09:18 31.12.2019
5483 Clouds 23 1014 94 10000 2.1 10 08:42 31.12.2019
5484 Clouds 23 1014 94 10000 2.1 10 08:42 31.12.2019
5485 Clouds 23 1014 94 10000 2.1 10 08:22 31.12.2019
5486 Clouds 23 1014 94 10000 2.1 20 07:56 31.12.2019
5487 Clouds 23 1014 94 10000 2.1 20 07:37 31.12.2019
5488 Clouds 23 1014 94 10000 2.1 20 07:18 31.12.2019
5489 Clouds 23 1015 100 10000 1 360 06:29 31.12.2019
5490 Clouds 24 1015 94 10000 1 30 04:58 31.12.2019
5491 Clouds 24 1015 94 10000 1 30 04:25 31.12.2019
5492 Clouds 24 1014 100 10000 2.6 40 02:58 31.12.2019
5493 Clouds 24 1014 100 10000 2.6 40 02:21 31.12.2019
5494 Clouds 25 1013 94 10000 3.1 30 01:51 31.12.2019
5495 Clouds 25 1013 94 10000 3.1 30 01:32 31.12.2019
5496 Rain 25 1013 94 8000 2.57 28 00:49 31.12.2019
5497 Rain 24 1013 94 8000 2.57 28 00:26 31.12.2019
5498 Rain 25 1013 94 8000 2.57 28 23:59 30.12.2019
5499 Rain 26 1013 94 8000 4.1 30 23:41 30.12.2019
5500 Rain 26 1013 94 8000 4.1 30 23:23 30.12.2019
5501 Rain 27 1012 83 8000 4.1 30 22:59 30.12.2019
5502 Rain 27 1012 83 8000 4.1 30 22:41 30.12.2019
5503 Rain 27 1012 83 8000 4.1 30 22:22 30.12.2019
5504 Rain 27 1012 88 7000 5.1 30 21:57 30.12.2019
5505 Rain 27 1012 88 7000 5.1 30 21:39 30.12.2019
5506 Rain 27 1012 88 7000 5.1 30 21:39 30.12.2019
5507 Rain 27 1012 88 7000 5.1 30 21:20 30.12.2019
5508 Rain 27 1012 88 7000 5.1 30 20:59 30.12.2019
5509 Rain 28 1012 79 8000 5.1 60 20:41 30.12.2019
5510 Rain 28 1012 79 8000 5.1 60 20:20 30.12.2019
5511 Rain 28 1012 79 8000 5.1 60 19:59 30.12.2019
5512 Clouds 30 1013 66 10000 2.45 64 19:40 30.12.2019
5513 Clouds 30 1013 66 10000 2.45 64 19:20 30.12.2019
5514 Clouds 30 1013 66 10000 2.45 64 18:59 30.12.2019
5515 Clouds 30 1015 74 10000 2.45 64 18:41 30.12.2019
5516 Clouds 30 1015 74 10000 2.45 64 18:20 30.12.2019
5517 Clouds 30 1015 74 10000 4.1 360 17:58 30.12.2019
5518 Clouds 30 1015 74 10000 4.1 360 17:39 30.12.2019
5519 Clouds 30 1015 74 10000 4.1 360 17:19 30.12.2019
5520 Clouds 29 1016 74 10000 5.1 360 16:58 30.12.2019
5521 Clouds 29 1016 74 10000 5.1 360 16:37 30.12.2019
5522 Clouds 28 1016 74 10000 5.1 360 16:19 30.12.2019
5523 Clouds 27 1015 83 10000 2.35 16 15:56 30.12.2019
5524 Clouds 27 1015 83 10000 2.35 16 15:37 30.12.2019
5525 Clouds 27 1015 83 10000 2.35 16 15:18 30.12.2019
5526 Clouds 26 1015 83 10000 2.35 16 14:43 30.12.2019
5527 Clouds 26 1015 83 10000 2.86 343 14:20 30.12.2019
5528 Clouds 25 1015 83 10000 2.86 343 13:58 30.12.2019
5529 Clouds 24 1014 94 10000 2.86 343 13:40 30.12.2019
5530 Clouds 24 1014 94 10000 2.5 345 13:21 30.12.2019
5531 Clouds 24 1014 94 10000 2.5 345 13:21 30.12.2019
5532 Clouds 23 1014 100 10000 2.1 40 12:56 30.12.2019
5533 Clouds 22 1014 100 10000 2.1 40 12:37 30.12.2019
5534 Clouds 22 1014 100 10000 2.1 40 12:18 30.12.2019
5535 Clouds 23 1013 94 10000 2.1 40 11:42 30.12.2019
5536 Clouds 23 1013 94 10000 2.1 40 11:20 30.12.2019
5537 Clouds 22 1013 100 10000 2.1 30 10:58 30.12.2019
5538 Clouds 22 1013 100 10000 2.1 30 10:40 30.12.2019
5539 Clouds 22 1013 100 10000 2.1 30 10:40 30.12.2019
5540 Clouds 22 1013 100 10000 2.1 30 10:18 30.12.2019
5541 Clouds 23 1013 100 10000 2.1 30 09:42 30.12.2019
5542 Clouds 23 1013 100 10000 2.1 30 09:20 30.12.2019
5543 Clouds 23 1014 94 10000 2.1 20 08:56 30.12.2019
5544 Clouds 23 1014 94 10000 2.1 20 08:37 30.12.2019
5545 Clouds 23 1014 94 10000 2.1 20 08:18 30.12.2019
5546 Clouds 23 1014 94 10000 2.1 10 07:41 30.12.2019
5547 Clouds 23 1014 94 10000 2.1 10 06:59 30.12.2019
5548 Clouds 23 1014 94 10000 2.1 10 06:24 30.12.2019
5549 Clouds 24 1015 94 10000 2.1 30 04:23 30.12.2019
5550 Clouds 24 1015 94 10000 2.1 30 03:39 30.12.2019
5551 Clouds 24 1015 94 10000 2.1 40 02:41 30.12.2019
5552 Clouds 24 1015 94 10000 2.1 40 02:20 30.12.2019
5553 Clouds 26 1013 94 10000 2.1 40 01:25 30.12.2019
5554 Clouds 25 1013 83 10000 3.16 6 00:46 30.12.2019
5555 Clouds 25 1013 83 10000 3.16 6 00:23 30.12.2019
5556 Clouds 26 1012 78 10000 3.16 6 23:40 29.12.2019
5557 Clouds 26 1012 78 10000 2.47 43 23:22 29.12.2019
5558 Clouds 27 1012 78 10000 3.1 110 22:56 29.12.2019
5559 Clouds 27 1012 78 10000 3.1 110 22:38 29.12.2019
5560 Clouds 27 1012 78 10000 3.1 110 22:19 29.12.2019
5561 Clouds 27 1012 66 10000 3.1 360 21:45 29.12.2019
5562 Clouds 28 1012 66 10000 3.1 360 21:21 29.12.2019
5563 Clouds 28 1012 66 10000 3.1 360 20:59 29.12.2019
5564 Clouds 28 1013 66 10000 4.1 60 20:39 29.12.2019
5565 Clouds 28 1013 66 10000 4.1 60 20:39 29.12.2019
5566 Clouds 30 1013 66 10000 4.1 60 20:21 29.12.2019
5567 Clouds 30 1013 66 10000 4.1 60 19:59 29.12.2019
5568 Clouds 30 1013 62 10000 3.1 30 19:40 29.12.2019
5569 Clouds 30 1013 62 10000 3.1 30 19:21 29.12.2019
5570 Clouds 30 1013 62 10000 3.1 30 19:21 29.12.2019
5571 Clouds 30 1013 62 10000 3.1 30 18:58 29.12.2019
5572 Clouds 30 1014 62 10000 7.2 360 18:39 29.12.2019
5573 Clouds 30 1014 62 10000 7.2 360 18:20 29.12.2019
5574 Clouds 30 1015 66 10000 5.1 360 17:58 29.12.2019
5575 Clouds 30 1015 66 10000 5.1 360 17:39 29.12.2019
5576 Clouds 30 1015 66 10000 5.1 360 17:20 29.12.2019
5577 Clouds 29 1015 74 10000 4.1 360 16:57 29.12.2019
5578 Clouds 29 1015 74 10000 4.1 360 16:39 29.12.2019
5579 Clouds 29 1015 74 10000 4.1 360 16:21 29.12.2019
5580 Clouds 28 1015 74 10000 4.1 360 15:58 29.12.2019
5581 Clouds 26 1014 78 10000 3.1 360 15:39 29.12.2019
5582 Clouds 26 1014 78 10000 3.1 360 15:20 29.12.2019
5583 Clouds 25 1014 78 10000 3.1 360 14:58 29.12.2019
5584 Clouds 24 1014 94 10000 4.1 18 14:39 29.12.2019
5585 Clouds 24 1014 94 10000 3.11 345 14:18 29.12.2019
5586 Clouds 22 1014 94 10000 3.11 345 13:58 29.12.2019
5587 Clouds 22 1014 94 10000 3.11 345 13:39 29.12.2019
5588 Clouds 22 1014 94 10000 3.11 345 13:21 29.12.2019
5589 Clear 22 1013 100 10000 2.1 30 12:46 29.12.2019
5590 Clear 21 1013 100 10000 2.1 30 12:28 29.12.2019
5591 Clear 21 1013 100 10000 2.1 30 11:59 29.12.2019
5592 Clouds 22 1013 94 10000 1 30 11:40 29.12.2019
5593 Clouds 22 1013 94 10000 1 30 11:20 29.12.2019
5594 Clouds 22 1013 100 10000 2.1 360 10:55 29.12.2019
5595 Clouds 22 1013 100 10000 2.1 360 10:37 29.12.2019
5596 Clouds 22 1013 100 10000 2.1 360 10:18 29.12.2019
5597 Clouds 22 1013 100 10000 2.1 360 10:18 29.12.2019
5598 Clouds 23 1013 100 10000 2.1 40 09:43 29.12.2019
5599 Clouds 23 1013 100 10000 2.1 40 09:25 29.12.2019
5600 Clouds 23 1013 94 0 2.83 359 08:50 29.12.2019
5601 Clouds 23 1013 94 0 2.83 359 08:29 29.12.2019
5602 Clouds 23 1013 94 0 2.12 354 07:58 29.12.2019
5603 Clouds 23 1014 94 10000 2.1 20 07:31 29.12.2019
5604 Clouds 23 1014 94 10000 2.1 20 07:31 29.12.2019
5605 Clouds 23 1014 94 10000 2.1 20 06:57 29.12.2019
5606 Clouds 23 1014 94 10000 2.1 20 06:27 29.12.2019
5607 Clouds 24 1014 88 10000 2.1 20 05:54 29.12.2019
5608 Clouds 24 1014 88 10000 1 40 04:42 29.12.2019
5609 Clouds 24 1014 88 10000 1 40 04:21 29.12.2019
5610 Clouds 25 1014 88 10000 2.1 40 03:21 29.12.2019
5611 Clouds 25 1014 88 10000 2.1 30 02:21 29.12.2019
5612 Clouds 26 1013 83 10000 3.09 13 01:40 29.12.2019
5613 Clouds 26 1013 83 10000 3.2 8 01:21 29.12.2019
5614 Clouds 27 1013 69 10000 3.2 8 00:42 29.12.2019
5615 Clouds 27 1013 69 10000 3.2 8 00:23 29.12.2019
5616 Clouds 27 1013 69 10000 3.2 8 00:23 29.12.2019
5617 Clouds 28 1013 66 10000 3.2 8 23:44 28.12.2019
5618 Clouds 28 1013 66 10000 3.28 24 23:18 28.12.2019
5619 Clouds 28 1013 66 10000 3.28 24 23:18 28.12.2019
5620 Clouds 28 1013 62 10000 3.28 24 22:39 28.12.2019
5621 Clouds 29 1013 62 10000 3.28 24 22:21 28.12.2019
5622 Clouds 29 1013 62 10000 3.28 24 21:58 28.12.2019
5623 Clouds 30 1012 55 10000 2.6 60 21:40 28.12.2019
5624 Clouds 30 1012 55 10000 2.6 60 21:21 28.12.2019
5625 Clouds 30 1013 55 10000 2.1 90 20:58 28.12.2019
5626 Clouds 30 1013 55 10000 2.1 90 20:38 28.12.2019
5627 Clouds 30 1013 55 10000 2.1 90 20:20 28.12.2019
5628 Clouds 31 1013 58 10000 4.1 360 19:58 28.12.2019
5629 Clouds 31 1013 58 10000 4.1 360 19:39 28.12.2019
5630 Clouds 30 1013 58 10000 4.1 360 19:20 28.12.2019
5631 Clouds 30 1015 66 10000 5.1 110 18:57 28.12.2019
5632 Clouds 29 1015 66 10000 5.1 110 18:39 28.12.2019
5633 Clouds 29 1015 66 10000 5.1 110 18:19 28.12.2019
5634 Clouds 29 1016 74 10000 3.1 90 17:54 28.12.2019
5635 Clouds 29 1016 74 10000 3.1 90 17:36 28.12.2019
5636 Clouds 29 1016 74 10000 3.1 90 17:18 28.12.2019
5637 Clouds 29 1016 74 10000 3.1 90 17:18 28.12.2019
5638 Clouds 28 1016 69 10000 3.1 40 16:46 28.12.2019
5639 Clouds 28 1016 69 10000 3.1 40 16:25 28.12.2019
5640 Clouds 26 1016 83 10000 3.84 17 15:46 28.12.2019
5641 Clouds 26 1016 83 10000 3.84 17 15:24 28.12.2019
5642 Clouds 26 1016 83 10000 3.84 17 14:59 28.12.2019
5643 Clouds 24 1015 83 10000 3.84 17 14:39 28.12.2019
5644 Clouds 24 1015 83 10000 3.05 348 14:20 28.12.2019
5645 Clouds 21 1015 94 10000 2.6 10 13:43 28.12.2019
5646 Clouds 21 1014 88 10000 3.33 344 13:24 28.12.2019
5647 Clouds 21 1014 88 10000 3.33 344 12:59 28.12.2019
5648 Clouds 22 1014 94 10000 2.1 10 12:41 28.12.2019
5649 Clouds 22 1014 94 10000 2.1 10 12:23 28.12.2019
5650 Clouds 22 1014 94 10000 2.1 360 11:56 28.12.2019
5651 Clouds 22 1014 94 10000 2.1 360 11:37 28.12.2019
5652 Clouds 22 1014 94 10000 2.1 360 11:18 28.12.2019
5653 Clouds 22 1013 88 10000 2.6 10 10:43 28.12.2019
5654 Clouds 22 1013 88 10000 2.6 10 10:21 28.12.2019
5655 Clouds 22 1013 100 10000 2.1 10 09:57 28.12.2019
5656 Clouds 23 1013 100 10000 2.1 10 09:39 28.12.2019
5657 Clouds 23 1013 100 10000 2.1 10 09:19 28.12.2019
5658 Clouds 22 1014 88 10000 2.1 10 08:43 28.12.2019
5659 Clouds 22 1014 88 10000 2.1 10 08:25 28.12.2019
5660 Clouds 22 1014 94 10000 2.1 20 07:49 28.12.2019
5661 Clouds 22 1014 94 10000 2.1 20 07:27 28.12.2019
5662 Clouds 22 1015 94 10000 2.1 20 06:21 28.12.2019
5663 Clouds 23 1015 94 10000 2.1 30 03:59 28.12.2019
5664 Clouds 24 1015 88 10000 2.1 30 03:38 28.12.2019
5665 Clouds 24 1015 88 10000 2.1 30 02:48 28.12.2019
5666 Clouds 25 1015 88 10000 2.1 30 01:59 28.12.2019
5667 Clouds 26 1014 83 10000 2.6 40 01:29 28.12.2019
5668 Clouds 26 1014 78 10000 3.79 9 00:54 28.12.2019
5669 Clouds 26 1014 78 10000 3.79 9 00:36 28.12.2019
5670 Clouds 26 1014 78 10000 3.79 9 00:18 28.12.2019
5671 Clouds 27 1013 78 10000 3.6 30 23:42 27.12.2019
5672 Clouds 27 1013 78 10000 3.6 30 23:19 27.12.2019
5673 Clouds 28 1013 62 10000 3.6 20 22:57 27.12.2019
5674 Clouds 29 1013 62 10000 3.6 20 22:38 27.12.2019
5675 Clouds 29 1013 62 10000 3.6 20 22:20 27.12.2019
5676 Clouds 30 1013 55 10000 5.1 360 21:54 27.12.2019
5677 Clouds 30 1013 55 10000 5.1 360 21:36 27.12.2019
5678 Clouds 30 1013 55 10000 5.1 360 21:18 27.12.2019
5679 Clouds 30 1013 55 10000 4.1 360 20:40 27.12.2019
5680 Clouds 30 1013 55 10000 4.1 360 20:21 27.12.2019
5681 Clouds 29 1013 62 10000 4.1 360 19:42 27.12.2019
5682 Clouds 29 1013 62 10000 4.1 360 19:20 27.12.2019
5683 Clouds 29 1013 62 10000 4.1 360 18:59 27.12.2019
5684 Clouds 29 1015 62 10000 5.1 360 18:38 27.12.2019
5685 Clouds 29 1015 62 10000 5.1 360 18:20 27.12.2019
5686 Clouds 28 1015 66 10000 5.1 30 17:57 27.12.2019
5687 Clouds 28 1015 66 10000 5.1 30 17:39 27.12.2019
5688 Clouds 28 1015 66 10000 5.1 30 17:19 27.12.2019
5689 Clouds 28 1016 69 10000 3.1 30 16:56 27.12.2019
5690 Clouds 27 1016 69 10000 3.1 30 16:37 27.12.2019
5691 Clouds 27 1016 69 10000 3.1 30 16:19 27.12.2019
5692 Clouds 27 1016 83 10000 5.1 360 15:43 27.12.2019
5693 Clouds 27 1016 83 10000 5.1 360 15:20 27.12.2019
5694 Clouds 25 1016 78 10000 5.1 360 14:57 27.12.2019
5695 Clouds 24 1016 78 10000 5.1 360 14:38 27.12.2019
5696 Clouds 24 1016 78 10000 5.1 360 14:20 27.12.2019
5697 Clouds 23 1014 88 10000 3.36 352 13:48 27.12.2019
5698 Clouds 23 1014 88 10000 3.39 355 13:25 27.12.2019
5699 Clouds 23 1013 100 10000 2.1 350 12:58 27.12.2019
5700 Clouds 22 1013 100 10000 2.1 350 12:39 27.12.2019
5701 Clouds 22 1013 100 10000 2.1 350 12:21 27.12.2019
5702 Clouds 22 1013 94 10000 2.1 350 11:43 27.12.2019
5703 Clouds 22 1013 94 10000 2.1 350 11:23 27.12.2019
5704 Clouds 23 1012 94 10000 2.1 350 10:55 27.12.2019
5705 Clouds 23 1012 94 10000 2.1 350 10:37 27.12.2019
5706 Clouds 23 1012 94 10000 2.1 350 10:19 27.12.2019
5707 Clouds 24 1012 94 10000 1.5 0 09:42 27.12.2019
5708 Clouds 24 1012 94 10000 1.5 0 09:21 27.12.2019
5709 Clouds 24 1012 88 10000 2.1 360 08:56 27.12.2019
5710 Clouds 24 1012 88 10000 2.1 360 08:36 27.12.2019
5711 Clouds 24 1013 88 10000 2.1 10 07:51 27.12.2019
5712 Clouds 24 1013 88 10000 2.1 10 07:31 27.12.2019
5713 Clouds 24 1013 94 10000 2.1 20 06:37 27.12.2019
5714 Clouds 25 1014 88 10000 2.1 20 05:28 27.12.2019
5715 Clouds 25 1014 88 10000 2.1 30 03:26 27.12.2019
5716 Clouds 25 1013 88 10000 2.1 30 01:59 27.12.2019
5717 Clouds 26 1012 83 10000 2.6 40 01:24 27.12.2019
5718 Clouds 26 1010 83 10000 3.66 13 00:58 27.12.2019
5719 Clouds 26 1010 83 10000 3.66 13 00:40 27.12.2019
5720 Clouds 26 1010 83 10000 3.66 13 00:21 27.12.2019
5721 Clouds 27 1010 78 10000 3.1 360 23:41 26.12.2019
5722 Clouds 28 1010 78 10000 3.1 360 23:22 26.12.2019
5723 Clouds 28 1010 78 10000 5.1 330 22:45 26.12.2019
5724 Clouds 28 1010 78 10000 5.1 330 22:23 26.12.2019
5725 Clouds 28 1010 78 10000 5.1 330 21:59 26.12.2019
5726 Rain 29 1010 74 8000 6.2 360 21:38 26.12.2019
5727 Rain 29 1010 74 8000 6.2 360 21:20 26.12.2019
5728 Clouds 30 1010 70 10000 5.1 360 20:46 26.12.2019
5729 Clouds 29 1010 70 10000 5.1 360 20:23 26.12.2019
5730 Clouds 29 1010 70 10000 5.1 360 20:23 26.12.2019
5731 Clouds 29 1010 70 10000 5.1 360 19:59 26.12.2019
5732 Clouds 30 1011 66 10000 6.2 360 19:40 26.12.2019
5733 Clouds 30 1011 66 10000 6.2 360 19:21 26.12.2019
5734 Clouds 29 1011 70 10000 6.2 360 18:58 26.12.2019
5735 Clouds 29 1011 70 10000 6.2 360 18:39 26.12.2019
5736 Clouds 29 1011 70 10000 6.2 360 18:19 26.12.2019
5737 Clouds 28 1012 66 10000 5.1 360 17:43 26.12.2019
5738 Clouds 28 1012 66 10000 5.1 360 17:22 26.12.2019
5739 Clouds 28 1012 66 10000 5.1 360 16:59 26.12.2019
5740 Clouds 27 1013 69 10000 5.1 360 16:41 26.12.2019
5741 Clouds 27 1013 69 10000 5.1 360 16:21 26.12.2019
5742 Clouds 27 1012 69 10000 5.1 360 15:55 26.12.2019
5743 Clouds 27 1012 69 10000 5.1 360 15:37 26.12.2019
5744 Clouds 26 1012 69 10000 5.1 360 15:18 26.12.2019
5745 Clouds 25 1012 83 10000 3.1 360 14:39 26.12.2019
5746 Clouds 25 1012 83 10000 3.1 360 14:21 26.12.2019
5747 Clouds 24 1011 94 10000 2.47 2 13:43 26.12.2019
5748 Clouds 24 1011 94 10000 2.47 2 13:21 26.12.2019
5749 Clouds 24 1010 94 10000 3.6 40 12:58 26.12.2019
5750 Clouds 24 1010 94 10000 3.6 40 12:38 26.12.2019
5751 Clouds 24 1010 94 10000 3.6 40 12:19 26.12.2019
5752 Clouds 24 1009 100 10000 2.6 20 11:57 26.12.2019
5753 Clouds 24 1009 100 10000 2.6 20 11:38 26.12.2019
5754 Clouds 24 1009 100 10000 2.6 20 11:19 26.12.2019
5755 Clouds 25 1009 94 10000 2.6 10 10:42 26.12.2019
5756 Clouds 25 1009 94 10000 2.6 10 10:18 26.12.2019
5757 Clouds 25 1009 94 10000 1.5 360 09:49 26.12.2019
5758 Clouds 25 1009 94 10000 1.5 360 09:31 26.12.2019
5759 Clouds 25 1009 94 10000 2.1 360 08:43 26.12.2019
5760 Clouds 25 1009 94 10000 2.1 360 08:24 26.12.2019
5761 Clouds 25 1009 94 10000 2.1 350 07:53 26.12.2019
5762 Clouds 25 1009 94 10000 2.1 350 07:27 26.12.2019
5763 Clouds 25 1009 100 10000 2.1 340 06:53 26.12.2019
5764 Clouds 25 1009 100 10000 2.1 340 06:32 26.12.2019
5765 Clouds 26 1009 100 10000 2.1 250 05:45 26.12.2019
5766 Clouds 26 1009 94 10000 2.1 240 04:57 26.12.2019
5767 Clouds 26 1009 94 10000 2.1 240 04:30 26.12.2019
5768 Clouds 26 1009 94 10000 2.6 220 02:56 26.12.2019
5769 Clouds 26 1009 94 10000 2.6 220 02:34 26.12.2019
5770 Clouds 27 1009 100 10000 3.1 210 01:48 26.12.2019
5771 Clouds 26 1009 100 10000 3.1 210 01:28 26.12.2019
5772 Clouds 26 1009 94 10000 4.1 160 00:49 26.12.2019
5773 Clouds 26 1009 94 10000 4.1 160 00:27 26.12.2019
5774 Clouds 27 1008 88 10000 5.1 160 23:58 25.12.2019
5775 Clouds 27 1008 88 10000 5.1 160 23:39 25.12.2019
5776 Clouds 27 1008 88 10000 5.1 160 23:21 25.12.2019
5777 Clouds 27 1008 83 10000 5.1 180 22:58 25.12.2019
5778 Clouds 27 1008 83 10000 5.1 180 22:39 25.12.2019
5779 Clouds 27 1008 83 10000 5.1 180 22:20 25.12.2019
5780 Clouds 28 1008 78 10000 6.2 180 21:57 25.12.2019
5781 Clouds 28 1008 78 10000 6.2 180 21:39 25.12.2019
5782 Clouds 28 1008 78 10000 6.2 180 21:19 25.12.2019
5783 Clouds 29 1008 74 10000 5.1 180 20:41 25.12.2019
5784 Clouds 28 1008 74 10000 5.1 180 20:23 25.12.2019
5785 Clouds 28 1008 74 10000 5.1 180 20:23 25.12.2019
5786 Clouds 29 1008 74 10000 5.1 180 19:59 25.12.2019
5787 Clouds 29 1009 70 10000 6.2 180 19:41 25.12.2019
5788 Clouds 29 1009 70 10000 6.2 180 19:22 25.12.2019
5789 Rain 28 1009 94 8000 3.1 230 18:54 25.12.2019
5790 Rain 28 1009 94 8000 3.1 230 18:36 25.12.2019
5791 Rain 29 1009 94 8000 3.1 230 18:18 25.12.2019
5792 Clouds 29 1011 74 10000 5.1 120 17:40 25.12.2019
5793 Clouds 29 1011 74 10000 5.1 120 17:18 25.12.2019
5794 Clouds 28 1011 74 10000 2.21 170 16:55 25.12.2019
5795 Clouds 28 1011 74 10000 2.21 170 16:36 25.12.2019
5796 Clouds 28 1011 74 10000 2.21 170 16:18 25.12.2019
5797 Clouds 27 1010 83 10000 2.21 170 15:56 25.12.2019
5798 Clouds 27 1010 83 10000 2.21 170 15:37 25.12.2019
5799 Clouds 27 1010 83 10000 2.21 170 15:18 25.12.2019
5800 Clouds 26 1010 94 10000 2.21 170 14:54 25.12.2019
5801 Clouds 25 1010 94 10000 2.21 170 14:36 25.12.2019
5802 Clouds 25 1010 94 10000 1.78 341 14:18 25.12.2019
5803 Clouds 25 1009 94 10000 1.78 341 13:41 25.12.2019
5804 Clouds 25 1009 94 10000 1.78 341 13:20 25.12.2019
5805 Clouds 24 1009 100 10000 1.82 332 12:44 25.12.2019
5806 Clouds 24 1009 100 10000 1.82 332 12:22 25.12.2019
5807 Clouds 24 1009 100 10000 1.82 332 11:58 25.12.2019
5808 Clouds 24 1009 100 10000 1.82 332 11:58 25.12.2019
5809 Clouds 24 1009 100 10000 1.82 332 11:40 25.12.2019
5810 Clouds 24 1009 100 10000 2.61 220 11:20 25.12.2019
5811 Clouds 24 1009 100 10000 3.1 220 10:39 25.12.2019
5812 Clouds 24 1009 100 10000 3.1 220 10:21 25.12.2019
5813 Rain 23 1009 87 0 2.61 220 09:52 25.12.2019
5814 Clouds 26 1009 87 10000 2.1 280 09:34 25.12.2019
5815 Clouds 25 1009 94 10000 2.1 270 08:56 25.12.2019
5816 Clouds 25 1009 94 10000 2.1 270 08:38 25.12.2019
5817 Clouds 25 1009 94 10000 2.1 270 08:19 25.12.2019
5818 Clouds 25 1009 94 10000 2.1 190 07:40 25.12.2019
5819 Clouds 25 1009 94 10000 2.1 190 07:40 25.12.2019
5820 Clouds 25 1009 94 10000 2.1 190 07:21 25.12.2019
5821 Clouds 26 1010 94 10000 2.1 200 06:24 25.12.2019
5822 Rain 26 1010 94 8000 2.1 140 05:44 25.12.2019
5823 Clouds 26 1010 88 10000 2.1 180 04:40 25.12.2019
5824 Clouds 26 1010 88 10000 2.1 180 04:20 25.12.2019
5825 Clouds 26 1011 88 10000 2.6 200 03:43 25.12.2019
5826 Clouds 26 1010 88 10000 2.6 180 02:57 25.12.2019
5827 Clouds 26 1010 88 10000 2.6 180 02:28 25.12.2019
5828 Clouds 26 1010 88 10000 2.1 170 01:36 25.12.2019
5829 Clouds 27 1011 88 10000 2.83 196 01:18 25.12.2019
5830 Clouds 27 1011 88 10000 2.83 196 00:40 25.12.2019
5831 Clouds 27 1011 88 10000 2.83 196 00:22 25.12.2019
5832 Clouds 27 1011 88 10000 2.83 196 00:22 25.12.2019
5833 Clouds 27 1010 83 10000 3.1 180 23:39 24.12.2019
5834 Rain 27 1010 83 10000 3.1 180 23:20 24.12.2019
5835 Rain 28 1010 78 10000 5.1 180 22:42 24.12.2019
5836 Rain 28 1010 78 10000 5.1 180 22:23 24.12.2019
5837 Rain 29 1010 78 10000 6.2 180 21:57 24.12.2019
5838 Clouds 28 1010 78 10000 6.2 180 21:37 24.12.2019
5839 Clouds 28 1010 78 10000 6.2 180 21:19 24.12.2019
5840 Clouds 29 1011 74 10000 6.2 180 20:41 24.12.2019
5841 Clouds 29 1011 74 10000 6.2 180 20:20 24.12.2019
5842 Clouds 29 1012 66 10000 7.2 180 19:47 24.12.2019
5843 Clouds 29 1012 66 10000 7.2 180 19:22 24.12.2019
5844 Clouds 29 1012 66 10000 7.2 180 18:59 24.12.2019
5845 Clouds 29 1012 74 10000 7.2 180 18:40 24.12.2019
5846 Clouds 29 1012 74 10000 7.2 180 18:18 24.12.2019
5847 Clouds 29 1013 78 10000 4.1 180 17:43 24.12.2019
5848 Clouds 28 1013 78 10000 4.1 180 17:22 24.12.2019
5849 Rain 28 1014 83 8000 3.84 187 16:58 24.12.2019
5850 Rain 28 1014 83 8000 3.84 187 16:39 24.12.2019
5851 Rain 28 1014 83 8000 3.84 187 16:20 24.12.2019
5852 Clouds 27 1013 88 10000 3.84 187 15:57 24.12.2019
5853 Clouds 27 1013 88 10000 3.84 187 15:37 24.12.2019
5854 Clouds 27 1013 88 10000 3.84 187 15:19 24.12.2019
5855 Clouds 27 1013 88 10000 3.84 187 15:19 24.12.2019
5856 Clouds 26 1013 94 10000 3.84 187 14:58 24.12.2019
5857 Clouds 26 1013 94 10000 3.84 187 14:39 24.12.2019
5858 Clouds 25 1013 94 10000 2.34 211 14:21 24.12.2019
5859 Clouds 25 1013 94 10000 2.34 211 14:21 24.12.2019
5860 Clouds 24 1012 100 10000 2.34 211 13:56 24.12.2019
5861 Clouds 24 1012 100 10000 2.34 211 13:37 24.12.2019
5862 Clouds 23 1012 100 10000 2.34 211 13:19 24.12.2019
5863 Clouds 23 1012 100 10000 2.27 217 12:55 24.12.2019
5864 Clouds 21 1012 100 10000 2.27 217 12:36 24.12.2019
5865 Clouds 21 1012 100 10000 2.27 217 12:18 24.12.2019
5866 Clouds 21 1012 94 10000 2.27 217 11:55 24.12.2019
5867 Clouds 21 1012 94 10000 2.27 217 11:37 24.12.2019
5868 Clouds 21 1012 94 10000 1.87 190 11:18 24.12.2019
5869 Clouds 22 1012 94 10000 1.87 190 10:56 24.12.2019
5870 Clouds 22 1012 94 10000 1.87 190 10:37 24.12.2019
5871 Clouds 22 1012 94 10000 1.87 190 10:19 24.12.2019
5872 Clouds 23 1012 94 10000 2.1 60 09:55 24.12.2019
5873 Clouds 23 1012 94 10000 2.1 60 09:36 24.12.2019
5874 Clouds 23 1012 94 10000 2.1 60 09:18 24.12.2019
5875 Clouds 22 1012 94 10000 2.1 40 08:44 24.12.2019
5876 Clouds 23 1012 94 10000 2.1 40 08:20 24.12.2019
5877 Clouds 23 1014 100 10000 2.1 60 07:46 24.12.2019
5878 Clouds 23 1014 100 10000 2.1 60 07:25 24.12.2019
5879 Clouds 23 1014 100 10000 2.1 60 07:25 24.12.2019
5880 Clouds 23 1014 100 10000 2.1 60 06:58 24.12.2019
5881 Clouds 23 1014 100 10000 2.1 60 06:38 24.12.2019
5882 Clouds 23 1014 100 10000 2.1 60 06:18 24.12.2019
5883 Clouds 24 1014 94 10000 2.1 60 05:20 24.12.2019
5884 Clouds 25 1015 88 10000 2.1 140 04:44 24.12.2019
5885 Clouds 24 1015 88 10000 2.1 140 03:50 24.12.2019
5886 Clouds 24 1015 88 10000 2.1 140 03:18 24.12.2019
5887 Clouds 26 1014 83 10000 2.1 140 02:21 24.12.2019
5888 Clouds 26 1014 83 10000 2.1 140 01:50 24.12.2019
5889 Clouds 26 1014 83 10000 0.31 197 01:21 24.12.2019
5890 Clouds 26 1014 83 10000 0.31 197 00:45 24.12.2019
5891 Clouds 26 1014 83 10000 0.31 197 00:23 24.12.2019
5892 Clouds 27 1013 78 10000 2.6 130 23:56 23.12.2019
5893 Clouds 27 1013 78 10000 2.6 130 23:37 23.12.2019
5894 Clouds 27 1013 78 10000 2.6 130 23:19 23.12.2019
5895 Clouds 27 1012 74 10000 3.1 150 22:56 23.12.2019
5896 Clouds 27 1012 74 10000 3.1 150 22:56 23.12.2019
5897 Clouds 28 1012 74 10000 3.1 150 22:36 23.12.2019
5898 Clouds 28 1012 74 10000 3.1 150 22:36 23.12.2019
5899 Clouds 28 1012 74 10000 3.1 150 22:18 23.12.2019
5900 Clouds 28 1013 70 10000 5.1 180 21:55 23.12.2019
5901 Clouds 29 1013 70 10000 5.1 180 21:36 23.12.2019
5902 Clouds 29 1013 70 10000 5.1 180 21:18 23.12.2019
5903 Clouds 29 1014 70 10000 5.1 180 20:56 23.12.2019
5904 Clouds 29 1014 70 10000 5.1 180 20:38 23.12.2019
5905 Clouds 29 1014 70 10000 5.1 180 20:18 23.12.2019
5906 Clouds 29 1014 66 10000 5.1 180 19:55 23.12.2019
5907 Clouds 29 1014 66 10000 5.1 180 19:55 23.12.2019
5908 Clouds 29 1014 66 10000 5.1 180 19:55 23.12.2019
5909 Clouds 29 1014 66 10000 5.1 180 19:37 23.12.2019
5910 Clouds 29 1014 66 10000 5.1 180 19:18 23.12.2019
5911 Clouds 29 1015 66 10000 5.1 140 18:55 23.12.2019
5912 Clouds 29 1015 66 10000 5.1 140 18:37 23.12.2019
5913 Clouds 29 1015 66 10000 5.1 140 18:18 23.12.2019
5914 Clouds 29 1015 66 10000 3.18 155 17:55 23.12.2019
5915 Clouds 29 1015 66 10000 3.18 155 17:55 23.12.2019
5916 Clouds 29 1015 66 10000 3.18 155 17:37 23.12.2019
5917 Clouds 29 1015 66 10000 0.98 92 17:18 23.12.2019
5918 Clouds 28 1017 74 10000 0.98 92 16:42 23.12.2019
5919 Clouds 28 1017 74 10000 0.98 92 16:19 23.12.2019
5920 Clouds 28 1017 78 10000 4.1 30 15:58 23.12.2019
5921 Clouds 27 1017 78 10000 4.1 30 15:38 23.12.2019
5922 Clouds 27 1017 78 10000 4.1 30 15:20 23.12.2019
5923 Clouds 25 1016 88 10000 0.98 92 14:58 23.12.2019
5924 Clouds 25 1016 88 10000 0.98 92 14:39 23.12.2019
5925 Clouds 25 1016 88 10000 2.08 318 14:21 23.12.2019
5926 Clouds 25 1016 88 10000 2.08 318 13:58 23.12.2019
5927 Clouds 24 1016 94 10000 2.08 318 13:40 23.12.2019
5928 Clouds 23 1016 94 10000 2.08 318 13:22 23.12.2019
5929 Clouds 23 1015 94 10000 2.1 10 12:56 23.12.2019
5930 Clouds 22 1015 94 10000 2.1 10 12:37 23.12.2019
5931 Clouds 22 1015 94 10000 2.1 10 12:19 23.12.2019
5932 Clouds 22 1015 100 10000 2.1 30 11:44 23.12.2019
5933 Clouds 22 1015 100 10000 2.1 30 11:25 23.12.2019
5934 Clouds 22 1014 100 10000 2.1 40 10:57 23.12.2019
5935 Clouds 22 1014 100 10000 2.1 40 10:39 23.12.2019
5936 Clouds 22 1014 100 10000 2.1 40 10:20 23.12.2019
5937 Clouds 23 1014 100 10000 2.1 40 09:59 23.12.2019
5938 Clouds 23 1014 100 10000 2.1 30 09:39 23.12.2019
5939 Clouds 23 1014 100 10000 2.1 30 09:20 23.12.2019
5940 Clouds 23 1015 94 10000 2.1 20 08:55 23.12.2019
5941 Clouds 23 1015 94 10000 2.1 20 08:37 23.12.2019
5942 Clouds 23 1015 94 10000 2.1 20 08:19 23.12.2019
5943 Clouds 23 1015 94 10000 2.1 40 07:43 23.12.2019
5944 Clouds 23 1015 94 10000 2.1 40 07:20 23.12.2019
5945 Clouds 23 1015 94 10000 2.1 40 06:52 23.12.2019
5946 Clouds 23 1015 94 10000 2.1 40 06:25 23.12.2019
5947 Clouds 23 1016 94 10000 2.1 40 05:50 23.12.2019
5948 Clouds 23 1016 94 10000 2.1 40 05:26 23.12.2019
5949 Clouds 24 1016 88 10000 2.1 50 04:27 23.12.2019
5950 Clouds 25 1015 88 10000 2.1 60 02:56 23.12.2019
5951 Clouds 25 1015 88 10000 2.1 60 02:28 23.12.2019
5952 Clouds 25 1015 88 10000 2.1 60 01:56 23.12.2019
5953 Clouds 25 1015 88 10000 2.1 60 01:38 23.12.2019
5954 Clouds 26 1014 88 10000 1.12 47 01:19 23.12.2019
5955 Clouds 26 1014 88 10000 1.97 35 00:36 23.12.2019
5956 Clouds 27 1014 83 10000 1.97 35 23:58 22.12.2019
5957 Clouds 27 1014 83 10000 1.97 35 23:39 22.12.2019
5958 Clouds 27 1014 83 10000 2.33 112 23:20 22.12.2019
5959 Clouds 28 1013 70 10000 3.6 90 22:58 22.12.2019
5960 Clouds 28 1013 70 10000 3.6 90 22:38 22.12.2019
5961 Clouds 28 1013 70 10000 3.6 90 22:19 22.12.2019
5962 Clouds 29 1013 62 10000 6.2 160 21:56 22.12.2019
5963 Clouds 29 1013 62 10000 6.2 160 21:56 22.12.2019
5964 Clouds 29 1013 62 10000 6.2 160 21:38 22.12.2019
5965 Clouds 29 1013 62 10000 6.2 160 21:20 22.12.2019
5966 Clouds 29 1014 70 10000 3.1 150 20:55 22.12.2019
5967 Clouds 29 1014 70 10000 3.1 150 20:37 22.12.2019
5968 Clouds 29 1014 70 10000 3.1 150 20:37 22.12.2019
5969 Clouds 29 1014 70 10000 3.1 150 20:18 22.12.2019
5970 Rain 29 1015 74 8000 3.25 73 19:40 22.12.2019
5971 Rain 29 1015 74 8000 3.25 73 19:21 22.12.2019
5972 Clouds 29 1016 62 10000 3.1 90 18:58 22.12.2019
5973 Clouds 29 1016 62 10000 3.1 90 18:38 22.12.2019
5974 Clouds 29 1016 62 10000 3.1 90 18:19 22.12.2019
5975 Clouds 29 1017 70 10000 2.6 70 17:55 22.12.2019
5976 Clouds 29 1017 70 10000 2.6 70 17:37 22.12.2019
5977 Clouds 29 1017 70 10000 2.6 70 17:18 22.12.2019
5978 Clouds 28 1018 74 10000 3.1 30 16:43 22.12.2019
5979 Clouds 28 1018 74 10000 3.1 30 16:43 22.12.2019
5980 Clouds 28 1018 74 10000 3.1 30 16:23 22.12.2019
5981 Clouds 28 1018 74 10000 3.1 30 15:59 22.12.2019
5982 Clouds 27 1018 74 10000 3.09 33 15:39 22.12.2019
5983 Clouds 27 1018 74 10000 3.09 33 15:21 22.12.2019
5984 Clouds 27 1018 74 10000 3.09 33 15:21 22.12.2019
5985 Clouds 27 1018 74 10000 3.09 33 14:59 22.12.2019
5986 Clouds 26 1017 83 10000 5.1 360 14:39 22.12.2019
5987 Clouds 25 1017 83 10000 5.1 360 14:19 22.12.2019
5988 Clouds 23 1016 94 10000 3.24 350 13:56 22.12.2019
5989 Clouds 23 1016 94 10000 3.24 350 13:38 22.12.2019
5990 Clouds 23 1016 94 10000 3.15 351 13:19 22.12.2019
5991 Clouds 22 1015 94 10000 2.1 20 12:57 22.12.2019
5992 Clouds 21 1015 94 10000 2.1 20 12:39 22.12.2019
5993 Clouds 21 1015 94 10000 2.1 20 12:19 22.12.2019
5994 Clouds 21 1015 94 10000 2.1 20 11:59 22.12.2019
5995 Clouds 22 1015 94 10000 2.1 10 11:39 22.12.2019
5996 Clouds 22 1015 94 10000 2.1 10 11:20 22.12.2019
5997 Clouds 22 1014 94 10000 2.1 360 10:57 22.12.2019
5998 Clouds 22 1014 94 10000 2.1 360 10:39 22.12.2019
5999 Clouds 22 1014 94 10000 2.1 360 10:19 22.12.2019
6000 Clouds 22 1014 94 10000 1.5 360 09:58 22.12.2019
6001 Clouds 22 1014 94 10000 1.5 360 09:39 22.12.2019
6002 Clouds 24 1014 94 10000 1.5 360 09:21 22.12.2019
6003 Clouds 24 1015 88 10000 2.1 20 08:45 22.12.2019
6004 Clouds 24 1015 88 10000 2.1 20 08:23 22.12.2019
6005 Clouds 23 1016 88 10000 2.1 30 07:50 22.12.2019
6006 Clouds 23 1016 88 10000 2.1 30 07:21 22.12.2019
6007 Clouds 23 1016 88 10000 2.1 30 07:21 22.12.2019
6008 Clouds 23 1016 88 10000 2.1 30 06:56 22.12.2019
6009 Clouds 23 1016 88 10000 2.1 30 06:27 22.12.2019
6010 Clouds 23 1016 88 10000 2.1 30 05:41 22.12.2019
6011 Clouds 23 1016 88 10000 2.1 30 05:20 22.12.2019
6012 Clouds 23 1016 88 10000 2.1 20 04:26 22.12.2019
6013 Clouds 24 1016 83 10000 3.1 30 02:47 22.12.2019
6014 Clouds 24 1016 83 10000 3.1 30 02:23 22.12.2019
6015 Clouds 26 1015 78 10000 2.6 30 01:32 22.12.2019
6016 Clouds 26 1014 83 10000 4.1 0 00:56 22.12.2019
6017 Clouds 26 1014 83 10000 4.1 0 00:56 22.12.2019
6018 Clouds 26 1014 83 10000 4.1 0 00:36 22.12.2019
6019 Clouds 26 1014 83 10000 4.1 0 00:18 22.12.2019
6020 Clouds 27 1014 78 10000 4.1 360 23:41 21.12.2019
6021 Clouds 27 1014 78 10000 4.1 360 23:21 21.12.2019
6022 Clouds 28 1014 69 10000 4.1 360 22:57 21.12.2019
6023 Clouds 28 1014 69 10000 4.1 360 22:37 21.12.2019
6024 Clouds 28 1014 69 10000 4.1 360 22:18 21.12.2019
6025 Clouds 29 1014 66 10000 2.1 40 21:54 21.12.2019
6026 Clouds 29 1014 66 10000 2.1 40 21:36 21.12.2019
6027 Clouds 29 1014 66 10000 2.1 40 21:18 21.12.2019
6028 Clouds 29 1015 66 10000 4.1 360 20:55 21.12.2019
6029 Clouds 29 1015 66 10000 4.1 360 20:37 21.12.2019
6030 Clouds 28 1015 66 10000 4.1 360 20:18 21.12.2019
6031 Clouds 29 1015 66 10000 5.1 10 19:55 21.12.2019
6032 Clouds 29 1015 66 10000 5.1 10 19:36 21.12.2019
6033 Clouds 29 1015 66 10000 5.1 10 19:18 21.12.2019
6034 Clouds 29 1016 70 10000 5.1 360 18:40 21.12.2019
6035 Clouds 29 1016 70 10000 5.1 360 18:22 21.12.2019
6036 Clouds 29 1017 66 10000 5.1 20 17:55 21.12.2019
6037 Clouds 29 1017 66 10000 5.1 20 17:37 21.12.2019
6038 Clouds 29 1017 66 10000 5.1 20 17:18 21.12.2019
6039 Clouds 28 1018 66 10000 4.1 60 16:54 21.12.2019
6040 Clouds 28 1018 66 10000 4.1 60 16:54 21.12.2019
6041 Clouds 28 1018 66 10000 4.1 60 16:36 21.12.2019
6042 Clouds 28 1018 66 10000 4.1 60 16:36 21.12.2019
6043 Clouds 28 1018 66 10000 4.1 60 16:18 21.12.2019
6044 Clouds 27 1017 74 10000 5.1 360 15:54 21.12.2019
6045 Clouds 27 1017 74 10000 5.1 360 15:54 21.12.2019
6046 Clouds 27 1017 74 10000 5.1 360 15:36 21.12.2019
6047 Clouds 27 1017 74 10000 5.1 360 15:18 21.12.2019
6048 Clouds 25 1017 88 10000 3.1 350 14:40 21.12.2019
6049 Clouds 25 1017 88 10000 3.1 350 14:22 21.12.2019
6050 Clouds 24 1016 100 10000 2.65 347 13:57 21.12.2019
6051 Clouds 24 1016 100 10000 2.65 347 13:39 21.12.2019
6052 Clouds 22 1016 100 10000 3.01 347 13:19 21.12.2019
6053 Clouds 22 1015 100 10000 2.1 360 12:56 21.12.2019
6054 Clouds 22 1015 100 10000 2.1 360 12:37 21.12.2019
6055 Clouds 22 1015 100 10000 2.1 360 12:19 21.12.2019
6056 Clouds 22 1015 100 10000 2.1 360 11:45 21.12.2019
6057 Clouds 22 1015 100 10000 2.1 360 11:26 21.12.2019
6058 Clouds 22 1015 100 10000 2.1 70 10:57 21.12.2019
6059 Clouds 22 1015 100 10000 2.1 70 10:39 21.12.2019
6060 Clouds 22 1015 100 10000 2.1 70 10:21 21.12.2019
6061 Clouds 23 1015 94 10000 2.1 30 09:56 21.12.2019
6062 Clouds 23 1015 94 10000 2.1 30 09:56 21.12.2019
6063 Clouds 23 1015 94 10000 2.1 30 09:38 21.12.2019
6064 Clouds 23 1015 94 10000 2.1 30 09:19 21.12.2019
6065 Clouds 23 1015 94 10000 2.1 30 08:46 21.12.2019
6066 Clouds 23 1015 94 10000 2.1 30 08:26 21.12.2019
6067 Clouds 23 1016 94 10000 2.1 40 07:47 21.12.2019
6068 Clouds 23 1016 94 10000 2.1 40 07:23 21.12.2019
6069 Clouds 23 1016 94 10000 2.1 40 07:23 21.12.2019
6070 Clouds 24 1016 88 10000 2.1 10 06:46 21.12.2019
6071 Clouds 24 1016 88 10000 2.1 10 06:28 21.12.2019
6072 Clouds 24 1016 88 10000 2.1 40 05:55 21.12.2019
6073 Clouds 24 1017 94 10000 2.1 60 04:58 21.12.2019
6074 Clouds 24 1016 94 10000 2.1 90 03:59 21.12.2019
6075 Clouds 24 1016 94 10000 2.1 90 03:37 21.12.2019
6076 Clouds 26 1016 88 10000 2.6 60 02:19 21.12.2019
6077 Clouds 26 1015 83 10000 2.1 70 01:41 21.12.2019
6078 Clouds 26 1015 83 10000 2.1 70 01:22 21.12.2019
6079 Clouds 26 1015 94 10000 1.42 339 00:37 21.12.2019
6080 Clouds 26 1015 94 10000 1.42 339 00:18 21.12.2019
6081 Clouds 27 1014 83 10000 5.1 90 23:38 20.12.2019
6082 Clouds 27 1014 83 10000 5.1 90 23:19 20.12.2019
6083 Clouds 28 1014 74 10000 4.1 120 22:57 20.12.2019
6084 Clouds 28 1014 74 10000 4.1 120 22:36 20.12.2019
6085 Clouds 28 1014 74 10000 4.1 120 22:18 20.12.2019
6086 Clouds 29 1014 70 10000 5.1 160 21:40 20.12.2019
6087 Clouds 29 1014 70 10000 5.1 160 21:20 20.12.2019
6088 Clouds 29 1014 74 10000 5.1 90 20:56 20.12.2019
6089 Clouds 29 1014 74 10000 5.1 90 20:36 20.12.2019
6090 Clouds 29 1014 74 10000 5.1 90 20:18 20.12.2019
6091 Clouds 29 1015 74 10000 6.2 160 19:42 20.12.2019
6092 Clouds 29 1015 74 10000 6.2 160 19:20 20.12.2019
6093 Clouds 29 1016 79 10000 5.1 90 18:58 20.12.2019
6094 Clouds 29 1016 79 10000 5.1 90 18:39 20.12.2019
6095 Clouds 29 1016 79 10000 5.1 90 18:21 20.12.2019
6096 Clouds 28 1017 74 10000 4.1 30 17:54 20.12.2019
6097 Clouds 29 1017 74 10000 4.1 30 17:36 20.12.2019
6098 Clouds 28 1017 74 10000 4.1 30 17:18 20.12.2019
6099 Clouds 28 1017 74 10000 4.1 30 17:18 20.12.2019
6100 Clouds 27 1017 83 10000 4.1 30 16:40 20.12.2019
6101 Clouds 27 1017 83 10000 4.1 30 16:20 20.12.2019
6102 Clouds 26 1016 88 10000 3.1 30 15:57 20.12.2019
6103 Clouds 26 1016 88 10000 3.1 30 15:39 20.12.2019
6104 Clouds 26 1016 88 10000 3.1 30 15:20 20.12.2019
6105 Clouds 25 1016 83 10000 2.37 97 14:59 20.12.2019
6106 Clouds 25 1016 83 10000 2.37 97 14:40 20.12.2019
6107 Clouds 25 1016 83 10000 2.03 329 14:22 20.12.2019
6108 Clouds 24 1016 94 10000 2.1 40 13:55 20.12.2019
6109 Clouds 24 1016 94 10000 2.1 40 13:36 20.12.2019
6110 Clouds 23 1016 94 10000 2.1 40 13:18 20.12.2019
6111 Clouds 21 1015 100 10000 2.1 40 12:42 20.12.2019
6112 Clouds 21 1015 100 10000 2.1 40 12:20 20.12.2019
6113 Clouds 22 1015 94 10000 2.24 330 11:59 20.12.2019
6114 Clouds 22 1015 94 10000 2.24 330 11:40 20.12.2019
6115 Clouds 22 1015 94 10000 2.02 325 11:21 20.12.2019
6116 Clouds 22 1015 100 10000 3.1 100 10:59 20.12.2019
6117 Clouds 22 1015 100 10000 3.1 100 10:41 20.12.2019
6118 Clouds 22 1015 100 10000 3.1 100 10:21 20.12.2019
6119 Clouds 22 1014 100 10000 2.1 30 09:58 20.12.2019
6120 Clouds 23 1014 100 10000 2.1 30 09:40 20.12.2019
6121 Clouds 23 1014 100 10000 2.1 30 09:20 20.12.2019
6122 Clouds 23 1015 94 10000 2.1 20 08:44 20.12.2019
6123 Clouds 23 1015 94 10000 2.1 20 08:26 20.12.2019
6124 Clouds 23 1016 100 10000 2.1 30 07:59 20.12.2019
6125 Clouds 23 1016 100 10000 2.1 30 07:41 20.12.2019
6126 Clouds 23 1016 100 10000 2.1 30 07:19 20.12.2019
6127 Clouds 23 1016 100 10000 2.1 50 06:52 20.12.2019
6128 Clouds 23 1016 100 10000 2.1 50 06:33 20.12.2019
6129 Clouds 24 1016 94 10000 2.1 60 05:55 20.12.2019
6130 Clouds 24 1016 94 10000 2.1 60 05:36 20.12.2019
6131 Clouds 25 1016 94 10000 2.1 60 04:33 20.12.2019
6132 Clouds 25 1016 94 10000 2.1 60 03:30 20.12.2019
6133 Clouds 26 1015 88 10000 2.1 60 02:44 20.12.2019
6134 Clouds 27 1015 78 10000 2.1 110 01:52 20.12.2019
6135 Clouds 27 1015 78 10000 2.1 110 01:33 20.12.2019
6136 Clouds 26 1014 83 10000 0.65 28 00:44 20.12.2019
6137 Clouds 26 1014 83 10000 0.65 28 00:25 20.12.2019
6138 Clouds 27 1013 78 10000 2.6 180 23:54 19.12.2019
6139 Clouds 27 1013 78 10000 2.6 180 23:36 19.12.2019
6140 Clouds 27 1013 78 10000 2.6 180 23:18 19.12.2019
6141 Clouds 28 1013 74 10000 5.1 180 22:37 19.12.2019
6142 Clouds 28 1013 74 10000 5.1 180 22:19 19.12.2019
6143 Clouds 28 1013 74 10000 5.1 180 22:19 19.12.2019
6144 Clouds 29 1013 74 10000 5.1 180 21:55 19.12.2019
6145 Clouds 29 1013 74 10000 5.1 180 21:37 19.12.2019
6146 Clouds 29 1013 74 10000 5.1 180 21:18 19.12.2019
6147 Clouds 29 1014 70 10000 5.1 160 20:55 19.12.2019
6148 Clouds 29 1014 70 10000 5.1 160 20:36 19.12.2019
6149 Clouds 29 1014 70 10000 5.1 160 20:18 19.12.2019
6150 Clouds 30 1014 66 10000 4.1 160 19:56 19.12.2019
6151 Clouds 30 1014 66 10000 4.1 160 19:37 19.12.2019
6152 Clouds 29 1014 66 10000 4.1 160 19:19 19.12.2019
6153 Clouds 30 1015 66 10000 5.1 160 18:41 19.12.2019
6154 Clouds 30 1015 66 10000 5.1 160 18:22 19.12.2019
6155 Clouds 29 1016 74 10000 3.1 110 17:57 19.12.2019
6156 Clouds 29 1016 74 10000 3.1 110 17:39 19.12.2019
6157 Clouds 29 1016 74 10000 3.1 110 17:19 19.12.2019
6158 Clouds 29 1016 79 10000 3.1 90 16:57 19.12.2019
6159 Clouds 28 1016 79 10000 3.1 90 16:39 19.12.2019
6160 Clouds 28 1016 79 10000 3.1 90 16:21 19.12.2019
6161 Clouds 28 1015 83 10000 3.1 90 15:59 19.12.2019
6162 Clouds 28 1015 83 10000 3.1 90 15:39 19.12.2019
6163 Clouds 27 1015 83 10000 3.1 90 15:20 19.12.2019
6164 Clouds 25 1015 94 10000 2.6 40 14:59 19.12.2019
6165 Clouds 25 1015 94 10000 2.6 40 14:40 19.12.2019
6166 Clouds 25 1015 94 10000 2.6 40 14:19 19.12.2019
6167 Clouds 25 1015 100 10000 2.1 60 13:56 19.12.2019
6168 Clouds 24 1015 100 10000 2.1 60 13:37 19.12.2019
6169 Clouds 23 1015 100 10000 2.1 60 13:18 19.12.2019
6170 Clouds 22 1015 100 10000 2.1 60 12:54 19.12.2019
6171 Clouds 22 1015 100 10000 2.1 60 12:36 19.12.2019
6172 Clouds 22 1015 100 10000 2.1 60 12:18 19.12.2019
6173 Clouds 22 1014 100 10000 2.1 50 11:56 19.12.2019
6174 Clouds 22 1014 100 10000 2.1 50 11:38 19.12.2019
6175 Clouds 22 1014 100 10000 2.1 50 11:18 19.12.2019
6176 Clouds 22 1014 100 10000 2.1 60 10:39 19.12.2019
6177 Clouds 22 1014 100 10000 2.1 60 10:20 19.12.2019
6178 Clouds 23 1013 94 10000 2.1 60 09:59 19.12.2019
6179 Clouds 23 1013 94 10000 2.1 60 09:38 19.12.2019
6180 Clouds 23 1013 94 10000 2.1 60 09:20 19.12.2019
6181 Clouds 24 1014 94 10000 2.1 60 08:56 19.12.2019
6182 Clouds 24 1014 94 10000 2.1 60 08:37 19.12.2019
6183 Clouds 24 1014 94 10000 2.1 60 08:18 19.12.2019
6184 Clouds 23 1014 88 10000 2.1 50 07:55 19.12.2019
6185 Clouds 23 1014 88 10000 2.1 50 07:37 19.12.2019
6186 Clouds 23 1014 88 10000 2.1 50 07:19 19.12.2019
6187 Clouds 23 1014 94 10000 2.1 50 06:45 19.12.2019
6188 Clouds 23 1014 94 10000 2.1 50 06:26 19.12.2019
6189 Clouds 24 1015 94 10000 2.1 50 05:49 19.12.2019
6190 Clouds 24 1015 94 10000 2.1 50 05:28 19.12.2019
6191 Rain 24 1015 94 8000 2.1 50 04:41 19.12.2019
6192 Clouds 26 1015 83 10000 2.1 80 02:30 19.12.2019
6193 Clouds 26 1014 83 10000 2.1 120 01:43 19.12.2019
6194 Clouds 26 1014 83 10000 2.1 120 01:21 19.12.2019
6195 Clouds 26 1013 88 10000 0.86 299 00:39 19.12.2019
6196 Clouds 26 1013 88 10000 0.86 299 00:39 19.12.2019
6197 Clouds 27 1013 88 10000 0.86 299 00:19 19.12.2019
6198 Clouds 27 1013 83 10000 0.86 299 23:45 18.12.2019
6199 Clouds 27 1013 83 10000 1.7 147 23:19 18.12.2019
6200 Clouds 27 1013 83 10000 1.7 147 23:19 18.12.2019
6201 Clouds 27 1012 74 10000 4.1 130 22:58 18.12.2019
6202 Clouds 28 1012 74 10000 4.1 130 22:40 18.12.2019
6203 Clouds 28 1012 74 10000 4.1 130 22:22 18.12.2019
6204 Clouds 29 1013 66 10000 4.1 150 21:59 18.12.2019
6205 Clouds 29 1013 66 10000 4.1 150 21:41 18.12.2019
6206 Clouds 29 1013 66 10000 4.1 150 21:21 18.12.2019
6207 Clouds 29 1013 74 10000 6.2 160 20:57 18.12.2019
6208 Clouds 29 1013 74 10000 6.2 160 20:57 18.12.2019
6209 Clouds 29 1013 74 10000 6.2 160 20:39 18.12.2019
6210 Clouds 29 1013 74 10000 6.2 160 20:20 18.12.2019
6211 Clouds 29 1014 74 10000 5.1 120 19:57 18.12.2019
6212 Clouds 29 1014 74 10000 5.1 120 19:39 18.12.2019
6213 Clouds 29 1014 74 10000 5.1 120 19:19 18.12.2019
6214 Clouds 28 1015 78 10000 3.18 145 18:56 18.12.2019
6215 Clouds 28 1015 78 10000 3.18 145 18:37 18.12.2019
6216 Clouds 28 1015 78 10000 3.18 145 18:18 18.12.2019
6217 Clouds 28 1016 78 10000 5.1 130 17:55 18.12.2019
6218 Clouds 28 1016 78 10000 5.1 130 17:37 18.12.2019
6219 Clouds 28 1016 78 10000 5.1 130 17:37 18.12.2019
6220 Clouds 27 1016 78 10000 5.1 130 17:18 18.12.2019
6221 Rain 28 1016 83 8000 2.58 130 16:42 18.12.2019
6222 Rain 28 1016 83 8000 2.58 130 16:24 18.12.2019
6223 Rain 28 1016 83 8000 3.1 140 15:57 18.12.2019
6224 Rain 27 1016 83 8000 3.1 140 15:39 18.12.2019
6225 Rain 27 1016 83 8000 3.1 140 15:21 18.12.2019
6226 Clouds 26 1015 83 10000 2.6 360 14:56 18.12.2019
6227 Clouds 26 1015 83 10000 2.6 360 14:56 18.12.2019
6228 Clouds 26 1015 83 10000 2.6 360 14:38 18.12.2019
6229 Clouds 26 1015 83 10000 2.6 360 14:19 18.12.2019
6230 Clouds 25 1014 94 10000 0.8 342 13:55 18.12.2019
6231 Clouds 24 1014 94 10000 0.8 342 13:36 18.12.2019
6232 Clouds 24 1014 94 10000 0.84 332 13:18 18.12.2019
6233 Clouds 24 1014 94 10000 0.84 332 13:18 18.12.2019
6234 Clouds 24 1014 94 10000 0.84 332 13:18 18.12.2019
6235 Clouds 23 1013 94 10000 2.1 70 12:40 18.12.2019
6236 Clouds 23 1013 94 10000 2.1 70 12:21 18.12.2019
6237 Thunderstorm 23 1013 94 8000 2.1 90 11:57 18.12.2019
6238 Thunderstorm 23 1013 94 8000 2.1 90 11:39 18.12.2019
6239 Thunderstorm 23 1013 94 8000 2.1 90 11:20 18.12.2019
6240 Thunderstorm 23 1012 94 8000 0.91 345 10:58 18.12.2019
6241 Thunderstorm 23 1012 94 8000 0.91 345 10:39 18.12.2019
6242 Thunderstorm 23 1012 94 8000 0.91 345 10:39 18.12.2019
6243 Thunderstorm 23 1012 94 8000 0.91 345 10:20 18.12.2019
6244 Clouds 22 1012 100 8000 0.91 345 09:57 18.12.2019
6245 Clouds 22 1012 100 8000 0.91 345 09:20 18.12.2019
6246 Clouds 22 1013 100 0 2.1 60 08:43 18.12.2019
6247 Clouds 22 1013 100 0 2.1 60 08:24 18.12.2019
6248 Clouds 23 1013 94 10000 2.1 60 07:57 18.12.2019
6249 Clouds 23 1013 94 10000 2.1 60 07:39 18.12.2019
6250 Clouds 23 1013 94 10000 2.1 60 07:20 18.12.2019
6251 Clouds 23 1013 94 10000 3.1 60 06:52 18.12.2019
6252 Clouds 23 1013 94 10000 3.1 60 06:24 18.12.2019
6253 Rain 23 1014 90 0 0.89 338 05:35 18.12.2019
6254 Rain 23 1014 90 0 0.89 338 05:35 18.12.2019
6255 Clouds 24 1014 94 0 2.1 50 03:49 18.12.2019
6256 Clouds 24 1013 88 10000 2.1 60 02:46 18.12.2019
6257 Clouds 24 1013 88 10000 2.1 60 02:27 18.12.2019
6258 Clouds 25 1013 88 10000 2.1 50 01:44 18.12.2019
6259 Clouds 25 1013 88 10000 2.1 50 01:25 18.12.2019
6260 Rain 24 1013 94 8000 0.86 56 00:42 18.12.2019
6261 Rain 24 1013 94 8000 0.86 56 00:24 18.12.2019
6262 Clouds 26 1013 78 10000 5.1 150 23:59 17.12.2019
6263 Clouds 26 1013 78 10000 5.1 150 23:40 17.12.2019
6264 Clouds 27 1013 78 10000 5.1 150 23:21 17.12.2019
6265 Clouds 29 1012 70 10000 4.1 120 22:57 17.12.2019
6266 Clouds 29 1012 70 10000 4.1 120 22:57 17.12.2019
6267 Clouds 29 1012 70 10000 4.1 120 22:39 17.12.2019
6268 Clouds 29 1012 70 10000 4.1 120 22:19 17.12.2019
6269 Clouds 30 1012 66 10000 5.1 160 21:57 17.12.2019
6270 Clouds 30 1012 66 10000 5.1 160 21:38 17.12.2019
6271 Clouds 30 1012 66 10000 5.1 160 21:38 17.12.2019
6272 Clouds 30 1012 66 10000 5.1 160 21:20 17.12.2019
6273 Clouds 30 1012 70 10000 5.1 120 20:58 17.12.2019
6274 Clouds 30 1012 70 10000 5.1 120 20:39 17.12.2019
6275 Clouds 29 1012 66 10000 4.6 110 20:19 17.12.2019
6276 Clouds 29 1013 79 10000 2.6 60 19:56 17.12.2019
6277 Clouds 29 1013 79 10000 2.6 60 19:38 17.12.2019
6278 Clouds 29 1013 79 10000 2.6 60 19:19 17.12.2019
6279 Clouds 29 1014 83 10000 4.1 90 18:56 17.12.2019
6280 Clouds 29 1014 83 10000 4.1 90 18:37 17.12.2019
6281 Clouds 29 1014 83 10000 4.1 90 18:19 17.12.2019
6282 Clouds 29 1015 70 10000 4.1 60 17:42 17.12.2019
6283 Clouds 29 1015 70 10000 4.1 60 17:21 17.12.2019
6284 Clouds 29 1017 74 10000 3.6 60 16:57 17.12.2019
6285 Clouds 29 1017 74 10000 3.6 60 16:38 17.12.2019
6286 Clouds 28 1017 74 10000 3.6 60 16:19 17.12.2019
6287 Clouds 28 1016 74 10000 2.6 50 15:59 17.12.2019
6288 Clouds 28 1016 74 10000 2.6 50 15:38 17.12.2019
6289 Clouds 28 1016 74 10000 2.6 50 15:19 17.12.2019
6290 Clouds 26 1016 83 10000 4.1 360 14:56 17.12.2019
6291 Clouds 26 1016 83 10000 4.1 360 14:38 17.12.2019
6292 Clouds 26 1016 83 10000 4.1 360 14:18 17.12.2019
6293 Clouds 24 1015 94 10000 2.6 360 13:56 17.12.2019
6294 Clouds 24 1015 94 10000 2.6 360 13:38 17.12.2019
6295 Clouds 24 1015 94 10000 2.6 360 13:19 17.12.2019
6296 Clouds 23 1015 94 10000 2.1 360 12:56 17.12.2019
6297 Clouds 23 1015 94 10000 2.1 360 12:37 17.12.2019
6298 Clouds 23 1015 94 10000 2.1 360 12:18 17.12.2019
6299 Clouds 23 1014 94 10000 2.1 20 11:55 17.12.2019
6300 Clouds 23 1014 94 10000 2.1 20 11:36 17.12.2019
6301 Clouds 23 1014 94 10000 2.1 20 11:18 17.12.2019
6302 Clouds 23 1014 94 10000 2.1 20 11:18 17.12.2019
6303 Clouds 23 1014 88 10000 2.1 20 10:55 17.12.2019
6304 Clouds 23 1014 88 10000 2.1 20 10:36 17.12.2019
6305 Clouds 23 1014 88 10000 2.1 20 10:18 17.12.2019
6306 Clouds 23 1014 88 10000 2.1 360 09:42 17.12.2019
6307 Clouds 23 1014 88 10000 2.1 360 09:21 17.12.2019
6308 Clouds 23 1014 88 10000 2.1 360 08:58 17.12.2019
6309 Clouds 23 1014 88 10000 2.1 360 08:39 17.12.2019
6310 Clouds 23 1014 88 10000 2.1 360 08:21 17.12.2019
6311 Clouds 24 1016 88 10000 1.5 0 07:56 17.12.2019
6312 Clouds 24 1016 88 10000 1.5 0 07:38 17.12.2019
6313 Clouds 24 1016 88 10000 1.5 0 07:18 17.12.2019
6314 Clouds 24 1016 88 10000 1.5 0 06:35 17.12.2019
6315 Clouds 24 1016 88 10000 2.1 30 05:57 17.12.2019
6316 Clouds 24 1016 88 10000 2.1 30 05:38 17.12.2019
6317 Clouds 24 1016 88 10000 2.1 350 04:45 17.12.2019
6318 Clouds 24 1016 88 10000 2.1 20 02:47 17.12.2019
6319 Clouds 25 1015 83 10000 2.6 30 01:56 17.12.2019
6320 Clouds 25 1015 83 10000 2.6 30 01:20 17.12.2019
6321 Clouds 26 1015 83 10000 3.6 50 00:38 17.12.2019
6322 Clouds 26 1015 83 10000 3.6 50 00:20 17.12.2019
6323 Clouds 26 1016 83 10000 5.1 360 23:42 16.12.2019
6324 Clouds 26 1016 83 10000 5.1 360 23:42 16.12.2019
6325 Clouds 27 1016 83 10000 5.1 360 23:19 16.12.2019
6326 Clouds 27 1015 78 10000 5.1 360 22:58 16.12.2019
6327 Clouds 27 1015 78 10000 5.1 360 22:38 16.12.2019
6328 Clouds 28 1015 78 10000 5.1 360 22:19 16.12.2019
6329 Clouds 28 1015 70 10000 5.1 360 21:56 16.12.2019
6330 Clouds 28 1015 70 10000 5.1 360 21:38 16.12.2019
6331 Clouds 28 1015 70 10000 5.1 360 21:20 16.12.2019
6332 Clouds 28 1016 70 10000 3.1 10 20:57 16.12.2019
6333 Clouds 28 1016 70 10000 3.1 10 20:38 16.12.2019
6334 Clouds 28 1016 70 10000 3.1 10 20:38 16.12.2019
6335 Clouds 28 1016 70 10000 3.1 10 20:19 16.12.2019
6336 Clouds 29 1016 66 10000 5.1 10 19:56 16.12.2019
6337 Clouds 30 1016 66 10000 5.1 10 19:37 16.12.2019
6338 Clouds 31 1016 66 10000 5.1 10 19:19 16.12.2019
6339 Clouds 30 1017 62 10000 5.1 70 18:56 16.12.2019
6340 Clouds 30 1017 62 10000 5.1 70 18:56 16.12.2019
6341 Clouds 30 1017 62 10000 5.1 70 18:38 16.12.2019
6342 Clouds 30 1017 62 10000 5.1 70 18:19 16.12.2019
6343 Clouds 30 1018 66 10000 5.1 360 17:57 16.12.2019
6344 Clouds 29 1018 66 10000 5.1 360 17:38 16.12.2019
6345 Clouds 29 1018 66 10000 5.1 360 17:20 16.12.2019
6346 Clouds 29 1019 66 10000 4.1 70 16:56 16.12.2019
6347 Clouds 29 1019 66 10000 4.1 70 16:38 16.12.2019
6348 Clouds 27 1019 74 10000 4.1 350 16:19 16.12.2019
6349 Clouds 28 1019 74 10000 4.1 350 15:57 16.12.2019
6350 Clouds 27 1019 74 10000 4.1 350 15:38 16.12.2019
6351 Clouds 27 1019 74 10000 4.1 350 15:20 16.12.2019
6352 Clouds 25 1018 83 10000 2.1 360 14:55 16.12.2019
6353 Clouds 26 1018 83 10000 2.1 360 14:37 16.12.2019
6354 Clouds 26 1018 83 10000 2.1 360 14:37 16.12.2019
6355 Clouds 26 1018 83 10000 2.1 360 14:18 16.12.2019
6356 Clouds 24 1018 94 10000 2.99 347 13:56 16.12.2019
6357 Clouds 24 1018 94 10000 2.99 347 13:37 16.12.2019
6358 Clouds 24 1018 94 10000 2.72 345 13:19 16.12.2019
6359 Clouds 23 1016 100 10000 2.1 10 12:56 16.12.2019
6360 Clouds 23 1016 100 10000 2.1 10 12:38 16.12.2019
6361 Clouds 23 1016 100 10000 2.1 10 12:18 16.12.2019
6362 Clouds 23 1016 100 10000 2.1 350 11:57 16.12.2019
6363 Clouds 23 1016 100 10000 2.1 350 11:38 16.12.2019
6364 Clouds 23 1016 100 10000 2.1 350 11:19 16.12.2019
6365 Clouds 23 1016 100 10000 2.6 10 10:40 16.12.2019
6366 Clouds 23 1016 100 10000 2.6 10 10:22 16.12.2019
6367 Clouds 24 1016 93 10000 2.6 10 09:59 16.12.2019
6368 Clouds 24 1016 94 10000 2.6 10 09:41 16.12.2019
6369 Clouds 24 1016 93 10000 2.6 10 09:23 16.12.2019
6370 Clouds 24 1016 94 10000 2.6 20 08:40 16.12.2019
6371 Clouds 24 1016 94 10000 2.6 20 08:40 16.12.2019
6372 Clouds 24 1016 91 10000 2.6 20 08:20 16.12.2019
6373 Clouds 24 1017 100 10000 2.1 40 07:53 16.12.2019
6374 Clouds 24 1017 100 10000 2.1 40 07:31 16.12.2019
6375 Clouds 24 1017 100 10000 2.1 40 07:31 16.12.2019
6376 Clouds 24 1017 100 10000 2.1 10 06:57 16.12.2019
6377 Clouds 24 1017 100 10000 2.1 10 06:39 16.12.2019
6378 Clouds 24 1017 100 10000 2.1 10 06:18 16.12.2019
6379 Thunderstorm 23 1017 100 10000 2.1 20 05:41 16.12.2019
6380 Thunderstorm 23 1017 100 10000 2.1 20 05:22 16.12.2019
6381 Thunderstorm 24 1017 94 10000 2.1 30 03:28 16.12.2019
6382 Thunderstorm 24 1016 100 8000 3.1 40 01:46 16.12.2019
6383 Thunderstorm 24 1016 100 8000 3.1 40 01:21 16.12.2019
6384 Rain 24 1016 94 8000 2.28 339 00:39 16.12.2019
6385 Rain 24 1016 94 8000 2.28 339 00:19 16.12.2019
6386 Rain 25 1016 94 8000 2.1 60 23:44 15.12.2019
6387 Rain 25 1016 94 8000 2.1 60 23:25 15.12.2019
6388 Rain 26 1015 88 8000 2.1 270 22:57 15.12.2019
6389 Rain 26 1015 88 8000 2.1 270 22:38 15.12.2019
6390 Rain 26 1015 88 8000 2.1 270 22:38 15.12.2019
6391 Rain 26 1015 88 8000 2.1 270 22:19 15.12.2019
6392 Rain 26 1015 94 8000 1.02 14 21:58 15.12.2019
6393 Rain 26 1015 94 8000 1.02 14 21:39 15.12.2019
6394 Rain 26 1015 94 8000 1.02 14 21:20 15.12.2019
6395 Rain 26 1015 94 8000 1.02 14 20:58 15.12.2019
6396 Rain 26 1015 94 8000 1.02 14 20:40 15.12.2019
6397 Rain 26 1015 94 8000 1.3 322 20:21 15.12.2019
6398 Rain 26 1015 94 8000 2.06 293 20:21 15.12.2019
6399 Rain 26 1015 94 8000 2.06 293 20:21 15.12.2019
6400 Rain 26 1015 94 8000 2.06 293 19:58 15.12.2019
6401 Rain 25 1015 94 8000 2.06 293 19:40 15.12.2019
6402 Rain 25 1015 94 8000 2.06 293 19:20 15.12.2019
6403 Rain 25 1015 94 8000 2.06 293 19:20 15.12.2019
6404 Rain 25 1016 94 8000 3.1 90 18:58 15.12.2019
6405 Rain 25 1016 94 8000 3.1 90 18:39 15.12.2019
6406 Rain 25 1016 94 8000 3.1 90 18:19 15.12.2019
6407 Rain 24 1017 94 6000 3.1 180 17:56 15.12.2019
6408 Rain 24 1017 94 6000 3.1 180 17:38 15.12.2019
6409 Rain 24 1017 94 6000 3.1 180 17:19 15.12.2019
6410 Rain 24 1017 94 6000 3.1 160 16:57 15.12.2019
6411 Rain 24 1017 94 6000 3.1 160 16:39 15.12.2019
6412 Rain 24 1017 94 6000 3.1 160 16:20 15.12.2019
6413 Rain 24 1017 94 6000 2.01 311 15:55 15.12.2019
6414 Rain 24 1017 94 6000 2.71 297 15:37 15.12.2019
6415 Rain 24 1017 94 6000 2.01 311 15:18 15.12.2019
6416 Rain 24 1016 94 7000 2.71 297 14:55 15.12.2019
6417 Rain 24 1016 94 7000 2.71 297 14:36 15.12.2019
6418 Rain 24 1016 94 7000 0.87 339 14:18 15.12.2019
6419 Rain 24 1016 100 7000 2.1 40 13:55 15.12.2019
6420 Rain 24 1016 100 7000 2.1 40 13:37 15.12.2019
6421 Rain 24 1016 100 7000 2.1 40 13:18 15.12.2019
6422 Rain 23 1015 100 8000 1.11 328 12:56 15.12.2019
6423 Rain 23 1015 100 8000 1.11 328 12:38 15.12.2019
6424 Rain 23 1015 100 8000 1.11 328 12:20 15.12.2019
6425 Thunderstorm 23 1014 100 10000 1.11 328 11:39 15.12.2019
6426 Thunderstorm 23 1014 100 10000 2.07 335 11:20 15.12.2019
6427 Thunderstorm 23 1014 100 8000 2.07 335 10:58 15.12.2019
6428 Thunderstorm 23 1014 100 8000 2.07 335 10:40 15.12.2019
6429 Thunderstorm 23 1014 100 8000 2.07 335 10:20 15.12.2019
6430 Thunderstorm 23 1014 100 8000 2.6 60 09:59 15.12.2019
6431 Thunderstorm 23 1014 100 8000 2.6 60 09:38 15.12.2019
6432 Thunderstorm 23 1014 100 8000 2.6 60 09:20 15.12.2019
6433 Rain 24 1014 100 8000 2.07 335 08:55 15.12.2019
6434 Rain 24 1014 100 8000 2.07 335 08:37 15.12.2019
6435 Rain 24 1014 100 8000 2.07 339 08:19 15.12.2019
6436 Rain 24 1015 94 8000 2.1 330 07:53 15.12.2019
6437 Rain 24 1015 94 8000 2.1 330 07:31 15.12.2019
6438 Rain 24 1015 94 10000 2.1 40 06:30 15.12.2019
6439 Rain 24 1015 94 10000 2.1 60 05:49 15.12.2019
6440 Rain 24 1015 94 10000 2.1 60 05:22 15.12.2019
6441 Thunderstorm 24 1015 100 8000 2.1 70 04:22 15.12.2019
6442 Rain 25 1014 94 10000 2.1 40 02:55 15.12.2019
6443 Rain 25 1014 94 10000 2.1 40 02:32 15.12.2019
6444 Clouds 26 1013 88 10000 2.6 60 01:41 15.12.2019
6445 Clouds 26 1013 88 10000 2.6 60 01:19 15.12.2019
6446 Rain 26 1013 94 10000 1.39 335 00:51 15.12.2019
6447 Rain 26 1013 94 10000 1.39 335 00:32 15.12.2019
6448 Rain 26 1012 88 10000 1.39 335 23:54 14.12.2019
6449 Clouds 26 1012 88 10000 1.39 335 23:36 14.12.2019
6450 Clouds 27 1012 88 10000 1.6 122 23:18 14.12.2019
6451 Clouds 27 1012 83 10000 2.6 90 22:42 14.12.2019
6452 Clouds 27 1012 83 10000 2.6 90 22:42 14.12.2019
6453 Clouds 27 1012 83 10000 2.6 90 22:23 14.12.2019
6454 Clouds 28 1012 78 10000 3.1 110 21:58 14.12.2019
6455 Clouds 29 1012 78 10000 3.1 110 21:40 14.12.2019
6456 Clouds 29 1012 78 10000 3.1 110 21:20 14.12.2019
6457 Clouds 29 1012 79 10000 4.1 130 20:59 14.12.2019
6458 Clouds 29 1012 79 10000 4.1 130 20:41 14.12.2019
6459 Clouds 29 1012 79 10000 4.1 130 20:20 14.12.2019
6460 Clouds 29 1012 79 10000 4.1 160 19:59 14.12.2019
6461 Clouds 29 1012 79 10000 4.1 160 19:39 14.12.2019
6462 Clouds 29 1012 79 10000 4.1 160 19:39 14.12.2019
6463 Clouds 29 1012 79 10000 4.1 160 19:20 14.12.2019
6464 Rain 29 1013 83 8000 3.1 160 18:56 14.12.2019
6465 Rain 29 1013 83 8000 3.1 160 18:38 14.12.2019
6466 Rain 29 1013 83 8000 3.1 160 18:19 14.12.2019
6467 Clouds 29 1014 79 10000 3.1 90 17:44 14.12.2019
6468 Clouds 28 1014 79 10000 3.1 90 17:24 14.12.2019
6469 Clouds 29 1014 74 10000 2.6 90 16:59 14.12.2019
6470 Clouds 29 1014 74 10000 2.6 90 16:40 14.12.2019
6471 Clouds 29 1014 74 10000 2.6 90 16:19 14.12.2019
6472 Clouds 28 1014 83 10000 2.01 51 15:43 14.12.2019
6473 Clouds 27 1014 83 10000 2.01 51 15:25 14.12.2019
6474 Clouds 27 1014 83 10000 2.01 51 15:25 14.12.2019
6475 Clouds 25 1014 94 10000 2.01 51 14:59 14.12.2019
6476 Clouds 25 1014 94 10000 2.01 51 14:39 14.12.2019
6477 Clouds 24 1014 94 10000 2.19 339 14:20 14.12.2019
6478 Clouds 23 1013 100 10000 2.1 40 13:58 14.12.2019
6479 Clouds 23 1013 100 10000 2.1 40 13:39 14.12.2019
6480 Clouds 22 1013 100 10000 2.1 40 13:19 14.12.2019
6481 Clouds 22 1013 100 10000 2.1 40 13:19 14.12.2019
6482 Clouds 22 1013 100 10000 2.1 40 12:56 14.12.2019
6483 Clouds 22 1013 100 10000 2.1 40 12:37 14.12.2019
6484 Clouds 22 1013 100 10000 2.1 40 12:19 14.12.2019
6485 Clouds 22 1013 100 10000 2.1 20 11:56 14.12.2019
6486 Clouds 22 1013 100 10000 2.1 20 11:37 14.12.2019
6487 Clouds 22 1013 100 10000 2.1 20 11:18 14.12.2019
6488 Clouds 22 1012 100 10000 2.1 10 10:55 14.12.2019
6489 Clouds 22 1012 100 10000 2.1 10 10:55 14.12.2019
6490 Clouds 22 1012 100 10000 2.1 10 10:37 14.12.2019
6491 Clouds 22 1012 100 10000 2.1 10 10:19 14.12.2019
6492 Clouds 23 1012 94 10000 2.1 360 09:41 14.12.2019
6493 Clouds 23 1012 94 10000 2.1 360 09:21 14.12.2019
6494 Clouds 23 1013 100 10000 3.1 350 08:45 14.12.2019
6495 Clouds 23 1013 100 10000 3.1 350 08:21 14.12.2019
6496 Clouds 23 1013 100 10000 2.1 30 07:58 14.12.2019
6497 Clouds 23 1013 100 10000 2.1 30 07:38 14.12.2019
6498 Clouds 23 1013 100 10000 2.1 30 07:19 14.12.2019
6499 Clouds 24 1014 94 10000 2.1 20 06:41 14.12.2019
6500 Clouds 24 1014 94 10000 2.1 20 06:22 14.12.2019
6501 Clouds 24 1014 94 10000 2.1 30 05:25 14.12.2019
6502 Clouds 25 1013 83 10000 2.1 30 02:51 14.12.2019
6503 Clouds 25 1013 83 10000 2.1 30 02:23 14.12.2019
6504 Clouds 25 1013 78 10000 2.1 70 01:43 14.12.2019
6505 Clouds 25 1013 94 10000 2.52 348 00:55 14.12.2019
6506 Clouds 25 1013 94 10000 2.52 348 00:37 14.12.2019
6507 Clouds 25 1013 94 10000 2.52 348 00:18 14.12.2019
6508 Rain 26 1013 94 8000 2.52 348 23:41 13.12.2019
6509 Rain 26 1013 94 8000 2.98 38 23:19 13.12.2019
6510 Rain 24 1012 90 0 2.98 38 22:55 13.12.2019
6511 Rain 24 1012 90 0 2.98 38 22:37 13.12.2019
6512 Clouds 26 1011 78 10000 2.6 90 22:18 13.12.2019
6513 Clouds 27 1011 78 10000 2.6 90 21:42 13.12.2019
6514 Clouds 28 1011 78 10000 2.6 90 21:21 13.12.2019
6515 Rain 29 1012 70 8000 4.1 90 20:57 13.12.2019
6516 Rain 29 1012 70 8000 4.1 90 20:39 13.12.2019
6517 Rain 29 1013 66 8000 7.7 120 20:19 13.12.2019
6518 Rain 29 1013 66 8000 7.7 120 19:56 13.12.2019
6519 Rain 29 1013 66 8000 7.7 120 19:56 13.12.2019
6520 Rain 29 1013 66 8000 7.7 120 19:37 13.12.2019
6521 Rain 29 1013 66 8000 7.7 120 19:18 13.12.2019
6522 Clouds 28 1014 66 10000 6.2 360 18:42 13.12.2019
6523 Clouds 29 1014 66 10000 6.2 360 18:19 13.12.2019
6524 Clouds 30 1015 66 10000 6.7 30 17:58 13.12.2019
6525 Clouds 29 1015 66 10000 6.7 30 17:39 13.12.2019
6526 Clouds 29 1015 66 10000 6.7 30 17:18 13.12.2019
6527 Clouds 29 1015 66 10000 6.7 30 17:18 13.12.2019
6528 Clouds 29 1015 74 10000 5.1 360 16:55 13.12.2019
6529 Clouds 29 1015 74 10000 5.1 360 16:37 13.12.2019
6530 Clouds 29 1015 74 10000 5.1 360 16:18 13.12.2019
6531 Clouds 28 1017 78 10000 5.1 360 15:41 13.12.2019
6532 Clouds 27 1017 78 10000 5.1 360 15:21 13.12.2019
6533 Clouds 26 1017 83 10000 4.1 360 14:56 13.12.2019
6534 Clouds 25 1017 83 10000 4.1 360 14:36 13.12.2019
6535 Clouds 25 1017 83 10000 4.1 360 14:18 13.12.2019
6536 Clouds 23 1015 88 10000 2.6 360 13:43 13.12.2019
6537 Clouds 23 1015 88 10000 2.6 360 13:23 13.12.2019
6538 Clouds 22 1014 100 10000 2.1 30 12:54 13.12.2019
6539 Clouds 22 1014 100 10000 2.1 30 12:36 13.12.2019
6540 Clouds 22 1014 100 10000 2.1 30 12:18 13.12.2019
6541 Clouds 22 1014 100 10000 2.1 30 12:18 13.12.2019
6542 Clouds 22 1014 100 10000 2.1 10 11:42 13.12.2019
6543 Clouds 22 1014 100 10000 2.1 10 11:24 13.12.2019
6544 Clouds 22 1013 100 10000 2.1 10 10:56 13.12.2019
6545 Clouds 22 1013 100 10000 2.1 10 10:38 13.12.2019
6546 Clouds 22 1013 100 10000 2.1 10 10:19 13.12.2019
6547 Clouds 22 1013 94 10000 2.1 10 09:41 13.12.2019
6548 Clouds 22 1013 94 10000 2.1 10 09:20 13.12.2019
6549 Clouds 22 1013 94 10000 2.1 330 08:44 13.12.2019
6550 Clouds 22 1013 94 10000 2.1 330 08:26 13.12.2019
6551 Clouds 22 1014 100 10000 2.1 360 07:48 13.12.2019
6552 Clouds 22 1014 100 10000 2.1 360 07:24 13.12.2019
6553 Clouds 23 1014 100 10000 2.1 40 06:55 13.12.2019
6554 Clouds 23 1014 100 10000 2.1 40 06:29 13.12.2019
6555 Clouds 23 1014 94 10000 3.1 20 05:51 13.12.2019
6556 Clouds 23 1014 94 10000 3.1 20 05:30 13.12.2019
6557 Clouds 23 1014 94 10000 3.1 20 04:48 13.12.2019
6558 Clouds 23 1014 94 10000 3.1 20 03:49 13.12.2019
6559 Clouds 25 1014 94 10000 3.1 360 02:35 13.12.2019
6560 Clouds 25 1014 88 10000 3.1 20 01:50 13.12.2019
6561 Clouds 25 1014 88 10000 3.1 20 01:21 13.12.2019
6562 Clouds 26 1014 88 10000 4.22 349 00:46 13.12.2019
6563 Clouds 26 1014 88 10000 4.22 349 00:24 13.12.2019
6564 Clouds 27 1013 78 10000 3.1 60 23:41 12.12.2019
6565 Clouds 27 1013 78 10000 3.1 60 23:22 12.12.2019
6566 Clouds 27 1013 83 10000 4.54 5 22:56 12.12.2019
6567 Clouds 27 1013 83 10000 4.54 5 22:38 12.12.2019
6568 Clouds 27 1013 83 10000 4.54 5 22:19 12.12.2019
6569 Clouds 27 1013 94 10000 2.6 360 21:55 12.12.2019
6570 Clouds 27 1013 94 10000 2.6 360 21:55 12.12.2019
6571 Clouds 27 1013 94 10000 2.6 360 21:55 12.12.2019
6572 Clouds 27 1013 94 10000 2.6 360 21:37 12.12.2019
6573 Clouds 27 1013 94 10000 2.6 360 21:19 12.12.2019
6574 Clouds 28 1013 74 10000 4.1 30 20:56 12.12.2019
6575 Clouds 28 1013 74 10000 4.1 30 20:38 12.12.2019
6576 Clouds 28 1013 74 10000 4.1 30 20:20 12.12.2019
6577 Clouds 28 1014 78 10000 5.1 30 19:43 12.12.2019
6578 Clouds 28 1014 78 10000 5.1 30 19:43 12.12.2019
6579 Clouds 27 1014 78 10000 5.1 30 19:23 12.12.2019
6580 Clouds 27 1014 74 10000 6.2 30 18:58 12.12.2019
6581 Clouds 28 1014 74 10000 6.2 30 18:40 12.12.2019
6582 Clouds 28 1014 74 10000 6.2 30 18:21 12.12.2019
6583 Clouds 28 1014 74 10000 6.2 30 18:21 12.12.2019
6584 Clouds 28 1016 83 10000 5.1 360 17:59 12.12.2019
6585 Clouds 28 1016 83 10000 5.1 360 17:40 12.12.2019
6586 Clouds 28 1016 83 10000 5.1 360 17:21 12.12.2019
6587 Clouds 28 1017 70 10000 6.2 360 16:58 12.12.2019
6588 Clouds 28 1017 70 10000 6.2 360 16:40 12.12.2019
6589 Clouds 28 1017 70 10000 6.2 360 16:21 12.12.2019
6590 Clouds 28 1017 70 10000 6.2 360 16:21 12.12.2019
6591 Clouds 28 1017 70 10000 5.1 360 15:57 12.12.2019
6592 Clouds 28 1017 70 10000 5.1 360 15:39 12.12.2019
6593 Clouds 27 1017 70 10000 5.1 360 15:18 12.12.2019
6594 Clouds 26 1017 78 10000 3.6 360 14:38 12.12.2019
6595 Clouds 26 1017 78 10000 3.6 360 14:38 12.12.2019
6596 Clouds 26 1017 78 10000 3.6 360 14:20 12.12.2019
6597 Clouds 24 1016 88 10000 2.6 360 13:58 12.12.2019
6598 Clouds 24 1016 88 10000 2.6 360 13:40 12.12.2019
6599 Clouds 24 1016 88 10000 2.6 360 13:22 12.12.2019
6600 Clouds 24 1015 94 10000 2.6 350 12:59 12.12.2019
6601 Clouds 23 1015 94 10000 2.6 350 12:40 12.12.2019
6602 Clouds 24 1015 94 10000 2.6 350 12:22 12.12.2019
6603 Clouds 24 1015 88 10000 2.1 350 11:57 12.12.2019
6604 Clouds 24 1015 88 10000 2.1 350 11:38 12.12.2019
6605 Clouds 24 1015 88 10000 2.1 350 11:20 12.12.2019
6606 Clouds 24 1014 88 10000 2.1 350 10:56 12.12.2019
6607 Clouds 24 1014 88 10000 2.1 350 10:38 12.12.2019
6608 Clouds 24 1014 88 10000 2.1 350 10:20 12.12.2019
6609 Clouds 24 1014 94 10000 2.6 350 09:55 12.12.2019
6610 Clouds 23 1014 94 10000 2.6 350 09:37 12.12.2019
6611 Clouds 23 1014 94 10000 2.6 350 09:18 12.12.2019
6612 Clouds 23 1015 94 10000 2.1 360 08:43 12.12.2019
6613 Clouds 23 1015 94 10000 2.1 360 08:43 12.12.2019
6614 Clouds 23 1015 94 10000 2.1 360 08:25 12.12.2019
6615 Clouds 23 1015 94 10000 2.1 360 08:25 12.12.2019
6616 Clouds 24 1015 94 10000 2.6 360 07:49 12.12.2019
6617 Clouds 24 1015 94 10000 2.6 360 07:49 12.12.2019
6618 Clouds 24 1016 88 10000 2.6 350 07:27 12.12.2019
6619 Clouds 24 1016 88 10000 2.6 350 06:55 12.12.2019
6620 Clouds 24 1016 88 10000 2.6 350 06:35 12.12.2019
6621 Clouds 24 1016 88 10000 2.1 360 05:42 12.12.2019
6622 Clouds 24 1017 88 10000 2.6 10 04:54 12.12.2019
6623 Clouds 24 1017 88 10000 2.1 10 03:50 12.12.2019
6624 Clouds 25 1016 83 10000 1.5 360 02:40 12.12.2019
6625 Clouds 25 1016 83 10000 1.5 360 02:21 12.12.2019
6626 Clouds 25 1016 83 10000 3.1 30 01:46 12.12.2019
6627 Clouds 26 1016 83 10000 3.1 30 01:28 12.12.2019
6628 Clouds 26 1015 83 10000 4.23 353 00:47 12.12.2019
6629 Clouds 26 1015 83 10000 4.23 353 00:20 12.12.2019
6630 Clouds 27 1015 83 10000 4.1 360 23:45 11.12.2019
6631 Clouds 27 1015 83 10000 4.1 360 23:21 11.12.2019
6632 Clouds 28 1016 78 10000 4.1 360 22:58 11.12.2019
6633 Clouds 28 1016 78 10000 4.1 360 22:39 11.12.2019
6634 Clouds 28 1016 78 10000 4.1 360 22:20 11.12.2019
6635 Rain 28 1016 83 8000 5.1 360 21:59 11.12.2019
6636 -273 0 0 0 0 0 21:39 11.12.2019
6637 Rain 28 1016 83 8000 5.1 360 21:20 11.12.2019
6638 Rain 27 1016 83 8000 2.1 30 20:56 11.12.2019
6639 Rain 27 1016 83 8000 2.1 30 20:56 11.12.2019
6640 Rain 27 1016 83 8000 2.1 30 20:38 11.12.2019
6641 Rain 27 1016 83 8000 2.1 30 20:19 11.12.2019
6642 Clouds 29 1017 62 10000 3.1 360 19:58 11.12.2019
6643 Clouds 29 1017 62 10000 3.1 360 19:39 11.12.2019
6644 Clouds 29 1017 62 10000 3.1 360 19:19 11.12.2019
6645 Clouds 28 1018 70 10000 5.1 20 18:42 11.12.2019
6646 Clouds 28 1018 70 10000 5.1 20 18:22 11.12.2019
6647 Clouds 28 1018 66 10000 4.1 360 17:57 11.12.2019
6648 Clouds 28 1018 66 10000 4.1 360 17:39 11.12.2019
6649 Clouds 28 1018 66 10000 4.1 360 17:19 11.12.2019
6650 Clouds 28 1019 66 10000 5.1 360 16:58 11.12.2019
6651 Clouds 28 1019 66 10000 5.1 360 16:40 11.12.2019
6652 Clouds 28 1019 66 10000 5.1 360 16:22 11.12.2019
6653 Clouds 27 1019 74 10000 4.1 350 15:59 11.12.2019
6654 Clouds 27 1019 74 10000 4.1 350 15:41 11.12.2019
6655 Clouds 27 1019 74 10000 4.1 350 15:23 11.12.2019
6656 Clouds 26 1018 78 10000 4.1 360 14:56 11.12.2019
6657 Clouds 26 1018 78 10000 4.1 360 14:38 11.12.2019
6658 Clouds 25 1018 78 10000 4.1 360 14:20 11.12.2019
6659 Clouds 24 1018 88 10000 4.09 349 13:55 11.12.2019
6660 Clouds 24 1018 88 10000 4.09 349 13:37 11.12.2019
6661 Clouds 24 1018 88 10000 4.06 350 13:18 11.12.2019
6662 Clouds 24 1017 100 10000 2.6 360 12:55 11.12.2019
6663 Clouds 24 1017 100 10000 2.6 360 12:37 11.12.2019
6664 Clouds 24 1017 100 10000 2.6 360 12:18 11.12.2019
6665 Clouds 24 1017 100 10000 2.6 360<